<?xml version="1.0" encoding="UTF-8" standalone="no" ?>
<gpx xmlns="http://www.topografix.com/GPX/1/1" xmlns:xsi="http://www.w3.org/2001/XMLSchema-instance" xsi:schemaLocation="http://www.topografix.com/GPX/1/1 http://www.topografix.com/GPX/1/1/gpx.xsd" version="1.1" creator="VisuGPX - https://www.visugpx.com">
  <metadata>
    <name>La Ciotat Route des Crêtes</name>
    <desc><![CDATA[Au départ de la Cadière d%u2019Azur, on descend en direction de Saint Cyr sur Mer par des chemins de traverse. On aborde la Ciotat par le quartier Saint Jean et son petit port. Après avoir longé le front de mer et les plages on attaque l%u2019ascension de la route des crêtes qui vous offrira  des points de vue époustouflants. Le retour sur la Ciotat se fera sur un chemin forestier serpentant dans la garrigue. On longera ensuite la plage des Lecques, La Madrague pour rejoindre la Cadière d%u2019Azur par la route de Saint Come. Réalisé en vélo assistance électrique Var Ouest E-Bike]]></desc>
  </metadata>
  <trk>
    <name><![CDATA[La Ciotat Route des Crêtes E-Bike]]></name>
    <trkseg>
      <trkpt lat="43.19587" lon="5.75786">
        <ele>133.39999389648</ele>
        <time>2016-05-08T07:41:23.000Z</time>
      </trkpt>
      <trkpt lat="43.19584" lon="5.75778">
        <ele>133.39999389648</ele>
        <time>2016-05-08T07:41:31.000Z</time>
      </trkpt>
      <trkpt lat="43.1958" lon="5.75773">
        <ele>133</ele>
        <time>2016-05-08T07:41:34.000Z</time>
      </trkpt>
      <trkpt lat="43.19578" lon="5.75772">
        <ele>132.80000305176</ele>
        <time>2016-05-08T07:41:35.000Z</time>
      </trkpt>
      <trkpt lat="43.19561" lon="5.75769">
        <ele>129.80000305176</ele>
        <time>2016-05-08T07:41:41.000Z</time>
      </trkpt>
      <trkpt lat="43.19557" lon="5.75769">
        <ele>129.39999389648</ele>
        <time>2016-05-08T07:41:42.000Z</time>
      </trkpt>
      <trkpt lat="43.19549" lon="5.75771">
        <ele>128.39999389648</ele>
        <time>2016-05-08T07:41:45.000Z</time>
      </trkpt>
      <trkpt lat="43.19545" lon="5.75773">
        <ele>128</ele>
        <time>2016-05-08T07:41:47.000Z</time>
      </trkpt>
      <trkpt lat="43.19543" lon="5.75775">
        <ele>127.80000305176</ele>
        <time>2016-05-08T07:41:48.000Z</time>
      </trkpt>
      <trkpt lat="43.1954" lon="5.75784">
        <ele>127.19999694824</ele>
        <time>2016-05-08T07:41:51.000Z</time>
      </trkpt>
      <trkpt lat="43.19539" lon="5.75787">
        <ele>127.19999694824</ele>
        <time>2016-05-08T07:41:52.000Z</time>
      </trkpt>
      <trkpt lat="43.19533" lon="5.75807">
        <ele>126.19999694824</ele>
        <time>2016-05-08T07:41:56.000Z</time>
      </trkpt>
      <trkpt lat="43.1953" lon="5.75812">
        <ele>125.59999847412</ele>
        <time>2016-05-08T07:41:57.000Z</time>
      </trkpt>
      <trkpt lat="43.19516" lon="5.75828">
        <ele>123</ele>
        <time>2016-05-08T07:42:00.000Z</time>
      </trkpt>
      <trkpt lat="43.19506" lon="5.75838">
        <ele>121.19999694824</ele>
        <time>2016-05-08T07:42:02.000Z</time>
      </trkpt>
      <trkpt lat="43.19497" lon="5.75846">
        <ele>119.19999694824</ele>
        <time>2016-05-08T07:42:04.000Z</time>
      </trkpt>
      <trkpt lat="43.19489" lon="5.75857">
        <ele>117.40000152588</ele>
        <time>2016-05-08T07:42:06.000Z</time>
      </trkpt>
      <trkpt lat="43.19485" lon="5.75863">
        <ele>116.40000152588</ele>
        <time>2016-05-08T07:42:07.000Z</time>
      </trkpt>
      <trkpt lat="43.1948" lon="5.75865">
        <ele>115.19999694824</ele>
        <time>2016-05-08T07:42:08.000Z</time>
      </trkpt>
      <trkpt lat="43.19468" lon="5.75865">
        <ele>113.19999694824</ele>
        <time>2016-05-08T07:42:10.000Z</time>
      </trkpt>
      <trkpt lat="43.19463" lon="5.75864">
        <ele>112.19999694824</ele>
        <time>2016-05-08T07:42:11.000Z</time>
      </trkpt>
      <trkpt lat="43.19459" lon="5.75863">
        <ele>111.59999847412</ele>
        <time>2016-05-08T07:42:12.000Z</time>
      </trkpt>
      <trkpt lat="43.19457" lon="5.7586">
        <ele>111.40000152588</ele>
        <time>2016-05-08T07:42:13.000Z</time>
      </trkpt>
      <trkpt lat="43.19456" lon="5.75856">
        <ele>111.59999847412</ele>
        <time>2016-05-08T07:42:14.000Z</time>
      </trkpt>
      <trkpt lat="43.19457" lon="5.75847">
        <ele>112.59999847412</ele>
        <time>2016-05-08T07:42:16.000Z</time>
      </trkpt>
      <trkpt lat="43.19457" lon="5.75842">
        <ele>113.19999694824</ele>
        <time>2016-05-08T07:42:17.000Z</time>
      </trkpt>
      <trkpt lat="43.19459" lon="5.7583">
        <ele>114.19999694824</ele>
        <time>2016-05-08T07:42:19.000Z</time>
      </trkpt>
      <trkpt lat="43.19467" lon="5.75775">
        <ele>117.40000152588</ele>
        <time>2016-05-08T07:42:27.000Z</time>
      </trkpt>
      <trkpt lat="43.19472" lon="5.7575">
        <ele>118.40000152588</ele>
        <time>2016-05-08T07:42:30.000Z</time>
      </trkpt>
      <trkpt lat="43.19479" lon="5.75722">
        <ele>120</ele>
        <time>2016-05-08T07:42:34.000Z</time>
      </trkpt>
      <trkpt lat="43.19482" lon="5.7571">
        <ele>120.80000305176</ele>
        <time>2016-05-08T07:42:36.000Z</time>
      </trkpt>
      <trkpt lat="43.19484" lon="5.75692">
        <ele>121.59999847412</ele>
        <time>2016-05-08T07:42:39.000Z</time>
      </trkpt>
      <trkpt lat="43.19484" lon="5.75682">
        <ele>121.80000305176</ele>
        <time>2016-05-08T07:42:41.000Z</time>
      </trkpt>
      <trkpt lat="43.19482" lon="5.75673">
        <ele>122</ele>
        <time>2016-05-08T07:42:43.000Z</time>
      </trkpt>
      <trkpt lat="43.19479" lon="5.75657">
        <ele>121.80000305176</ele>
        <time>2016-05-08T07:42:47.000Z</time>
      </trkpt>
      <trkpt lat="43.19479" lon="5.75651">
        <ele>122</ele>
        <time>2016-05-08T07:42:48.000Z</time>
      </trkpt>
      <trkpt lat="43.19478" lon="5.75643">
        <ele>122</ele>
        <time>2016-05-08T07:42:49.000Z</time>
      </trkpt>
      <trkpt lat="43.19482" lon="5.75619">
        <ele>123.19999694824</ele>
        <time>2016-05-08T07:42:52.000Z</time>
      </trkpt>
      <trkpt lat="43.19484" lon="5.75611">
        <ele>123.59999847412</ele>
        <time>2016-05-08T07:42:53.000Z</time>
      </trkpt>
      <trkpt lat="43.19491" lon="5.75592">
        <ele>125</ele>
        <time>2016-05-08T07:42:56.000Z</time>
      </trkpt>
      <trkpt lat="43.19493" lon="5.75586">
        <ele>125.59999847412</ele>
        <time>2016-05-08T07:42:57.000Z</time>
      </trkpt>
      <trkpt lat="43.19501" lon="5.75568">
        <ele>127.19999694824</ele>
        <time>2016-05-08T07:43:00.000Z</time>
      </trkpt>
      <trkpt lat="43.19505" lon="5.75557">
        <ele>128</ele>
        <time>2016-05-08T07:43:02.000Z</time>
      </trkpt>
      <trkpt lat="43.19508" lon="5.75545">
        <ele>128.60000610352</ele>
        <time>2016-05-08T07:43:04.000Z</time>
      </trkpt>
      <trkpt lat="43.19512" lon="5.75522">
        <ele>129.39999389648</ele>
        <time>2016-05-08T07:43:08.000Z</time>
      </trkpt>
      <trkpt lat="43.19516" lon="5.75491">
        <ele>130.80000305176</ele>
        <time>2016-05-08T07:43:13.000Z</time>
      </trkpt>
      <trkpt lat="43.19517" lon="5.75484">
        <ele>131</ele>
        <time>2016-05-08T07:43:14.000Z</time>
      </trkpt>
      <trkpt lat="43.19521" lon="5.75459">
        <ele>132.39999389648</ele>
        <time>2016-05-08T07:43:18.000Z</time>
      </trkpt>
      <trkpt lat="43.19524" lon="5.75427">
        <ele>134.60000610352</ele>
        <time>2016-05-08T07:43:23.000Z</time>
      </trkpt>
      <trkpt lat="43.19525" lon="5.75421">
        <ele>135</ele>
        <time>2016-05-08T07:43:24.000Z</time>
      </trkpt>
      <trkpt lat="43.19528" lon="5.75396">
        <ele>136.80000305176</ele>
        <time>2016-05-08T07:43:28.000Z</time>
      </trkpt>
      <trkpt lat="43.19531" lon="5.75366">
        <ele>137.39999389648</ele>
        <time>2016-05-08T07:43:33.000Z</time>
      </trkpt>
      <trkpt lat="43.19534" lon="5.75337">
        <ele>137.80000305176</ele>
        <time>2016-05-08T07:43:38.000Z</time>
      </trkpt>
      <trkpt lat="43.19536" lon="5.75325">
        <ele>138</ele>
        <time>2016-05-08T07:43:40.000Z</time>
      </trkpt>
      <trkpt lat="43.19536" lon="5.7532">
        <ele>138.19999694824</ele>
        <time>2016-05-08T07:43:41.000Z</time>
      </trkpt>
      <trkpt lat="43.19538" lon="5.7531">
        <ele>139</ele>
        <time>2016-05-08T07:43:43.000Z</time>
      </trkpt>
      <trkpt lat="43.19543" lon="5.75283">
        <ele>139.60000610352</ele>
        <time>2016-05-08T07:43:48.000Z</time>
      </trkpt>
      <trkpt lat="43.19545" lon="5.75273">
        <ele>139.80000305176</ele>
        <time>2016-05-08T07:43:50.000Z</time>
      </trkpt>
      <trkpt lat="43.19547" lon="5.75264">
        <ele>140</ele>
        <time>2016-05-08T07:43:52.000Z</time>
      </trkpt>
      <trkpt lat="43.19549" lon="5.75248">
        <ele>140.60000610352</ele>
        <time>2016-05-08T07:43:56.000Z</time>
      </trkpt>
      <trkpt lat="43.1955" lon="5.75244">
        <ele>141</ele>
        <time>2016-05-08T07:43:57.000Z</time>
      </trkpt>
      <trkpt lat="43.19553" lon="5.75228">
        <ele>142</ele>
        <time>2016-05-08T07:44:00.000Z</time>
      </trkpt>
      <trkpt lat="43.19556" lon="5.75223">
        <ele>142.60000610352</ele>
        <time>2016-05-08T07:44:01.000Z</time>
      </trkpt>
      <trkpt lat="43.19559" lon="5.75219">
        <ele>143.60000610352</ele>
        <time>2016-05-08T07:44:02.000Z</time>
      </trkpt>
      <trkpt lat="43.19564" lon="5.75213">
        <ele>145</ele>
        <time>2016-05-08T07:44:04.000Z</time>
      </trkpt>
      <trkpt lat="43.19565" lon="5.75208">
        <ele>145.19999694824</ele>
        <time>2016-05-08T07:44:05.000Z</time>
      </trkpt>
      <trkpt lat="43.19565" lon="5.75204">
        <ele>145.19999694824</ele>
        <time>2016-05-08T07:44:06.000Z</time>
      </trkpt>
      <trkpt lat="43.19563" lon="5.75199">
        <ele>144.80000305176</ele>
        <time>2016-05-08T07:44:08.000Z</time>
      </trkpt>
      <trkpt lat="43.19562" lon="5.75198">
        <ele>144.60000610352</ele>
        <time>2016-05-08T07:44:09.000Z</time>
      </trkpt>
      <trkpt lat="43.19561" lon="5.75197">
        <ele>144.39999389648</ele>
        <time>2016-05-08T07:44:10.000Z</time>
      </trkpt>
      <trkpt lat="43.1956" lon="5.75196">
        <ele>144</ele>
        <time>2016-05-08T07:44:11.000Z</time>
      </trkpt>
      <trkpt lat="43.19555" lon="5.75197">
        <ele>142.80000305176</ele>
        <time>2016-05-08T07:44:14.000Z</time>
      </trkpt>
      <trkpt lat="43.19554" lon="5.75199">
        <ele>142.39999389648</ele>
        <time>2016-05-08T07:44:16.000Z</time>
      </trkpt>
      <trkpt lat="43.19552" lon="5.75204">
        <ele>142</ele>
        <time>2016-05-08T07:44:18.000Z</time>
      </trkpt>
      <trkpt lat="43.19551" lon="5.7524">
        <ele>141.19999694824</ele>
        <time>2016-05-08T07:44:21.000Z</time>
      </trkpt>
      <trkpt lat="43.19554" lon="5.75263">
        <ele>141.60000610352</ele>
        <time>2016-05-08T07:44:23.000Z</time>
      </trkpt>
      <trkpt lat="43.19555" lon="5.75273">
        <ele>142.19999694824</ele>
        <time>2016-05-08T07:44:24.000Z</time>
      </trkpt>
      <trkpt lat="43.19557" lon="5.75296">
        <ele>143.19999694824</ele>
        <time>2016-05-08T07:44:27.000Z</time>
      </trkpt>
      <trkpt lat="43.19558" lon="5.75304">
        <ele>143.60000610352</ele>
        <time>2016-05-08T07:44:28.000Z</time>
      </trkpt>
      <trkpt lat="43.19561" lon="5.75313">
        <ele>144</ele>
        <time>2016-05-08T07:44:29.000Z</time>
      </trkpt>
      <trkpt lat="43.1957" lon="5.75341">
        <ele>145.60000610352</ele>
        <time>2016-05-08T07:44:32.000Z</time>
      </trkpt>
      <trkpt lat="43.19574" lon="5.75348">
        <ele>146</ele>
        <time>2016-05-08T07:44:33.000Z</time>
      </trkpt>
      <trkpt lat="43.19591" lon="5.75379">
        <ele>149.39999389648</ele>
        <time>2016-05-08T07:44:38.000Z</time>
      </trkpt>
      <trkpt lat="43.19595" lon="5.75384">
        <ele>150</ele>
        <time>2016-05-08T07:44:39.000Z</time>
      </trkpt>
      <trkpt lat="43.19602" lon="5.75395">
        <ele>151.60000610352</ele>
        <time>2016-05-08T07:44:42.000Z</time>
      </trkpt>
      <trkpt lat="43.19616" lon="5.75413">
        <ele>154.39999389648</ele>
        <time>2016-05-08T07:44:47.000Z</time>
      </trkpt>
      <trkpt lat="43.1962" lon="5.75434">
        <ele>154.80000305176</ele>
        <time>2016-05-08T07:44:52.000Z</time>
      </trkpt>
      <trkpt lat="43.19618" lon="5.75446">
        <ele>153.60000610352</ele>
        <time>2016-05-08T07:44:55.000Z</time>
      </trkpt>
      <trkpt lat="43.19614" lon="5.7546">
        <ele>152</ele>
        <time>2016-05-08T07:44:58.000Z</time>
      </trkpt>
      <trkpt lat="43.19605" lon="5.75506">
        <ele>148.60000610352</ele>
        <time>2016-05-08T07:45:05.000Z</time>
      </trkpt>
      <trkpt lat="43.19603" lon="5.75514">
        <ele>148.39999389648</ele>
        <time>2016-05-08T07:45:06.000Z</time>
      </trkpt>
      <trkpt lat="43.19602" lon="5.75544">
        <ele>148.60000610352</ele>
        <time>2016-05-08T07:45:10.000Z</time>
      </trkpt>
      <trkpt lat="43.19603" lon="5.75558">
        <ele>148.39999389648</ele>
        <time>2016-05-08T07:45:12.000Z</time>
      </trkpt>
      <trkpt lat="43.19608" lon="5.75584">
        <ele>148.80000305176</ele>
        <time>2016-05-08T07:45:16.000Z</time>
      </trkpt>
      <trkpt lat="43.19625" lon="5.75628">
        <ele>150.80000305176</ele>
        <time>2016-05-08T07:45:24.000Z</time>
      </trkpt>
      <trkpt lat="43.19645" lon="5.75655">
        <ele>152</ele>
        <time>2016-05-08T07:45:31.000Z</time>
      </trkpt>
      <trkpt lat="43.19656" lon="5.75685">
        <ele>150.39999389648</ele>
        <time>2016-05-08T07:45:38.000Z</time>
      </trkpt>
      <trkpt lat="43.19658" lon="5.75697">
        <ele>149.39999389648</ele>
        <time>2016-05-08T07:45:41.000Z</time>
      </trkpt>
      <trkpt lat="43.19666" lon="5.75708">
        <ele>149.39999389648</ele>
        <time>2016-05-08T07:45:43.000Z</time>
      </trkpt>
      <trkpt lat="43.19677" lon="5.75715">
        <ele>150.39999389648</ele>
        <time>2016-05-08T07:45:46.000Z</time>
      </trkpt>
      <trkpt lat="43.19686" lon="5.75716">
        <ele>148.39999389648</ele>
        <time>2016-05-08T07:45:48.000Z</time>
      </trkpt>
      <trkpt lat="43.1969" lon="5.75715">
        <ele>147.19999694824</ele>
        <time>2016-05-08T07:45:49.000Z</time>
      </trkpt>
      <trkpt lat="43.19694" lon="5.75713">
        <ele>146.39999389648</ele>
        <time>2016-05-08T07:45:50.000Z</time>
      </trkpt>
      <trkpt lat="43.19698" lon="5.75708">
        <ele>146</ele>
        <time>2016-05-08T07:45:51.000Z</time>
      </trkpt>
      <trkpt lat="43.19702" lon="5.75703">
        <ele>145.60000610352</ele>
        <time>2016-05-08T07:45:52.000Z</time>
      </trkpt>
      <trkpt lat="43.19705" lon="5.75693">
        <ele>145.60000610352</ele>
        <time>2016-05-08T07:45:53.000Z</time>
      </trkpt>
      <trkpt lat="43.19712" lon="5.75672">
        <ele>146</ele>
        <time>2016-05-08T07:45:55.000Z</time>
      </trkpt>
      <trkpt lat="43.19716" lon="5.75661">
        <ele>145.39999389648</ele>
        <time>2016-05-08T07:45:56.000Z</time>
      </trkpt>
      <trkpt lat="43.1972" lon="5.75647">
        <ele>144.80000305176</ele>
        <time>2016-05-08T07:45:57.000Z</time>
      </trkpt>
      <trkpt lat="43.1973" lon="5.75621">
        <ele>143.80000305176</ele>
        <time>2016-05-08T07:45:59.000Z</time>
      </trkpt>
      <trkpt lat="43.19734" lon="5.75608">
        <ele>143.60000610352</ele>
        <time>2016-05-08T07:46:00.000Z</time>
      </trkpt>
      <trkpt lat="43.19737" lon="5.75596">
        <ele>143.80000305176</ele>
        <time>2016-05-08T07:46:01.000Z</time>
      </trkpt>
      <trkpt lat="43.19744" lon="5.75575">
        <ele>144.60000610352</ele>
        <time>2016-05-08T07:46:03.000Z</time>
      </trkpt>
      <trkpt lat="43.19747" lon="5.75565">
        <ele>145</ele>
        <time>2016-05-08T07:46:04.000Z</time>
      </trkpt>
      <trkpt lat="43.19749" lon="5.75555">
        <ele>145.39999389648</ele>
        <time>2016-05-08T07:46:05.000Z</time>
      </trkpt>
      <trkpt lat="43.19755" lon="5.75536">
        <ele>145.80000305176</ele>
        <time>2016-05-08T07:46:07.000Z</time>
      </trkpt>
      <trkpt lat="43.19763" lon="5.75507">
        <ele>148.19999694824</ele>
        <time>2016-05-08T07:46:10.000Z</time>
      </trkpt>
      <trkpt lat="43.19767" lon="5.75497">
        <ele>148.19999694824</ele>
        <time>2016-05-08T07:46:11.000Z</time>
      </trkpt>
      <trkpt lat="43.19773" lon="5.75478">
        <ele>148</ele>
        <time>2016-05-08T07:46:13.000Z</time>
      </trkpt>
      <trkpt lat="43.19788" lon="5.75439">
        <ele>146.19999694824</ele>
        <time>2016-05-08T07:46:17.000Z</time>
      </trkpt>
      <trkpt lat="43.19798" lon="5.75418">
        <ele>144.39999389648</ele>
        <time>2016-05-08T07:46:20.000Z</time>
      </trkpt>
      <trkpt lat="43.19802" lon="5.75407">
        <ele>144.19999694824</ele>
        <time>2016-05-08T07:46:22.000Z</time>
      </trkpt>
      <trkpt lat="43.19802" lon="5.75401">
        <ele>145</ele>
        <time>2016-05-08T07:46:23.000Z</time>
      </trkpt>
      <trkpt lat="43.19802" lon="5.75388">
        <ele>146.60000610352</ele>
        <time>2016-05-08T07:46:25.000Z</time>
      </trkpt>
      <trkpt lat="43.19805" lon="5.75375">
        <ele>146.80000305176</ele>
        <time>2016-05-08T07:46:27.000Z</time>
      </trkpt>
      <trkpt lat="43.19817" lon="5.75334">
        <ele>146.60000610352</ele>
        <time>2016-05-08T07:46:32.000Z</time>
      </trkpt>
      <trkpt lat="43.1982" lon="5.75325">
        <ele>146.39999389648</ele>
        <time>2016-05-08T07:46:33.000Z</time>
      </trkpt>
      <trkpt lat="43.19837" lon="5.75276">
        <ele>143.60000610352</ele>
        <time>2016-05-08T07:46:38.000Z</time>
      </trkpt>
      <trkpt lat="43.19841" lon="5.75265">
        <ele>142.60000610352</ele>
        <time>2016-05-08T07:46:39.000Z</time>
      </trkpt>
      <trkpt lat="43.19852" lon="5.75233">
        <ele>140.19999694824</ele>
        <time>2016-05-08T07:46:42.000Z</time>
      </trkpt>
      <trkpt lat="43.19863" lon="5.75198">
        <ele>138.19999694824</ele>
        <time>2016-05-08T07:46:45.000Z</time>
      </trkpt>
      <trkpt lat="43.19865" lon="5.75185">
        <ele>137.80000305176</ele>
        <time>2016-05-08T07:46:46.000Z</time>
      </trkpt>
      <trkpt lat="43.19873" lon="5.75147">
        <ele>136.39999389648</ele>
        <time>2016-05-08T07:46:49.000Z</time>
      </trkpt>
      <trkpt lat="43.1988" lon="5.75108">
        <ele>132.60000610352</ele>
        <time>2016-05-08T07:46:52.000Z</time>
      </trkpt>
      <trkpt lat="43.19884" lon="5.75082">
        <ele>130.39999389648</ele>
        <time>2016-05-08T07:46:54.000Z</time>
      </trkpt>
      <trkpt lat="43.19885" lon="5.75068">
        <ele>129.60000610352</ele>
        <time>2016-05-08T07:46:55.000Z</time>
      </trkpt>
      <trkpt lat="43.19887" lon="5.75026">
        <ele>126.19999694824</ele>
        <time>2016-05-08T07:46:58.000Z</time>
      </trkpt>
      <trkpt lat="43.19888" lon="5.74998">
        <ele>125.19999694824</ele>
        <time>2016-05-08T07:47:00.000Z</time>
      </trkpt>
      <trkpt lat="43.19888" lon="5.7497">
        <ele>125.40000152588</ele>
        <time>2016-05-08T07:47:02.000Z</time>
      </trkpt>
      <trkpt lat="43.19888" lon="5.74941">
        <ele>124.40000152588</ele>
        <time>2016-05-08T07:47:04.000Z</time>
      </trkpt>
      <trkpt lat="43.19889" lon="5.7491">
        <ele>123.80000305176</ele>
        <time>2016-05-08T07:47:06.000Z</time>
      </trkpt>
      <trkpt lat="43.19892" lon="5.74896">
        <ele>122.80000305176</ele>
        <time>2016-05-08T07:47:07.000Z</time>
      </trkpt>
      <trkpt lat="43.19896" lon="5.74883">
        <ele>121.40000152588</ele>
        <time>2016-05-08T07:47:08.000Z</time>
      </trkpt>
      <trkpt lat="43.19914" lon="5.74847">
        <ele>116.19999694824</ele>
        <time>2016-05-08T07:47:11.000Z</time>
      </trkpt>
      <trkpt lat="43.19925" lon="5.74823">
        <ele>112.80000305176</ele>
        <time>2016-05-08T07:47:13.000Z</time>
      </trkpt>
      <trkpt lat="43.19937" lon="5.74799">
        <ele>110.80000305176</ele>
        <time>2016-05-08T07:47:15.000Z</time>
      </trkpt>
      <trkpt lat="43.19948" lon="5.74774">
        <ele>110.19999694824</ele>
        <time>2016-05-08T07:47:17.000Z</time>
      </trkpt>
      <trkpt lat="43.19959" lon="5.7475">
        <ele>109.40000152588</ele>
        <time>2016-05-08T07:47:19.000Z</time>
      </trkpt>
      <trkpt lat="43.19965" lon="5.74737">
        <ele>108.80000305176</ele>
        <time>2016-05-08T07:47:20.000Z</time>
      </trkpt>
      <trkpt lat="43.19977" lon="5.74714">
        <ele>107.59999847412</ele>
        <time>2016-05-08T07:47:22.000Z</time>
      </trkpt>
      <trkpt lat="43.19989" lon="5.7469">
        <ele>106.40000152588</ele>
        <time>2016-05-08T07:47:24.000Z</time>
      </trkpt>
      <trkpt lat="43.2" lon="5.74664">
        <ele>104.80000305176</ele>
        <time>2016-05-08T07:47:26.000Z</time>
      </trkpt>
      <trkpt lat="43.20006" lon="5.74655">
        <ele>103.80000305176</ele>
        <time>2016-05-08T07:47:27.000Z</time>
      </trkpt>
      <trkpt lat="43.20013" lon="5.74644">
        <ele>102.80000305176</ele>
        <time>2016-05-08T07:47:28.000Z</time>
      </trkpt>
      <trkpt lat="43.20033" lon="5.74611">
        <ele>102.40000152588</ele>
        <time>2016-05-08T07:47:31.000Z</time>
      </trkpt>
      <trkpt lat="43.20049" lon="5.74591">
        <ele>101.80000305176</ele>
        <time>2016-05-08T07:47:33.000Z</time>
      </trkpt>
      <trkpt lat="43.20057" lon="5.74581">
        <ele>100.80000305176</ele>
        <time>2016-05-08T07:47:34.000Z</time>
      </trkpt>
      <trkpt lat="43.20065" lon="5.7457">
        <ele>100</ele>
        <time>2016-05-08T07:47:35.000Z</time>
      </trkpt>
      <trkpt lat="43.20081" lon="5.7455">
        <ele>98.199996948242</ele>
        <time>2016-05-08T07:47:37.000Z</time>
      </trkpt>
      <trkpt lat="43.20097" lon="5.74529">
        <ele>96.800003051758</ele>
        <time>2016-05-08T07:47:39.000Z</time>
      </trkpt>
      <trkpt lat="43.20112" lon="5.74508">
        <ele>96</ele>
        <time>2016-05-08T07:47:41.000Z</time>
      </trkpt>
      <trkpt lat="43.20118" lon="5.74497">
        <ele>95.800003051758</ele>
        <time>2016-05-08T07:47:42.000Z</time>
      </trkpt>
      <trkpt lat="43.20125" lon="5.74485">
        <ele>95.599998474121</ele>
        <time>2016-05-08T07:47:43.000Z</time>
      </trkpt>
      <trkpt lat="43.20136" lon="5.74461">
        <ele>95.199996948242</ele>
        <time>2016-05-08T07:47:45.000Z</time>
      </trkpt>
      <trkpt lat="43.20141" lon="5.74448">
        <ele>94.800003051758</ele>
        <time>2016-05-08T07:47:46.000Z</time>
      </trkpt>
      <trkpt lat="43.20151" lon="5.74423">
        <ele>94.599998474121</ele>
        <time>2016-05-08T07:47:48.000Z</time>
      </trkpt>
      <trkpt lat="43.20169" lon="5.74375">
        <ele>95</ele>
        <time>2016-05-08T07:47:52.000Z</time>
      </trkpt>
      <trkpt lat="43.20174" lon="5.74363">
        <ele>95.199996948242</ele>
        <time>2016-05-08T07:47:53.000Z</time>
      </trkpt>
      <trkpt lat="43.20196" lon="5.74301">
        <ele>96</ele>
        <time>2016-05-08T07:47:59.000Z</time>
      </trkpt>
      <trkpt lat="43.20205" lon="5.74263">
        <ele>96.400001525879</ele>
        <time>2016-05-08T07:48:03.000Z</time>
      </trkpt>
      <trkpt lat="43.20209" lon="5.74246">
        <ele>96.400001525879</ele>
        <time>2016-05-08T07:48:05.000Z</time>
      </trkpt>
      <trkpt lat="43.20228" lon="5.74182">
        <ele>97.199996948242</ele>
        <time>2016-05-08T07:48:13.000Z</time>
      </trkpt>
      <trkpt lat="43.2024" lon="5.74131">
        <ele>97.199996948242</ele>
        <time>2016-05-08T07:48:19.000Z</time>
      </trkpt>
      <trkpt lat="43.20246" lon="5.74054">
        <ele>98.400001525879</ele>
        <time>2016-05-08T07:48:28.000Z</time>
      </trkpt>
      <trkpt lat="43.20248" lon="5.74007">
        <ele>98.800003051758</ele>
        <time>2016-05-08T07:48:34.000Z</time>
      </trkpt>
      <trkpt lat="43.20248" lon="5.74001">
        <ele>98.800003051758</ele>
        <time>2016-05-08T07:48:35.000Z</time>
      </trkpt>
      <trkpt lat="43.20249" lon="5.73995">
        <ele>98.800003051758</ele>
        <time>2016-05-08T07:48:36.000Z</time>
      </trkpt>
      <trkpt lat="43.20259" lon="5.73982">
        <ele>98.199996948242</ele>
        <time>2016-05-08T07:48:39.000Z</time>
      </trkpt>
      <trkpt lat="43.20268" lon="5.73981">
        <ele>97.400001525879</ele>
        <time>2016-05-08T07:48:41.000Z</time>
      </trkpt>
      <trkpt lat="43.20274" lon="5.73981">
        <ele>97</ele>
        <time>2016-05-08T07:48:42.000Z</time>
      </trkpt>
      <trkpt lat="43.20311" lon="5.73979">
        <ele>94.400001525879</ele>
        <time>2016-05-08T07:48:48.000Z</time>
      </trkpt>
      <trkpt lat="43.20316" lon="5.73977">
        <ele>94</ele>
        <time>2016-05-08T07:48:49.000Z</time>
      </trkpt>
      <trkpt lat="43.2032" lon="5.73966">
        <ele>93.800003051758</ele>
        <time>2016-05-08T07:48:51.000Z</time>
      </trkpt>
      <trkpt lat="43.20319" lon="5.73944">
        <ele>93.800003051758</ele>
        <time>2016-05-08T07:48:54.000Z</time>
      </trkpt>
      <trkpt lat="43.20319" lon="5.73936">
        <ele>94</ele>
        <time>2016-05-08T07:48:55.000Z</time>
      </trkpt>
      <trkpt lat="43.20318" lon="5.7391">
        <ele>94.400001525879</ele>
        <time>2016-05-08T07:48:58.000Z</time>
      </trkpt>
      <trkpt lat="43.20317" lon="5.73891">
        <ele>94.599998474121</ele>
        <time>2016-05-08T07:49:00.000Z</time>
      </trkpt>
      <trkpt lat="43.20316" lon="5.73851">
        <ele>94.599998474121</ele>
        <time>2016-05-08T07:49:04.000Z</time>
      </trkpt>
      <trkpt lat="43.20314" lon="5.73802">
        <ele>93</ele>
        <time>2016-05-08T07:49:09.000Z</time>
      </trkpt>
      <trkpt lat="43.20313" lon="5.73793">
        <ele>93</ele>
        <time>2016-05-08T07:49:10.000Z</time>
      </trkpt>
      <trkpt lat="43.20311" lon="5.73712">
        <ele>92.400001525879</ele>
        <time>2016-05-08T07:49:18.000Z</time>
      </trkpt>
      <trkpt lat="43.20311" lon="5.73702">
        <ele>92</ele>
        <time>2016-05-08T07:49:19.000Z</time>
      </trkpt>
      <trkpt lat="43.2031" lon="5.73619">
        <ele>90</ele>
        <time>2016-05-08T07:49:27.000Z</time>
      </trkpt>
      <trkpt lat="43.2031" lon="5.73609">
        <ele>89.599998474121</ele>
        <time>2016-05-08T07:49:28.000Z</time>
      </trkpt>
      <trkpt lat="43.2031" lon="5.73589">
        <ele>89</ele>
        <time>2016-05-08T07:49:30.000Z</time>
      </trkpt>
      <trkpt lat="43.20309" lon="5.73507">
        <ele>86.800003051758</ele>
        <time>2016-05-08T07:49:38.000Z</time>
      </trkpt>
      <trkpt lat="43.20308" lon="5.73474">
        <ele>86</ele>
        <time>2016-05-08T07:49:41.000Z</time>
      </trkpt>
      <trkpt lat="43.20307" lon="5.73429">
        <ele>84.800003051758</ele>
        <time>2016-05-08T07:49:45.000Z</time>
      </trkpt>
      <trkpt lat="43.20305" lon="5.73371">
        <ele>82.800003051758</ele>
        <time>2016-05-08T07:49:50.000Z</time>
      </trkpt>
      <trkpt lat="43.20303" lon="5.73323">
        <ele>82.199996948242</ele>
        <time>2016-05-08T07:49:54.000Z</time>
      </trkpt>
      <trkpt lat="43.20302" lon="5.73285">
        <ele>81.800003051758</ele>
        <time>2016-05-08T07:49:57.000Z</time>
      </trkpt>
      <trkpt lat="43.20301" lon="5.73273">
        <ele>81.400001525879</ele>
        <time>2016-05-08T07:49:58.000Z</time>
      </trkpt>
      <trkpt lat="43.20301" lon="5.7326">
        <ele>80.800003051758</ele>
        <time>2016-05-08T07:49:59.000Z</time>
      </trkpt>
      <trkpt lat="43.20299" lon="5.73221">
        <ele>79</ele>
        <time>2016-05-08T07:50:02.000Z</time>
      </trkpt>
      <trkpt lat="43.203" lon="5.7318">
        <ele>78.599998474121</ele>
        <time>2016-05-08T07:50:05.000Z</time>
      </trkpt>
      <trkpt lat="43.20307" lon="5.73138">
        <ele>76.400001525879</ele>
        <time>2016-05-08T07:50:08.000Z</time>
      </trkpt>
      <trkpt lat="43.2031" lon="5.73124">
        <ele>75.800003051758</ele>
        <time>2016-05-08T07:50:09.000Z</time>
      </trkpt>
      <trkpt lat="43.20318" lon="5.73096">
        <ele>74.800003051758</ele>
        <time>2016-05-08T07:50:11.000Z</time>
      </trkpt>
      <trkpt lat="43.20326" lon="5.73069">
        <ele>74.400001525879</ele>
        <time>2016-05-08T07:50:13.000Z</time>
      </trkpt>
      <trkpt lat="43.20338" lon="5.73028">
        <ele>73.199996948242</ele>
        <time>2016-05-08T07:50:16.000Z</time>
      </trkpt>
      <trkpt lat="43.20341" lon="5.73014">
        <ele>72.599998474121</ele>
        <time>2016-05-08T07:50:17.000Z</time>
      </trkpt>
      <trkpt lat="43.2035" lon="5.72974">
        <ele>71</ele>
        <time>2016-05-08T07:50:20.000Z</time>
      </trkpt>
      <trkpt lat="43.20358" lon="5.72949">
        <ele>70.599998474121</ele>
        <time>2016-05-08T07:50:22.000Z</time>
      </trkpt>
      <trkpt lat="43.20362" lon="5.72937">
        <ele>70.400001525879</ele>
        <time>2016-05-08T07:50:23.000Z</time>
      </trkpt>
      <trkpt lat="43.20381" lon="5.72878">
        <ele>69.400001525879</ele>
        <time>2016-05-08T07:50:28.000Z</time>
      </trkpt>
      <trkpt lat="43.20387" lon="5.72855">
        <ele>69.400001525879</ele>
        <time>2016-05-08T07:50:30.000Z</time>
      </trkpt>
      <trkpt lat="43.20391" lon="5.72821">
        <ele>68.800003051758</ele>
        <time>2016-05-08T07:50:33.000Z</time>
      </trkpt>
      <trkpt lat="43.20393" lon="5.72799">
        <ele>68.400001525879</ele>
        <time>2016-05-08T07:50:35.000Z</time>
      </trkpt>
      <trkpt lat="43.20398" lon="5.72755">
        <ele>68.400001525879</ele>
        <time>2016-05-08T07:50:39.000Z</time>
      </trkpt>
      <trkpt lat="43.20401" lon="5.72715">
        <ele>69.199996948242</ele>
        <time>2016-05-08T07:50:43.000Z</time>
      </trkpt>
      <trkpt lat="43.20401" lon="5.72705">
        <ele>69</ele>
        <time>2016-05-08T07:50:44.000Z</time>
      </trkpt>
      <trkpt lat="43.20396" lon="5.72679">
        <ele>68.599998474121</ele>
        <time>2016-05-08T07:50:47.000Z</time>
      </trkpt>
      <trkpt lat="43.2039" lon="5.72662">
        <ele>68.599998474121</ele>
        <time>2016-05-08T07:50:49.000Z</time>
      </trkpt>
      <trkpt lat="43.20387" lon="5.72654">
        <ele>68.599998474121</ele>
        <time>2016-05-08T07:50:50.000Z</time>
      </trkpt>
      <trkpt lat="43.20375" lon="5.7262">
        <ele>68</ele>
        <time>2016-05-08T07:50:54.000Z</time>
      </trkpt>
      <trkpt lat="43.20352" lon="5.72545">
        <ele>65.599998474121</ele>
        <time>2016-05-08T07:51:03.000Z</time>
      </trkpt>
      <trkpt lat="43.20328" lon="5.72474">
        <ele>67.199996948242</ele>
        <time>2016-05-08T07:51:12.000Z</time>
      </trkpt>
      <trkpt lat="43.20305" lon="5.72414">
        <ele>68.400001525879</ele>
        <time>2016-05-08T07:51:20.000Z</time>
      </trkpt>
      <trkpt lat="43.20282" lon="5.72342">
        <ele>70.199996948242</ele>
        <time>2016-05-08T07:51:29.000Z</time>
      </trkpt>
      <trkpt lat="43.20275" lon="5.72328">
        <ele>70.400001525879</ele>
        <time>2016-05-08T07:51:31.000Z</time>
      </trkpt>
      <trkpt lat="43.20261" lon="5.7229">
        <ele>71</ele>
        <time>2016-05-08T07:51:36.000Z</time>
      </trkpt>
      <trkpt lat="43.20253" lon="5.72262">
        <ele>70.199996948242</ele>
        <time>2016-05-08T07:51:41.000Z</time>
      </trkpt>
      <trkpt lat="43.20249" lon="5.72233">
        <ele>69.800003051758</ele>
        <time>2016-05-08T07:51:46.000Z</time>
      </trkpt>
      <trkpt lat="43.20237" lon="5.72184">
        <ele>69.599998474121</ele>
        <time>2016-05-08T07:51:53.000Z</time>
      </trkpt>
      <trkpt lat="43.20235" lon="5.72177">
        <ele>69.599998474121</ele>
        <time>2016-05-08T07:51:54.000Z</time>
      </trkpt>
      <trkpt lat="43.20225" lon="5.72154">
        <ele>69.400001525879</ele>
        <time>2016-05-08T07:51:57.000Z</time>
      </trkpt>
      <trkpt lat="43.20218" lon="5.72136">
        <ele>69.199996948242</ele>
        <time>2016-05-08T07:51:59.000Z</time>
      </trkpt>
      <trkpt lat="43.20212" lon="5.72119">
        <ele>68.800003051758</ele>
        <time>2016-05-08T07:52:01.000Z</time>
      </trkpt>
      <trkpt lat="43.20204" lon="5.72092">
        <ele>68.599998474121</ele>
        <time>2016-05-08T07:52:04.000Z</time>
      </trkpt>
      <trkpt lat="43.20203" lon="5.72082">
        <ele>68.599998474121</ele>
        <time>2016-05-08T07:52:05.000Z</time>
      </trkpt>
      <trkpt lat="43.20201" lon="5.72042">
        <ele>67.800003051758</ele>
        <time>2016-05-08T07:52:09.000Z</time>
      </trkpt>
      <trkpt lat="43.20202" lon="5.7203">
        <ele>67.400001525879</ele>
        <time>2016-05-08T07:52:10.000Z</time>
      </trkpt>
      <trkpt lat="43.20202" lon="5.72019">
        <ele>67</ele>
        <time>2016-05-08T07:52:11.000Z</time>
      </trkpt>
      <trkpt lat="43.20202" lon="5.71985">
        <ele>64.800003051758</ele>
        <time>2016-05-08T07:52:14.000Z</time>
      </trkpt>
      <trkpt lat="43.20204" lon="5.71953">
        <ele>62.799999237061</ele>
        <time>2016-05-08T07:52:17.000Z</time>
      </trkpt>
      <trkpt lat="43.20205" lon="5.71936">
        <ele>62.599998474121</ele>
        <time>2016-05-08T07:52:19.000Z</time>
      </trkpt>
      <trkpt lat="43.20206" lon="5.71928">
        <ele>62.400001525879</ele>
        <time>2016-05-08T07:52:20.000Z</time>
      </trkpt>
      <trkpt lat="43.20213" lon="5.71918">
        <ele>62.400001525879</ele>
        <time>2016-05-08T07:52:22.000Z</time>
      </trkpt>
      <trkpt lat="43.20221" lon="5.71914">
        <ele>62.400001525879</ele>
        <time>2016-05-08T07:52:24.000Z</time>
      </trkpt>
      <trkpt lat="43.20225" lon="5.71911">
        <ele>62.200000762939</ele>
        <time>2016-05-08T07:52:25.000Z</time>
      </trkpt>
      <trkpt lat="43.20227" lon="5.71906">
        <ele>62.200000762939</ele>
        <time>2016-05-08T07:52:26.000Z</time>
      </trkpt>
      <trkpt lat="43.20229" lon="5.71893">
        <ele>62</ele>
        <time>2016-05-08T07:52:28.000Z</time>
      </trkpt>
      <trkpt lat="43.20229" lon="5.7188">
        <ele>62.400001525879</ele>
        <time>2016-05-08T07:52:30.000Z</time>
      </trkpt>
      <trkpt lat="43.20226" lon="5.71853">
        <ele>64</ele>
        <time>2016-05-08T07:52:34.000Z</time>
      </trkpt>
      <trkpt lat="43.20218" lon="5.71829">
        <ele>64.800003051758</ele>
        <time>2016-05-08T07:52:38.000Z</time>
      </trkpt>
      <trkpt lat="43.20214" lon="5.71818">
        <ele>65.199996948242</ele>
        <time>2016-05-08T07:52:40.000Z</time>
      </trkpt>
      <trkpt lat="43.20211" lon="5.71813">
        <ele>65.400001525879</ele>
        <time>2016-05-08T07:52:41.000Z</time>
      </trkpt>
      <trkpt lat="43.20204" lon="5.71795">
        <ele>66</ele>
        <time>2016-05-08T07:52:44.000Z</time>
      </trkpt>
      <trkpt lat="43.20194" lon="5.71766">
        <ele>67.199996948242</ele>
        <time>2016-05-08T07:52:49.000Z</time>
      </trkpt>
      <trkpt lat="43.20187" lon="5.71742">
        <ele>68</ele>
        <time>2016-05-08T07:52:53.000Z</time>
      </trkpt>
      <trkpt lat="43.20179" lon="5.71718">
        <ele>69</ele>
        <time>2016-05-08T07:52:57.000Z</time>
      </trkpt>
      <trkpt lat="43.20177" lon="5.71711">
        <ele>69.199996948242</ele>
        <time>2016-05-08T07:52:58.000Z</time>
      </trkpt>
      <trkpt lat="43.20169" lon="5.71687">
        <ele>69.599998474121</ele>
        <time>2016-05-08T07:53:02.000Z</time>
      </trkpt>
      <trkpt lat="43.20159" lon="5.71656">
        <ele>70.400001525879</ele>
        <time>2016-05-08T07:53:07.000Z</time>
      </trkpt>
      <trkpt lat="43.20157" lon="5.7165">
        <ele>70.400001525879</ele>
        <time>2016-05-08T07:53:08.000Z</time>
      </trkpt>
      <trkpt lat="43.20133" lon="5.71584">
        <ele>71.800003051758</ele>
        <time>2016-05-08T07:53:19.000Z</time>
      </trkpt>
      <trkpt lat="43.20131" lon="5.71578">
        <ele>71.800003051758</ele>
        <time>2016-05-08T07:53:20.000Z</time>
      </trkpt>
      <trkpt lat="43.20105" lon="5.71527">
        <ele>72.400001525879</ele>
        <time>2016-05-08T07:53:29.000Z</time>
      </trkpt>
      <trkpt lat="43.20095" lon="5.71509">
        <ele>72.599998474121</ele>
        <time>2016-05-08T07:53:32.000Z</time>
      </trkpt>
      <trkpt lat="43.20087" lon="5.71488">
        <ele>72.599998474121</ele>
        <time>2016-05-08T07:53:35.000Z</time>
      </trkpt>
      <trkpt lat="43.20069" lon="5.71428">
        <ele>73.599998474121</ele>
        <time>2016-05-08T07:53:44.000Z</time>
      </trkpt>
      <trkpt lat="43.20059" lon="5.71389">
        <ele>74.599998474121</ele>
        <time>2016-05-08T07:53:50.000Z</time>
      </trkpt>
      <trkpt lat="43.20058" lon="5.71383">
        <ele>74.599998474121</ele>
        <time>2016-05-08T07:53:51.000Z</time>
      </trkpt>
      <trkpt lat="43.20057" lon="5.71369">
        <ele>74.599998474121</ele>
        <time>2016-05-08T07:53:53.000Z</time>
      </trkpt>
      <trkpt lat="43.20057" lon="5.71362">
        <ele>74.599998474121</ele>
        <time>2016-05-08T07:53:54.000Z</time>
      </trkpt>
      <trkpt lat="43.20051" lon="5.71314">
        <ele>74.800003051758</ele>
        <time>2016-05-08T07:54:01.000Z</time>
      </trkpt>
      <trkpt lat="43.20051" lon="5.71268">
        <ele>74.400001525879</ele>
        <time>2016-05-08T07:54:07.000Z</time>
      </trkpt>
      <trkpt lat="43.2005" lon="5.71209">
        <ele>74</ele>
        <time>2016-05-08T07:54:14.000Z</time>
      </trkpt>
      <trkpt lat="43.20048" lon="5.71186">
        <ele>74.199996948242</ele>
        <time>2016-05-08T07:54:17.000Z</time>
      </trkpt>
      <trkpt lat="43.20042" lon="5.71166">
        <ele>74</ele>
        <time>2016-05-08T07:54:20.000Z</time>
      </trkpt>
      <trkpt lat="43.20015" lon="5.71126">
        <ele>73.400001525879</ele>
        <time>2016-05-08T07:54:27.000Z</time>
      </trkpt>
      <trkpt lat="43.2" lon="5.71092">
        <ele>73.599998474121</ele>
        <time>2016-05-08T07:54:33.000Z</time>
      </trkpt>
      <trkpt lat="43.19997" lon="5.71079">
        <ele>73.599998474121</ele>
        <time>2016-05-08T07:54:35.000Z</time>
      </trkpt>
      <trkpt lat="43.19992" lon="5.7106">
        <ele>73.800003051758</ele>
        <time>2016-05-08T07:54:38.000Z</time>
      </trkpt>
      <trkpt lat="43.19984" lon="5.71032">
        <ele>73.400001525879</ele>
        <time>2016-05-08T07:54:43.000Z</time>
      </trkpt>
      <trkpt lat="43.19982" lon="5.71027">
        <ele>73.199996948242</ele>
        <time>2016-05-08T07:54:44.000Z</time>
      </trkpt>
      <trkpt lat="43.19976" lon="5.71002">
        <ele>72.199996948242</ele>
        <time>2016-05-08T07:54:48.000Z</time>
      </trkpt>
      <trkpt lat="43.1997" lon="5.70965">
        <ele>70.599998474121</ele>
        <time>2016-05-08T07:54:52.000Z</time>
      </trkpt>
      <trkpt lat="43.19968" lon="5.70955">
        <ele>69.800003051758</ele>
        <time>2016-05-08T07:54:53.000Z</time>
      </trkpt>
      <trkpt lat="43.19967" lon="5.70946">
        <ele>68.800003051758</ele>
        <time>2016-05-08T07:54:54.000Z</time>
      </trkpt>
      <trkpt lat="43.19966" lon="5.70937">
        <ele>68.199996948242</ele>
        <time>2016-05-08T07:54:55.000Z</time>
      </trkpt>
      <trkpt lat="43.19965" lon="5.70929">
        <ele>67.400001525879</ele>
        <time>2016-05-08T07:54:56.000Z</time>
      </trkpt>
      <trkpt lat="43.19961" lon="5.70916">
        <ele>66.400001525879</ele>
        <time>2016-05-08T07:54:58.000Z</time>
      </trkpt>
      <trkpt lat="43.19952" lon="5.70906">
        <ele>65.400001525879</ele>
        <time>2016-05-08T07:55:00.000Z</time>
      </trkpt>
      <trkpt lat="43.19943" lon="5.70896">
        <ele>64.199996948242</ele>
        <time>2016-05-08T07:55:02.000Z</time>
      </trkpt>
      <trkpt lat="43.19937" lon="5.7088">
        <ele>63.200000762939</ele>
        <time>2016-05-08T07:55:04.000Z</time>
      </trkpt>
      <trkpt lat="43.19934" lon="5.70873">
        <ele>62.799999237061</ele>
        <time>2016-05-08T07:55:05.000Z</time>
      </trkpt>
      <trkpt lat="43.19924" lon="5.70864">
        <ele>62.200000762939</ele>
        <time>2016-05-08T07:55:07.000Z</time>
      </trkpt>
      <trkpt lat="43.19919" lon="5.70861">
        <ele>62</ele>
        <time>2016-05-08T07:55:08.000Z</time>
      </trkpt>
      <trkpt lat="43.19914" lon="5.70857">
        <ele>62</ele>
        <time>2016-05-08T07:55:09.000Z</time>
      </trkpt>
      <trkpt lat="43.19897" lon="5.70838">
        <ele>61.200000762939</ele>
        <time>2016-05-08T07:55:13.000Z</time>
      </trkpt>
      <trkpt lat="43.19869" lon="5.70808">
        <ele>60.200000762939</ele>
        <time>2016-05-08T07:55:20.000Z</time>
      </trkpt>
      <trkpt lat="43.19864" lon="5.70784">
        <ele>60.200000762939</ele>
        <time>2016-05-08T07:55:24.000Z</time>
      </trkpt>
      <trkpt lat="43.19862" lon="5.70778">
        <ele>60.200000762939</ele>
        <time>2016-05-08T07:55:25.000Z</time>
      </trkpt>
      <trkpt lat="43.19856" lon="5.70763">
        <ele>60.400001525879</ele>
        <time>2016-05-08T07:55:28.000Z</time>
      </trkpt>
      <trkpt lat="43.19853" lon="5.70757">
        <ele>60.599998474121</ele>
        <time>2016-05-08T07:55:29.000Z</time>
      </trkpt>
      <trkpt lat="43.19851" lon="5.70751">
        <ele>60.599998474121</ele>
        <time>2016-05-08T07:55:30.000Z</time>
      </trkpt>
      <trkpt lat="43.19842" lon="5.70729">
        <ele>60.799999237061</ele>
        <time>2016-05-08T07:55:34.000Z</time>
      </trkpt>
      <trkpt lat="43.19829" lon="5.70694">
        <ele>61.400001525879</ele>
        <time>2016-05-08T07:55:40.000Z</time>
      </trkpt>
      <trkpt lat="43.19816" lon="5.7066">
        <ele>62</ele>
        <time>2016-05-08T07:55:46.000Z</time>
      </trkpt>
      <trkpt lat="43.19811" lon="5.7065">
        <ele>62.200000762939</ele>
        <time>2016-05-08T07:55:48.000Z</time>
      </trkpt>
      <trkpt lat="43.19807" lon="5.70645">
        <ele>62.400001525879</ele>
        <time>2016-05-08T07:55:49.000Z</time>
      </trkpt>
      <trkpt lat="43.19791" lon="5.70631">
        <ele>62.799999237061</ele>
        <time>2016-05-08T07:55:53.000Z</time>
      </trkpt>
      <trkpt lat="43.19787" lon="5.70627">
        <ele>63</ele>
        <time>2016-05-08T07:55:54.000Z</time>
      </trkpt>
      <trkpt lat="43.19771" lon="5.70611">
        <ele>64</ele>
        <time>2016-05-08T07:55:58.000Z</time>
      </trkpt>
      <trkpt lat="43.19765" lon="5.706">
        <ele>64.599998474121</ele>
        <time>2016-05-08T07:56:00.000Z</time>
      </trkpt>
      <trkpt lat="43.19753" lon="5.70565">
        <ele>66.800003051758</ele>
        <time>2016-05-08T07:56:06.000Z</time>
      </trkpt>
      <trkpt lat="43.19747" lon="5.70547">
        <ele>67.400001525879</ele>
        <time>2016-05-08T07:56:09.000Z</time>
      </trkpt>
      <trkpt lat="43.1974" lon="5.70528">
        <ele>67.199996948242</ele>
        <time>2016-05-08T07:56:12.000Z</time>
      </trkpt>
      <trkpt lat="43.19727" lon="5.70492">
        <ele>66.800003051758</ele>
        <time>2016-05-08T07:56:18.000Z</time>
      </trkpt>
      <trkpt lat="43.19715" lon="5.70463">
        <ele>66.400001525879</ele>
        <time>2016-05-08T07:56:23.000Z</time>
      </trkpt>
      <trkpt lat="43.19703" lon="5.70434">
        <ele>66.800003051758</ele>
        <time>2016-05-08T07:56:28.000Z</time>
      </trkpt>
      <trkpt lat="43.19681" lon="5.70381">
        <ele>67.199996948242</ele>
        <time>2016-05-08T07:56:37.000Z</time>
      </trkpt>
      <trkpt lat="43.19679" lon="5.70375">
        <ele>67.199996948242</ele>
        <time>2016-05-08T07:56:39.000Z</time>
      </trkpt>
      <trkpt lat="43.19669" lon="5.70338">
        <ele>67</ele>
        <time>2016-05-08T07:56:45.000Z</time>
      </trkpt>
      <trkpt lat="43.19666" lon="5.70317">
        <ele>67</ele>
        <time>2016-05-08T07:56:48.000Z</time>
      </trkpt>
      <trkpt lat="43.19662" lon="5.70291">
        <ele>67.199996948242</ele>
        <time>2016-05-08T07:56:51.000Z</time>
      </trkpt>
      <trkpt lat="43.19655" lon="5.7024">
        <ele>68.599998474121</ele>
        <time>2016-05-08T07:56:57.000Z</time>
      </trkpt>
      <trkpt lat="43.19653" lon="5.70227">
        <ele>69</ele>
        <time>2016-05-08T07:56:59.000Z</time>
      </trkpt>
      <trkpt lat="43.1965" lon="5.70204">
        <ele>69.199996948242</ele>
        <time>2016-05-08T07:57:03.000Z</time>
      </trkpt>
      <trkpt lat="43.19648" lon="5.70192">
        <ele>69.199996948242</ele>
        <time>2016-05-08T07:57:05.000Z</time>
      </trkpt>
      <trkpt lat="43.19647" lon="5.70186">
        <ele>69.199996948242</ele>
        <time>2016-05-08T07:57:06.000Z</time>
      </trkpt>
      <trkpt lat="43.19646" lon="5.70181">
        <ele>69.400001525879</ele>
        <time>2016-05-08T07:57:07.000Z</time>
      </trkpt>
      <trkpt lat="43.19644" lon="5.70159">
        <ele>70</ele>
        <time>2016-05-08T07:57:11.000Z</time>
      </trkpt>
      <trkpt lat="43.19642" lon="5.70144">
        <ele>70.199996948242</ele>
        <time>2016-05-08T07:57:14.000Z</time>
      </trkpt>
      <trkpt lat="43.19638" lon="5.70144">
        <ele>69.800003051758</ele>
        <time>2016-05-08T07:57:15.000Z</time>
      </trkpt>
      <trkpt lat="43.19621" lon="5.70151">
        <ele>68</ele>
        <time>2016-05-08T07:57:19.000Z</time>
      </trkpt>
      <trkpt lat="43.1959" lon="5.70162">
        <ele>65.400001525879</ele>
        <time>2016-05-08T07:57:25.000Z</time>
      </trkpt>
      <trkpt lat="43.19581" lon="5.70164">
        <ele>64.800003051758</ele>
        <time>2016-05-08T07:57:27.000Z</time>
      </trkpt>
      <trkpt lat="43.19572" lon="5.70162">
        <ele>64.400001525879</ele>
        <time>2016-05-08T07:57:29.000Z</time>
      </trkpt>
      <trkpt lat="43.1957" lon="5.70151">
        <ele>64.400001525879</ele>
        <time>2016-05-08T07:57:31.000Z</time>
      </trkpt>
      <trkpt lat="43.19568" lon="5.70132">
        <ele>64.599998474121</ele>
        <time>2016-05-08T07:57:34.000Z</time>
      </trkpt>
      <trkpt lat="43.19567" lon="5.70118">
        <ele>64.800003051758</ele>
        <time>2016-05-08T07:57:36.000Z</time>
      </trkpt>
      <trkpt lat="43.19563" lon="5.70066">
        <ele>65.800003051758</ele>
        <time>2016-05-08T07:57:43.000Z</time>
      </trkpt>
      <trkpt lat="43.19562" lon="5.70058">
        <ele>66</ele>
        <time>2016-05-08T07:57:44.000Z</time>
      </trkpt>
      <trkpt lat="43.19553" lon="5.69996">
        <ele>66.400001525879</ele>
        <time>2016-05-08T07:57:52.000Z</time>
      </trkpt>
      <trkpt lat="43.19551" lon="5.69982">
        <ele>66.599998474121</ele>
        <time>2016-05-08T07:57:54.000Z</time>
      </trkpt>
      <trkpt lat="43.19543" lon="5.69935">
        <ele>65.800003051758</ele>
        <time>2016-05-08T07:58:01.000Z</time>
      </trkpt>
      <trkpt lat="43.19535" lon="5.69887">
        <ele>65</ele>
        <time>2016-05-08T07:58:08.000Z</time>
      </trkpt>
      <trkpt lat="43.19533" lon="5.69874">
        <ele>64.800003051758</ele>
        <time>2016-05-08T07:58:10.000Z</time>
      </trkpt>
      <trkpt lat="43.19532" lon="5.69863">
        <ele>64.599998474121</ele>
        <time>2016-05-08T07:58:13.000Z</time>
      </trkpt>
      <trkpt lat="43.19526" lon="5.69855">
        <ele>64.199996948242</ele>
        <time>2016-05-08T07:58:17.000Z</time>
      </trkpt>
      <trkpt lat="43.19522" lon="5.69855">
        <ele>63.799999237061</ele>
        <time>2016-05-08T07:58:18.000Z</time>
      </trkpt>
      <trkpt lat="43.19502" lon="5.69852">
        <ele>62.599998474121</ele>
        <time>2016-05-08T07:58:22.000Z</time>
      </trkpt>
      <trkpt lat="43.19495" lon="5.69851">
        <ele>62.200000762939</ele>
        <time>2016-05-08T07:58:23.000Z</time>
      </trkpt>
      <trkpt lat="43.19459" lon="5.69844">
        <ele>60.400001525879</ele>
        <time>2016-05-08T07:58:28.000Z</time>
      </trkpt>
      <trkpt lat="43.19445" lon="5.69842">
        <ele>59.799999237061</ele>
        <time>2016-05-08T07:58:30.000Z</time>
      </trkpt>
      <trkpt lat="43.19404" lon="5.69833">
        <ele>58.200000762939</ele>
        <time>2016-05-08T07:58:36.000Z</time>
      </trkpt>
      <trkpt lat="43.1939" lon="5.6983">
        <ele>57.599998474121</ele>
        <time>2016-05-08T07:58:38.000Z</time>
      </trkpt>
      <trkpt lat="43.19383" lon="5.69829">
        <ele>57.400001525879</ele>
        <time>2016-05-08T07:58:39.000Z</time>
      </trkpt>
      <trkpt lat="43.19338" lon="5.69814">
        <ele>55.400001525879</ele>
        <time>2016-05-08T07:58:46.000Z</time>
      </trkpt>
      <trkpt lat="43.19332" lon="5.6981">
        <ele>55.200000762939</ele>
        <time>2016-05-08T07:58:47.000Z</time>
      </trkpt>
      <trkpt lat="43.19326" lon="5.69805">
        <ele>55</ele>
        <time>2016-05-08T07:58:48.000Z</time>
      </trkpt>
      <trkpt lat="43.19315" lon="5.69793">
        <ele>54.200000762939</ele>
        <time>2016-05-08T07:58:50.000Z</time>
      </trkpt>
      <trkpt lat="43.19309" lon="5.69787">
        <ele>53.799999237061</ele>
        <time>2016-05-08T07:58:51.000Z</time>
      </trkpt>
      <trkpt lat="43.19296" lon="5.69776">
        <ele>53</ele>
        <time>2016-05-08T07:58:53.000Z</time>
      </trkpt>
      <trkpt lat="43.19284" lon="5.69766">
        <ele>52.200000762939</ele>
        <time>2016-05-08T07:58:55.000Z</time>
      </trkpt>
      <trkpt lat="43.19274" lon="5.69758">
        <ele>51.400001525879</ele>
        <time>2016-05-08T07:58:57.000Z</time>
      </trkpt>
      <trkpt lat="43.19269" lon="5.69754">
        <ele>51.200000762939</ele>
        <time>2016-05-08T07:58:58.000Z</time>
      </trkpt>
      <trkpt lat="43.19248" lon="5.69735">
        <ele>49.599998474121</ele>
        <time>2016-05-08T07:59:02.000Z</time>
      </trkpt>
      <trkpt lat="43.19243" lon="5.69728">
        <ele>49.200000762939</ele>
        <time>2016-05-08T07:59:03.000Z</time>
      </trkpt>
      <trkpt lat="43.19233" lon="5.69713">
        <ele>48.400001525879</ele>
        <time>2016-05-08T07:59:05.000Z</time>
      </trkpt>
      <trkpt lat="43.19228" lon="5.69705">
        <ele>48</ele>
        <time>2016-05-08T07:59:06.000Z</time>
      </trkpt>
      <trkpt lat="43.19213" lon="5.6968">
        <ele>47.200000762939</ele>
        <time>2016-05-08T07:59:09.000Z</time>
      </trkpt>
      <trkpt lat="43.19208" lon="5.69672">
        <ele>46.799999237061</ele>
        <time>2016-05-08T07:59:10.000Z</time>
      </trkpt>
      <trkpt lat="43.19188" lon="5.69639">
        <ele>45.400001525879</ele>
        <time>2016-05-08T07:59:14.000Z</time>
      </trkpt>
      <trkpt lat="43.19177" lon="5.69618">
        <ele>44.599998474121</ele>
        <time>2016-05-08T07:59:17.000Z</time>
      </trkpt>
      <trkpt lat="43.19173" lon="5.69612">
        <ele>44.200000762939</ele>
        <time>2016-05-08T07:59:18.000Z</time>
      </trkpt>
      <trkpt lat="43.19165" lon="5.69601">
        <ele>43.799999237061</ele>
        <time>2016-05-08T07:59:20.000Z</time>
      </trkpt>
      <trkpt lat="43.19156" lon="5.69594">
        <ele>43.400001525879</ele>
        <time>2016-05-08T07:59:22.000Z</time>
      </trkpt>
      <trkpt lat="43.19147" lon="5.69586">
        <ele>43</ele>
        <time>2016-05-08T07:59:24.000Z</time>
      </trkpt>
      <trkpt lat="43.19143" lon="5.69581">
        <ele>42.799999237061</ele>
        <time>2016-05-08T07:59:25.000Z</time>
      </trkpt>
      <trkpt lat="43.1914" lon="5.69576">
        <ele>42.599998474121</ele>
        <time>2016-05-08T07:59:26.000Z</time>
      </trkpt>
      <trkpt lat="43.19138" lon="5.69571">
        <ele>42.400001525879</ele>
        <time>2016-05-08T07:59:27.000Z</time>
      </trkpt>
      <trkpt lat="43.19131" lon="5.69557">
        <ele>42</ele>
        <time>2016-05-08T07:59:30.000Z</time>
      </trkpt>
      <trkpt lat="43.19123" lon="5.69539">
        <ele>42.400001525879</ele>
        <time>2016-05-08T07:59:34.000Z</time>
      </trkpt>
      <trkpt lat="43.19123" lon="5.69524">
        <ele>43</ele>
        <time>2016-05-08T07:59:37.000Z</time>
      </trkpt>
      <trkpt lat="43.19125" lon="5.69521">
        <ele>43.400001525879</ele>
        <time>2016-05-08T07:59:38.000Z</time>
      </trkpt>
      <trkpt lat="43.19131" lon="5.69517">
        <ele>43.599998474121</ele>
        <time>2016-05-08T07:59:40.000Z</time>
      </trkpt>
      <trkpt lat="43.19134" lon="5.69515">
        <ele>43.799999237061</ele>
        <time>2016-05-08T07:59:41.000Z</time>
      </trkpt>
      <trkpt lat="43.19138" lon="5.69513">
        <ele>44</ele>
        <time>2016-05-08T07:59:42.000Z</time>
      </trkpt>
      <trkpt lat="43.19142" lon="5.69512">
        <ele>44.200000762939</ele>
        <time>2016-05-08T07:59:43.000Z</time>
      </trkpt>
      <trkpt lat="43.19154" lon="5.69508">
        <ele>44.799999237061</ele>
        <time>2016-05-08T07:59:46.000Z</time>
      </trkpt>
      <trkpt lat="43.19162" lon="5.69505">
        <ele>45.400001525879</ele>
        <time>2016-05-08T07:59:48.000Z</time>
      </trkpt>
      <trkpt lat="43.19166" lon="5.69503">
        <ele>45.599998474121</ele>
        <time>2016-05-08T07:59:49.000Z</time>
      </trkpt>
      <trkpt lat="43.19185" lon="5.69496">
        <ele>47</ele>
        <time>2016-05-08T07:59:54.000Z</time>
      </trkpt>
      <trkpt lat="43.19193" lon="5.69487">
        <ele>48</ele>
        <time>2016-05-08T07:59:57.000Z</time>
      </trkpt>
      <trkpt lat="43.19198" lon="5.69472">
        <ele>48.799999237061</ele>
        <time>2016-05-08T08:00:00.000Z</time>
      </trkpt>
      <trkpt lat="43.192" lon="5.69462">
        <ele>49.200000762939</ele>
        <time>2016-05-08T08:00:02.000Z</time>
      </trkpt>
      <trkpt lat="43.192" lon="5.69439">
        <ele>49.400001525879</ele>
        <time>2016-05-08T08:00:06.000Z</time>
      </trkpt>
      <trkpt lat="43.19201" lon="5.69416">
        <ele>49.799999237061</ele>
        <time>2016-05-08T08:00:10.000Z</time>
      </trkpt>
      <trkpt lat="43.19202" lon="5.69387">
        <ele>49.799999237061</ele>
        <time>2016-05-08T08:00:15.000Z</time>
      </trkpt>
      <trkpt lat="43.19203" lon="5.69358">
        <ele>50.200000762939</ele>
        <time>2016-05-08T08:00:20.000Z</time>
      </trkpt>
      <trkpt lat="43.19203" lon="5.69353">
        <ele>50.200000762939</ele>
        <time>2016-05-08T08:00:21.000Z</time>
      </trkpt>
      <trkpt lat="43.19203" lon="5.69307">
        <ele>51</ele>
        <time>2016-05-08T08:00:29.000Z</time>
      </trkpt>
      <trkpt lat="43.19203" lon="5.69283">
        <ele>52.599998474121</ele>
        <time>2016-05-08T08:00:33.000Z</time>
      </trkpt>
      <trkpt lat="43.19203" lon="5.69254">
        <ele>54.799999237061</ele>
        <time>2016-05-08T08:00:38.000Z</time>
      </trkpt>
      <trkpt lat="43.19203" lon="5.69219">
        <ele>55.799999237061</ele>
        <time>2016-05-08T08:00:44.000Z</time>
      </trkpt>
      <trkpt lat="43.19204" lon="5.69207">
        <ele>56.200000762939</ele>
        <time>2016-05-08T08:00:46.000Z</time>
      </trkpt>
      <trkpt lat="43.19199" lon="5.69177">
        <ele>57.200000762939</ele>
        <time>2016-05-08T08:00:52.000Z</time>
      </trkpt>
      <trkpt lat="43.19196" lon="5.69151">
        <ele>58.200000762939</ele>
        <time>2016-05-08T08:00:57.000Z</time>
      </trkpt>
      <trkpt lat="43.19196" lon="5.69136">
        <ele>58.599998474121</ele>
        <time>2016-05-08T08:01:00.000Z</time>
      </trkpt>
      <trkpt lat="43.19205" lon="5.69109">
        <ele>57</ele>
        <time>2016-05-08T08:01:05.000Z</time>
      </trkpt>
      <trkpt lat="43.19209" lon="5.69088">
        <ele>56</ele>
        <time>2016-05-08T08:01:09.000Z</time>
      </trkpt>
      <trkpt lat="43.19208" lon="5.69083">
        <ele>55.799999237061</ele>
        <time>2016-05-08T08:01:10.000Z</time>
      </trkpt>
      <trkpt lat="43.19202" lon="5.69049">
        <ele>55</ele>
        <time>2016-05-08T08:01:16.000Z</time>
      </trkpt>
      <trkpt lat="43.19201" lon="5.69043">
        <ele>55.200000762939</ele>
        <time>2016-05-08T08:01:17.000Z</time>
      </trkpt>
      <trkpt lat="43.19195" lon="5.69003">
        <ele>55.599998474121</ele>
        <time>2016-05-08T08:01:24.000Z</time>
      </trkpt>
      <trkpt lat="43.19195" lon="5.68997">
        <ele>55.599998474121</ele>
        <time>2016-05-08T08:01:25.000Z</time>
      </trkpt>
      <trkpt lat="43.19198" lon="5.68963">
        <ele>55.400001525879</ele>
        <time>2016-05-08T08:01:30.000Z</time>
      </trkpt>
      <trkpt lat="43.19203" lon="5.68912">
        <ele>54</ele>
        <time>2016-05-08T08:01:38.000Z</time>
      </trkpt>
      <trkpt lat="43.19204" lon="5.68901">
        <ele>54</ele>
        <time>2016-05-08T08:01:40.000Z</time>
      </trkpt>
      <trkpt lat="43.19202" lon="5.6888">
        <ele>54</ele>
        <time>2016-05-08T08:01:44.000Z</time>
      </trkpt>
      <trkpt lat="43.19198" lon="5.68834">
        <ele>53.400001525879</ele>
        <time>2016-05-08T08:01:53.000Z</time>
      </trkpt>
      <trkpt lat="43.19191" lon="5.68795">
        <ele>53.200000762939</ele>
        <time>2016-05-08T08:01:59.000Z</time>
      </trkpt>
      <trkpt lat="43.19178" lon="5.68752">
        <ele>51.799999237061</ele>
        <time>2016-05-08T08:02:04.000Z</time>
      </trkpt>
      <trkpt lat="43.19174" lon="5.68745">
        <ele>51.400001525879</ele>
        <time>2016-05-08T08:02:05.000Z</time>
      </trkpt>
      <trkpt lat="43.19165" lon="5.6873">
        <ele>50.599998474121</ele>
        <time>2016-05-08T08:02:07.000Z</time>
      </trkpt>
      <trkpt lat="43.19162" lon="5.68722">
        <ele>50.200000762939</ele>
        <time>2016-05-08T08:02:08.000Z</time>
      </trkpt>
      <trkpt lat="43.19161" lon="5.68711">
        <ele>50.599998474121</ele>
        <time>2016-05-08T08:02:09.000Z</time>
      </trkpt>
      <trkpt lat="43.19161" lon="5.687">
        <ele>51.200000762939</ele>
        <time>2016-05-08T08:02:10.000Z</time>
      </trkpt>
      <trkpt lat="43.19161" lon="5.6869">
        <ele>51.599998474121</ele>
        <time>2016-05-08T08:02:11.000Z</time>
      </trkpt>
      <trkpt lat="43.19161" lon="5.68672">
        <ele>52.400001525879</ele>
        <time>2016-05-08T08:02:13.000Z</time>
      </trkpt>
      <trkpt lat="43.1916" lon="5.68643">
        <ele>53.799999237061</ele>
        <time>2016-05-08T08:02:17.000Z</time>
      </trkpt>
      <trkpt lat="43.19159" lon="5.68639">
        <ele>54</ele>
        <time>2016-05-08T08:02:18.000Z</time>
      </trkpt>
      <trkpt lat="43.19153" lon="5.68627">
        <ele>55</ele>
        <time>2016-05-08T08:02:21.000Z</time>
      </trkpt>
      <trkpt lat="43.19138" lon="5.68616">
        <ele>55.799999237061</ele>
        <time>2016-05-08T08:02:25.000Z</time>
      </trkpt>
      <trkpt lat="43.19134" lon="5.68615">
        <ele>55.799999237061</ele>
        <time>2016-05-08T08:02:26.000Z</time>
      </trkpt>
      <trkpt lat="43.19121" lon="5.68613">
        <ele>55.400001525879</ele>
        <time>2016-05-08T08:02:29.000Z</time>
      </trkpt>
      <trkpt lat="43.19108" lon="5.68609">
        <ele>55.200000762939</ele>
        <time>2016-05-08T08:02:32.000Z</time>
      </trkpt>
      <trkpt lat="43.19104" lon="5.68607">
        <ele>55.400001525879</ele>
        <time>2016-05-08T08:02:33.000Z</time>
      </trkpt>
      <trkpt lat="43.19093" lon="5.68597">
        <ele>56.200000762939</ele>
        <time>2016-05-08T08:02:36.000Z</time>
      </trkpt>
      <trkpt lat="43.19089" lon="5.68594">
        <ele>56.599998474121</ele>
        <time>2016-05-08T08:02:37.000Z</time>
      </trkpt>
      <trkpt lat="43.19086" lon="5.6859">
        <ele>57</ele>
        <time>2016-05-08T08:02:38.000Z</time>
      </trkpt>
      <trkpt lat="43.19075" lon="5.68576">
        <ele>58.599998474121</ele>
        <time>2016-05-08T08:02:42.000Z</time>
      </trkpt>
      <trkpt lat="43.1907" lon="5.68569">
        <ele>59.200000762939</ele>
        <time>2016-05-08T08:02:44.000Z</time>
      </trkpt>
      <trkpt lat="43.19067" lon="5.68566">
        <ele>59.599998474121</ele>
        <time>2016-05-08T08:02:45.000Z</time>
      </trkpt>
      <trkpt lat="43.19061" lon="5.68556">
        <ele>60.799999237061</ele>
        <time>2016-05-08T08:02:48.000Z</time>
      </trkpt>
      <trkpt lat="43.19056" lon="5.6855">
        <ele>61.200000762939</ele>
        <time>2016-05-08T08:02:50.000Z</time>
      </trkpt>
      <trkpt lat="43.1905" lon="5.68543">
        <ele>61.200000762939</ele>
        <time>2016-05-08T08:02:52.000Z</time>
      </trkpt>
      <trkpt lat="43.19045" lon="5.68535">
        <ele>61.200000762939</ele>
        <time>2016-05-08T08:02:54.000Z</time>
      </trkpt>
      <trkpt lat="43.19039" lon="5.68526">
        <ele>61.400001525879</ele>
        <time>2016-05-08T08:02:56.000Z</time>
      </trkpt>
      <trkpt lat="43.19034" lon="5.68517">
        <ele>61.400001525879</ele>
        <time>2016-05-08T08:02:58.000Z</time>
      </trkpt>
      <trkpt lat="43.19024" lon="5.68495">
        <ele>61.599998474121</ele>
        <time>2016-05-08T08:03:02.000Z</time>
      </trkpt>
      <trkpt lat="43.19018" lon="5.68483">
        <ele>61.799999237061</ele>
        <time>2016-05-08T08:03:04.000Z</time>
      </trkpt>
      <trkpt lat="43.18997" lon="5.68441">
        <ele>63.200000762939</ele>
        <time>2016-05-08T08:03:10.000Z</time>
      </trkpt>
      <trkpt lat="43.18982" lon="5.68411">
        <ele>64.400001525879</ele>
        <time>2016-05-08T08:03:15.000Z</time>
      </trkpt>
      <trkpt lat="43.18966" lon="5.68386">
        <ele>65.199996948242</ele>
        <time>2016-05-08T08:03:21.000Z</time>
      </trkpt>
      <trkpt lat="43.1896" lon="5.68378">
        <ele>65</ele>
        <time>2016-05-08T08:03:23.000Z</time>
      </trkpt>
      <trkpt lat="43.18942" lon="5.68357">
        <ele>64.199996948242</ele>
        <time>2016-05-08T08:03:28.000Z</time>
      </trkpt>
      <trkpt lat="43.18938" lon="5.68352">
        <ele>64.199996948242</ele>
        <time>2016-05-08T08:03:29.000Z</time>
      </trkpt>
      <trkpt lat="43.18912" lon="5.68318">
        <ele>63.400001525879</ele>
        <time>2016-05-08T08:03:35.000Z</time>
      </trkpt>
      <trkpt lat="43.18891" lon="5.68291">
        <ele>63.200000762939</ele>
        <time>2016-05-08T08:03:39.000Z</time>
      </trkpt>
      <trkpt lat="43.1887" lon="5.68261">
        <ele>63.799999237061</ele>
        <time>2016-05-08T08:03:43.000Z</time>
      </trkpt>
      <trkpt lat="43.18846" lon="5.68234">
        <ele>63.799999237061</ele>
        <time>2016-05-08T08:03:48.000Z</time>
      </trkpt>
      <trkpt lat="43.18829" lon="5.68214">
        <ele>63.599998474121</ele>
        <time>2016-05-08T08:03:53.000Z</time>
      </trkpt>
      <trkpt lat="43.18801" lon="5.6818">
        <ele>62.200000762939</ele>
        <time>2016-05-08T08:04:01.000Z</time>
      </trkpt>
      <trkpt lat="43.18772" lon="5.68147">
        <ele>60.599998474121</ele>
        <time>2016-05-08T08:04:07.000Z</time>
      </trkpt>
      <trkpt lat="43.18752" lon="5.68118">
        <ele>60.599998474121</ele>
        <time>2016-05-08T08:04:12.000Z</time>
      </trkpt>
      <trkpt lat="43.18749" lon="5.68113">
        <ele>60.799999237061</ele>
        <time>2016-05-08T08:04:13.000Z</time>
      </trkpt>
      <trkpt lat="43.18722" lon="5.68075">
        <ele>61.799999237061</ele>
        <time>2016-05-08T08:04:22.000Z</time>
      </trkpt>
      <trkpt lat="43.18713" lon="5.68063">
        <ele>62</ele>
        <time>2016-05-08T08:04:25.000Z</time>
      </trkpt>
      <trkpt lat="43.18703" lon="5.68052">
        <ele>62.200000762939</ele>
        <time>2016-05-08T08:04:28.000Z</time>
      </trkpt>
      <trkpt lat="43.18698" lon="5.68043">
        <ele>62.599998474121</ele>
        <time>2016-05-08T08:04:30.000Z</time>
      </trkpt>
      <trkpt lat="43.18676" lon="5.68021">
        <ele>62.799999237061</ele>
        <time>2016-05-08T08:04:37.000Z</time>
      </trkpt>
      <trkpt lat="43.18669" lon="5.68025">
        <ele>61.799999237061</ele>
        <time>2016-05-08T08:04:39.000Z</time>
      </trkpt>
      <trkpt lat="43.18664" lon="5.68028">
        <ele>61.400001525879</ele>
        <time>2016-05-08T08:04:40.000Z</time>
      </trkpt>
      <trkpt lat="43.1865" lon="5.68044">
        <ele>59.799999237061</ele>
        <time>2016-05-08T08:04:43.000Z</time>
      </trkpt>
      <trkpt lat="43.18645" lon="5.6805">
        <ele>59.400001525879</ele>
        <time>2016-05-08T08:04:44.000Z</time>
      </trkpt>
      <trkpt lat="43.18629" lon="5.68068">
        <ele>58</ele>
        <time>2016-05-08T08:04:47.000Z</time>
      </trkpt>
      <trkpt lat="43.18613" lon="5.68086">
        <ele>56.799999237061</ele>
        <time>2016-05-08T08:04:50.000Z</time>
      </trkpt>
      <trkpt lat="43.18596" lon="5.68105">
        <ele>56.400001525879</ele>
        <time>2016-05-08T08:04:53.000Z</time>
      </trkpt>
      <trkpt lat="43.1858" lon="5.68123">
        <ele>55.400001525879</ele>
        <time>2016-05-08T08:04:56.000Z</time>
      </trkpt>
      <trkpt lat="43.18566" lon="5.6814">
        <ele>53.400001525879</ele>
        <time>2016-05-08T08:04:59.000Z</time>
      </trkpt>
      <trkpt lat="43.18556" lon="5.68151">
        <ele>52</ele>
        <time>2016-05-08T08:05:01.000Z</time>
      </trkpt>
      <trkpt lat="43.18552" lon="5.68156">
        <ele>51.200000762939</ele>
        <time>2016-05-08T08:05:02.000Z</time>
      </trkpt>
      <trkpt lat="43.18537" lon="5.68173">
        <ele>49.200000762939</ele>
        <time>2016-05-08T08:05:05.000Z</time>
      </trkpt>
      <trkpt lat="43.18526" lon="5.68186">
        <ele>48</ele>
        <time>2016-05-08T08:05:07.000Z</time>
      </trkpt>
      <trkpt lat="43.18521" lon="5.68193">
        <ele>47.599998474121</ele>
        <time>2016-05-08T08:05:08.000Z</time>
      </trkpt>
      <trkpt lat="43.1851" lon="5.68208">
        <ele>46.200000762939</ele>
        <time>2016-05-08T08:05:10.000Z</time>
      </trkpt>
      <trkpt lat="43.18499" lon="5.68223">
        <ele>44.400001525879</ele>
        <time>2016-05-08T08:05:12.000Z</time>
      </trkpt>
      <trkpt lat="43.18487" lon="5.68239">
        <ele>42</ele>
        <time>2016-05-08T08:05:14.000Z</time>
      </trkpt>
      <trkpt lat="43.18476" lon="5.68255">
        <ele>39.599998474121</ele>
        <time>2016-05-08T08:05:16.000Z</time>
      </trkpt>
      <trkpt lat="43.1847" lon="5.68263">
        <ele>38.400001525879</ele>
        <time>2016-05-08T08:05:17.000Z</time>
      </trkpt>
      <trkpt lat="43.18465" lon="5.68271">
        <ele>37.599998474121</ele>
        <time>2016-05-08T08:05:18.000Z</time>
      </trkpt>
      <trkpt lat="43.1846" lon="5.68278">
        <ele>36.799999237061</ele>
        <time>2016-05-08T08:05:19.000Z</time>
      </trkpt>
      <trkpt lat="43.18455" lon="5.68285">
        <ele>36</ele>
        <time>2016-05-08T08:05:20.000Z</time>
      </trkpt>
      <trkpt lat="43.18449" lon="5.68292">
        <ele>35.200000762939</ele>
        <time>2016-05-08T08:05:21.000Z</time>
      </trkpt>
      <trkpt lat="43.18439" lon="5.68306">
        <ele>33.599998474121</ele>
        <time>2016-05-08T08:05:23.000Z</time>
      </trkpt>
      <trkpt lat="43.18433" lon="5.68313">
        <ele>32.599998474121</ele>
        <time>2016-05-08T08:05:24.000Z</time>
      </trkpt>
      <trkpt lat="43.18422" lon="5.68328">
        <ele>31.39999961853</ele>
        <time>2016-05-08T08:05:26.000Z</time>
      </trkpt>
      <trkpt lat="43.18417" lon="5.68335">
        <ele>30.799999237061</ele>
        <time>2016-05-08T08:05:27.000Z</time>
      </trkpt>
      <trkpt lat="43.18411" lon="5.68342">
        <ele>30.200000762939</ele>
        <time>2016-05-08T08:05:28.000Z</time>
      </trkpt>
      <trkpt lat="43.184" lon="5.68357">
        <ele>28.60000038147</ele>
        <time>2016-05-08T08:05:30.000Z</time>
      </trkpt>
      <trkpt lat="43.18383" lon="5.6838">
        <ele>27</ele>
        <time>2016-05-08T08:05:33.000Z</time>
      </trkpt>
      <trkpt lat="43.18373" lon="5.68394">
        <ele>26.200000762939</ele>
        <time>2016-05-08T08:05:35.000Z</time>
      </trkpt>
      <trkpt lat="43.18366" lon="5.68409">
        <ele>25.39999961853</ele>
        <time>2016-05-08T08:05:37.000Z</time>
      </trkpt>
      <trkpt lat="43.1836" lon="5.68421">
        <ele>24.799999237061</ele>
        <time>2016-05-08T08:05:39.000Z</time>
      </trkpt>
      <trkpt lat="43.18354" lon="5.6843">
        <ele>24.39999961853</ele>
        <time>2016-05-08T08:05:41.000Z</time>
      </trkpt>
      <trkpt lat="43.18347" lon="5.68436">
        <ele>24</ele>
        <time>2016-05-08T08:05:43.000Z</time>
      </trkpt>
      <trkpt lat="43.18345" lon="5.6844">
        <ele>23.60000038147</ele>
        <time>2016-05-08T08:05:44.000Z</time>
      </trkpt>
      <trkpt lat="43.18342" lon="5.68445">
        <ele>23.39999961853</ele>
        <time>2016-05-08T08:05:45.000Z</time>
      </trkpt>
      <trkpt lat="43.18332" lon="5.68464">
        <ele>22</ele>
        <time>2016-05-08T08:05:48.000Z</time>
      </trkpt>
      <trkpt lat="43.18328" lon="5.68471">
        <ele>21.200000762939</ele>
        <time>2016-05-08T08:05:49.000Z</time>
      </trkpt>
      <trkpt lat="43.18312" lon="5.68503">
        <ele>17.799999237061</ele>
        <time>2016-05-08T08:05:54.000Z</time>
      </trkpt>
      <trkpt lat="43.18305" lon="5.68512">
        <ele>16.60000038147</ele>
        <time>2016-05-08T08:05:56.000Z</time>
      </trkpt>
      <trkpt lat="43.18296" lon="5.68516">
        <ele>16</ele>
        <time>2016-05-08T08:05:58.000Z</time>
      </trkpt>
      <trkpt lat="43.18285" lon="5.68512">
        <ele>15.39999961853</ele>
        <time>2016-05-08T08:06:00.000Z</time>
      </trkpt>
      <trkpt lat="43.18277" lon="5.685">
        <ele>15</ele>
        <time>2016-05-08T08:06:02.000Z</time>
      </trkpt>
      <trkpt lat="43.18274" lon="5.68494">
        <ele>14.800000190735</ele>
        <time>2016-05-08T08:06:03.000Z</time>
      </trkpt>
      <trkpt lat="43.18269" lon="5.68482">
        <ele>14.39999961853</ele>
        <time>2016-05-08T08:06:05.000Z</time>
      </trkpt>
      <trkpt lat="43.18253" lon="5.68446">
        <ele>15</ele>
        <time>2016-05-08T08:06:11.000Z</time>
      </trkpt>
      <trkpt lat="43.18225" lon="5.68387">
        <ele>16.799999237061</ele>
        <time>2016-05-08T08:06:21.000Z</time>
      </trkpt>
      <trkpt lat="43.18199" lon="5.68329">
        <ele>17.39999961853</ele>
        <time>2016-05-08T08:06:31.000Z</time>
      </trkpt>
      <trkpt lat="43.18176" lon="5.68278">
        <ele>18.39999961853</ele>
        <time>2016-05-08T08:06:40.000Z</time>
      </trkpt>
      <trkpt lat="43.18173" lon="5.68272">
        <ele>18.39999961853</ele>
        <time>2016-05-08T08:06:41.000Z</time>
      </trkpt>
      <trkpt lat="43.18146" lon="5.68215">
        <ele>19.60000038147</ele>
        <time>2016-05-08T08:06:51.000Z</time>
      </trkpt>
      <trkpt lat="43.18137" lon="5.68197">
        <ele>19</ele>
        <time>2016-05-08T08:06:54.000Z</time>
      </trkpt>
      <trkpt lat="43.18122" lon="5.68164">
        <ele>18</ele>
        <time>2016-05-08T08:06:59.000Z</time>
      </trkpt>
      <trkpt lat="43.18096" lon="5.68108">
        <ele>17.39999961853</ele>
        <time>2016-05-08T08:07:07.000Z</time>
      </trkpt>
      <trkpt lat="43.18082" lon="5.68078">
        <ele>16.799999237061</ele>
        <time>2016-05-08T08:07:11.000Z</time>
      </trkpt>
      <trkpt lat="43.18059" lon="5.68033">
        <ele>14.39999961853</ele>
        <time>2016-05-08T08:07:17.000Z</time>
      </trkpt>
      <trkpt lat="43.18045" lon="5.68001">
        <ele>12.199999809265</ele>
        <time>2016-05-08T08:07:21.000Z</time>
      </trkpt>
      <trkpt lat="43.1803" lon="5.67967">
        <ele>10</ele>
        <time>2016-05-08T08:07:25.000Z</time>
      </trkpt>
      <trkpt lat="43.18026" lon="5.67959">
        <ele>9.1999998092651</ele>
        <time>2016-05-08T08:07:26.000Z</time>
      </trkpt>
      <trkpt lat="43.18016" lon="5.67931">
        <ele>7.5999999046326</ele>
        <time>2016-05-08T08:07:29.000Z</time>
      </trkpt>
      <trkpt lat="43.18014" lon="5.67921">
        <ele>7.4000000953674</ele>
        <time>2016-05-08T08:07:30.000Z</time>
      </trkpt>
      <trkpt lat="43.18013" lon="5.67911">
        <ele>7.1999998092651</ele>
        <time>2016-05-08T08:07:31.000Z</time>
      </trkpt>
      <trkpt lat="43.18012" lon="5.67891">
        <ele>7.1999998092651</ele>
        <time>2016-05-08T08:07:33.000Z</time>
      </trkpt>
      <trkpt lat="43.18013" lon="5.67864">
        <ele>8.3999996185303</ele>
        <time>2016-05-08T08:07:36.000Z</time>
      </trkpt>
      <trkpt lat="43.18013" lon="5.67848">
        <ele>9.6000003814697</ele>
        <time>2016-05-08T08:07:38.000Z</time>
      </trkpt>
      <trkpt lat="43.18007" lon="5.67838">
        <ele>9.6000003814697</ele>
        <time>2016-05-08T08:07:40.000Z</time>
      </trkpt>
      <trkpt lat="43.17997" lon="5.67831">
        <ele>9.3999996185303</ele>
        <time>2016-05-08T08:07:42.000Z</time>
      </trkpt>
      <trkpt lat="43.17992" lon="5.67826">
        <ele>9.3999996185303</ele>
        <time>2016-05-08T08:07:43.000Z</time>
      </trkpt>
      <trkpt lat="43.17988" lon="5.67821">
        <ele>9.3999996185303</ele>
        <time>2016-05-08T08:07:44.000Z</time>
      </trkpt>
      <trkpt lat="43.17979" lon="5.67804">
        <ele>10</ele>
        <time>2016-05-08T08:07:47.000Z</time>
      </trkpt>
      <trkpt lat="43.17976" lon="5.67772">
        <ele>10.60000038147</ele>
        <time>2016-05-08T08:07:51.000Z</time>
      </trkpt>
      <trkpt lat="43.17976" lon="5.67764">
        <ele>11</ele>
        <time>2016-05-08T08:07:52.000Z</time>
      </trkpt>
      <trkpt lat="43.17977" lon="5.67757">
        <ele>11.39999961853</ele>
        <time>2016-05-08T08:07:53.000Z</time>
      </trkpt>
      <trkpt lat="43.17978" lon="5.67741">
        <ele>12.199999809265</ele>
        <time>2016-05-08T08:07:55.000Z</time>
      </trkpt>
      <trkpt lat="43.1798" lon="5.67718">
        <ele>13.39999961853</ele>
        <time>2016-05-08T08:07:58.000Z</time>
      </trkpt>
      <trkpt lat="43.17982" lon="5.67702">
        <ele>13.60000038147</ele>
        <time>2016-05-08T08:08:00.000Z</time>
      </trkpt>
      <trkpt lat="43.17991" lon="5.67641">
        <ele>15</ele>
        <time>2016-05-08T08:08:08.000Z</time>
      </trkpt>
      <trkpt lat="43.18006" lon="5.67567">
        <ele>15.199999809265</ele>
        <time>2016-05-08T08:08:18.000Z</time>
      </trkpt>
      <trkpt lat="43.18008" lon="5.67559">
        <ele>15</ele>
        <time>2016-05-08T08:08:19.000Z</time>
      </trkpt>
      <trkpt lat="43.18011" lon="5.67544">
        <ele>15.39999961853</ele>
        <time>2016-05-08T08:08:21.000Z</time>
      </trkpt>
      <trkpt lat="43.18021" lon="5.67494">
        <ele>18.200000762939</ele>
        <time>2016-05-08T08:08:28.000Z</time>
      </trkpt>
      <trkpt lat="43.18031" lon="5.67435">
        <ele>21.60000038147</ele>
        <time>2016-05-08T08:08:36.000Z</time>
      </trkpt>
      <trkpt lat="43.18033" lon="5.67421">
        <ele>22.799999237061</ele>
        <time>2016-05-08T08:08:38.000Z</time>
      </trkpt>
      <trkpt lat="43.18036" lon="5.67399">
        <ele>23.799999237061</ele>
        <time>2016-05-08T08:08:41.000Z</time>
      </trkpt>
      <trkpt lat="43.18041" lon="5.67364">
        <ele>24.39999961853</ele>
        <time>2016-05-08T08:08:46.000Z</time>
      </trkpt>
      <trkpt lat="43.18048" lon="5.67313">
        <ele>24.799999237061</ele>
        <time>2016-05-08T08:08:53.000Z</time>
      </trkpt>
      <trkpt lat="43.18049" lon="5.67305">
        <ele>25</ele>
        <time>2016-05-08T08:08:54.000Z</time>
      </trkpt>
      <trkpt lat="43.18059" lon="5.67257">
        <ele>23</ele>
        <time>2016-05-08T08:09:00.000Z</time>
      </trkpt>
      <trkpt lat="43.18077" lon="5.67201">
        <ele>20.60000038147</ele>
        <time>2016-05-08T08:09:07.000Z</time>
      </trkpt>
      <trkpt lat="43.18097" lon="5.67145">
        <ele>21.39999961853</ele>
        <time>2016-05-08T08:09:14.000Z</time>
      </trkpt>
      <trkpt lat="43.18105" lon="5.6713">
        <ele>21.799999237061</ele>
        <time>2016-05-08T08:09:16.000Z</time>
      </trkpt>
      <trkpt lat="43.18122" lon="5.67099">
        <ele>21.799999237061</ele>
        <time>2016-05-08T08:09:20.000Z</time>
      </trkpt>
      <trkpt lat="43.1814" lon="5.67067">
        <ele>20.60000038147</ele>
        <time>2016-05-08T08:09:24.000Z</time>
      </trkpt>
      <trkpt lat="43.18146" lon="5.6706">
        <ele>20</ele>
        <time>2016-05-08T08:09:25.000Z</time>
      </trkpt>
      <trkpt lat="43.18168" lon="5.6703">
        <ele>19.39999961853</ele>
        <time>2016-05-08T08:09:29.000Z</time>
      </trkpt>
      <trkpt lat="43.18179" lon="5.67017">
        <ele>19.200000762939</ele>
        <time>2016-05-08T08:09:31.000Z</time>
      </trkpt>
      <trkpt lat="43.18209" lon="5.66987">
        <ele>16.799999237061</ele>
        <time>2016-05-08T08:09:37.000Z</time>
      </trkpt>
      <trkpt lat="43.1825" lon="5.66945">
        <ele>16.39999961853</ele>
        <time>2016-05-08T08:09:46.000Z</time>
      </trkpt>
      <trkpt lat="43.18275" lon="5.66915">
        <ele>17</ele>
        <time>2016-05-08T08:09:52.000Z</time>
      </trkpt>
      <trkpt lat="43.18286" lon="5.66899">
        <ele>17.39999961853</ele>
        <time>2016-05-08T08:09:55.000Z</time>
      </trkpt>
      <trkpt lat="43.1829" lon="5.66894">
        <ele>17.60000038147</ele>
        <time>2016-05-08T08:09:56.000Z</time>
      </trkpt>
      <trkpt lat="43.18301" lon="5.66878">
        <ele>18.39999961853</ele>
        <time>2016-05-08T08:09:59.000Z</time>
      </trkpt>
      <trkpt lat="43.18316" lon="5.66855">
        <ele>19.200000762939</ele>
        <time>2016-05-08T08:10:03.000Z</time>
      </trkpt>
      <trkpt lat="43.1833" lon="5.6683">
        <ele>21</ele>
        <time>2016-05-08T08:10:07.000Z</time>
      </trkpt>
      <trkpt lat="43.18343" lon="5.66806">
        <ele>22.799999237061</ele>
        <time>2016-05-08T08:10:11.000Z</time>
      </trkpt>
      <trkpt lat="43.18349" lon="5.66794">
        <ele>23.60000038147</ele>
        <time>2016-05-08T08:10:13.000Z</time>
      </trkpt>
      <trkpt lat="43.18355" lon="5.66781">
        <ele>24.200000762939</ele>
        <time>2016-05-08T08:10:15.000Z</time>
      </trkpt>
      <trkpt lat="43.18366" lon="5.66756">
        <ele>25.799999237061</ele>
        <time>2016-05-08T08:10:19.000Z</time>
      </trkpt>
      <trkpt lat="43.18373" lon="5.66736">
        <ele>27</ele>
        <time>2016-05-08T08:10:22.000Z</time>
      </trkpt>
      <trkpt lat="43.18377" lon="5.66724">
        <ele>28</ele>
        <time>2016-05-08T08:10:24.000Z</time>
      </trkpt>
      <trkpt lat="43.18388" lon="5.66682">
        <ele>30</ele>
        <time>2016-05-08T08:10:30.000Z</time>
      </trkpt>
      <trkpt lat="43.18399" lon="5.66646">
        <ele>31.60000038147</ele>
        <time>2016-05-08T08:10:35.000Z</time>
      </trkpt>
      <trkpt lat="43.18407" lon="5.66614">
        <ele>30.60000038147</ele>
        <time>2016-05-08T08:10:39.000Z</time>
      </trkpt>
      <trkpt lat="43.18425" lon="5.66548">
        <ele>27.39999961853</ele>
        <time>2016-05-08T08:10:47.000Z</time>
      </trkpt>
      <trkpt lat="43.18427" lon="5.66539">
        <ele>26.39999961853</ele>
        <time>2016-05-08T08:10:48.000Z</time>
      </trkpt>
      <trkpt lat="43.18438" lon="5.66502">
        <ele>22.200000762939</ele>
        <time>2016-05-08T08:10:52.000Z</time>
      </trkpt>
      <trkpt lat="43.18447" lon="5.66472">
        <ele>19.200000762939</ele>
        <time>2016-05-08T08:10:55.000Z</time>
      </trkpt>
      <trkpt lat="43.18449" lon="5.66462">
        <ele>18.60000038147</ele>
        <time>2016-05-08T08:10:56.000Z</time>
      </trkpt>
      <trkpt lat="43.18458" lon="5.66431">
        <ele>17.200000762939</ele>
        <time>2016-05-08T08:10:59.000Z</time>
      </trkpt>
      <trkpt lat="43.1847" lon="5.66388">
        <ele>15.60000038147</ele>
        <time>2016-05-08T08:11:03.000Z</time>
      </trkpt>
      <trkpt lat="43.18473" lon="5.66377">
        <ele>15.60000038147</ele>
        <time>2016-05-08T08:11:04.000Z</time>
      </trkpt>
      <trkpt lat="43.18483" lon="5.66342">
        <ele>16.60000038147</ele>
        <time>2016-05-08T08:11:07.000Z</time>
      </trkpt>
      <trkpt lat="43.18493" lon="5.66306">
        <ele>18.200000762939</ele>
        <time>2016-05-08T08:11:10.000Z</time>
      </trkpt>
      <trkpt lat="43.185" lon="5.66281">
        <ele>18</ele>
        <time>2016-05-08T08:11:12.000Z</time>
      </trkpt>
      <trkpt lat="43.18511" lon="5.66242">
        <ele>18.200000762939</ele>
        <time>2016-05-08T08:11:15.000Z</time>
      </trkpt>
      <trkpt lat="43.18526" lon="5.66192">
        <ele>18.799999237061</ele>
        <time>2016-05-08T08:11:19.000Z</time>
      </trkpt>
      <trkpt lat="43.18533" lon="5.66169">
        <ele>19.60000038147</ele>
        <time>2016-05-08T08:11:21.000Z</time>
      </trkpt>
      <trkpt lat="43.18541" lon="5.66147">
        <ele>19.39999961853</ele>
        <time>2016-05-08T08:11:23.000Z</time>
      </trkpt>
      <trkpt lat="43.18554" lon="5.66108">
        <ele>20.799999237061</ele>
        <time>2016-05-08T08:11:27.000Z</time>
      </trkpt>
      <trkpt lat="43.1857" lon="5.66062">
        <ele>21.39999961853</ele>
        <time>2016-05-08T08:11:33.000Z</time>
      </trkpt>
      <trkpt lat="43.1858" lon="5.66033">
        <ele>20.60000038147</ele>
        <time>2016-05-08T08:11:37.000Z</time>
      </trkpt>
      <trkpt lat="43.18592" lon="5.65998">
        <ele>20.60000038147</ele>
        <time>2016-05-08T08:11:42.000Z</time>
      </trkpt>
      <trkpt lat="43.18596" lon="5.65983">
        <ele>20.60000038147</ele>
        <time>2016-05-08T08:11:44.000Z</time>
      </trkpt>
      <trkpt lat="43.18612" lon="5.65933">
        <ele>24</ele>
        <time>2016-05-08T08:11:51.000Z</time>
      </trkpt>
      <trkpt lat="43.18626" lon="5.65891">
        <ele>25.39999961853</ele>
        <time>2016-05-08T08:11:57.000Z</time>
      </trkpt>
      <trkpt lat="43.18631" lon="5.65876">
        <ele>25.799999237061</ele>
        <time>2016-05-08T08:11:59.000Z</time>
      </trkpt>
      <trkpt lat="43.1864" lon="5.65847">
        <ele>26.60000038147</ele>
        <time>2016-05-08T08:12:03.000Z</time>
      </trkpt>
      <trkpt lat="43.18655" lon="5.65796">
        <ele>26.39999961853</ele>
        <time>2016-05-08T08:12:10.000Z</time>
      </trkpt>
      <trkpt lat="43.18658" lon="5.65789">
        <ele>25.799999237061</ele>
        <time>2016-05-08T08:12:11.000Z</time>
      </trkpt>
      <trkpt lat="43.18672" lon="5.65731">
        <ele>26</ele>
        <time>2016-05-08T08:12:19.000Z</time>
      </trkpt>
      <trkpt lat="43.18674" lon="5.65723">
        <ele>26</ele>
        <time>2016-05-08T08:12:20.000Z</time>
      </trkpt>
      <trkpt lat="43.18683" lon="5.65662">
        <ele>25.799999237061</ele>
        <time>2016-05-08T08:12:28.000Z</time>
      </trkpt>
      <trkpt lat="43.18685" lon="5.65622">
        <ele>26.200000762939</ele>
        <time>2016-05-08T08:12:33.000Z</time>
      </trkpt>
      <trkpt lat="43.18688" lon="5.65582">
        <ele>26.799999237061</ele>
        <time>2016-05-08T08:12:38.000Z</time>
      </trkpt>
      <trkpt lat="43.18693" lon="5.65519">
        <ele>28.799999237061</ele>
        <time>2016-05-08T08:12:46.000Z</time>
      </trkpt>
      <trkpt lat="43.18702" lon="5.65456">
        <ele>30</ele>
        <time>2016-05-08T08:12:54.000Z</time>
      </trkpt>
      <trkpt lat="43.18704" lon="5.65448">
        <ele>29.799999237061</ele>
        <time>2016-05-08T08:12:55.000Z</time>
      </trkpt>
      <trkpt lat="43.18717" lon="5.65411">
        <ele>29</ele>
        <time>2016-05-08T08:13:00.000Z</time>
      </trkpt>
      <trkpt lat="43.18744" lon="5.6536">
        <ele>26.799999237061</ele>
        <time>2016-05-08T08:13:07.000Z</time>
      </trkpt>
      <trkpt lat="43.18771" lon="5.65329">
        <ele>26.200000762939</ele>
        <time>2016-05-08T08:13:12.000Z</time>
      </trkpt>
      <trkpt lat="43.18807" lon="5.65286">
        <ele>30.200000762939</ele>
        <time>2016-05-08T08:13:18.000Z</time>
      </trkpt>
      <trkpt lat="43.18835" lon="5.65254">
        <ele>30</ele>
        <time>2016-05-08T08:13:22.000Z</time>
      </trkpt>
      <trkpt lat="43.18858" lon="5.6523">
        <ele>27</ele>
        <time>2016-05-08T08:13:25.000Z</time>
      </trkpt>
      <trkpt lat="43.18865" lon="5.65222">
        <ele>26.799999237061</ele>
        <time>2016-05-08T08:13:26.000Z</time>
      </trkpt>
      <trkpt lat="43.18894" lon="5.65186">
        <ele>26.39999961853</ele>
        <time>2016-05-08T08:13:30.000Z</time>
      </trkpt>
      <trkpt lat="43.18907" lon="5.65165">
        <ele>23.60000038147</ele>
        <time>2016-05-08T08:13:32.000Z</time>
      </trkpt>
      <trkpt lat="43.18918" lon="5.65142">
        <ele>20.39999961853</ele>
        <time>2016-05-08T08:13:34.000Z</time>
      </trkpt>
      <trkpt lat="43.18934" lon="5.65107">
        <ele>16.60000038147</ele>
        <time>2016-05-08T08:13:37.000Z</time>
      </trkpt>
      <trkpt lat="43.18938" lon="5.65095">
        <ele>15.39999961853</ele>
        <time>2016-05-08T08:13:38.000Z</time>
      </trkpt>
      <trkpt lat="43.18946" lon="5.65071">
        <ele>12.60000038147</ele>
        <time>2016-05-08T08:13:40.000Z</time>
      </trkpt>
      <trkpt lat="43.18954" lon="5.65035">
        <ele>10.800000190735</ele>
        <time>2016-05-08T08:13:43.000Z</time>
      </trkpt>
      <trkpt lat="43.1896" lon="5.65001">
        <ele>10.199999809265</ele>
        <time>2016-05-08T08:13:46.000Z</time>
      </trkpt>
      <trkpt lat="43.18964" lon="5.64971">
        <ele>10.199999809265</ele>
        <time>2016-05-08T08:13:49.000Z</time>
      </trkpt>
      <trkpt lat="43.18965" lon="5.64952">
        <ele>10.199999809265</ele>
        <time>2016-05-08T08:13:51.000Z</time>
      </trkpt>
      <trkpt lat="43.18965" lon="5.64925">
        <ele>10.199999809265</ele>
        <time>2016-05-08T08:13:54.000Z</time>
      </trkpt>
      <trkpt lat="43.18961" lon="5.6487">
        <ele>11.199999809265</ele>
        <time>2016-05-08T08:14:01.000Z</time>
      </trkpt>
      <trkpt lat="43.18952" lon="5.648">
        <ele>15.199999809265</ele>
        <time>2016-05-08T08:14:10.000Z</time>
      </trkpt>
      <trkpt lat="43.18944" lon="5.64741">
        <ele>14.800000190735</ele>
        <time>2016-05-08T08:14:18.000Z</time>
      </trkpt>
      <trkpt lat="43.18942" lon="5.64726">
        <ele>15</ele>
        <time>2016-05-08T08:14:20.000Z</time>
      </trkpt>
      <trkpt lat="43.1894" lon="5.64672">
        <ele>15.199999809265</ele>
        <time>2016-05-08T08:14:27.000Z</time>
      </trkpt>
      <trkpt lat="43.18942" lon="5.64593">
        <ele>15.39999961853</ele>
        <time>2016-05-08T08:14:37.000Z</time>
      </trkpt>
      <trkpt lat="43.18944" lon="5.64527">
        <ele>14.800000190735</ele>
        <time>2016-05-08T08:14:45.000Z</time>
      </trkpt>
      <trkpt lat="43.18952" lon="5.64461">
        <ele>15.60000038147</ele>
        <time>2016-05-08T08:14:53.000Z</time>
      </trkpt>
      <trkpt lat="43.18973" lon="5.64396">
        <ele>15</ele>
        <time>2016-05-08T08:15:01.000Z</time>
      </trkpt>
      <trkpt lat="43.18982" lon="5.64373">
        <ele>15.199999809265</ele>
        <time>2016-05-08T08:15:04.000Z</time>
      </trkpt>
      <trkpt lat="43.18999" lon="5.64329">
        <ele>15</ele>
        <time>2016-05-08T08:15:10.000Z</time>
      </trkpt>
      <trkpt lat="43.19025" lon="5.64266">
        <ele>14.800000190735</ele>
        <time>2016-05-08T08:15:19.000Z</time>
      </trkpt>
      <trkpt lat="43.19048" lon="5.64206">
        <ele>14.39999961853</ele>
        <time>2016-05-08T08:15:28.000Z</time>
      </trkpt>
      <trkpt lat="43.19062" lon="5.64164">
        <ele>15.199999809265</ele>
        <time>2016-05-08T08:15:35.000Z</time>
      </trkpt>
      <trkpt lat="43.19072" lon="5.64119">
        <ele>15.800000190735</ele>
        <time>2016-05-08T08:15:42.000Z</time>
      </trkpt>
      <trkpt lat="43.19077" lon="5.64062">
        <ele>13.39999961853</ele>
        <time>2016-05-08T08:15:50.000Z</time>
      </trkpt>
      <trkpt lat="43.19076" lon="5.63996">
        <ele>13.60000038147</ele>
        <time>2016-05-08T08:15:59.000Z</time>
      </trkpt>
      <trkpt lat="43.19073" lon="5.63954">
        <ele>13</ele>
        <time>2016-05-08T08:16:06.000Z</time>
      </trkpt>
      <trkpt lat="43.19071" lon="5.63914">
        <ele>12.60000038147</ele>
        <time>2016-05-08T08:16:12.000Z</time>
      </trkpt>
      <trkpt lat="43.19071" lon="5.63907">
        <ele>12.60000038147</ele>
        <time>2016-05-08T08:16:13.000Z</time>
      </trkpt>
      <trkpt lat="43.1907" lon="5.63885">
        <ele>12.39999961853</ele>
        <time>2016-05-08T08:16:16.000Z</time>
      </trkpt>
      <trkpt lat="43.19067" lon="5.63864">
        <ele>12</ele>
        <time>2016-05-08T08:16:19.000Z</time>
      </trkpt>
      <trkpt lat="43.19054" lon="5.63807">
        <ele>11</ele>
        <time>2016-05-08T08:16:27.000Z</time>
      </trkpt>
      <trkpt lat="43.19044" lon="5.63762">
        <ele>9.3999996185303</ele>
        <time>2016-05-08T08:16:33.000Z</time>
      </trkpt>
      <trkpt lat="43.19037" lon="5.63739">
        <ele>8.6000003814697</ele>
        <time>2016-05-08T08:16:36.000Z</time>
      </trkpt>
      <trkpt lat="43.19017" lon="5.63677">
        <ele>7.1999998092651</ele>
        <time>2016-05-08T08:16:44.000Z</time>
      </trkpt>
      <trkpt lat="43.19012" lon="5.63662">
        <ele>6.8000001907349</ele>
        <time>2016-05-08T08:16:46.000Z</time>
      </trkpt>
      <trkpt lat="43.18989" lon="5.63599">
        <ele>7.8000001907349</ele>
        <time>2016-05-08T08:16:55.000Z</time>
      </trkpt>
      <trkpt lat="43.18982" lon="5.63585">
        <ele>8.1999998092651</ele>
        <time>2016-05-08T08:16:57.000Z</time>
      </trkpt>
      <trkpt lat="43.18961" lon="5.63535">
        <ele>9</ele>
        <time>2016-05-08T08:17:04.000Z</time>
      </trkpt>
      <trkpt lat="43.18931" lon="5.63471">
        <ele>7.1999998092651</ele>
        <time>2016-05-08T08:17:13.000Z</time>
      </trkpt>
      <trkpt lat="43.18926" lon="5.63457">
        <ele>7.1999998092651</ele>
        <time>2016-05-08T08:17:15.000Z</time>
      </trkpt>
      <trkpt lat="43.18908" lon="5.63393">
        <ele>7.4000000953674</ele>
        <time>2016-05-08T08:17:24.000Z</time>
      </trkpt>
      <trkpt lat="43.18903" lon="5.63382">
        <ele>7.4000000953674</ele>
        <time>2016-05-08T08:17:26.000Z</time>
      </trkpt>
      <trkpt lat="43.18894" lon="5.63381">
        <ele>6.8000001907349</ele>
        <time>2016-05-08T08:17:28.000Z</time>
      </trkpt>
      <trkpt lat="43.18884" lon="5.63378">
        <ele>6</ele>
        <time>2016-05-08T08:17:30.000Z</time>
      </trkpt>
      <trkpt lat="43.18879" lon="5.63372">
        <ele>6</ele>
        <time>2016-05-08T08:17:31.000Z</time>
      </trkpt>
      <trkpt lat="43.18871" lon="5.6335">
        <ele>6.1999998092651</ele>
        <time>2016-05-08T08:17:34.000Z</time>
      </trkpt>
      <trkpt lat="43.18865" lon="5.63338">
        <ele>6.1999998092651</ele>
        <time>2016-05-08T08:17:36.000Z</time>
      </trkpt>
      <trkpt lat="43.18851" lon="5.63308">
        <ele>6.1999998092651</ele>
        <time>2016-05-08T08:17:41.000Z</time>
      </trkpt>
      <trkpt lat="43.18832" lon="5.63257">
        <ele>5.8000001907349</ele>
        <time>2016-05-08T08:17:49.000Z</time>
      </trkpt>
      <trkpt lat="43.18832" lon="5.63249">
        <ele>5.8000001907349</ele>
        <time>2016-05-08T08:17:50.000Z</time>
      </trkpt>
      <trkpt lat="43.18835" lon="5.63217">
        <ele>6.5999999046326</ele>
        <time>2016-05-08T08:17:54.000Z</time>
      </trkpt>
      <trkpt lat="43.18841" lon="5.63192">
        <ele>6.1999998092651</ele>
        <time>2016-05-08T08:17:57.000Z</time>
      </trkpt>
      <trkpt lat="43.18847" lon="5.63166">
        <ele>5.1999998092651</ele>
        <time>2016-05-08T08:18:00.000Z</time>
      </trkpt>
      <trkpt lat="43.1886" lon="5.63098">
        <ele>6.1999998092651</ele>
        <time>2016-05-08T08:18:08.000Z</time>
      </trkpt>
      <trkpt lat="43.18861" lon="5.6309">
        <ele>6.5999999046326</ele>
        <time>2016-05-08T08:18:09.000Z</time>
      </trkpt>
      <trkpt lat="43.18877" lon="5.63037">
        <ele>8.1999998092651</ele>
        <time>2016-05-08T08:18:16.000Z</time>
      </trkpt>
      <trkpt lat="43.18897" lon="5.62984">
        <ele>10.199999809265</ele>
        <time>2016-05-08T08:18:24.000Z</time>
      </trkpt>
      <trkpt lat="43.18908" lon="5.62953">
        <ele>9</ele>
        <time>2016-05-08T08:18:29.000Z</time>
      </trkpt>
      <trkpt lat="43.18908" lon="5.62946">
        <ele>8.8000001907349</ele>
        <time>2016-05-08T08:18:30.000Z</time>
      </trkpt>
      <trkpt lat="43.18907" lon="5.62926">
        <ele>8.8000001907349</ele>
        <time>2016-05-08T08:18:33.000Z</time>
      </trkpt>
      <trkpt lat="43.18906" lon="5.62914">
        <ele>8.8000001907349</ele>
        <time>2016-05-08T08:18:35.000Z</time>
      </trkpt>
      <trkpt lat="43.189" lon="5.62887">
        <ele>9</ele>
        <time>2016-05-08T08:18:40.000Z</time>
      </trkpt>
      <trkpt lat="43.18897" lon="5.62879">
        <ele>8.8000001907349</ele>
        <time>2016-05-08T08:18:42.000Z</time>
      </trkpt>
      <trkpt lat="43.18895" lon="5.62878">
        <ele>9</ele>
        <time>2016-05-08T08:18:43.000Z</time>
      </trkpt>
      <trkpt lat="43.18891" lon="5.62878">
        <ele>9</ele>
        <time>2016-05-08T08:18:45.000Z</time>
      </trkpt>
      <trkpt lat="43.18876" lon="5.62873">
        <ele>9.3999996185303</ele>
        <time>2016-05-08T08:18:49.000Z</time>
      </trkpt>
      <trkpt lat="43.18859" lon="5.62866">
        <ele>9.8000001907349</ele>
        <time>2016-05-08T08:18:53.000Z</time>
      </trkpt>
      <trkpt lat="43.1885" lon="5.62862">
        <ele>10</ele>
        <time>2016-05-08T08:18:55.000Z</time>
      </trkpt>
      <trkpt lat="43.18845" lon="5.62859">
        <ele>10</ele>
        <time>2016-05-08T08:18:56.000Z</time>
      </trkpt>
      <trkpt lat="43.18807" lon="5.62845">
        <ele>10.39999961853</ele>
        <time>2016-05-08T08:19:03.000Z</time>
      </trkpt>
      <trkpt lat="43.18773" lon="5.6283">
        <ele>11</ele>
        <time>2016-05-08T08:19:09.000Z</time>
      </trkpt>
      <trkpt lat="43.18761" lon="5.62825">
        <ele>11</ele>
        <time>2016-05-08T08:19:11.000Z</time>
      </trkpt>
      <trkpt lat="43.18731" lon="5.62813">
        <ele>7.5999999046326</ele>
        <time>2016-05-08T08:19:17.000Z</time>
      </trkpt>
      <trkpt lat="43.1872" lon="5.62807">
        <ele>6.4000000953674</ele>
        <time>2016-05-08T08:19:21.000Z</time>
      </trkpt>
      <trkpt lat="43.18719" lon="5.62805">
        <ele>6</ele>
        <time>2016-05-08T08:19:22.000Z</time>
      </trkpt>
      <trkpt lat="43.18719" lon="5.62792">
        <ele>5.5999999046326</ele>
        <time>2016-05-08T08:19:26.000Z</time>
      </trkpt>
      <trkpt lat="43.18724" lon="5.62762">
        <ele>5.4000000953674</ele>
        <time>2016-05-08T08:19:31.000Z</time>
      </trkpt>
      <trkpt lat="43.18727" lon="5.62713">
        <ele>3</ele>
        <time>2016-05-08T08:19:38.000Z</time>
      </trkpt>
      <trkpt lat="43.18727" lon="5.627">
        <ele>3</ele>
        <time>2016-05-08T08:19:40.000Z</time>
      </trkpt>
      <trkpt lat="43.18726" lon="5.62654">
        <ele>2.7999999523163</ele>
        <time>2016-05-08T08:19:47.000Z</time>
      </trkpt>
      <trkpt lat="43.18727" lon="5.6264">
        <ele>3</ele>
        <time>2016-05-08T08:19:51.000Z</time>
      </trkpt>
      <trkpt lat="43.1873" lon="5.62636">
        <ele>3.2000000476837</ele>
        <time>2016-05-08T08:20:01.000Z</time>
      </trkpt>
      <trkpt lat="43.18732" lon="5.62631">
        <ele>3.4000000953674</ele>
        <time>2016-05-08T08:20:06.000Z</time>
      </trkpt>
      <trkpt lat="43.18728" lon="5.62619">
        <ele>3.5999999046326</ele>
        <time>2016-05-08T08:20:08.000Z</time>
      </trkpt>
      <trkpt lat="43.18726" lon="5.62594">
        <ele>4.1999998092651</ele>
        <time>2016-05-08T08:20:11.000Z</time>
      </trkpt>
      <trkpt lat="43.18727" lon="5.6257">
        <ele>4.1999998092651</ele>
        <time>2016-05-08T08:20:14.000Z</time>
      </trkpt>
      <trkpt lat="43.18728" lon="5.62546">
        <ele>4.1999998092651</ele>
        <time>2016-05-08T08:20:17.000Z</time>
      </trkpt>
      <trkpt lat="43.18727" lon="5.62482">
        <ele>3</ele>
        <time>2016-05-08T08:20:26.000Z</time>
      </trkpt>
      <trkpt lat="43.18727" lon="5.62461">
        <ele>2</ele>
        <time>2016-05-08T08:20:31.000Z</time>
      </trkpt>
      <trkpt lat="43.18726" lon="5.62453">
        <ele>2</ele>
        <time>2016-05-08T08:20:35.000Z</time>
      </trkpt>
      <trkpt lat="43.18724" lon="5.62453">
        <ele>2</ele>
        <time>2016-05-08T08:20:36.000Z</time>
      </trkpt>
      <trkpt lat="43.1872" lon="5.62453">
        <ele>2</ele>
        <time>2016-05-08T08:20:39.000Z</time>
      </trkpt>
      <trkpt lat="43.18718" lon="5.62455">
        <ele>2</ele>
        <time>2016-05-08T08:20:41.000Z</time>
      </trkpt>
      <trkpt lat="43.18721" lon="5.62454">
        <ele>2</ele>
        <time>2016-05-08T08:21:13.000Z</time>
      </trkpt>
      <trkpt lat="43.18723" lon="5.62454">
        <ele>2</ele>
        <time>2016-05-08T08:21:14.000Z</time>
      </trkpt>
      <trkpt lat="43.18726" lon="5.62437">
        <ele>2</ele>
        <time>2016-05-08T08:21:18.000Z</time>
      </trkpt>
      <trkpt lat="43.18724" lon="5.62423">
        <ele>2</ele>
        <time>2016-05-08T08:21:20.000Z</time>
      </trkpt>
      <trkpt lat="43.18721" lon="5.62398">
        <ele>2.4000000953674</ele>
        <time>2016-05-08T08:21:24.000Z</time>
      </trkpt>
      <trkpt lat="43.1871" lon="5.62334">
        <ele>3.5999999046326</ele>
        <time>2016-05-08T08:21:34.000Z</time>
      </trkpt>
      <trkpt lat="43.18693" lon="5.62266">
        <ele>5</ele>
        <time>2016-05-08T08:21:45.000Z</time>
      </trkpt>
      <trkpt lat="43.18673" lon="5.62208">
        <ele>5.1999998092651</ele>
        <time>2016-05-08T08:21:55.000Z</time>
      </trkpt>
      <trkpt lat="43.18653" lon="5.62166">
        <ele>6</ele>
        <time>2016-05-08T08:22:03.000Z</time>
      </trkpt>
      <trkpt lat="43.18648" lon="5.62156">
        <ele>6.1999998092651</ele>
        <time>2016-05-08T08:22:05.000Z</time>
      </trkpt>
      <trkpt lat="43.1864" lon="5.62138">
        <ele>6.5999999046326</ele>
        <time>2016-05-08T08:22:08.000Z</time>
      </trkpt>
      <trkpt lat="43.18617" lon="5.62101">
        <ele>5</ele>
        <time>2016-05-08T08:22:15.000Z</time>
      </trkpt>
      <trkpt lat="43.18588" lon="5.62057">
        <ele>3</ele>
        <time>2016-05-08T08:22:24.000Z</time>
      </trkpt>
      <trkpt lat="43.18563" lon="5.62006">
        <ele>3.7999999523163</ele>
        <time>2016-05-08T08:22:33.000Z</time>
      </trkpt>
      <trkpt lat="43.18537" lon="5.61948">
        <ele>5.8000001907349</ele>
        <time>2016-05-08T08:22:43.000Z</time>
      </trkpt>
      <trkpt lat="43.18513" lon="5.61893">
        <ele>5</ele>
        <time>2016-05-08T08:22:52.000Z</time>
      </trkpt>
      <trkpt lat="43.18484" lon="5.61828">
        <ele>3.5999999046326</ele>
        <time>2016-05-08T08:23:03.000Z</time>
      </trkpt>
      <trkpt lat="43.1846" lon="5.61775">
        <ele>3</ele>
        <time>2016-05-08T08:23:12.000Z</time>
      </trkpt>
      <trkpt lat="43.18435" lon="5.61734">
        <ele>2.2000000476837</ele>
        <time>2016-05-08T08:23:20.000Z</time>
      </trkpt>
      <trkpt lat="43.18404" lon="5.61698">
        <ele>2.2000000476837</ele>
        <time>2016-05-08T08:23:28.000Z</time>
      </trkpt>
      <trkpt lat="43.18367" lon="5.6166">
        <ele>3.2000000476837</ele>
        <time>2016-05-08T08:23:37.000Z</time>
      </trkpt>
      <trkpt lat="43.18351" lon="5.61643">
        <ele>3.7999999523163</ele>
        <time>2016-05-08T08:23:41.000Z</time>
      </trkpt>
      <trkpt lat="43.18347" lon="5.61638">
        <ele>3.7999999523163</ele>
        <time>2016-05-08T08:23:42.000Z</time>
      </trkpt>
      <trkpt lat="43.18339" lon="5.6163">
        <ele>3.7999999523163</ele>
        <time>2016-05-08T08:23:44.000Z</time>
      </trkpt>
      <trkpt lat="43.18301" lon="5.61592">
        <ele>3</ele>
        <time>2016-05-08T08:23:53.000Z</time>
      </trkpt>
      <trkpt lat="43.18285" lon="5.61574">
        <ele>2.5999999046326</ele>
        <time>2016-05-08T08:23:57.000Z</time>
      </trkpt>
      <trkpt lat="43.18275" lon="5.61557">
        <ele>2.5999999046326</ele>
        <time>2016-05-08T08:24:00.000Z</time>
      </trkpt>
      <trkpt lat="43.18272" lon="5.61551">
        <ele>2.5999999046326</ele>
        <time>2016-05-08T08:24:01.000Z</time>
      </trkpt>
      <trkpt lat="43.18262" lon="5.61528">
        <ele>3</ele>
        <time>2016-05-08T08:24:05.000Z</time>
      </trkpt>
      <trkpt lat="43.1826" lon="5.61516">
        <ele>3.2000000476837</ele>
        <time>2016-05-08T08:24:07.000Z</time>
      </trkpt>
      <trkpt lat="43.18264" lon="5.61499">
        <ele>4</ele>
        <time>2016-05-08T08:24:11.000Z</time>
      </trkpt>
      <trkpt lat="43.18266" lon="5.61493">
        <ele>4.4000000953674</ele>
        <time>2016-05-08T08:24:12.000Z</time>
      </trkpt>
      <trkpt lat="43.18264" lon="5.61483">
        <ele>4.5999999046326</ele>
        <time>2016-05-08T08:24:14.000Z</time>
      </trkpt>
      <trkpt lat="43.18254" lon="5.61473">
        <ele>4.4000000953674</ele>
        <time>2016-05-08T08:24:17.000Z</time>
      </trkpt>
      <trkpt lat="43.18234" lon="5.61457">
        <ele>4</ele>
        <time>2016-05-08T08:24:22.000Z</time>
      </trkpt>
      <trkpt lat="43.18222" lon="5.61445">
        <ele>3.5999999046326</ele>
        <time>2016-05-08T08:24:25.000Z</time>
      </trkpt>
      <trkpt lat="43.18207" lon="5.61429">
        <ele>3.4000000953674</ele>
        <time>2016-05-08T08:24:29.000Z</time>
      </trkpt>
      <trkpt lat="43.18204" lon="5.61425">
        <ele>3.2000000476837</ele>
        <time>2016-05-08T08:24:30.000Z</time>
      </trkpt>
      <trkpt lat="43.18179" lon="5.61395">
        <ele>2.7999999523163</ele>
        <time>2016-05-08T08:24:37.000Z</time>
      </trkpt>
      <trkpt lat="43.18153" lon="5.61357">
        <ele>3.4000000953674</ele>
        <time>2016-05-08T08:24:45.000Z</time>
      </trkpt>
      <trkpt lat="43.18141" lon="5.61336">
        <ele>3.7999999523163</ele>
        <time>2016-05-08T08:24:49.000Z</time>
      </trkpt>
      <trkpt lat="43.1812" lon="5.61307">
        <ele>4.1999998092651</ele>
        <time>2016-05-08T08:24:55.000Z</time>
      </trkpt>
      <trkpt lat="43.18097" lon="5.61281">
        <ele>5</ele>
        <time>2016-05-08T08:25:01.000Z</time>
      </trkpt>
      <trkpt lat="43.18065" lon="5.61249">
        <ele>5.8000001907349</ele>
        <time>2016-05-08T08:25:09.000Z</time>
      </trkpt>
      <trkpt lat="43.18036" lon="5.61223">
        <ele>6.4000000953674</ele>
        <time>2016-05-08T08:25:16.000Z</time>
      </trkpt>
      <trkpt lat="43.18032" lon="5.6122">
        <ele>6.4000000953674</ele>
        <time>2016-05-08T08:25:17.000Z</time>
      </trkpt>
      <trkpt lat="43.18028" lon="5.61216">
        <ele>6.5999999046326</ele>
        <time>2016-05-08T08:25:18.000Z</time>
      </trkpt>
      <trkpt lat="43.18007" lon="5.61197">
        <ele>7</ele>
        <time>2016-05-08T08:25:23.000Z</time>
      </trkpt>
      <trkpt lat="43.17987" lon="5.61182">
        <ele>6.1999998092651</ele>
        <time>2016-05-08T08:25:28.000Z</time>
      </trkpt>
      <trkpt lat="43.17941" lon="5.61152">
        <ele>4.1999998092651</ele>
        <time>2016-05-08T08:25:38.000Z</time>
      </trkpt>
      <trkpt lat="43.17924" lon="5.6114">
        <ele>3.5999999046326</ele>
        <time>2016-05-08T08:25:42.000Z</time>
      </trkpt>
      <trkpt lat="43.17901" lon="5.61125">
        <ele>3.7999999523163</ele>
        <time>2016-05-08T08:25:47.000Z</time>
      </trkpt>
      <trkpt lat="43.17868" lon="5.61102">
        <ele>4.8000001907349</ele>
        <time>2016-05-08T08:25:55.000Z</time>
      </trkpt>
      <trkpt lat="43.17861" lon="5.61092">
        <ele>5.4000000953674</ele>
        <time>2016-05-08T08:25:59.000Z</time>
      </trkpt>
      <trkpt lat="43.1786" lon="5.61091">
        <ele>5.5999999046326</ele>
        <time>2016-05-08T08:26:01.000Z</time>
      </trkpt>
      <trkpt lat="43.17862" lon="5.61087">
        <ele>6</ele>
        <time>2016-05-08T08:26:03.000Z</time>
      </trkpt>
      <trkpt lat="43.17872" lon="5.61082">
        <ele>7</ele>
        <time>2016-05-08T08:26:06.000Z</time>
      </trkpt>
      <trkpt lat="43.17877" lon="5.61082">
        <ele>7.4000000953674</ele>
        <time>2016-05-08T08:26:07.000Z</time>
      </trkpt>
      <trkpt lat="43.17887" lon="5.61076">
        <ele>8.6000003814697</ele>
        <time>2016-05-08T08:26:09.000Z</time>
      </trkpt>
      <trkpt lat="43.17889" lon="5.61063">
        <ele>10.199999809265</ele>
        <time>2016-05-08T08:26:11.000Z</time>
      </trkpt>
      <trkpt lat="43.17879" lon="5.61047">
        <ele>11.39999961853</ele>
        <time>2016-05-08T08:26:14.000Z</time>
      </trkpt>
      <trkpt lat="43.17874" lon="5.61044">
        <ele>11.60000038147</ele>
        <time>2016-05-08T08:26:15.000Z</time>
      </trkpt>
      <trkpt lat="43.17863" lon="5.61036">
        <ele>11.60000038147</ele>
        <time>2016-05-08T08:26:17.000Z</time>
      </trkpt>
      <trkpt lat="43.17859" lon="5.61031">
        <ele>11.800000190735</ele>
        <time>2016-05-08T08:26:18.000Z</time>
      </trkpt>
      <trkpt lat="43.17855" lon="5.61025">
        <ele>12.199999809265</ele>
        <time>2016-05-08T08:26:19.000Z</time>
      </trkpt>
      <trkpt lat="43.17851" lon="5.61019">
        <ele>12.60000038147</ele>
        <time>2016-05-08T08:26:20.000Z</time>
      </trkpt>
      <trkpt lat="43.17846" lon="5.60997">
        <ele>14.39999961853</ele>
        <time>2016-05-08T08:26:23.000Z</time>
      </trkpt>
      <trkpt lat="43.17847" lon="5.60991">
        <ele>15</ele>
        <time>2016-05-08T08:26:24.000Z</time>
      </trkpt>
      <trkpt lat="43.1785" lon="5.60978">
        <ele>16.39999961853</ele>
        <time>2016-05-08T08:26:26.000Z</time>
      </trkpt>
      <trkpt lat="43.17851" lon="5.60972">
        <ele>17</ele>
        <time>2016-05-08T08:26:27.000Z</time>
      </trkpt>
      <trkpt lat="43.17853" lon="5.60966">
        <ele>17.60000038147</ele>
        <time>2016-05-08T08:26:28.000Z</time>
      </trkpt>
      <trkpt lat="43.17855" lon="5.6096">
        <ele>18</ele>
        <time>2016-05-08T08:26:29.000Z</time>
      </trkpt>
      <trkpt lat="43.17859" lon="5.60942">
        <ele>18.799999237061</ele>
        <time>2016-05-08T08:26:32.000Z</time>
      </trkpt>
      <trkpt lat="43.17864" lon="5.60923">
        <ele>19.799999237061</ele>
        <time>2016-05-08T08:26:35.000Z</time>
      </trkpt>
      <trkpt lat="43.17867" lon="5.6091">
        <ele>20.39999961853</ele>
        <time>2016-05-08T08:26:37.000Z</time>
      </trkpt>
      <trkpt lat="43.1787" lon="5.60896">
        <ele>20.60000038147</ele>
        <time>2016-05-08T08:26:39.000Z</time>
      </trkpt>
      <trkpt lat="43.17881" lon="5.60858">
        <ele>21.60000038147</ele>
        <time>2016-05-08T08:26:45.000Z</time>
      </trkpt>
      <trkpt lat="43.17883" lon="5.60851">
        <ele>21.799999237061</ele>
        <time>2016-05-08T08:26:46.000Z</time>
      </trkpt>
      <trkpt lat="43.17892" lon="5.60813">
        <ele>22.39999961853</ele>
        <time>2016-05-08T08:26:52.000Z</time>
      </trkpt>
      <trkpt lat="43.17901" lon="5.60777">
        <ele>23</ele>
        <time>2016-05-08T08:26:58.000Z</time>
      </trkpt>
      <trkpt lat="43.17904" lon="5.60766">
        <ele>23.200000762939</ele>
        <time>2016-05-08T08:27:00.000Z</time>
      </trkpt>
      <trkpt lat="43.17907" lon="5.60754">
        <ele>23.60000038147</ele>
        <time>2016-05-08T08:27:02.000Z</time>
      </trkpt>
      <trkpt lat="43.17914" lon="5.60724">
        <ele>24.60000038147</ele>
        <time>2016-05-08T08:27:07.000Z</time>
      </trkpt>
      <trkpt lat="43.17917" lon="5.60712">
        <ele>24.799999237061</ele>
        <time>2016-05-08T08:27:09.000Z</time>
      </trkpt>
      <trkpt lat="43.17922" lon="5.60696">
        <ele>25.39999961853</ele>
        <time>2016-05-08T08:27:12.000Z</time>
      </trkpt>
      <trkpt lat="43.17924" lon="5.60679">
        <ele>26.200000762939</ele>
        <time>2016-05-08T08:27:15.000Z</time>
      </trkpt>
      <trkpt lat="43.17925" lon="5.60673">
        <ele>26.39999961853</ele>
        <time>2016-05-08T08:27:16.000Z</time>
      </trkpt>
      <trkpt lat="43.17925" lon="5.6066">
        <ele>27</ele>
        <time>2016-05-08T08:27:18.000Z</time>
      </trkpt>
      <trkpt lat="43.17925" lon="5.60619">
        <ele>26.799999237061</ele>
        <time>2016-05-08T08:27:24.000Z</time>
      </trkpt>
      <trkpt lat="43.17925" lon="5.60599">
        <ele>25.60000038147</ele>
        <time>2016-05-08T08:27:28.000Z</time>
      </trkpt>
      <trkpt lat="43.17925" lon="5.60595">
        <ele>25.39999961853</ele>
        <time>2016-05-08T08:27:29.000Z</time>
      </trkpt>
      <trkpt lat="43.17925" lon="5.60587">
        <ele>25</ele>
        <time>2016-05-08T08:27:33.000Z</time>
      </trkpt>
      <trkpt lat="43.17925" lon="5.60584">
        <ele>24.799999237061</ele>
        <time>2016-05-08T08:27:43.000Z</time>
      </trkpt>
      <trkpt lat="43.17925" lon="5.60576">
        <ele>24.39999961853</ele>
        <time>2016-05-08T08:27:45.000Z</time>
      </trkpt>
      <trkpt lat="43.17927" lon="5.60538">
        <ele>22.60000038147</ele>
        <time>2016-05-08T08:27:51.000Z</time>
      </trkpt>
      <trkpt lat="43.17927" lon="5.60494">
        <ele>21.60000038147</ele>
        <time>2016-05-08T08:27:58.000Z</time>
      </trkpt>
      <trkpt lat="43.17927" lon="5.60437">
        <ele>21</ele>
        <time>2016-05-08T08:28:07.000Z</time>
      </trkpt>
      <trkpt lat="43.17929" lon="5.60382">
        <ele>21</ele>
        <time>2016-05-08T08:28:15.000Z</time>
      </trkpt>
      <trkpt lat="43.17929" lon="5.60338">
        <ele>21.60000038147</ele>
        <time>2016-05-08T08:28:21.000Z</time>
      </trkpt>
      <trkpt lat="43.17929" lon="5.60331">
        <ele>21.799999237061</ele>
        <time>2016-05-08T08:28:22.000Z</time>
      </trkpt>
      <trkpt lat="43.17929" lon="5.60298">
        <ele>22.200000762939</ele>
        <time>2016-05-08T08:28:28.000Z</time>
      </trkpt>
      <trkpt lat="43.17929" lon="5.60266">
        <ele>23.39999961853</ele>
        <time>2016-05-08T08:28:34.000Z</time>
      </trkpt>
      <trkpt lat="43.17929" lon="5.6026">
        <ele>23.60000038147</ele>
        <time>2016-05-08T08:28:35.000Z</time>
      </trkpt>
      <trkpt lat="43.17932" lon="5.60233">
        <ele>24.60000038147</ele>
        <time>2016-05-08T08:28:39.000Z</time>
      </trkpt>
      <trkpt lat="43.17933" lon="5.60221">
        <ele>25.200000762939</ele>
        <time>2016-05-08T08:28:41.000Z</time>
      </trkpt>
      <trkpt lat="43.17934" lon="5.60196">
        <ele>26</ele>
        <time>2016-05-08T08:28:45.000Z</time>
      </trkpt>
      <trkpt lat="43.17932" lon="5.60172">
        <ele>26.799999237061</ele>
        <time>2016-05-08T08:28:49.000Z</time>
      </trkpt>
      <trkpt lat="43.17932" lon="5.60166">
        <ele>27</ele>
        <time>2016-05-08T08:28:50.000Z</time>
      </trkpt>
      <trkpt lat="43.17931" lon="5.60147">
        <ele>27.60000038147</ele>
        <time>2016-05-08T08:28:53.000Z</time>
      </trkpt>
      <trkpt lat="43.17926" lon="5.60116">
        <ele>28.799999237061</ele>
        <time>2016-05-08T08:28:58.000Z</time>
      </trkpt>
      <trkpt lat="43.17925" lon="5.6011">
        <ele>29.200000762939</ele>
        <time>2016-05-08T08:28:59.000Z</time>
      </trkpt>
      <trkpt lat="43.17919" lon="5.60082">
        <ele>30.39999961853</ele>
        <time>2016-05-08T08:29:04.000Z</time>
      </trkpt>
      <trkpt lat="43.17916" lon="5.60068">
        <ele>31</ele>
        <time>2016-05-08T08:29:07.000Z</time>
      </trkpt>
      <trkpt lat="43.17914" lon="5.60061">
        <ele>31.200000762939</ele>
        <time>2016-05-08T08:29:09.000Z</time>
      </trkpt>
      <trkpt lat="43.17911" lon="5.60048">
        <ele>31.799999237061</ele>
        <time>2016-05-08T08:29:13.000Z</time>
      </trkpt>
      <trkpt lat="43.17909" lon="5.60031">
        <ele>32.200000762939</ele>
        <time>2016-05-08T08:29:19.000Z</time>
      </trkpt>
      <trkpt lat="43.17908" lon="5.60026">
        <ele>32.400001525879</ele>
        <time>2016-05-08T08:29:20.000Z</time>
      </trkpt>
      <trkpt lat="43.17899" lon="5.59996">
        <ele>33.400001525879</ele>
        <time>2016-05-08T08:29:25.000Z</time>
      </trkpt>
      <trkpt lat="43.17898" lon="5.5999">
        <ele>33.400001525879</ele>
        <time>2016-05-08T08:29:26.000Z</time>
      </trkpt>
      <trkpt lat="43.17896" lon="5.59984">
        <ele>33.599998474121</ele>
        <time>2016-05-08T08:29:27.000Z</time>
      </trkpt>
      <trkpt lat="43.17892" lon="5.59959">
        <ele>34.599998474121</ele>
        <time>2016-05-08T08:29:31.000Z</time>
      </trkpt>
      <trkpt lat="43.17889" lon="5.59939">
        <ele>35.400001525879</ele>
        <time>2016-05-08T08:29:34.000Z</time>
      </trkpt>
      <trkpt lat="43.17887" lon="5.59912">
        <ele>36.400001525879</ele>
        <time>2016-05-08T08:29:38.000Z</time>
      </trkpt>
      <trkpt lat="43.17885" lon="5.59892">
        <ele>36.799999237061</ele>
        <time>2016-05-08T08:29:41.000Z</time>
      </trkpt>
      <trkpt lat="43.17885" lon="5.59885">
        <ele>37</ele>
        <time>2016-05-08T08:29:42.000Z</time>
      </trkpt>
      <trkpt lat="43.17882" lon="5.59859">
        <ele>38</ele>
        <time>2016-05-08T08:29:46.000Z</time>
      </trkpt>
      <trkpt lat="43.1788" lon="5.59839">
        <ele>38.599998474121</ele>
        <time>2016-05-08T08:29:49.000Z</time>
      </trkpt>
      <trkpt lat="43.17879" lon="5.59832">
        <ele>39</ele>
        <time>2016-05-08T08:29:50.000Z</time>
      </trkpt>
      <trkpt lat="43.1788" lon="5.59808">
        <ele>40.200000762939</ele>
        <time>2016-05-08T08:29:54.000Z</time>
      </trkpt>
      <trkpt lat="43.17881" lon="5.59795">
        <ele>40.799999237061</ele>
        <time>2016-05-08T08:29:56.000Z</time>
      </trkpt>
      <trkpt lat="43.17881" lon="5.59789">
        <ele>41.200000762939</ele>
        <time>2016-05-08T08:29:57.000Z</time>
      </trkpt>
      <trkpt lat="43.17881" lon="5.59763">
        <ele>42.799999237061</ele>
        <time>2016-05-08T08:30:01.000Z</time>
      </trkpt>
      <trkpt lat="43.17881" lon="5.59744">
        <ele>43.799999237061</ele>
        <time>2016-05-08T08:30:04.000Z</time>
      </trkpt>
      <trkpt lat="43.17881" lon="5.59737">
        <ele>44</ele>
        <time>2016-05-08T08:30:05.000Z</time>
      </trkpt>
      <trkpt lat="43.17881" lon="5.59725">
        <ele>44.599998474121</ele>
        <time>2016-05-08T08:30:07.000Z</time>
      </trkpt>
      <trkpt lat="43.1788" lon="5.59694">
        <ele>47.400001525879</ele>
        <time>2016-05-08T08:30:12.000Z</time>
      </trkpt>
      <trkpt lat="43.1788" lon="5.59687">
        <ele>48</ele>
        <time>2016-05-08T08:30:13.000Z</time>
      </trkpt>
      <trkpt lat="43.17881" lon="5.59675">
        <ele>49.200000762939</ele>
        <time>2016-05-08T08:30:15.000Z</time>
      </trkpt>
      <trkpt lat="43.17881" lon="5.59656">
        <ele>50.400001525879</ele>
        <time>2016-05-08T08:30:18.000Z</time>
      </trkpt>
      <trkpt lat="43.17881" lon="5.59637">
        <ele>51.599998474121</ele>
        <time>2016-05-08T08:30:21.000Z</time>
      </trkpt>
      <trkpt lat="43.17881" lon="5.59631">
        <ele>52</ele>
        <time>2016-05-08T08:30:22.000Z</time>
      </trkpt>
      <trkpt lat="43.17881" lon="5.59612">
        <ele>54</ele>
        <time>2016-05-08T08:30:25.000Z</time>
      </trkpt>
      <trkpt lat="43.17881" lon="5.59592">
        <ele>55.799999237061</ele>
        <time>2016-05-08T08:30:28.000Z</time>
      </trkpt>
      <trkpt lat="43.17881" lon="5.59574">
        <ele>57</ele>
        <time>2016-05-08T08:30:31.000Z</time>
      </trkpt>
      <trkpt lat="43.17881" lon="5.59561">
        <ele>57.799999237061</ele>
        <time>2016-05-08T08:30:33.000Z</time>
      </trkpt>
      <trkpt lat="43.17881" lon="5.59555">
        <ele>58.200000762939</ele>
        <time>2016-05-08T08:30:34.000Z</time>
      </trkpt>
      <trkpt lat="43.17881" lon="5.5953">
        <ele>60.200000762939</ele>
        <time>2016-05-08T08:30:38.000Z</time>
      </trkpt>
      <trkpt lat="43.17881" lon="5.59504">
        <ele>62.400001525879</ele>
        <time>2016-05-08T08:30:42.000Z</time>
      </trkpt>
      <trkpt lat="43.17881" lon="5.59486">
        <ele>64</ele>
        <time>2016-05-08T08:30:45.000Z</time>
      </trkpt>
      <trkpt lat="43.17881" lon="5.59479">
        <ele>64.400001525879</ele>
        <time>2016-05-08T08:30:46.000Z</time>
      </trkpt>
      <trkpt lat="43.17881" lon="5.59461">
        <ele>65.800003051758</ele>
        <time>2016-05-08T08:30:49.000Z</time>
      </trkpt>
      <trkpt lat="43.17881" lon="5.59436">
        <ele>67</ele>
        <time>2016-05-08T08:30:53.000Z</time>
      </trkpt>
      <trkpt lat="43.17881" lon="5.59429">
        <ele>67.199996948242</ele>
        <time>2016-05-08T08:30:54.000Z</time>
      </trkpt>
      <trkpt lat="43.17882" lon="5.59417">
        <ele>67.800003051758</ele>
        <time>2016-05-08T08:30:56.000Z</time>
      </trkpt>
      <trkpt lat="43.17884" lon="5.59398">
        <ele>68.599998474121</ele>
        <time>2016-05-08T08:30:59.000Z</time>
      </trkpt>
      <trkpt lat="43.17886" lon="5.5938">
        <ele>69.400001525879</ele>
        <time>2016-05-08T08:31:02.000Z</time>
      </trkpt>
      <trkpt lat="43.17887" lon="5.59368">
        <ele>70</ele>
        <time>2016-05-08T08:31:04.000Z</time>
      </trkpt>
      <trkpt lat="43.17888" lon="5.59362">
        <ele>70.199996948242</ele>
        <time>2016-05-08T08:31:05.000Z</time>
      </trkpt>
      <trkpt lat="43.1789" lon="5.59344">
        <ele>71.199996948242</ele>
        <time>2016-05-08T08:31:08.000Z</time>
      </trkpt>
      <trkpt lat="43.17892" lon="5.59333">
        <ele>72.400001525879</ele>
        <time>2016-05-08T08:31:10.000Z</time>
      </trkpt>
      <trkpt lat="43.17895" lon="5.59315">
        <ele>74.400001525879</ele>
        <time>2016-05-08T08:31:13.000Z</time>
      </trkpt>
      <trkpt lat="43.17895" lon="5.59309">
        <ele>75</ele>
        <time>2016-05-08T08:31:14.000Z</time>
      </trkpt>
      <trkpt lat="43.17897" lon="5.59297">
        <ele>76</ele>
        <time>2016-05-08T08:31:16.000Z</time>
      </trkpt>
      <trkpt lat="43.17899" lon="5.59279">
        <ele>76.800003051758</ele>
        <time>2016-05-08T08:31:19.000Z</time>
      </trkpt>
      <trkpt lat="43.17901" lon="5.59262">
        <ele>78</ele>
        <time>2016-05-08T08:31:22.000Z</time>
      </trkpt>
      <trkpt lat="43.17903" lon="5.59245">
        <ele>79.400001525879</ele>
        <time>2016-05-08T08:31:25.000Z</time>
      </trkpt>
      <trkpt lat="43.17905" lon="5.59234">
        <ele>80.400001525879</ele>
        <time>2016-05-08T08:31:27.000Z</time>
      </trkpt>
      <trkpt lat="43.17906" lon="5.59217">
        <ele>82</ele>
        <time>2016-05-08T08:31:30.000Z</time>
      </trkpt>
      <trkpt lat="43.17907" lon="5.59212">
        <ele>82.800003051758</ele>
        <time>2016-05-08T08:31:31.000Z</time>
      </trkpt>
      <trkpt lat="43.17908" lon="5.59201">
        <ele>84.800003051758</ele>
        <time>2016-05-08T08:31:33.000Z</time>
      </trkpt>
      <trkpt lat="43.17909" lon="5.59183">
        <ele>86.400001525879</ele>
        <time>2016-05-08T08:31:36.000Z</time>
      </trkpt>
      <trkpt lat="43.17911" lon="5.59171">
        <ele>87.599998474121</ele>
        <time>2016-05-08T08:31:38.000Z</time>
      </trkpt>
      <trkpt lat="43.17912" lon="5.59166">
        <ele>88</ele>
        <time>2016-05-08T08:31:39.000Z</time>
      </trkpt>
      <trkpt lat="43.17912" lon="5.5916">
        <ele>88.599998474121</ele>
        <time>2016-05-08T08:31:40.000Z</time>
      </trkpt>
      <trkpt lat="43.17915" lon="5.59148">
        <ele>89.599998474121</ele>
        <time>2016-05-08T08:31:42.000Z</time>
      </trkpt>
      <trkpt lat="43.17917" lon="5.59142">
        <ele>90</ele>
        <time>2016-05-08T08:31:43.000Z</time>
      </trkpt>
      <trkpt lat="43.17919" lon="5.59137">
        <ele>90.400001525879</ele>
        <time>2016-05-08T08:31:44.000Z</time>
      </trkpt>
      <trkpt lat="43.1792" lon="5.59131">
        <ele>91</ele>
        <time>2016-05-08T08:31:45.000Z</time>
      </trkpt>
      <trkpt lat="43.17922" lon="5.59126">
        <ele>91.599998474121</ele>
        <time>2016-05-08T08:31:46.000Z</time>
      </trkpt>
      <trkpt lat="43.17927" lon="5.59115">
        <ele>92.599998474121</ele>
        <time>2016-05-08T08:31:48.000Z</time>
      </trkpt>
      <trkpt lat="43.17931" lon="5.59105">
        <ele>94</ele>
        <time>2016-05-08T08:31:50.000Z</time>
      </trkpt>
      <trkpt lat="43.17936" lon="5.59094">
        <ele>95.199996948242</ele>
        <time>2016-05-08T08:31:52.000Z</time>
      </trkpt>
      <trkpt lat="43.17941" lon="5.59078">
        <ele>97.199996948242</ele>
        <time>2016-05-08T08:31:55.000Z</time>
      </trkpt>
      <trkpt lat="43.17944" lon="5.59066">
        <ele>98.599998474121</ele>
        <time>2016-05-08T08:31:57.000Z</time>
      </trkpt>
      <trkpt lat="43.17946" lon="5.59055">
        <ele>99.800003051758</ele>
        <time>2016-05-08T08:31:59.000Z</time>
      </trkpt>
      <trkpt lat="43.17948" lon="5.59043">
        <ele>101.19999694824</ele>
        <time>2016-05-08T08:32:01.000Z</time>
      </trkpt>
      <trkpt lat="43.17951" lon="5.59025">
        <ele>103.59999847412</ele>
        <time>2016-05-08T08:32:04.000Z</time>
      </trkpt>
      <trkpt lat="43.17954" lon="5.59007">
        <ele>106.19999694824</ele>
        <time>2016-05-08T08:32:07.000Z</time>
      </trkpt>
      <trkpt lat="43.17955" lon="5.59002">
        <ele>106.80000305176</ele>
        <time>2016-05-08T08:32:08.000Z</time>
      </trkpt>
      <trkpt lat="43.17958" lon="5.5899">
        <ele>108</ele>
        <time>2016-05-08T08:32:10.000Z</time>
      </trkpt>
      <trkpt lat="43.17961" lon="5.58978">
        <ele>108.59999847412</ele>
        <time>2016-05-08T08:32:12.000Z</time>
      </trkpt>
      <trkpt lat="43.17963" lon="5.58966">
        <ele>109.40000152588</ele>
        <time>2016-05-08T08:32:14.000Z</time>
      </trkpt>
      <trkpt lat="43.17965" lon="5.58954">
        <ele>110.40000152588</ele>
        <time>2016-05-08T08:32:16.000Z</time>
      </trkpt>
      <trkpt lat="43.17966" lon="5.58948">
        <ele>110.80000305176</ele>
        <time>2016-05-08T08:32:17.000Z</time>
      </trkpt>
      <trkpt lat="43.17968" lon="5.58936">
        <ele>111.80000305176</ele>
        <time>2016-05-08T08:32:19.000Z</time>
      </trkpt>
      <trkpt lat="43.17968" lon="5.58924">
        <ele>112.80000305176</ele>
        <time>2016-05-08T08:32:21.000Z</time>
      </trkpt>
      <trkpt lat="43.17969" lon="5.58911">
        <ele>113.40000152588</ele>
        <time>2016-05-08T08:32:23.000Z</time>
      </trkpt>
      <trkpt lat="43.17969" lon="5.58905">
        <ele>113.59999847412</ele>
        <time>2016-05-08T08:32:24.000Z</time>
      </trkpt>
      <trkpt lat="43.17969" lon="5.58886">
        <ele>114.40000152588</ele>
        <time>2016-05-08T08:32:27.000Z</time>
      </trkpt>
      <trkpt lat="43.17967" lon="5.58867">
        <ele>116.80000305176</ele>
        <time>2016-05-08T08:32:30.000Z</time>
      </trkpt>
      <trkpt lat="43.17967" lon="5.58861">
        <ele>117.59999847412</ele>
        <time>2016-05-08T08:32:31.000Z</time>
      </trkpt>
      <trkpt lat="43.17965" lon="5.58854">
        <ele>118.40000152588</ele>
        <time>2016-05-08T08:32:32.000Z</time>
      </trkpt>
      <trkpt lat="43.17964" lon="5.58842">
        <ele>120</ele>
        <time>2016-05-08T08:32:34.000Z</time>
      </trkpt>
      <trkpt lat="43.17961" lon="5.5883">
        <ele>121.80000305176</ele>
        <time>2016-05-08T08:32:36.000Z</time>
      </trkpt>
      <trkpt lat="43.17956" lon="5.58812">
        <ele>124</ele>
        <time>2016-05-08T08:32:39.000Z</time>
      </trkpt>
      <trkpt lat="43.17951" lon="5.58795">
        <ele>126</ele>
        <time>2016-05-08T08:32:42.000Z</time>
      </trkpt>
      <trkpt lat="43.17948" lon="5.58783">
        <ele>126.80000305176</ele>
        <time>2016-05-08T08:32:44.000Z</time>
      </trkpt>
      <trkpt lat="43.17947" lon="5.58777">
        <ele>127.19999694824</ele>
        <time>2016-05-08T08:32:45.000Z</time>
      </trkpt>
      <trkpt lat="43.17945" lon="5.58765">
        <ele>127.80000305176</ele>
        <time>2016-05-08T08:32:47.000Z</time>
      </trkpt>
      <trkpt lat="43.17943" lon="5.58746">
        <ele>128.60000610352</ele>
        <time>2016-05-08T08:32:50.000Z</time>
      </trkpt>
      <trkpt lat="43.17943" lon="5.58727">
        <ele>129.60000610352</ele>
        <time>2016-05-08T08:32:53.000Z</time>
      </trkpt>
      <trkpt lat="43.17942" lon="5.58721">
        <ele>130.19999694824</ele>
        <time>2016-05-08T08:32:54.000Z</time>
      </trkpt>
      <trkpt lat="43.17942" lon="5.58709">
        <ele>131.19999694824</ele>
        <time>2016-05-08T08:32:56.000Z</time>
      </trkpt>
      <trkpt lat="43.17942" lon="5.5869">
        <ele>132.80000305176</ele>
        <time>2016-05-08T08:32:59.000Z</time>
      </trkpt>
      <trkpt lat="43.17943" lon="5.58672">
        <ele>134.19999694824</ele>
        <time>2016-05-08T08:33:02.000Z</time>
      </trkpt>
      <trkpt lat="43.17943" lon="5.5866">
        <ele>135.19999694824</ele>
        <time>2016-05-08T08:33:04.000Z</time>
      </trkpt>
      <trkpt lat="43.17943" lon="5.58654">
        <ele>135.80000305176</ele>
        <time>2016-05-08T08:33:05.000Z</time>
      </trkpt>
      <trkpt lat="43.17942" lon="5.58635">
        <ele>138</ele>
        <time>2016-05-08T08:33:08.000Z</time>
      </trkpt>
      <trkpt lat="43.17942" lon="5.58623">
        <ele>138.80000305176</ele>
        <time>2016-05-08T08:33:10.000Z</time>
      </trkpt>
      <trkpt lat="43.1794" lon="5.5861">
        <ele>139.60000610352</ele>
        <time>2016-05-08T08:33:12.000Z</time>
      </trkpt>
      <trkpt lat="43.17939" lon="5.58604">
        <ele>140</ele>
        <time>2016-05-08T08:33:13.000Z</time>
      </trkpt>
      <trkpt lat="43.17934" lon="5.58587">
        <ele>141.39999389648</ele>
        <time>2016-05-08T08:33:16.000Z</time>
      </trkpt>
      <trkpt lat="43.1793" lon="5.58576">
        <ele>142.39999389648</ele>
        <time>2016-05-08T08:33:18.000Z</time>
      </trkpt>
      <trkpt lat="43.17927" lon="5.58571">
        <ele>143.19999694824</ele>
        <time>2016-05-08T08:33:19.000Z</time>
      </trkpt>
      <trkpt lat="43.17924" lon="5.58566">
        <ele>144.60000610352</ele>
        <time>2016-05-08T08:33:20.000Z</time>
      </trkpt>
      <trkpt lat="43.17916" lon="5.58553">
        <ele>148.19999694824</ele>
        <time>2016-05-08T08:33:23.000Z</time>
      </trkpt>
      <trkpt lat="43.17915" lon="5.58548">
        <ele>148.60000610352</ele>
        <time>2016-05-08T08:33:24.000Z</time>
      </trkpt>
      <trkpt lat="43.17918" lon="5.58539">
        <ele>147.80000305176</ele>
        <time>2016-05-08T08:33:26.000Z</time>
      </trkpt>
      <trkpt lat="43.17919" lon="5.58536">
        <ele>147.80000305176</ele>
        <time>2016-05-08T08:33:27.000Z</time>
      </trkpt>
      <trkpt lat="43.17923" lon="5.58536">
        <ele>146.80000305176</ele>
        <time>2016-05-08T08:33:29.000Z</time>
      </trkpt>
      <trkpt lat="43.17926" lon="5.58538">
        <ele>145.80000305176</ele>
        <time>2016-05-08T08:33:30.000Z</time>
      </trkpt>
      <trkpt lat="43.17939" lon="5.58543">
        <ele>144</ele>
        <time>2016-05-08T08:33:32.000Z</time>
      </trkpt>
      <trkpt lat="43.17951" lon="5.58543">
        <ele>143.19999694824</ele>
        <time>2016-05-08T08:33:34.000Z</time>
      </trkpt>
      <trkpt lat="43.17965" lon="5.58533">
        <ele>143.19999694824</ele>
        <time>2016-05-08T08:33:37.000Z</time>
      </trkpt>
      <trkpt lat="43.17967" lon="5.58528">
        <ele>143.39999389648</ele>
        <time>2016-05-08T08:33:38.000Z</time>
      </trkpt>
      <trkpt lat="43.17969" lon="5.58518">
        <ele>144.19999694824</ele>
        <time>2016-05-08T08:33:40.000Z</time>
      </trkpt>
      <trkpt lat="43.1797" lon="5.58512">
        <ele>144.80000305176</ele>
        <time>2016-05-08T08:33:41.000Z</time>
      </trkpt>
      <trkpt lat="43.17973" lon="5.58494">
        <ele>147.19999694824</ele>
        <time>2016-05-08T08:33:44.000Z</time>
      </trkpt>
      <trkpt lat="43.17974" lon="5.58476">
        <ele>149.80000305176</ele>
        <time>2016-05-08T08:33:47.000Z</time>
      </trkpt>
      <trkpt lat="43.17974" lon="5.58458">
        <ele>152.60000610352</ele>
        <time>2016-05-08T08:33:50.000Z</time>
      </trkpt>
      <trkpt lat="43.17973" lon="5.58447">
        <ele>154.80000305176</ele>
        <time>2016-05-08T08:33:52.000Z</time>
      </trkpt>
      <trkpt lat="43.17971" lon="5.5843">
        <ele>157.80000305176</ele>
        <time>2016-05-08T08:33:55.000Z</time>
      </trkpt>
      <trkpt lat="43.1797" lon="5.58418">
        <ele>159.60000610352</ele>
        <time>2016-05-08T08:33:57.000Z</time>
      </trkpt>
      <trkpt lat="43.17969" lon="5.58407">
        <ele>161.39999389648</ele>
        <time>2016-05-08T08:33:59.000Z</time>
      </trkpt>
      <trkpt lat="43.17967" lon="5.58402">
        <ele>162.19999694824</ele>
        <time>2016-05-08T08:34:00.000Z</time>
      </trkpt>
      <trkpt lat="43.17966" lon="5.5839">
        <ele>164</ele>
        <time>2016-05-08T08:34:02.000Z</time>
      </trkpt>
      <trkpt lat="43.17967" lon="5.58384">
        <ele>164.80000305176</ele>
        <time>2016-05-08T08:34:03.000Z</time>
      </trkpt>
      <trkpt lat="43.1797" lon="5.5838">
        <ele>165.39999389648</ele>
        <time>2016-05-08T08:34:04.000Z</time>
      </trkpt>
      <trkpt lat="43.17981" lon="5.58382">
        <ele>164.39999389648</ele>
        <time>2016-05-08T08:34:06.000Z</time>
      </trkpt>
      <trkpt lat="43.17985" lon="5.58385">
        <ele>163.39999389648</ele>
        <time>2016-05-08T08:34:07.000Z</time>
      </trkpt>
      <trkpt lat="43.17993" lon="5.58394">
        <ele>161.80000305176</ele>
        <time>2016-05-08T08:34:09.000Z</time>
      </trkpt>
      <trkpt lat="43.17996" lon="5.58399">
        <ele>160.80000305176</ele>
        <time>2016-05-08T08:34:10.000Z</time>
      </trkpt>
      <trkpt lat="43.18" lon="5.58403">
        <ele>160</ele>
        <time>2016-05-08T08:34:11.000Z</time>
      </trkpt>
      <trkpt lat="43.18007" lon="5.58412">
        <ele>158.39999389648</ele>
        <time>2016-05-08T08:34:13.000Z</time>
      </trkpt>
      <trkpt lat="43.18018" lon="5.58425">
        <ele>158.19999694824</ele>
        <time>2016-05-08T08:34:16.000Z</time>
      </trkpt>
      <trkpt lat="43.18022" lon="5.58429">
        <ele>158.60000610352</ele>
        <time>2016-05-08T08:34:17.000Z</time>
      </trkpt>
      <trkpt lat="43.18033" lon="5.58442">
        <ele>159.80000305176</ele>
        <time>2016-05-08T08:34:20.000Z</time>
      </trkpt>
      <trkpt lat="43.18039" lon="5.58452">
        <ele>160.39999389648</ele>
        <time>2016-05-08T08:34:22.000Z</time>
      </trkpt>
      <trkpt lat="43.18045" lon="5.58462">
        <ele>160.80000305176</ele>
        <time>2016-05-08T08:34:24.000Z</time>
      </trkpt>
      <trkpt lat="43.18051" lon="5.58473">
        <ele>160.80000305176</ele>
        <time>2016-05-08T08:34:26.000Z</time>
      </trkpt>
      <trkpt lat="43.18057" lon="5.58492">
        <ele>160.19999694824</ele>
        <time>2016-05-08T08:34:29.000Z</time>
      </trkpt>
      <trkpt lat="43.1806" lon="5.58505">
        <ele>159.60000610352</ele>
        <time>2016-05-08T08:34:31.000Z</time>
      </trkpt>
      <trkpt lat="43.18064" lon="5.58525">
        <ele>158.19999694824</ele>
        <time>2016-05-08T08:34:34.000Z</time>
      </trkpt>
      <trkpt lat="43.18068" lon="5.58545">
        <ele>156.60000610352</ele>
        <time>2016-05-08T08:34:37.000Z</time>
      </trkpt>
      <trkpt lat="43.1807" lon="5.58558">
        <ele>155.60000610352</ele>
        <time>2016-05-08T08:34:39.000Z</time>
      </trkpt>
      <trkpt lat="43.18074" lon="5.58581">
        <ele>154.39999389648</ele>
        <time>2016-05-08T08:34:43.000Z</time>
      </trkpt>
      <trkpt lat="43.18076" lon="5.58591">
        <ele>153.80000305176</ele>
        <time>2016-05-08T08:34:45.000Z</time>
      </trkpt>
      <trkpt lat="43.18076" lon="5.58596">
        <ele>153.39999389648</ele>
        <time>2016-05-08T08:34:46.000Z</time>
      </trkpt>
      <trkpt lat="43.18081" lon="5.58616">
        <ele>152.80000305176</ele>
        <time>2016-05-08T08:34:51.000Z</time>
      </trkpt>
      <trkpt lat="43.18085" lon="5.58621">
        <ele>153.60000610352</ele>
        <time>2016-05-08T08:34:53.000Z</time>
      </trkpt>
      <trkpt lat="43.18092" lon="5.58626">
        <ele>155.19999694824</ele>
        <time>2016-05-08T08:34:56.000Z</time>
      </trkpt>
      <trkpt lat="43.1811" lon="5.58625">
        <ele>157.19999694824</ele>
        <time>2016-05-08T08:35:01.000Z</time>
      </trkpt>
      <trkpt lat="43.18114" lon="5.58623">
        <ele>157.60000610352</ele>
        <time>2016-05-08T08:35:02.000Z</time>
      </trkpt>
      <trkpt lat="43.1813" lon="5.58608">
        <ele>160.39999389648</ele>
        <time>2016-05-08T08:35:07.000Z</time>
      </trkpt>
      <trkpt lat="43.18136" lon="5.58601">
        <ele>161.60000610352</ele>
        <time>2016-05-08T08:35:09.000Z</time>
      </trkpt>
      <trkpt lat="43.18142" lon="5.58594">
        <ele>163</ele>
        <time>2016-05-08T08:35:11.000Z</time>
      </trkpt>
      <trkpt lat="43.18151" lon="5.58583">
        <ele>165.19999694824</ele>
        <time>2016-05-08T08:35:14.000Z</time>
      </trkpt>
      <trkpt lat="43.18157" lon="5.58575">
        <ele>166.80000305176</ele>
        <time>2016-05-08T08:35:16.000Z</time>
      </trkpt>
      <trkpt lat="43.1816" lon="5.58571">
        <ele>167.60000610352</ele>
        <time>2016-05-08T08:35:17.000Z</time>
      </trkpt>
      <trkpt lat="43.18169" lon="5.58559">
        <ele>170</ele>
        <time>2016-05-08T08:35:20.000Z</time>
      </trkpt>
      <trkpt lat="43.18177" lon="5.58547">
        <ele>172.39999389648</ele>
        <time>2016-05-08T08:35:23.000Z</time>
      </trkpt>
      <trkpt lat="43.1818" lon="5.58543">
        <ele>172.80000305176</ele>
        <time>2016-05-08T08:35:24.000Z</time>
      </trkpt>
      <trkpt lat="43.18185" lon="5.58535">
        <ele>173.39999389648</ele>
        <time>2016-05-08T08:35:26.000Z</time>
      </trkpt>
      <trkpt lat="43.18193" lon="5.58523">
        <ele>174.19999694824</ele>
        <time>2016-05-08T08:35:29.000Z</time>
      </trkpt>
      <trkpt lat="43.182" lon="5.5851">
        <ele>175.19999694824</ele>
        <time>2016-05-08T08:35:32.000Z</time>
      </trkpt>
      <trkpt lat="43.18202" lon="5.58505">
        <ele>175.60000610352</ele>
        <time>2016-05-08T08:35:33.000Z</time>
      </trkpt>
      <trkpt lat="43.18204" lon="5.585">
        <ele>176</ele>
        <time>2016-05-08T08:35:34.000Z</time>
      </trkpt>
      <trkpt lat="43.18208" lon="5.58485">
        <ele>177</ele>
        <time>2016-05-08T08:35:37.000Z</time>
      </trkpt>
      <trkpt lat="43.1821" lon="5.58475">
        <ele>177.80000305176</ele>
        <time>2016-05-08T08:35:39.000Z</time>
      </trkpt>
      <trkpt lat="43.1821" lon="5.5847">
        <ele>178.19999694824</ele>
        <time>2016-05-08T08:35:40.000Z</time>
      </trkpt>
      <trkpt lat="43.1821" lon="5.58454">
        <ele>180.19999694824</ele>
        <time>2016-05-08T08:35:43.000Z</time>
      </trkpt>
      <trkpt lat="43.18209" lon="5.58444">
        <ele>181.60000610352</ele>
        <time>2016-05-08T08:35:45.000Z</time>
      </trkpt>
      <trkpt lat="43.18208" lon="5.58433">
        <ele>183.19999694824</ele>
        <time>2016-05-08T08:35:47.000Z</time>
      </trkpt>
      <trkpt lat="43.18205" lon="5.58416">
        <ele>185.60000610352</ele>
        <time>2016-05-08T08:35:50.000Z</time>
      </trkpt>
      <trkpt lat="43.18201" lon="5.58395">
        <ele>187.19999694824</ele>
        <time>2016-05-08T08:35:54.000Z</time>
      </trkpt>
      <trkpt lat="43.18199" lon="5.58378">
        <ele>188.80000305176</ele>
        <time>2016-05-08T08:35:57.000Z</time>
      </trkpt>
      <trkpt lat="43.18198" lon="5.58373">
        <ele>189.60000610352</ele>
        <time>2016-05-08T08:35:58.000Z</time>
      </trkpt>
      <trkpt lat="43.18195" lon="5.58356">
        <ele>192.60000610352</ele>
        <time>2016-05-08T08:36:01.000Z</time>
      </trkpt>
      <trkpt lat="43.18194" lon="5.58339">
        <ele>195.39999389648</ele>
        <time>2016-05-08T08:36:04.000Z</time>
      </trkpt>
      <trkpt lat="43.18192" lon="5.58322">
        <ele>198.19999694824</ele>
        <time>2016-05-08T08:36:07.000Z</time>
      </trkpt>
      <trkpt lat="43.1819" lon="5.58306">
        <ele>199.60000610352</ele>
        <time>2016-05-08T08:36:10.000Z</time>
      </trkpt>
      <trkpt lat="43.18189" lon="5.58289">
        <ele>201</ele>
        <time>2016-05-08T08:36:13.000Z</time>
      </trkpt>
      <trkpt lat="43.18189" lon="5.58273">
        <ele>202.19999694824</ele>
        <time>2016-05-08T08:36:16.000Z</time>
      </trkpt>
      <trkpt lat="43.18188" lon="5.58255">
        <ele>203.60000610352</ele>
        <time>2016-05-08T08:36:19.000Z</time>
      </trkpt>
      <trkpt lat="43.18188" lon="5.58238">
        <ele>205</ele>
        <time>2016-05-08T08:36:22.000Z</time>
      </trkpt>
      <trkpt lat="43.18188" lon="5.58226">
        <ele>205.80000305176</ele>
        <time>2016-05-08T08:36:24.000Z</time>
      </trkpt>
      <trkpt lat="43.18188" lon="5.5822">
        <ele>206</ele>
        <time>2016-05-08T08:36:25.000Z</time>
      </trkpt>
      <trkpt lat="43.18188" lon="5.58209">
        <ele>206.60000610352</ele>
        <time>2016-05-08T08:36:27.000Z</time>
      </trkpt>
      <trkpt lat="43.18187" lon="5.58184">
        <ele>208.39999389648</ele>
        <time>2016-05-08T08:36:31.000Z</time>
      </trkpt>
      <trkpt lat="43.18185" lon="5.58167">
        <ele>210.39999389648</ele>
        <time>2016-05-08T08:36:34.000Z</time>
      </trkpt>
      <trkpt lat="43.1818" lon="5.58145">
        <ele>213.60000610352</ele>
        <time>2016-05-08T08:36:38.000Z</time>
      </trkpt>
      <trkpt lat="43.18175" lon="5.58129">
        <ele>216</ele>
        <time>2016-05-08T08:36:41.000Z</time>
      </trkpt>
      <trkpt lat="43.18173" lon="5.58124">
        <ele>216.60000610352</ele>
        <time>2016-05-08T08:36:42.000Z</time>
      </trkpt>
      <trkpt lat="43.1817" lon="5.58113">
        <ele>217.80000305176</ele>
        <time>2016-05-08T08:36:44.000Z</time>
      </trkpt>
      <trkpt lat="43.18166" lon="5.58103">
        <ele>219</ele>
        <time>2016-05-08T08:36:46.000Z</time>
      </trkpt>
      <trkpt lat="43.18163" lon="5.58088">
        <ele>220.39999389648</ele>
        <time>2016-05-08T08:36:49.000Z</time>
      </trkpt>
      <trkpt lat="43.18162" lon="5.58082">
        <ele>220.80000305176</ele>
        <time>2016-05-08T08:36:50.000Z</time>
      </trkpt>
      <trkpt lat="43.18159" lon="5.58065">
        <ele>221.60000610352</ele>
        <time>2016-05-08T08:36:53.000Z</time>
      </trkpt>
      <trkpt lat="43.18159" lon="5.58049">
        <ele>222.39999389648</ele>
        <time>2016-05-08T08:36:56.000Z</time>
      </trkpt>
      <trkpt lat="43.18159" lon="5.58044">
        <ele>222.80000305176</ele>
        <time>2016-05-08T08:36:57.000Z</time>
      </trkpt>
      <trkpt lat="43.1816" lon="5.58033">
        <ele>223.80000305176</ele>
        <time>2016-05-08T08:36:59.000Z</time>
      </trkpt>
      <trkpt lat="43.18163" lon="5.58022">
        <ele>224.60000610352</ele>
        <time>2016-05-08T08:37:01.000Z</time>
      </trkpt>
      <trkpt lat="43.18166" lon="5.58017">
        <ele>224.60000610352</ele>
        <time>2016-05-08T08:37:02.000Z</time>
      </trkpt>
      <trkpt lat="43.18176" lon="5.58005">
        <ele>223.80000305176</ele>
        <time>2016-05-08T08:37:05.000Z</time>
      </trkpt>
      <trkpt lat="43.18184" lon="5.58">
        <ele>222.19999694824</ele>
        <time>2016-05-08T08:37:07.000Z</time>
      </trkpt>
      <trkpt lat="43.18188" lon="5.57998">
        <ele>221.60000610352</ele>
        <time>2016-05-08T08:37:08.000Z</time>
      </trkpt>
      <trkpt lat="43.18204" lon="5.57988">
        <ele>219.60000610352</ele>
        <time>2016-05-08T08:37:12.000Z</time>
      </trkpt>
      <trkpt lat="43.18221" lon="5.57978">
        <ele>219.39999389648</ele>
        <time>2016-05-08T08:37:16.000Z</time>
      </trkpt>
      <trkpt lat="43.1823" lon="5.57975">
        <ele>218.80000305176</ele>
        <time>2016-05-08T08:37:18.000Z</time>
      </trkpt>
      <trkpt lat="43.1824" lon="5.57973">
        <ele>218</ele>
        <time>2016-05-08T08:37:20.000Z</time>
      </trkpt>
      <trkpt lat="43.18254" lon="5.5797">
        <ele>216.60000610352</ele>
        <time>2016-05-08T08:37:23.000Z</time>
      </trkpt>
      <trkpt lat="43.18268" lon="5.57971">
        <ele>215.39999389648</ele>
        <time>2016-05-08T08:37:26.000Z</time>
      </trkpt>
      <trkpt lat="43.18282" lon="5.57969">
        <ele>215.80000305176</ele>
        <time>2016-05-08T08:37:29.000Z</time>
      </trkpt>
      <trkpt lat="43.18287" lon="5.57968">
        <ele>216</ele>
        <time>2016-05-08T08:37:30.000Z</time>
      </trkpt>
      <trkpt lat="43.18299" lon="5.57963">
        <ele>217.80000305176</ele>
        <time>2016-05-08T08:37:33.000Z</time>
      </trkpt>
      <trkpt lat="43.18308" lon="5.57958">
        <ele>219.60000610352</ele>
        <time>2016-05-08T08:37:35.000Z</time>
      </trkpt>
      <trkpt lat="43.18319" lon="5.5795">
        <ele>222.60000610352</ele>
        <time>2016-05-08T08:37:38.000Z</time>
      </trkpt>
      <trkpt lat="43.18331" lon="5.57941">
        <ele>224.39999389648</ele>
        <time>2016-05-08T08:37:41.000Z</time>
      </trkpt>
      <trkpt lat="43.18343" lon="5.57933">
        <ele>225.80000305176</ele>
        <time>2016-05-08T08:37:44.000Z</time>
      </trkpt>
      <trkpt lat="43.1835" lon="5.57927">
        <ele>226.80000305176</ele>
        <time>2016-05-08T08:37:46.000Z</time>
      </trkpt>
      <trkpt lat="43.18354" lon="5.57925">
        <ele>227.39999389648</ele>
        <time>2016-05-08T08:37:47.000Z</time>
      </trkpt>
      <trkpt lat="43.18361" lon="5.57918">
        <ele>228.60000610352</ele>
        <time>2016-05-08T08:37:49.000Z</time>
      </trkpt>
      <trkpt lat="43.1837" lon="5.57906">
        <ele>230.80000305176</ele>
        <time>2016-05-08T08:37:52.000Z</time>
      </trkpt>
      <trkpt lat="43.18373" lon="5.57901">
        <ele>231</ele>
        <time>2016-05-08T08:37:53.000Z</time>
      </trkpt>
      <trkpt lat="43.18375" lon="5.57896">
        <ele>231.19999694824</ele>
        <time>2016-05-08T08:37:54.000Z</time>
      </trkpt>
      <trkpt lat="43.18378" lon="5.57886">
        <ele>232</ele>
        <time>2016-05-08T08:37:56.000Z</time>
      </trkpt>
      <trkpt lat="43.1838" lon="5.57875">
        <ele>233</ele>
        <time>2016-05-08T08:37:58.000Z</time>
      </trkpt>
      <trkpt lat="43.18377" lon="5.57859">
        <ele>235.19999694824</ele>
        <time>2016-05-08T08:38:01.000Z</time>
      </trkpt>
      <trkpt lat="43.18375" lon="5.57849">
        <ele>236.60000610352</ele>
        <time>2016-05-08T08:38:03.000Z</time>
      </trkpt>
      <trkpt lat="43.18374" lon="5.57844">
        <ele>237.39999389648</ele>
        <time>2016-05-08T08:38:04.000Z</time>
      </trkpt>
      <trkpt lat="43.18365" lon="5.57825">
        <ele>241.19999694824</ele>
        <time>2016-05-08T08:38:08.000Z</time>
      </trkpt>
      <trkpt lat="43.18358" lon="5.57812">
        <ele>243.80000305176</ele>
        <time>2016-05-08T08:38:11.000Z</time>
      </trkpt>
      <trkpt lat="43.1835" lon="5.578">
        <ele>245.60000610352</ele>
        <time>2016-05-08T08:38:14.000Z</time>
      </trkpt>
      <trkpt lat="43.18346" lon="5.57791">
        <ele>245.19999694824</ele>
        <time>2016-05-08T08:38:16.000Z</time>
      </trkpt>
      <trkpt lat="43.18343" lon="5.57787">
        <ele>245</ele>
        <time>2016-05-08T08:38:17.000Z</time>
      </trkpt>
      <trkpt lat="43.18334" lon="5.57778">
        <ele>245.60000610352</ele>
        <time>2016-05-08T08:38:20.000Z</time>
      </trkpt>
      <trkpt lat="43.18327" lon="5.57773">
        <ele>247</ele>
        <time>2016-05-08T08:38:22.000Z</time>
      </trkpt>
      <trkpt lat="43.18312" lon="5.57765">
        <ele>249.80000305176</ele>
        <time>2016-05-08T08:38:26.000Z</time>
      </trkpt>
      <trkpt lat="43.18301" lon="5.57758">
        <ele>251.60000610352</ele>
        <time>2016-05-08T08:38:29.000Z</time>
      </trkpt>
      <trkpt lat="43.18294" lon="5.57754">
        <ele>252.60000610352</ele>
        <time>2016-05-08T08:38:31.000Z</time>
      </trkpt>
      <trkpt lat="43.18289" lon="5.57752">
        <ele>253</ele>
        <time>2016-05-08T08:38:32.000Z</time>
      </trkpt>
      <trkpt lat="43.18285" lon="5.5775">
        <ele>253.60000610352</ele>
        <time>2016-05-08T08:38:33.000Z</time>
      </trkpt>
      <trkpt lat="43.18272" lon="5.57746">
        <ele>255.19999694824</ele>
        <time>2016-05-08T08:38:36.000Z</time>
      </trkpt>
      <trkpt lat="43.18268" lon="5.57745">
        <ele>255.80000305176</ele>
        <time>2016-05-08T08:38:37.000Z</time>
      </trkpt>
      <trkpt lat="43.18259" lon="5.5774">
        <ele>257</ele>
        <time>2016-05-08T08:38:39.000Z</time>
      </trkpt>
      <trkpt lat="43.18239" lon="5.57726">
        <ele>261</ele>
        <time>2016-05-08T08:38:44.000Z</time>
      </trkpt>
      <trkpt lat="43.18235" lon="5.57723">
        <ele>261.60000610352</ele>
        <time>2016-05-08T08:38:45.000Z</time>
      </trkpt>
      <trkpt lat="43.18227" lon="5.57717">
        <ele>263</ele>
        <time>2016-05-08T08:38:47.000Z</time>
      </trkpt>
      <trkpt lat="43.18216" lon="5.57709">
        <ele>264.39999389648</ele>
        <time>2016-05-08T08:38:50.000Z</time>
      </trkpt>
      <trkpt lat="43.18206" lon="5.577">
        <ele>265.20001220703</ele>
        <time>2016-05-08T08:38:53.000Z</time>
      </trkpt>
      <trkpt lat="43.18196" lon="5.57691">
        <ele>266.20001220703</ele>
        <time>2016-05-08T08:38:56.000Z</time>
      </trkpt>
      <trkpt lat="43.18187" lon="5.57683">
        <ele>267</ele>
        <time>2016-05-08T08:38:59.000Z</time>
      </trkpt>
      <trkpt lat="43.18177" lon="5.57674">
        <ele>268</ele>
        <time>2016-05-08T08:39:02.000Z</time>
      </trkpt>
      <trkpt lat="43.18167" lon="5.57665">
        <ele>269.20001220703</ele>
        <time>2016-05-08T08:39:05.000Z</time>
      </trkpt>
      <trkpt lat="43.18164" lon="5.57662">
        <ele>269.60000610352</ele>
        <time>2016-05-08T08:39:06.000Z</time>
      </trkpt>
      <trkpt lat="43.18151" lon="5.57652">
        <ele>271.60000610352</ele>
        <time>2016-05-08T08:39:10.000Z</time>
      </trkpt>
      <trkpt lat="43.18145" lon="5.57647">
        <ele>272.60000610352</ele>
        <time>2016-05-08T08:39:12.000Z</time>
      </trkpt>
      <trkpt lat="43.18138" lon="5.57641">
        <ele>273.60000610352</ele>
        <time>2016-05-08T08:39:14.000Z</time>
      </trkpt>
      <trkpt lat="43.18127" lon="5.57634">
        <ele>275.60000610352</ele>
        <time>2016-05-08T08:39:17.000Z</time>
      </trkpt>
      <trkpt lat="43.18112" lon="5.57627">
        <ele>279</ele>
        <time>2016-05-08T08:39:21.000Z</time>
      </trkpt>
      <trkpt lat="43.18097" lon="5.57619">
        <ele>282.39999389648</ele>
        <time>2016-05-08T08:39:25.000Z</time>
      </trkpt>
      <trkpt lat="43.18086" lon="5.57614">
        <ele>285</ele>
        <time>2016-05-08T08:39:28.000Z</time>
      </trkpt>
      <trkpt lat="43.18083" lon="5.57612">
        <ele>285.79998779297</ele>
        <time>2016-05-08T08:39:29.000Z</time>
      </trkpt>
      <trkpt lat="43.18076" lon="5.57606">
        <ele>287.20001220703</ele>
        <time>2016-05-08T08:39:31.000Z</time>
      </trkpt>
      <trkpt lat="43.18069" lon="5.57593">
        <ele>287.60000610352</ele>
        <time>2016-05-08T08:39:34.000Z</time>
      </trkpt>
      <trkpt lat="43.18072" lon="5.57572">
        <ele>284.20001220703</ele>
        <time>2016-05-08T08:39:38.000Z</time>
      </trkpt>
      <trkpt lat="43.18078" lon="5.57556">
        <ele>280.60000610352</ele>
        <time>2016-05-08T08:39:41.000Z</time>
      </trkpt>
      <trkpt lat="43.18084" lon="5.5754">
        <ele>279.20001220703</ele>
        <time>2016-05-08T08:39:44.000Z</time>
      </trkpt>
      <trkpt lat="43.18086" lon="5.57534">
        <ele>278.79998779297</ele>
        <time>2016-05-08T08:39:45.000Z</time>
      </trkpt>
      <trkpt lat="43.18088" lon="5.57528">
        <ele>278.60000610352</ele>
        <time>2016-05-08T08:39:46.000Z</time>
      </trkpt>
      <trkpt lat="43.18092" lon="5.57517">
        <ele>278.39999389648</ele>
        <time>2016-05-08T08:39:48.000Z</time>
      </trkpt>
      <trkpt lat="43.18095" lon="5.57505">
        <ele>278.39999389648</ele>
        <time>2016-05-08T08:39:50.000Z</time>
      </trkpt>
      <trkpt lat="43.18095" lon="5.57498">
        <ele>278.60000610352</ele>
        <time>2016-05-08T08:39:51.000Z</time>
      </trkpt>
      <trkpt lat="43.18096" lon="5.57492">
        <ele>279</ele>
        <time>2016-05-08T08:39:52.000Z</time>
      </trkpt>
      <trkpt lat="43.18095" lon="5.5748">
        <ele>280</ele>
        <time>2016-05-08T08:39:54.000Z</time>
      </trkpt>
      <trkpt lat="43.18094" lon="5.57473">
        <ele>280.79998779297</ele>
        <time>2016-05-08T08:39:55.000Z</time>
      </trkpt>
      <trkpt lat="43.18093" lon="5.57467">
        <ele>281.60000610352</ele>
        <time>2016-05-08T08:39:56.000Z</time>
      </trkpt>
      <trkpt lat="43.18091" lon="5.57461">
        <ele>283</ele>
        <time>2016-05-08T08:39:57.000Z</time>
      </trkpt>
      <trkpt lat="43.1809" lon="5.57455">
        <ele>284.20001220703</ele>
        <time>2016-05-08T08:39:58.000Z</time>
      </trkpt>
      <trkpt lat="43.18085" lon="5.57437">
        <ele>288</ele>
        <time>2016-05-08T08:40:01.000Z</time>
      </trkpt>
      <trkpt lat="43.1808" lon="5.5742">
        <ele>291.60000610352</ele>
        <time>2016-05-08T08:40:04.000Z</time>
      </trkpt>
      <trkpt lat="43.18078" lon="5.57408">
        <ele>293.79998779297</ele>
        <time>2016-05-08T08:40:06.000Z</time>
      </trkpt>
      <trkpt lat="43.18078" lon="5.57402">
        <ele>294.60000610352</ele>
        <time>2016-05-08T08:40:07.000Z</time>
      </trkpt>
      <trkpt lat="43.18079" lon="5.5739">
        <ele>295.60000610352</ele>
        <time>2016-05-08T08:40:09.000Z</time>
      </trkpt>
      <trkpt lat="43.18081" lon="5.57384">
        <ele>295.79998779297</ele>
        <time>2016-05-08T08:40:10.000Z</time>
      </trkpt>
      <trkpt lat="43.18083" lon="5.57379">
        <ele>295.39999389648</ele>
        <time>2016-05-08T08:40:11.000Z</time>
      </trkpt>
      <trkpt lat="43.18091" lon="5.57373">
        <ele>294.60000610352</ele>
        <time>2016-05-08T08:40:13.000Z</time>
      </trkpt>
      <trkpt lat="43.18096" lon="5.5737">
        <ele>294.20001220703</ele>
        <time>2016-05-08T08:40:14.000Z</time>
      </trkpt>
      <trkpt lat="43.18101" lon="5.57367">
        <ele>294.20001220703</ele>
        <time>2016-05-08T08:40:15.000Z</time>
      </trkpt>
      <trkpt lat="43.18106" lon="5.57365">
        <ele>294.20001220703</ele>
        <time>2016-05-08T08:40:16.000Z</time>
      </trkpt>
      <trkpt lat="43.18126" lon="5.57357">
        <ele>293.60000610352</ele>
        <time>2016-05-08T08:40:20.000Z</time>
      </trkpt>
      <trkpt lat="43.18136" lon="5.57355">
        <ele>292.79998779297</ele>
        <time>2016-05-08T08:40:22.000Z</time>
      </trkpt>
      <trkpt lat="43.1815" lon="5.57352">
        <ele>292</ele>
        <time>2016-05-08T08:40:25.000Z</time>
      </trkpt>
      <trkpt lat="43.18159" lon="5.5735">
        <ele>291.60000610352</ele>
        <time>2016-05-08T08:40:27.000Z</time>
      </trkpt>
      <trkpt lat="43.18174" lon="5.57346">
        <ele>291</ele>
        <time>2016-05-08T08:40:30.000Z</time>
      </trkpt>
      <trkpt lat="43.18193" lon="5.57339">
        <ele>292.39999389648</ele>
        <time>2016-05-08T08:40:34.000Z</time>
      </trkpt>
      <trkpt lat="43.18197" lon="5.57336">
        <ele>293.20001220703</ele>
        <time>2016-05-08T08:40:35.000Z</time>
      </trkpt>
      <trkpt lat="43.18206" lon="5.57322">
        <ele>295.79998779297</ele>
        <time>2016-05-08T08:40:38.000Z</time>
      </trkpt>
      <trkpt lat="43.18209" lon="5.57317">
        <ele>296.20001220703</ele>
        <time>2016-05-08T08:40:39.000Z</time>
      </trkpt>
      <trkpt lat="43.18211" lon="5.57311">
        <ele>296.79998779297</ele>
        <time>2016-05-08T08:40:40.000Z</time>
      </trkpt>
      <trkpt lat="43.18217" lon="5.573">
        <ele>298.20001220703</ele>
        <time>2016-05-08T08:40:42.000Z</time>
      </trkpt>
      <trkpt lat="43.18224" lon="5.57283">
        <ele>301.60000610352</ele>
        <time>2016-05-08T08:40:45.000Z</time>
      </trkpt>
      <trkpt lat="43.18232" lon="5.57266">
        <ele>304</ele>
        <time>2016-05-08T08:40:48.000Z</time>
      </trkpt>
      <trkpt lat="43.18241" lon="5.57253">
        <ele>304.39999389648</ele>
        <time>2016-05-08T08:40:51.000Z</time>
      </trkpt>
      <trkpt lat="43.18244" lon="5.57249">
        <ele>304.39999389648</ele>
        <time>2016-05-08T08:40:52.000Z</time>
      </trkpt>
      <trkpt lat="43.18252" lon="5.57242">
        <ele>304.20001220703</ele>
        <time>2016-05-08T08:40:55.000Z</time>
      </trkpt>
      <trkpt lat="43.18255" lon="5.57238">
        <ele>304</ele>
        <time>2016-05-08T08:40:57.000Z</time>
      </trkpt>
      <trkpt lat="43.18258" lon="5.57232">
        <ele>304.60000610352</ele>
        <time>2016-05-08T08:41:00.000Z</time>
      </trkpt>
      <trkpt lat="43.1826" lon="5.57228">
        <ele>304.79998779297</ele>
        <time>2016-05-08T08:41:03.000Z</time>
      </trkpt>
      <trkpt lat="43.1826" lon="5.57226">
        <ele>305</ele>
        <time>2016-05-08T08:41:05.000Z</time>
      </trkpt>
      <trkpt lat="43.18259" lon="5.57221">
        <ele>306</ele>
        <time>2016-05-08T08:42:51.000Z</time>
      </trkpt>
      <trkpt lat="43.18256" lon="5.57221">
        <ele>306.39999389648</ele>
        <time>2016-05-08T08:42:52.000Z</time>
      </trkpt>
      <trkpt lat="43.18244" lon="5.57223">
        <ele>308.60000610352</ele>
        <time>2016-05-08T08:42:55.000Z</time>
      </trkpt>
      <trkpt lat="43.18227" lon="5.57239">
        <ele>309.39999389648</ele>
        <time>2016-05-08T08:42:59.000Z</time>
      </trkpt>
      <trkpt lat="43.18223" lon="5.57243">
        <ele>309.39999389648</ele>
        <time>2016-05-08T08:43:00.000Z</time>
      </trkpt>
      <trkpt lat="43.18216" lon="5.57252">
        <ele>309.20001220703</ele>
        <time>2016-05-08T08:43:02.000Z</time>
      </trkpt>
      <trkpt lat="43.18205" lon="5.57264">
        <ele>308</ele>
        <time>2016-05-08T08:43:05.000Z</time>
      </trkpt>
      <trkpt lat="43.182" lon="5.57267">
        <ele>307.79998779297</ele>
        <time>2016-05-08T08:43:06.000Z</time>
      </trkpt>
      <trkpt lat="43.18196" lon="5.5727">
        <ele>307.39999389648</ele>
        <time>2016-05-08T08:43:07.000Z</time>
      </trkpt>
      <trkpt lat="43.18179" lon="5.57281">
        <ele>306.60000610352</ele>
        <time>2016-05-08T08:43:11.000Z</time>
      </trkpt>
      <trkpt lat="43.18175" lon="5.57283">
        <ele>306.60000610352</ele>
        <time>2016-05-08T08:43:12.000Z</time>
      </trkpt>
      <trkpt lat="43.1817" lon="5.57284">
        <ele>306.60000610352</ele>
        <time>2016-05-08T08:43:13.000Z</time>
      </trkpt>
      <trkpt lat="43.18156" lon="5.57284">
        <ele>307.39999389648</ele>
        <time>2016-05-08T08:43:16.000Z</time>
      </trkpt>
      <trkpt lat="43.18151" lon="5.57283">
        <ele>308</ele>
        <time>2016-05-08T08:43:17.000Z</time>
      </trkpt>
      <trkpt lat="43.18142" lon="5.57281">
        <ele>309.39999389648</ele>
        <time>2016-05-08T08:43:19.000Z</time>
      </trkpt>
      <trkpt lat="43.18128" lon="5.57277">
        <ele>311.39999389648</ele>
        <time>2016-05-08T08:43:22.000Z</time>
      </trkpt>
      <trkpt lat="43.1811" lon="5.57272">
        <ele>314.20001220703</ele>
        <time>2016-05-08T08:43:26.000Z</time>
      </trkpt>
      <trkpt lat="43.18101" lon="5.57269">
        <ele>315.39999389648</ele>
        <time>2016-05-08T08:43:28.000Z</time>
      </trkpt>
      <trkpt lat="43.18097" lon="5.57269">
        <ele>316</ele>
        <time>2016-05-08T08:43:29.000Z</time>
      </trkpt>
      <trkpt lat="43.18087" lon="5.57267">
        <ele>316.79998779297</ele>
        <time>2016-05-08T08:43:31.000Z</time>
      </trkpt>
      <trkpt lat="43.18078" lon="5.57266">
        <ele>317.39999389648</ele>
        <time>2016-05-08T08:43:33.000Z</time>
      </trkpt>
      <trkpt lat="43.18069" lon="5.57265">
        <ele>317.79998779297</ele>
        <time>2016-05-08T08:43:35.000Z</time>
      </trkpt>
      <trkpt lat="43.18065" lon="5.57265">
        <ele>318</ele>
        <time>2016-05-08T08:43:36.000Z</time>
      </trkpt>
      <trkpt lat="43.18055" lon="5.57265">
        <ele>319</ele>
        <time>2016-05-08T08:43:38.000Z</time>
      </trkpt>
      <trkpt lat="43.18037" lon="5.57265">
        <ele>322.79998779297</ele>
        <time>2016-05-08T08:43:42.000Z</time>
      </trkpt>
      <trkpt lat="43.18028" lon="5.57266">
        <ele>324.79998779297</ele>
        <time>2016-05-08T08:43:44.000Z</time>
      </trkpt>
      <trkpt lat="43.18024" lon="5.57265">
        <ele>325.79998779297</ele>
        <time>2016-05-08T08:43:45.000Z</time>
      </trkpt>
      <trkpt lat="43.18016" lon="5.5726">
        <ele>327.60000610352</ele>
        <time>2016-05-08T08:43:47.000Z</time>
      </trkpt>
      <trkpt lat="43.18014" lon="5.57255">
        <ele>328</ele>
        <time>2016-05-08T08:43:48.000Z</time>
      </trkpt>
      <trkpt lat="43.18014" lon="5.57251">
        <ele>328</ele>
        <time>2016-05-08T08:43:49.000Z</time>
      </trkpt>
      <trkpt lat="43.18018" lon="5.57243">
        <ele>327.20001220703</ele>
        <time>2016-05-08T08:43:51.000Z</time>
      </trkpt>
      <trkpt lat="43.18026" lon="5.57236">
        <ele>325.60000610352</ele>
        <time>2016-05-08T08:43:53.000Z</time>
      </trkpt>
      <trkpt lat="43.18036" lon="5.57228">
        <ele>326.20001220703</ele>
        <time>2016-05-08T08:43:55.000Z</time>
      </trkpt>
      <trkpt lat="43.18044" lon="5.57221">
        <ele>327.39999389648</ele>
        <time>2016-05-08T08:43:57.000Z</time>
      </trkpt>
      <trkpt lat="43.18063" lon="5.57199">
        <ele>324.79998779297</ele>
        <time>2016-05-08T08:44:02.000Z</time>
      </trkpt>
      <trkpt lat="43.1807" lon="5.5719">
        <ele>324.39999389648</ele>
        <time>2016-05-08T08:44:04.000Z</time>
      </trkpt>
      <trkpt lat="43.18081" lon="5.57177">
        <ele>327.79998779297</ele>
        <time>2016-05-08T08:44:07.000Z</time>
      </trkpt>
      <trkpt lat="43.1809" lon="5.57162">
        <ele>331</ele>
        <time>2016-05-08T08:44:10.000Z</time>
      </trkpt>
      <trkpt lat="43.18099" lon="5.57148">
        <ele>333.39999389648</ele>
        <time>2016-05-08T08:44:13.000Z</time>
      </trkpt>
      <trkpt lat="43.1811" lon="5.57127">
        <ele>335</ele>
        <time>2016-05-08T08:44:17.000Z</time>
      </trkpt>
      <trkpt lat="43.18117" lon="5.57111">
        <ele>335.20001220703</ele>
        <time>2016-05-08T08:44:20.000Z</time>
      </trkpt>
      <trkpt lat="43.18123" lon="5.57101">
        <ele>335.39999389648</ele>
        <time>2016-05-08T08:44:22.000Z</time>
      </trkpt>
      <trkpt lat="43.18126" lon="5.57096">
        <ele>335.39999389648</ele>
        <time>2016-05-08T08:44:23.000Z</time>
      </trkpt>
      <trkpt lat="43.18136" lon="5.57084">
        <ele>336.20001220703</ele>
        <time>2016-05-08T08:44:26.000Z</time>
      </trkpt>
      <trkpt lat="43.18142" lon="5.57075">
        <ele>337.20001220703</ele>
        <time>2016-05-08T08:44:28.000Z</time>
      </trkpt>
      <trkpt lat="43.18145" lon="5.5707">
        <ele>337.60000610352</ele>
        <time>2016-05-08T08:44:29.000Z</time>
      </trkpt>
      <trkpt lat="43.18151" lon="5.5706">
        <ele>338.79998779297</ele>
        <time>2016-05-08T08:44:31.000Z</time>
      </trkpt>
      <trkpt lat="43.1816" lon="5.57037">
        <ele>340.79998779297</ele>
        <time>2016-05-08T08:44:35.000Z</time>
      </trkpt>
      <trkpt lat="43.18161" lon="5.57031">
        <ele>341.20001220703</ele>
        <time>2016-05-08T08:44:36.000Z</time>
      </trkpt>
      <trkpt lat="43.18164" lon="5.57011">
        <ele>343</ele>
        <time>2016-05-08T08:44:39.000Z</time>
      </trkpt>
      <trkpt lat="43.18164" lon="5.57004">
        <ele>343.39999389648</ele>
        <time>2016-05-08T08:44:40.000Z</time>
      </trkpt>
      <trkpt lat="43.18163" lon="5.56997">
        <ele>343.79998779297</ele>
        <time>2016-05-08T08:44:41.000Z</time>
      </trkpt>
      <trkpt lat="43.18158" lon="5.5697">
        <ele>345.39999389648</ele>
        <time>2016-05-08T08:44:45.000Z</time>
      </trkpt>
      <trkpt lat="43.18154" lon="5.5695">
        <ele>345.20001220703</ele>
        <time>2016-05-08T08:44:48.000Z</time>
      </trkpt>
      <trkpt lat="43.18153" lon="5.56943">
        <ele>345.20001220703</ele>
        <time>2016-05-08T08:44:49.000Z</time>
      </trkpt>
      <trkpt lat="43.18145" lon="5.56901">
        <ele>343.79998779297</ele>
        <time>2016-05-08T08:44:55.000Z</time>
      </trkpt>
      <trkpt lat="43.18143" lon="5.56887">
        <ele>343.39999389648</ele>
        <time>2016-05-08T08:44:57.000Z</time>
      </trkpt>
      <trkpt lat="43.1814" lon="5.56832">
        <ele>339.39999389648</ele>
        <time>2016-05-08T08:45:05.000Z</time>
      </trkpt>
      <trkpt lat="43.18141" lon="5.56825">
        <ele>339.79998779297</ele>
        <time>2016-05-08T08:45:06.000Z</time>
      </trkpt>
      <trkpt lat="43.18149" lon="5.56801">
        <ele>342.79998779297</ele>
        <time>2016-05-08T08:45:10.000Z</time>
      </trkpt>
      <trkpt lat="43.18152" lon="5.56797">
        <ele>343.60000610352</ele>
        <time>2016-05-08T08:45:11.000Z</time>
      </trkpt>
      <trkpt lat="43.18163" lon="5.56784">
        <ele>346.39999389648</ele>
        <time>2016-05-08T08:45:14.000Z</time>
      </trkpt>
      <trkpt lat="43.18167" lon="5.5678">
        <ele>348.20001220703</ele>
        <time>2016-05-08T08:45:15.000Z</time>
      </trkpt>
      <trkpt lat="43.18185" lon="5.56768">
        <ele>352.60000610352</ele>
        <time>2016-05-08T08:45:19.000Z</time>
      </trkpt>
      <trkpt lat="43.18193" lon="5.56764">
        <ele>352.60000610352</ele>
        <time>2016-05-08T08:45:21.000Z</time>
      </trkpt>
      <trkpt lat="43.18198" lon="5.56764">
        <ele>352.60000610352</ele>
        <time>2016-05-08T08:45:22.000Z</time>
      </trkpt>
      <trkpt lat="43.18212" lon="5.56766">
        <ele>351.60000610352</ele>
        <time>2016-05-08T08:45:25.000Z</time>
      </trkpt>
      <trkpt lat="43.18217" lon="5.56768">
        <ele>351.20001220703</ele>
        <time>2016-05-08T08:45:26.000Z</time>
      </trkpt>
      <trkpt lat="43.18235" lon="5.56774">
        <ele>349.60000610352</ele>
        <time>2016-05-08T08:45:30.000Z</time>
      </trkpt>
      <trkpt lat="43.18253" lon="5.56782">
        <ele>349</ele>
        <time>2016-05-08T08:45:34.000Z</time>
      </trkpt>
      <trkpt lat="43.18263" lon="5.56784">
        <ele>348.79998779297</ele>
        <time>2016-05-08T08:45:36.000Z</time>
      </trkpt>
      <trkpt lat="43.18286" lon="5.56786">
        <ele>346.79998779297</ele>
        <time>2016-05-08T08:45:41.000Z</time>
      </trkpt>
      <trkpt lat="43.18304" lon="5.56785">
        <ele>345.60000610352</ele>
        <time>2016-05-08T08:45:45.000Z</time>
      </trkpt>
      <trkpt lat="43.18309" lon="5.56784">
        <ele>345.60000610352</ele>
        <time>2016-05-08T08:45:46.000Z</time>
      </trkpt>
      <trkpt lat="43.18322" lon="5.56778">
        <ele>345.79998779297</ele>
        <time>2016-05-08T08:45:49.000Z</time>
      </trkpt>
      <trkpt lat="43.18327" lon="5.56775">
        <ele>346.39999389648</ele>
        <time>2016-05-08T08:45:50.000Z</time>
      </trkpt>
      <trkpt lat="43.18342" lon="5.56763">
        <ele>349.20001220703</ele>
        <time>2016-05-08T08:45:54.000Z</time>
      </trkpt>
      <trkpt lat="43.18349" lon="5.56755">
        <ele>349.60000610352</ele>
        <time>2016-05-08T08:45:56.000Z</time>
      </trkpt>
      <trkpt lat="43.18353" lon="5.56751">
        <ele>349.60000610352</ele>
        <time>2016-05-08T08:45:57.000Z</time>
      </trkpt>
      <trkpt lat="43.1836" lon="5.56743">
        <ele>349.60000610352</ele>
        <time>2016-05-08T08:45:59.000Z</time>
      </trkpt>
      <trkpt lat="43.18369" lon="5.56723">
        <ele>351.39999389648</ele>
        <time>2016-05-08T08:46:03.000Z</time>
      </trkpt>
      <trkpt lat="43.18371" lon="5.56712">
        <ele>353.20001220703</ele>
        <time>2016-05-08T08:46:05.000Z</time>
      </trkpt>
      <trkpt lat="43.18369" lon="5.56702">
        <ele>354.79998779297</ele>
        <time>2016-05-08T08:46:07.000Z</time>
      </trkpt>
      <trkpt lat="43.18368" lon="5.56699">
        <ele>355.60000610352</ele>
        <time>2016-05-08T08:46:08.000Z</time>
      </trkpt>
      <trkpt lat="43.18364" lon="5.56689">
        <ele>358.20001220703</ele>
        <time>2016-05-08T08:46:11.000Z</time>
      </trkpt>
      <trkpt lat="43.18363" lon="5.56685">
        <ele>359.39999389648</ele>
        <time>2016-05-08T08:46:12.000Z</time>
      </trkpt>
      <trkpt lat="43.18354" lon="5.56658">
        <ele>366</ele>
        <time>2016-05-08T08:46:18.000Z</time>
      </trkpt>
      <trkpt lat="43.18351" lon="5.56647">
        <ele>368.20001220703</ele>
        <time>2016-05-08T08:46:20.000Z</time>
      </trkpt>
      <trkpt lat="43.1835" lon="5.56633">
        <ele>369.60000610352</ele>
        <time>2016-05-08T08:46:22.000Z</time>
      </trkpt>
      <trkpt lat="43.18349" lon="5.56625">
        <ele>370</ele>
        <time>2016-05-08T08:46:23.000Z</time>
      </trkpt>
      <trkpt lat="43.18349" lon="5.56617">
        <ele>370.60000610352</ele>
        <time>2016-05-08T08:46:24.000Z</time>
      </trkpt>
      <trkpt lat="43.18349" lon="5.56602">
        <ele>370.79998779297</ele>
        <time>2016-05-08T08:46:26.000Z</time>
      </trkpt>
      <trkpt lat="43.18352" lon="5.56581">
        <ele>369.39999389648</ele>
        <time>2016-05-08T08:46:29.000Z</time>
      </trkpt>
      <trkpt lat="43.18355" lon="5.56575">
        <ele>368.39999389648</ele>
        <time>2016-05-08T08:46:30.000Z</time>
      </trkpt>
      <trkpt lat="43.18364" lon="5.56563">
        <ele>364.60000610352</ele>
        <time>2016-05-08T08:46:33.000Z</time>
      </trkpt>
      <trkpt lat="43.18383" lon="5.56551">
        <ele>356.79998779297</ele>
        <time>2016-05-08T08:46:36.000Z</time>
      </trkpt>
      <trkpt lat="43.18389" lon="5.56549">
        <ele>353.79998779297</ele>
        <time>2016-05-08T08:46:37.000Z</time>
      </trkpt>
      <trkpt lat="43.18395" lon="5.56546">
        <ele>350.79998779297</ele>
        <time>2016-05-08T08:46:38.000Z</time>
      </trkpt>
      <trkpt lat="43.18401" lon="5.56542">
        <ele>348</ele>
        <time>2016-05-08T08:46:39.000Z</time>
      </trkpt>
      <trkpt lat="43.18406" lon="5.56537">
        <ele>345.39999389648</ele>
        <time>2016-05-08T08:46:40.000Z</time>
      </trkpt>
      <trkpt lat="43.18414" lon="5.56523">
        <ele>344.20001220703</ele>
        <time>2016-05-08T08:46:42.000Z</time>
      </trkpt>
      <trkpt lat="43.18416" lon="5.56516">
        <ele>344.60000610352</ele>
        <time>2016-05-08T08:46:43.000Z</time>
      </trkpt>
      <trkpt lat="43.18419" lon="5.56499">
        <ele>346.39999389648</ele>
        <time>2016-05-08T08:46:45.000Z</time>
      </trkpt>
      <trkpt lat="43.18419" lon="5.56482">
        <ele>349</ele>
        <time>2016-05-08T08:46:47.000Z</time>
      </trkpt>
      <trkpt lat="43.18419" lon="5.56474">
        <ele>350.39999389648</ele>
        <time>2016-05-08T08:46:48.000Z</time>
      </trkpt>
      <trkpt lat="43.18419" lon="5.56457">
        <ele>341.39999389648</ele>
        <time>2016-05-08T08:46:50.000Z</time>
      </trkpt>
      <trkpt lat="43.18419" lon="5.56441">
        <ele>338.60000610352</ele>
        <time>2016-05-08T08:46:52.000Z</time>
      </trkpt>
      <trkpt lat="43.1842" lon="5.56433">
        <ele>337.79998779297</ele>
        <time>2016-05-08T08:46:53.000Z</time>
      </trkpt>
      <trkpt lat="43.18421" lon="5.56426">
        <ele>336.79998779297</ele>
        <time>2016-05-08T08:46:54.000Z</time>
      </trkpt>
      <trkpt lat="43.18421" lon="5.5642">
        <ele>336.20001220703</ele>
        <time>2016-05-08T08:46:55.000Z</time>
      </trkpt>
      <trkpt lat="43.18423" lon="5.56408">
        <ele>334.79998779297</ele>
        <time>2016-05-08T08:46:57.000Z</time>
      </trkpt>
      <trkpt lat="43.18424" lon="5.564">
        <ele>334.39999389648</ele>
        <time>2016-05-08T08:46:59.000Z</time>
      </trkpt>
      <trkpt lat="43.18426" lon="5.56397">
        <ele>334.60000610352</ele>
        <time>2016-05-08T08:47:00.000Z</time>
      </trkpt>
      <trkpt lat="43.18427" lon="5.56392">
        <ele>334.39999389648</ele>
        <time>2016-05-08T08:47:02.000Z</time>
      </trkpt>
      <trkpt lat="43.18428" lon="5.56388">
        <ele>334.60000610352</ele>
        <time>2016-05-08T08:49:28.000Z</time>
      </trkpt>
      <trkpt lat="43.18429" lon="5.56382">
        <ele>332.20001220703</ele>
        <time>2016-05-08T08:49:31.000Z</time>
      </trkpt>
      <trkpt lat="43.18434" lon="5.56375">
        <ele>325.20001220703</ele>
        <time>2016-05-08T08:49:38.000Z</time>
      </trkpt>
      <trkpt lat="43.18435" lon="5.56381">
        <ele>329</ele>
        <time>2016-05-08T08:52:11.000Z</time>
      </trkpt>
      <trkpt lat="43.18434" lon="5.56384">
        <ele>331.20001220703</ele>
        <time>2016-05-08T08:52:13.000Z</time>
      </trkpt>
      <trkpt lat="43.18434" lon="5.56385">
        <ele>331.79998779297</ele>
        <time>2016-05-08T08:52:14.000Z</time>
      </trkpt>
      <trkpt lat="43.18432" lon="5.56399">
        <ele>334.60000610352</ele>
        <time>2016-05-08T08:52:17.000Z</time>
      </trkpt>
      <trkpt lat="43.18429" lon="5.56422">
        <ele>340.20001220703</ele>
        <time>2016-05-08T08:52:20.000Z</time>
      </trkpt>
      <trkpt lat="43.18429" lon="5.56439">
        <ele>343.60000610352</ele>
        <time>2016-05-08T08:52:22.000Z</time>
      </trkpt>
      <trkpt lat="43.1843" lon="5.56458">
        <ele>346</ele>
        <time>2016-05-08T08:52:24.000Z</time>
      </trkpt>
      <trkpt lat="43.18435" lon="5.56476">
        <ele>345</ele>
        <time>2016-05-08T08:52:26.000Z</time>
      </trkpt>
      <trkpt lat="43.18442" lon="5.56495">
        <ele>339.39999389648</ele>
        <time>2016-05-08T08:52:28.000Z</time>
      </trkpt>
      <trkpt lat="43.18449" lon="5.56514">
        <ele>333.60000610352</ele>
        <time>2016-05-08T08:52:30.000Z</time>
      </trkpt>
      <trkpt lat="43.18451" lon="5.56523">
        <ele>331</ele>
        <time>2016-05-08T08:52:31.000Z</time>
      </trkpt>
      <trkpt lat="43.18453" lon="5.56533">
        <ele>329</ele>
        <time>2016-05-08T08:52:32.000Z</time>
      </trkpt>
      <trkpt lat="43.1845" lon="5.56553">
        <ele>327.39999389648</ele>
        <time>2016-05-08T08:52:34.000Z</time>
      </trkpt>
      <trkpt lat="43.18439" lon="5.56571">
        <ele>330.39999389648</ele>
        <time>2016-05-08T08:52:36.000Z</time>
      </trkpt>
      <trkpt lat="43.18433" lon="5.56578">
        <ele>332.39999389648</ele>
        <time>2016-05-08T08:52:37.000Z</time>
      </trkpt>
      <trkpt lat="43.18426" lon="5.56583">
        <ele>334.79998779297</ele>
        <time>2016-05-08T08:52:38.000Z</time>
      </trkpt>
      <trkpt lat="43.18414" lon="5.56591">
        <ele>340</ele>
        <time>2016-05-08T08:52:40.000Z</time>
      </trkpt>
      <trkpt lat="43.18408" lon="5.56594">
        <ele>342.39999389648</ele>
        <time>2016-05-08T08:52:41.000Z</time>
      </trkpt>
      <trkpt lat="43.18404" lon="5.566">
        <ele>344</ele>
        <time>2016-05-08T08:52:42.000Z</time>
      </trkpt>
      <trkpt lat="43.18403" lon="5.56605">
        <ele>344.20001220703</ele>
        <time>2016-05-08T08:52:43.000Z</time>
      </trkpt>
      <trkpt lat="43.18404" lon="5.56611">
        <ele>343.60000610352</ele>
        <time>2016-05-08T08:52:44.000Z</time>
      </trkpt>
      <trkpt lat="43.18408" lon="5.56613">
        <ele>341.60000610352</ele>
        <time>2016-05-08T08:52:45.000Z</time>
      </trkpt>
      <trkpt lat="43.18421" lon="5.56606">
        <ele>336</ele>
        <time>2016-05-08T08:52:47.000Z</time>
      </trkpt>
      <trkpt lat="43.18427" lon="5.566">
        <ele>333.39999389648</ele>
        <time>2016-05-08T08:52:48.000Z</time>
      </trkpt>
      <trkpt lat="43.18434" lon="5.56595">
        <ele>331</ele>
        <time>2016-05-08T08:52:49.000Z</time>
      </trkpt>
      <trkpt lat="43.18455" lon="5.56577">
        <ele>323.79998779297</ele>
        <time>2016-05-08T08:52:52.000Z</time>
      </trkpt>
      <trkpt lat="43.18462" lon="5.56571">
        <ele>321.39999389648</ele>
        <time>2016-05-08T08:52:53.000Z</time>
      </trkpt>
      <trkpt lat="43.18475" lon="5.56556">
        <ele>317.20001220703</ele>
        <time>2016-05-08T08:52:55.000Z</time>
      </trkpt>
      <trkpt lat="43.18483" lon="5.56541">
        <ele>315.79998779297</ele>
        <time>2016-05-08T08:52:57.000Z</time>
      </trkpt>
      <trkpt lat="43.18484" lon="5.5652">
        <ele>318.39999389648</ele>
        <time>2016-05-08T08:52:59.000Z</time>
      </trkpt>
      <trkpt lat="43.18478" lon="5.56498">
        <ele>322.20001220703</ele>
        <time>2016-05-08T08:53:01.000Z</time>
      </trkpt>
      <trkpt lat="43.18475" lon="5.56487">
        <ele>324.20001220703</ele>
        <time>2016-05-08T08:53:02.000Z</time>
      </trkpt>
      <trkpt lat="43.18472" lon="5.56474">
        <ele>326.20001220703</ele>
        <time>2016-05-08T08:53:03.000Z</time>
      </trkpt>
      <trkpt lat="43.18467" lon="5.56449">
        <ele>325.60000610352</ele>
        <time>2016-05-08T08:53:05.000Z</time>
      </trkpt>
      <trkpt lat="43.18466" lon="5.56435">
        <ele>323.39999389648</ele>
        <time>2016-05-08T08:53:06.000Z</time>
      </trkpt>
      <trkpt lat="43.18467" lon="5.56421">
        <ele>321</ele>
        <time>2016-05-08T08:53:07.000Z</time>
      </trkpt>
      <trkpt lat="43.1847" lon="5.56394">
        <ele>318</ele>
        <time>2016-05-08T08:53:09.000Z</time>
      </trkpt>
      <trkpt lat="43.18476" lon="5.56367">
        <ele>302.79998779297</ele>
        <time>2016-05-08T08:53:11.000Z</time>
      </trkpt>
      <trkpt lat="43.18478" lon="5.56354">
        <ele>292.39999389648</ele>
        <time>2016-05-08T08:53:12.000Z</time>
      </trkpt>
      <trkpt lat="43.1848" lon="5.56341">
        <ele>291.60000610352</ele>
        <time>2016-05-08T08:53:13.000Z</time>
      </trkpt>
      <trkpt lat="43.18482" lon="5.5633">
        <ele>292.39999389648</ele>
        <time>2016-05-08T08:53:14.000Z</time>
      </trkpt>
      <trkpt lat="43.18486" lon="5.56309">
        <ele>294.20001220703</ele>
        <time>2016-05-08T08:53:16.000Z</time>
      </trkpt>
      <trkpt lat="43.18489" lon="5.56301">
        <ele>295.20001220703</ele>
        <time>2016-05-08T08:53:17.000Z</time>
      </trkpt>
      <trkpt lat="43.18492" lon="5.56296">
        <ele>293.79998779297</ele>
        <time>2016-05-08T08:53:18.000Z</time>
      </trkpt>
      <trkpt lat="43.18516" lon="5.56295">
        <ele>301.39999389648</ele>
        <time>2016-05-08T08:53:21.000Z</time>
      </trkpt>
      <trkpt lat="43.18533" lon="5.563">
        <ele>301.79998779297</ele>
        <time>2016-05-08T08:53:24.000Z</time>
      </trkpt>
      <trkpt lat="43.18538" lon="5.56303">
        <ele>301.20001220703</ele>
        <time>2016-05-08T08:53:25.000Z</time>
      </trkpt>
      <trkpt lat="43.18563" lon="5.56315">
        <ele>297</ele>
        <time>2016-05-08T08:53:30.000Z</time>
      </trkpt>
      <trkpt lat="43.18573" lon="5.56313">
        <ele>296.79998779297</ele>
        <time>2016-05-08T08:53:32.000Z</time>
      </trkpt>
      <trkpt lat="43.18577" lon="5.56309">
        <ele>297.60000610352</ele>
        <time>2016-05-08T08:53:33.000Z</time>
      </trkpt>
      <trkpt lat="43.18584" lon="5.56297">
        <ele>298.60000610352</ele>
        <time>2016-05-08T08:53:35.000Z</time>
      </trkpt>
      <trkpt lat="43.18588" lon="5.56271">
        <ele>300.60000610352</ele>
        <time>2016-05-08T08:53:38.000Z</time>
      </trkpt>
      <trkpt lat="43.18594" lon="5.56224">
        <ele>309.20001220703</ele>
        <time>2016-05-08T08:53:43.000Z</time>
      </trkpt>
      <trkpt lat="43.18599" lon="5.56204">
        <ele>306</ele>
        <time>2016-05-08T08:53:45.000Z</time>
      </trkpt>
      <trkpt lat="43.18601" lon="5.56195">
        <ele>303.39999389648</ele>
        <time>2016-05-08T08:53:46.000Z</time>
      </trkpt>
      <trkpt lat="43.18612" lon="5.56163">
        <ele>293.79998779297</ele>
        <time>2016-05-08T08:53:50.000Z</time>
      </trkpt>
      <trkpt lat="43.18615" lon="5.56157">
        <ele>291.39999389648</ele>
        <time>2016-05-08T08:53:51.000Z</time>
      </trkpt>
      <trkpt lat="43.18629" lon="5.56144">
        <ele>295.60000610352</ele>
        <time>2016-05-08T08:53:54.000Z</time>
      </trkpt>
      <trkpt lat="43.18652" lon="5.56143">
        <ele>299</ele>
        <time>2016-05-08T08:53:58.000Z</time>
      </trkpt>
      <trkpt lat="43.18678" lon="5.56157">
        <ele>299.39999389648</ele>
        <time>2016-05-08T08:54:03.000Z</time>
      </trkpt>
      <trkpt lat="43.18712" lon="5.5617">
        <ele>296</ele>
        <time>2016-05-08T08:54:09.000Z</time>
      </trkpt>
      <trkpt lat="43.18718" lon="5.5617">
        <ele>296</ele>
        <time>2016-05-08T08:54:10.000Z</time>
      </trkpt>
      <trkpt lat="43.18733" lon="5.56164">
        <ele>298.39999389648</ele>
        <time>2016-05-08T08:54:13.000Z</time>
      </trkpt>
      <trkpt lat="43.18738" lon="5.56161">
        <ele>299.39999389648</ele>
        <time>2016-05-08T08:54:14.000Z</time>
      </trkpt>
      <trkpt lat="43.18758" lon="5.56153">
        <ele>302.39999389648</ele>
        <time>2016-05-08T08:54:18.000Z</time>
      </trkpt>
      <trkpt lat="43.18769" lon="5.56153">
        <ele>304.60000610352</ele>
        <time>2016-05-08T08:54:20.000Z</time>
      </trkpt>
      <trkpt lat="43.18775" lon="5.56153">
        <ele>305.39999389648</ele>
        <time>2016-05-08T08:54:21.000Z</time>
      </trkpt>
      <trkpt lat="43.18785" lon="5.56159">
        <ele>306.39999389648</ele>
        <time>2016-05-08T08:54:23.000Z</time>
      </trkpt>
      <trkpt lat="43.1879" lon="5.56163">
        <ele>306.20001220703</ele>
        <time>2016-05-08T08:54:24.000Z</time>
      </trkpt>
      <trkpt lat="43.18802" lon="5.56177">
        <ele>304.79998779297</ele>
        <time>2016-05-08T08:54:27.000Z</time>
      </trkpt>
      <trkpt lat="43.18809" lon="5.56188">
        <ele>303.39999389648</ele>
        <time>2016-05-08T08:54:29.000Z</time>
      </trkpt>
      <trkpt lat="43.1883" lon="5.56225">
        <ele>298.20001220703</ele>
        <time>2016-05-08T08:54:35.000Z</time>
      </trkpt>
      <trkpt lat="43.18833" lon="5.56231">
        <ele>297.79998779297</ele>
        <time>2016-05-08T08:54:36.000Z</time>
      </trkpt>
      <trkpt lat="43.18846" lon="5.56259">
        <ele>295.79998779297</ele>
        <time>2016-05-08T08:54:40.000Z</time>
      </trkpt>
      <trkpt lat="43.18857" lon="5.5629">
        <ele>294</ele>
        <time>2016-05-08T08:54:44.000Z</time>
      </trkpt>
      <trkpt lat="43.18869" lon="5.56333">
        <ele>289.20001220703</ele>
        <time>2016-05-08T08:54:49.000Z</time>
      </trkpt>
      <trkpt lat="43.18871" lon="5.5635">
        <ele>287.20001220703</ele>
        <time>2016-05-08T08:54:51.000Z</time>
      </trkpt>
      <trkpt lat="43.18875" lon="5.56366">
        <ele>286</ele>
        <time>2016-05-08T08:54:53.000Z</time>
      </trkpt>
      <trkpt lat="43.18881" lon="5.56377">
        <ele>285.60000610352</ele>
        <time>2016-05-08T08:54:55.000Z</time>
      </trkpt>
      <trkpt lat="43.18892" lon="5.56384">
        <ele>287.20001220703</ele>
        <time>2016-05-08T08:54:58.000Z</time>
      </trkpt>
      <trkpt lat="43.18899" lon="5.56387">
        <ele>288</ele>
        <time>2016-05-08T08:55:00.000Z</time>
      </trkpt>
      <trkpt lat="43.18909" lon="5.5639">
        <ele>289.60000610352</ele>
        <time>2016-05-08T08:55:03.000Z</time>
      </trkpt>
      <trkpt lat="43.18913" lon="5.56391">
        <ele>290.20001220703</ele>
        <time>2016-05-08T08:55:04.000Z</time>
      </trkpt>
      <trkpt lat="43.1894" lon="5.56401">
        <ele>293.39999389648</ele>
        <time>2016-05-08T08:55:11.000Z</time>
      </trkpt>
      <trkpt lat="43.18945" lon="5.56402">
        <ele>293.79998779297</ele>
        <time>2016-05-08T08:55:12.000Z</time>
      </trkpt>
      <trkpt lat="43.18956" lon="5.56407">
        <ele>294</ele>
        <time>2016-05-08T08:55:15.000Z</time>
      </trkpt>
      <trkpt lat="43.18973" lon="5.56413">
        <ele>294.39999389648</ele>
        <time>2016-05-08T08:55:19.000Z</time>
      </trkpt>
      <trkpt lat="43.18977" lon="5.56414">
        <ele>294.60000610352</ele>
        <time>2016-05-08T08:55:20.000Z</time>
      </trkpt>
      <trkpt lat="43.18985" lon="5.56416">
        <ele>295</ele>
        <time>2016-05-08T08:55:22.000Z</time>
      </trkpt>
      <trkpt lat="43.18993" lon="5.56416">
        <ele>295.60000610352</ele>
        <time>2016-05-08T08:55:24.000Z</time>
      </trkpt>
      <trkpt lat="43.19" lon="5.56414">
        <ele>296.79998779297</ele>
        <time>2016-05-08T08:55:26.000Z</time>
      </trkpt>
      <trkpt lat="43.19004" lon="5.56412">
        <ele>297.60000610352</ele>
        <time>2016-05-08T08:55:27.000Z</time>
      </trkpt>
      <trkpt lat="43.1901" lon="5.56406">
        <ele>299.39999389648</ele>
        <time>2016-05-08T08:55:29.000Z</time>
      </trkpt>
      <trkpt lat="43.19013" lon="5.56401">
        <ele>300.60000610352</ele>
        <time>2016-05-08T08:55:30.000Z</time>
      </trkpt>
      <trkpt lat="43.19017" lon="5.56391">
        <ele>302.60000610352</ele>
        <time>2016-05-08T08:55:32.000Z</time>
      </trkpt>
      <trkpt lat="43.19018" lon="5.56386">
        <ele>302.79998779297</ele>
        <time>2016-05-08T08:55:33.000Z</time>
      </trkpt>
      <trkpt lat="43.19019" lon="5.56366">
        <ele>305</ele>
        <time>2016-05-08T08:55:36.000Z</time>
      </trkpt>
      <trkpt lat="43.19013" lon="5.56341">
        <ele>309</ele>
        <time>2016-05-08T08:55:40.000Z</time>
      </trkpt>
      <trkpt lat="43.19011" lon="5.56334">
        <ele>310</ele>
        <time>2016-05-08T08:55:41.000Z</time>
      </trkpt>
      <trkpt lat="43.19004" lon="5.56288">
        <ele>315.20001220703</ele>
        <time>2016-05-08T08:55:47.000Z</time>
      </trkpt>
      <trkpt lat="43.18999" lon="5.56221">
        <ele>314.39999389648</ele>
        <time>2016-05-08T08:55:56.000Z</time>
      </trkpt>
      <trkpt lat="43.18995" lon="5.56206">
        <ele>315.60000610352</ele>
        <time>2016-05-08T08:55:58.000Z</time>
      </trkpt>
      <trkpt lat="43.18986" lon="5.56185">
        <ele>316.39999389648</ele>
        <time>2016-05-08T08:56:01.000Z</time>
      </trkpt>
      <trkpt lat="43.18982" lon="5.56178">
        <ele>316.60000610352</ele>
        <time>2016-05-08T08:56:02.000Z</time>
      </trkpt>
      <trkpt lat="43.18978" lon="5.56171">
        <ele>317</ele>
        <time>2016-05-08T08:56:03.000Z</time>
      </trkpt>
      <trkpt lat="43.18959" lon="5.56135">
        <ele>318.39999389648</ele>
        <time>2016-05-08T08:56:08.000Z</time>
      </trkpt>
      <trkpt lat="43.18923" lon="5.56071">
        <ele>319</ele>
        <time>2016-05-08T08:56:17.000Z</time>
      </trkpt>
      <trkpt lat="43.18916" lon="5.56057">
        <ele>318</ele>
        <time>2016-05-08T08:56:19.000Z</time>
      </trkpt>
      <trkpt lat="43.18883" lon="5.55993">
        <ele>318</ele>
        <time>2016-05-08T08:56:29.000Z</time>
      </trkpt>
      <trkpt lat="43.1888" lon="5.55986">
        <ele>317.79998779297</ele>
        <time>2016-05-08T08:56:30.000Z</time>
      </trkpt>
      <trkpt lat="43.18878" lon="5.55979">
        <ele>317.20001220703</ele>
        <time>2016-05-08T08:56:31.000Z</time>
      </trkpt>
      <trkpt lat="43.18867" lon="5.55942">
        <ele>314.60000610352</ele>
        <time>2016-05-08T08:56:36.000Z</time>
      </trkpt>
      <trkpt lat="43.18859" lon="5.55881">
        <ele>310</ele>
        <time>2016-05-08T08:56:43.000Z</time>
      </trkpt>
      <trkpt lat="43.18859" lon="5.55852">
        <ele>300.39999389648</ele>
        <time>2016-05-08T08:56:46.000Z</time>
      </trkpt>
      <trkpt lat="43.18864" lon="5.55834">
        <ele>293</ele>
        <time>2016-05-08T08:56:48.000Z</time>
      </trkpt>
      <trkpt lat="43.18881" lon="5.55821">
        <ele>292.60000610352</ele>
        <time>2016-05-08T08:56:51.000Z</time>
      </trkpt>
      <trkpt lat="43.18898" lon="5.55822">
        <ele>296.39999389648</ele>
        <time>2016-05-08T08:56:54.000Z</time>
      </trkpt>
      <trkpt lat="43.18902" lon="5.55823">
        <ele>297.39999389648</ele>
        <time>2016-05-08T08:56:55.000Z</time>
      </trkpt>
      <trkpt lat="43.1892" lon="5.55832">
        <ele>300.20001220703</ele>
        <time>2016-05-08T08:57:00.000Z</time>
      </trkpt>
      <trkpt lat="43.18946" lon="5.55848">
        <ele>300</ele>
        <time>2016-05-08T08:57:07.000Z</time>
      </trkpt>
      <trkpt lat="43.18977" lon="5.55861">
        <ele>298.39999389648</ele>
        <time>2016-05-08T08:57:15.000Z</time>
      </trkpt>
      <trkpt lat="43.18982" lon="5.55862">
        <ele>298.20001220703</ele>
        <time>2016-05-08T08:57:16.000Z</time>
      </trkpt>
      <trkpt lat="43.1899" lon="5.55866">
        <ele>297.79998779297</ele>
        <time>2016-05-08T08:57:18.000Z</time>
      </trkpt>
      <trkpt lat="43.19005" lon="5.55871">
        <ele>298</ele>
        <time>2016-05-08T08:57:21.000Z</time>
      </trkpt>
      <trkpt lat="43.1901" lon="5.55873">
        <ele>298</ele>
        <time>2016-05-08T08:57:22.000Z</time>
      </trkpt>
      <trkpt lat="43.19066" lon="5.55892">
        <ele>296</ele>
        <time>2016-05-08T08:57:33.000Z</time>
      </trkpt>
      <trkpt lat="43.1911" lon="5.55902">
        <ele>296</ele>
        <time>2016-05-08T08:57:41.000Z</time>
      </trkpt>
      <trkpt lat="43.1916" lon="5.55912">
        <ele>295</ele>
        <time>2016-05-08T08:57:50.000Z</time>
      </trkpt>
      <trkpt lat="43.1918" lon="5.55917">
        <ele>294.60000610352</ele>
        <time>2016-05-08T08:57:54.000Z</time>
      </trkpt>
      <trkpt lat="43.1919" lon="5.55917">
        <ele>295.39999389648</ele>
        <time>2016-05-08T08:57:56.000Z</time>
      </trkpt>
      <trkpt lat="43.19198" lon="5.55911">
        <ele>297.79998779297</ele>
        <time>2016-05-08T08:57:58.000Z</time>
      </trkpt>
      <trkpt lat="43.192" lon="5.55906">
        <ele>299.39999389648</ele>
        <time>2016-05-08T08:57:59.000Z</time>
      </trkpt>
      <trkpt lat="43.19198" lon="5.55886">
        <ele>297.79998779297</ele>
        <time>2016-05-08T08:58:02.000Z</time>
      </trkpt>
      <trkpt lat="43.19193" lon="5.55872">
        <ele>299.20001220703</ele>
        <time>2016-05-08T08:58:04.000Z</time>
      </trkpt>
      <trkpt lat="43.19188" lon="5.55857">
        <ele>301</ele>
        <time>2016-05-08T08:58:06.000Z</time>
      </trkpt>
      <trkpt lat="43.19186" lon="5.5585">
        <ele>302</ele>
        <time>2016-05-08T08:58:07.000Z</time>
      </trkpt>
      <trkpt lat="43.19163" lon="5.55806">
        <ele>308.60000610352</ele>
        <time>2016-05-08T08:58:13.000Z</time>
      </trkpt>
      <trkpt lat="43.19137" lon="5.5576">
        <ele>313</ele>
        <time>2016-05-08T08:58:19.000Z</time>
      </trkpt>
      <trkpt lat="43.1912" lon="5.55728">
        <ele>313</ele>
        <time>2016-05-08T08:58:23.000Z</time>
      </trkpt>
      <trkpt lat="43.19112" lon="5.55711">
        <ele>312.39999389648</ele>
        <time>2016-05-08T08:58:25.000Z</time>
      </trkpt>
      <trkpt lat="43.19098" lon="5.55685">
        <ele>309.79998779297</ele>
        <time>2016-05-08T08:58:28.000Z</time>
      </trkpt>
      <trkpt lat="43.19085" lon="5.55659">
        <ele>298</ele>
        <time>2016-05-08T08:58:31.000Z</time>
      </trkpt>
      <trkpt lat="43.19077" lon="5.55642">
        <ele>289</ele>
        <time>2016-05-08T08:58:33.000Z</time>
      </trkpt>
      <trkpt lat="43.19069" lon="5.55625">
        <ele>268.60000610352</ele>
        <time>2016-05-08T08:58:35.000Z</time>
      </trkpt>
      <trkpt lat="43.19066" lon="5.55616">
        <ele>252.60000610352</ele>
        <time>2016-05-08T08:58:36.000Z</time>
      </trkpt>
      <trkpt lat="43.19063" lon="5.55606">
        <ele>236</ele>
        <time>2016-05-08T08:58:37.000Z</time>
      </trkpt>
      <trkpt lat="43.19061" lon="5.55597">
        <ele>224.19999694824</ele>
        <time>2016-05-08T08:58:38.000Z</time>
      </trkpt>
      <trkpt lat="43.19064" lon="5.55579">
        <ele>222.39999389648</ele>
        <time>2016-05-08T08:58:40.000Z</time>
      </trkpt>
      <trkpt lat="43.19077" lon="5.5556">
        <ele>238</ele>
        <time>2016-05-08T08:58:43.000Z</time>
      </trkpt>
      <trkpt lat="43.19087" lon="5.55554">
        <ele>253.80000305176</ele>
        <time>2016-05-08T08:58:45.000Z</time>
      </trkpt>
      <trkpt lat="43.19095" lon="5.55551">
        <ele>266.20001220703</ele>
        <time>2016-05-08T08:58:47.000Z</time>
      </trkpt>
      <trkpt lat="43.19104" lon="5.55548">
        <ele>265</ele>
        <time>2016-05-08T08:58:50.000Z</time>
      </trkpt>
      <trkpt lat="43.19106" lon="5.55545">
        <ele>260.79998779297</ele>
        <time>2016-05-08T08:58:51.000Z</time>
      </trkpt>
      <trkpt lat="43.19106" lon="5.55541">
        <ele>253.60000610352</ele>
        <time>2016-05-08T08:58:52.000Z</time>
      </trkpt>
      <trkpt lat="43.19107" lon="5.55538">
        <ele>248.19999694824</ele>
        <time>2016-05-08T08:58:53.000Z</time>
      </trkpt>
      <trkpt lat="43.19109" lon="5.55534">
        <ele>242</ele>
        <time>2016-05-08T08:58:55.000Z</time>
      </trkpt>
      <trkpt lat="43.1911" lon="5.55533">
        <ele>241.19999694824</ele>
        <time>2016-05-08T08:58:56.000Z</time>
      </trkpt>
      <trkpt lat="43.19119" lon="5.55535">
        <ele>249</ele>
        <time>2016-05-08T09:06:29.000Z</time>
      </trkpt>
      <trkpt lat="43.1912" lon="5.55538">
        <ele>254.60000610352</ele>
        <time>2016-05-08T09:06:30.000Z</time>
      </trkpt>
      <trkpt lat="43.1913" lon="5.55552">
        <ele>282.20001220703</ele>
        <time>2016-05-08T09:06:34.000Z</time>
      </trkpt>
      <trkpt lat="43.19145" lon="5.55563">
        <ele>286.79998779297</ele>
        <time>2016-05-08T09:06:37.000Z</time>
      </trkpt>
      <trkpt lat="43.19155" lon="5.5557">
        <ele>290</ele>
        <time>2016-05-08T09:06:39.000Z</time>
      </trkpt>
      <trkpt lat="43.19169" lon="5.55579">
        <ele>294.60000610352</ele>
        <time>2016-05-08T09:06:42.000Z</time>
      </trkpt>
      <trkpt lat="43.19189" lon="5.55591">
        <ele>296.39999389648</ele>
        <time>2016-05-08T09:06:46.000Z</time>
      </trkpt>
      <trkpt lat="43.19195" lon="5.55593">
        <ele>296</ele>
        <time>2016-05-08T09:06:47.000Z</time>
      </trkpt>
      <trkpt lat="43.19234" lon="5.55598">
        <ele>296</ele>
        <time>2016-05-08T09:06:54.000Z</time>
      </trkpt>
      <trkpt lat="43.19262" lon="5.5559">
        <ele>300.79998779297</ele>
        <time>2016-05-08T09:06:59.000Z</time>
      </trkpt>
      <trkpt lat="43.19267" lon="5.55586">
        <ele>302</ele>
        <time>2016-05-08T09:07:00.000Z</time>
      </trkpt>
      <trkpt lat="43.19286" lon="5.55566">
        <ele>307.79998779297</ele>
        <time>2016-05-08T09:07:04.000Z</time>
      </trkpt>
      <trkpt lat="43.1929" lon="5.5556">
        <ele>308.79998779297</ele>
        <time>2016-05-08T09:07:05.000Z</time>
      </trkpt>
      <trkpt lat="43.19317" lon="5.5553">
        <ele>314.20001220703</ele>
        <time>2016-05-08T09:07:11.000Z</time>
      </trkpt>
      <trkpt lat="43.19322" lon="5.55528">
        <ele>314.79998779297</ele>
        <time>2016-05-08T09:07:12.000Z</time>
      </trkpt>
      <trkpt lat="43.19333" lon="5.5553">
        <ele>313.60000610352</ele>
        <time>2016-05-08T09:07:14.000Z</time>
      </trkpt>
      <trkpt lat="43.19338" lon="5.55535">
        <ele>312</ele>
        <time>2016-05-08T09:07:15.000Z</time>
      </trkpt>
      <trkpt lat="43.19348" lon="5.55555">
        <ele>307.79998779297</ele>
        <time>2016-05-08T09:07:18.000Z</time>
      </trkpt>
      <trkpt lat="43.19356" lon="5.55583">
        <ele>303.79998779297</ele>
        <time>2016-05-08T09:07:22.000Z</time>
      </trkpt>
      <trkpt lat="43.19358" lon="5.5559">
        <ele>302.79998779297</ele>
        <time>2016-05-08T09:07:23.000Z</time>
      </trkpt>
      <trkpt lat="43.19372" lon="5.55629">
        <ele>298</ele>
        <time>2016-05-08T09:07:29.000Z</time>
      </trkpt>
      <trkpt lat="43.1938" lon="5.55646">
        <ele>295.79998779297</ele>
        <time>2016-05-08T09:07:32.000Z</time>
      </trkpt>
      <trkpt lat="43.19383" lon="5.5565">
        <ele>295.60000610352</ele>
        <time>2016-05-08T09:07:33.000Z</time>
      </trkpt>
      <trkpt lat="43.19399" lon="5.55663">
        <ele>295.79998779297</ele>
        <time>2016-05-08T09:07:37.000Z</time>
      </trkpt>
      <trkpt lat="43.19408" lon="5.55664">
        <ele>297.60000610352</ele>
        <time>2016-05-08T09:07:39.000Z</time>
      </trkpt>
      <trkpt lat="43.19413" lon="5.55664">
        <ele>298.60000610352</ele>
        <time>2016-05-08T09:07:40.000Z</time>
      </trkpt>
      <trkpt lat="43.19418" lon="5.55664">
        <ele>299.79998779297</ele>
        <time>2016-05-08T09:07:41.000Z</time>
      </trkpt>
      <trkpt lat="43.19428" lon="5.5566">
        <ele>302.79998779297</ele>
        <time>2016-05-08T09:07:43.000Z</time>
      </trkpt>
      <trkpt lat="43.19441" lon="5.5565">
        <ele>304.39999389648</ele>
        <time>2016-05-08T09:07:46.000Z</time>
      </trkpt>
      <trkpt lat="43.19449" lon="5.55641">
        <ele>305</ele>
        <time>2016-05-08T09:07:48.000Z</time>
      </trkpt>
      <trkpt lat="43.19453" lon="5.55636">
        <ele>305.39999389648</ele>
        <time>2016-05-08T09:07:49.000Z</time>
      </trkpt>
      <trkpt lat="43.19456" lon="5.55631">
        <ele>306</ele>
        <time>2016-05-08T09:07:50.000Z</time>
      </trkpt>
      <trkpt lat="43.19462" lon="5.55622">
        <ele>307.20001220703</ele>
        <time>2016-05-08T09:07:52.000Z</time>
      </trkpt>
      <trkpt lat="43.19471" lon="5.55608">
        <ele>308.79998779297</ele>
        <time>2016-05-08T09:07:55.000Z</time>
      </trkpt>
      <trkpt lat="43.1949" lon="5.55581">
        <ele>312.60000610352</ele>
        <time>2016-05-08T09:08:01.000Z</time>
      </trkpt>
      <trkpt lat="43.19497" lon="5.55571">
        <ele>314</ele>
        <time>2016-05-08T09:08:03.000Z</time>
      </trkpt>
      <trkpt lat="43.19503" lon="5.55563">
        <ele>315.20001220703</ele>
        <time>2016-05-08T09:08:05.000Z</time>
      </trkpt>
      <trkpt lat="43.19521" lon="5.55543">
        <ele>319.39999389648</ele>
        <time>2016-05-08T09:08:10.000Z</time>
      </trkpt>
      <trkpt lat="43.19525" lon="5.5554">
        <ele>320.20001220703</ele>
        <time>2016-05-08T09:08:11.000Z</time>
      </trkpt>
      <trkpt lat="43.19544" lon="5.55538">
        <ele>321.39999389648</ele>
        <time>2016-05-08T09:08:15.000Z</time>
      </trkpt>
      <trkpt lat="43.19558" lon="5.55546">
        <ele>319.79998779297</ele>
        <time>2016-05-08T09:08:18.000Z</time>
      </trkpt>
      <trkpt lat="43.19562" lon="5.5555">
        <ele>319</ele>
        <time>2016-05-08T09:08:19.000Z</time>
      </trkpt>
      <trkpt lat="43.19569" lon="5.55559">
        <ele>318.39999389648</ele>
        <time>2016-05-08T09:08:21.000Z</time>
      </trkpt>
      <trkpt lat="43.19573" lon="5.55563">
        <ele>318.20001220703</ele>
        <time>2016-05-08T09:08:22.000Z</time>
      </trkpt>
      <trkpt lat="43.19576" lon="5.55568">
        <ele>317.79998779297</ele>
        <time>2016-05-08T09:08:23.000Z</time>
      </trkpt>
      <trkpt lat="43.19583" lon="5.55579">
        <ele>317.20001220703</ele>
        <time>2016-05-08T09:08:25.000Z</time>
      </trkpt>
      <trkpt lat="43.19587" lon="5.55584">
        <ele>317</ele>
        <time>2016-05-08T09:08:26.000Z</time>
      </trkpt>
      <trkpt lat="43.19603" lon="5.55614">
        <ele>316</ele>
        <time>2016-05-08T09:08:31.000Z</time>
      </trkpt>
      <trkpt lat="43.19606" lon="5.5562">
        <ele>316</ele>
        <time>2016-05-08T09:08:32.000Z</time>
      </trkpt>
      <trkpt lat="43.19616" lon="5.55637">
        <ele>316.39999389648</ele>
        <time>2016-05-08T09:08:35.000Z</time>
      </trkpt>
      <trkpt lat="43.19626" lon="5.55652">
        <ele>318</ele>
        <time>2016-05-08T09:08:38.000Z</time>
      </trkpt>
      <trkpt lat="43.1963" lon="5.55656">
        <ele>318.60000610352</ele>
        <time>2016-05-08T09:08:39.000Z</time>
      </trkpt>
      <trkpt lat="43.19638" lon="5.55664">
        <ele>319.79998779297</ele>
        <time>2016-05-08T09:08:41.000Z</time>
      </trkpt>
      <trkpt lat="43.19655" lon="5.55674">
        <ele>322.60000610352</ele>
        <time>2016-05-08T09:08:45.000Z</time>
      </trkpt>
      <trkpt lat="43.19669" lon="5.55671">
        <ele>325</ele>
        <time>2016-05-08T09:08:49.000Z</time>
      </trkpt>
      <trkpt lat="43.19672" lon="5.55669">
        <ele>325.60000610352</ele>
        <time>2016-05-08T09:08:50.000Z</time>
      </trkpt>
      <trkpt lat="43.19677" lon="5.55666">
        <ele>326.39999389648</ele>
        <time>2016-05-08T09:08:52.000Z</time>
      </trkpt>
      <trkpt lat="43.19682" lon="5.55662">
        <ele>326.60000610352</ele>
        <time>2016-05-08T09:08:55.000Z</time>
      </trkpt>
      <trkpt lat="43.19683" lon="5.55657">
        <ele>326.60000610352</ele>
        <time>2016-05-08T09:10:25.000Z</time>
      </trkpt>
      <trkpt lat="43.19684" lon="5.55654">
        <ele>326.60000610352</ele>
        <time>2016-05-08T09:10:26.000Z</time>
      </trkpt>
      <trkpt lat="43.1969" lon="5.55635">
        <ele>325.20001220703</ele>
        <time>2016-05-08T09:10:29.000Z</time>
      </trkpt>
      <trkpt lat="43.19691" lon="5.55626">
        <ele>324.60000610352</ele>
        <time>2016-05-08T09:10:30.000Z</time>
      </trkpt>
      <trkpt lat="43.19694" lon="5.55595">
        <ele>323.79998779297</ele>
        <time>2016-05-08T09:10:33.000Z</time>
      </trkpt>
      <trkpt lat="43.19695" lon="5.55584">
        <ele>323.60000610352</ele>
        <time>2016-05-08T09:10:34.000Z</time>
      </trkpt>
      <trkpt lat="43.19696" lon="5.55572">
        <ele>323.20001220703</ele>
        <time>2016-05-08T09:10:35.000Z</time>
      </trkpt>
      <trkpt lat="43.19702" lon="5.55535">
        <ele>321</ele>
        <time>2016-05-08T09:10:38.000Z</time>
      </trkpt>
      <trkpt lat="43.19712" lon="5.55484">
        <ele>321.39999389648</ele>
        <time>2016-05-08T09:10:42.000Z</time>
      </trkpt>
      <trkpt lat="43.19716" lon="5.55458">
        <ele>318.60000610352</ele>
        <time>2016-05-08T09:10:44.000Z</time>
      </trkpt>
      <trkpt lat="43.19716" lon="5.55445">
        <ele>317</ele>
        <time>2016-05-08T09:10:45.000Z</time>
      </trkpt>
      <trkpt lat="43.19715" lon="5.55419">
        <ele>315</ele>
        <time>2016-05-08T09:10:47.000Z</time>
      </trkpt>
      <trkpt lat="43.19709" lon="5.55397">
        <ele>316.60000610352</ele>
        <time>2016-05-08T09:10:49.000Z</time>
      </trkpt>
      <trkpt lat="43.19705" lon="5.55386">
        <ele>317.60000610352</ele>
        <time>2016-05-08T09:10:50.000Z</time>
      </trkpt>
      <trkpt lat="43.19699" lon="5.55366">
        <ele>316.39999389648</ele>
        <time>2016-05-08T09:10:52.000Z</time>
      </trkpt>
      <trkpt lat="43.19694" lon="5.55349">
        <ele>315</ele>
        <time>2016-05-08T09:10:54.000Z</time>
      </trkpt>
      <trkpt lat="43.19692" lon="5.55342">
        <ele>314.39999389648</ele>
        <time>2016-05-08T09:10:55.000Z</time>
      </trkpt>
      <trkpt lat="43.19691" lon="5.55335">
        <ele>313.79998779297</ele>
        <time>2016-05-08T09:10:56.000Z</time>
      </trkpt>
      <trkpt lat="43.1969" lon="5.55321">
        <ele>311.79998779297</ele>
        <time>2016-05-08T09:10:58.000Z</time>
      </trkpt>
      <trkpt lat="43.1969" lon="5.55312">
        <ele>310.60000610352</ele>
        <time>2016-05-08T09:10:59.000Z</time>
      </trkpt>
      <trkpt lat="43.19692" lon="5.55304">
        <ele>311</ele>
        <time>2016-05-08T09:11:00.000Z</time>
      </trkpt>
      <trkpt lat="43.197" lon="5.55289">
        <ele>309.79998779297</ele>
        <time>2016-05-08T09:11:02.000Z</time>
      </trkpt>
      <trkpt lat="43.19705" lon="5.55285">
        <ele>309.20001220703</ele>
        <time>2016-05-08T09:11:03.000Z</time>
      </trkpt>
      <trkpt lat="43.19719" lon="5.55283">
        <ele>308.20001220703</ele>
        <time>2016-05-08T09:11:05.000Z</time>
      </trkpt>
      <trkpt lat="43.19729" lon="5.55282">
        <ele>307.60000610352</ele>
        <time>2016-05-08T09:11:07.000Z</time>
      </trkpt>
      <trkpt lat="43.19736" lon="5.55282">
        <ele>307.20001220703</ele>
        <time>2016-05-08T09:11:09.000Z</time>
      </trkpt>
      <trkpt lat="43.19759" lon="5.55285">
        <ele>308.20001220703</ele>
        <time>2016-05-08T09:11:15.000Z</time>
      </trkpt>
      <trkpt lat="43.19779" lon="5.55289">
        <ele>309.20001220703</ele>
        <time>2016-05-08T09:11:20.000Z</time>
      </trkpt>
      <trkpt lat="43.19796" lon="5.55292">
        <ele>310</ele>
        <time>2016-05-08T09:11:24.000Z</time>
      </trkpt>
      <trkpt lat="43.19814" lon="5.55297">
        <ele>310.60000610352</ele>
        <time>2016-05-08T09:11:28.000Z</time>
      </trkpt>
      <trkpt lat="43.19825" lon="5.553">
        <ele>310.79998779297</ele>
        <time>2016-05-08T09:11:30.000Z</time>
      </trkpt>
      <trkpt lat="43.1983" lon="5.55303">
        <ele>310.79998779297</ele>
        <time>2016-05-08T09:11:31.000Z</time>
      </trkpt>
      <trkpt lat="43.19849" lon="5.55315">
        <ele>311.60000610352</ele>
        <time>2016-05-08T09:11:35.000Z</time>
      </trkpt>
      <trkpt lat="43.19854" lon="5.55318">
        <ele>312.20001220703</ele>
        <time>2016-05-08T09:11:36.000Z</time>
      </trkpt>
      <trkpt lat="43.19864" lon="5.55324">
        <ele>314</ele>
        <time>2016-05-08T09:11:38.000Z</time>
      </trkpt>
      <trkpt lat="43.19878" lon="5.55329">
        <ele>316</ele>
        <time>2016-05-08T09:11:41.000Z</time>
      </trkpt>
      <trkpt lat="43.19883" lon="5.5533">
        <ele>316.60000610352</ele>
        <time>2016-05-08T09:11:42.000Z</time>
      </trkpt>
      <trkpt lat="43.19888" lon="5.55331">
        <ele>317.39999389648</ele>
        <time>2016-05-08T09:11:43.000Z</time>
      </trkpt>
      <trkpt lat="43.19898" lon="5.55332">
        <ele>318.60000610352</ele>
        <time>2016-05-08T09:11:45.000Z</time>
      </trkpt>
      <trkpt lat="43.19908" lon="5.55333">
        <ele>320</ele>
        <time>2016-05-08T09:11:47.000Z</time>
      </trkpt>
      <trkpt lat="43.19917" lon="5.55336">
        <ele>321</ele>
        <time>2016-05-08T09:11:49.000Z</time>
      </trkpt>
      <trkpt lat="43.19925" lon="5.55344">
        <ele>322</ele>
        <time>2016-05-08T09:11:51.000Z</time>
      </trkpt>
      <trkpt lat="43.19932" lon="5.55354">
        <ele>322.79998779297</ele>
        <time>2016-05-08T09:11:53.000Z</time>
      </trkpt>
      <trkpt lat="43.19938" lon="5.55365">
        <ele>323.20001220703</ele>
        <time>2016-05-08T09:11:55.000Z</time>
      </trkpt>
      <trkpt lat="43.19941" lon="5.55371">
        <ele>323.60000610352</ele>
        <time>2016-05-08T09:11:56.000Z</time>
      </trkpt>
      <trkpt lat="43.19944" lon="5.55377">
        <ele>323.79998779297</ele>
        <time>2016-05-08T09:11:57.000Z</time>
      </trkpt>
      <trkpt lat="43.1995" lon="5.55387">
        <ele>324.20001220703</ele>
        <time>2016-05-08T09:11:59.000Z</time>
      </trkpt>
      <trkpt lat="43.19961" lon="5.55402">
        <ele>324.39999389648</ele>
        <time>2016-05-08T09:12:02.000Z</time>
      </trkpt>
      <trkpt lat="43.19969" lon="5.5541">
        <ele>325</ele>
        <time>2016-05-08T09:12:04.000Z</time>
      </trkpt>
      <trkpt lat="43.19974" lon="5.55413">
        <ele>325.20001220703</ele>
        <time>2016-05-08T09:12:05.000Z</time>
      </trkpt>
      <trkpt lat="43.19978" lon="5.55416">
        <ele>325.39999389648</ele>
        <time>2016-05-08T09:12:06.000Z</time>
      </trkpt>
      <trkpt lat="43.19982" lon="5.55419">
        <ele>325.79998779297</ele>
        <time>2016-05-08T09:12:07.000Z</time>
      </trkpt>
      <trkpt lat="43.19987" lon="5.55422">
        <ele>326</ele>
        <time>2016-05-08T09:12:08.000Z</time>
      </trkpt>
      <trkpt lat="43.19991" lon="5.55426">
        <ele>326.20001220703</ele>
        <time>2016-05-08T09:12:09.000Z</time>
      </trkpt>
      <trkpt lat="43.19995" lon="5.5543">
        <ele>326.39999389648</ele>
        <time>2016-05-08T09:12:10.000Z</time>
      </trkpt>
      <trkpt lat="43.19999" lon="5.55433">
        <ele>326.60000610352</ele>
        <time>2016-05-08T09:12:11.000Z</time>
      </trkpt>
      <trkpt lat="43.20004" lon="5.55437">
        <ele>327</ele>
        <time>2016-05-08T09:12:12.000Z</time>
      </trkpt>
      <trkpt lat="43.20012" lon="5.55443">
        <ele>327.60000610352</ele>
        <time>2016-05-08T09:12:14.000Z</time>
      </trkpt>
      <trkpt lat="43.20039" lon="5.55463">
        <ele>330.79998779297</ele>
        <time>2016-05-08T09:12:20.000Z</time>
      </trkpt>
      <trkpt lat="43.2007" lon="5.55487">
        <ele>335</ele>
        <time>2016-05-08T09:12:27.000Z</time>
      </trkpt>
      <trkpt lat="43.20074" lon="5.55491">
        <ele>335.60000610352</ele>
        <time>2016-05-08T09:12:28.000Z</time>
      </trkpt>
      <trkpt lat="43.20077" lon="5.55496">
        <ele>336</ele>
        <time>2016-05-08T09:12:29.000Z</time>
      </trkpt>
      <trkpt lat="43.20083" lon="5.55508">
        <ele>336.60000610352</ele>
        <time>2016-05-08T09:12:31.000Z</time>
      </trkpt>
      <trkpt lat="43.20091" lon="5.55533">
        <ele>337</ele>
        <time>2016-05-08T09:12:35.000Z</time>
      </trkpt>
      <trkpt lat="43.20095" lon="5.55546">
        <ele>337</ele>
        <time>2016-05-08T09:12:37.000Z</time>
      </trkpt>
      <trkpt lat="43.20099" lon="5.55558">
        <ele>336.79998779297</ele>
        <time>2016-05-08T09:12:39.000Z</time>
      </trkpt>
      <trkpt lat="43.20108" lon="5.55576">
        <ele>336.20001220703</ele>
        <time>2016-05-08T09:12:42.000Z</time>
      </trkpt>
      <trkpt lat="43.2013" lon="5.55613">
        <ele>335</ele>
        <time>2016-05-08T09:12:49.000Z</time>
      </trkpt>
      <trkpt lat="43.20132" lon="5.5562">
        <ele>334.60000610352</ele>
        <time>2016-05-08T09:12:50.000Z</time>
      </trkpt>
      <trkpt lat="43.20145" lon="5.5567">
        <ele>336</ele>
        <time>2016-05-08T09:12:57.000Z</time>
      </trkpt>
      <trkpt lat="43.20172" lon="5.55735">
        <ele>337.20001220703</ele>
        <time>2016-05-08T09:13:07.000Z</time>
      </trkpt>
      <trkpt lat="43.20183" lon="5.55765">
        <ele>336.79998779297</ele>
        <time>2016-05-08T09:13:12.000Z</time>
      </trkpt>
      <trkpt lat="43.20194" lon="5.55783">
        <ele>336</ele>
        <time>2016-05-08T09:13:15.000Z</time>
      </trkpt>
      <trkpt lat="43.20198" lon="5.55788">
        <ele>335.79998779297</ele>
        <time>2016-05-08T09:13:16.000Z</time>
      </trkpt>
      <trkpt lat="43.20209" lon="5.55797">
        <ele>335.79998779297</ele>
        <time>2016-05-08T09:13:18.000Z</time>
      </trkpt>
      <trkpt lat="43.20215" lon="5.55802">
        <ele>335.79998779297</ele>
        <time>2016-05-08T09:13:19.000Z</time>
      </trkpt>
      <trkpt lat="43.20228" lon="5.55811">
        <ele>335.79998779297</ele>
        <time>2016-05-08T09:13:21.000Z</time>
      </trkpt>
      <trkpt lat="43.2024" lon="5.55823">
        <ele>336</ele>
        <time>2016-05-08T09:13:23.000Z</time>
      </trkpt>
      <trkpt lat="43.20246" lon="5.5583">
        <ele>335.79998779297</ele>
        <time>2016-05-08T09:13:24.000Z</time>
      </trkpt>
      <trkpt lat="43.20251" lon="5.55837">
        <ele>335.79998779297</ele>
        <time>2016-05-08T09:13:25.000Z</time>
      </trkpt>
      <trkpt lat="43.20262" lon="5.55852">
        <ele>335.60000610352</ele>
        <time>2016-05-08T09:13:27.000Z</time>
      </trkpt>
      <trkpt lat="43.20275" lon="5.55877">
        <ele>335</ele>
        <time>2016-05-08T09:13:30.000Z</time>
      </trkpt>
      <trkpt lat="43.20278" lon="5.55887">
        <ele>334.60000610352</ele>
        <time>2016-05-08T09:13:31.000Z</time>
      </trkpt>
      <trkpt lat="43.20284" lon="5.55919">
        <ele>331.60000610352</ele>
        <time>2016-05-08T09:13:34.000Z</time>
      </trkpt>
      <trkpt lat="43.20286" lon="5.55929">
        <ele>329.79998779297</ele>
        <time>2016-05-08T09:13:35.000Z</time>
      </trkpt>
      <trkpt lat="43.20289" lon="5.5594">
        <ele>328.20001220703</ele>
        <time>2016-05-08T09:13:36.000Z</time>
      </trkpt>
      <trkpt lat="43.20295" lon="5.55962">
        <ele>324.79998779297</ele>
        <time>2016-05-08T09:13:38.000Z</time>
      </trkpt>
      <trkpt lat="43.20301" lon="5.55984">
        <ele>323</ele>
        <time>2016-05-08T09:13:40.000Z</time>
      </trkpt>
      <trkpt lat="43.20308" lon="5.56006">
        <ele>321.79998779297</ele>
        <time>2016-05-08T09:13:42.000Z</time>
      </trkpt>
      <trkpt lat="43.20312" lon="5.56017">
        <ele>321.20001220703</ele>
        <time>2016-05-08T09:13:43.000Z</time>
      </trkpt>
      <trkpt lat="43.20315" lon="5.56028">
        <ele>319.79998779297</ele>
        <time>2016-05-08T09:13:44.000Z</time>
      </trkpt>
      <trkpt lat="43.20319" lon="5.56039">
        <ele>318.39999389648</ele>
        <time>2016-05-08T09:13:45.000Z</time>
      </trkpt>
      <trkpt lat="43.20323" lon="5.56051">
        <ele>316.60000610352</ele>
        <time>2016-05-08T09:13:46.000Z</time>
      </trkpt>
      <trkpt lat="43.20327" lon="5.56064">
        <ele>316.79998779297</ele>
        <time>2016-05-08T09:13:47.000Z</time>
      </trkpt>
      <trkpt lat="43.20332" lon="5.56089">
        <ele>316.60000610352</ele>
        <time>2016-05-08T09:13:49.000Z</time>
      </trkpt>
      <trkpt lat="43.20334" lon="5.56102">
        <ele>316.20001220703</ele>
        <time>2016-05-08T09:13:50.000Z</time>
      </trkpt>
      <trkpt lat="43.20336" lon="5.56115">
        <ele>315.60000610352</ele>
        <time>2016-05-08T09:13:51.000Z</time>
      </trkpt>
      <trkpt lat="43.20338" lon="5.5614">
        <ele>314.20001220703</ele>
        <time>2016-05-08T09:13:53.000Z</time>
      </trkpt>
      <trkpt lat="43.20338" lon="5.56165">
        <ele>312.79998779297</ele>
        <time>2016-05-08T09:13:55.000Z</time>
      </trkpt>
      <trkpt lat="43.20337" lon="5.56191">
        <ele>311</ele>
        <time>2016-05-08T09:13:57.000Z</time>
      </trkpt>
      <trkpt lat="43.20337" lon="5.56203">
        <ele>310.20001220703</ele>
        <time>2016-05-08T09:13:58.000Z</time>
      </trkpt>
      <trkpt lat="43.20338" lon="5.56216">
        <ele>310</ele>
        <time>2016-05-08T09:13:59.000Z</time>
      </trkpt>
      <trkpt lat="43.20339" lon="5.56228">
        <ele>309.20001220703</ele>
        <time>2016-05-08T09:14:00.000Z</time>
      </trkpt>
      <trkpt lat="43.2034" lon="5.5624">
        <ele>308.20001220703</ele>
        <time>2016-05-08T09:14:01.000Z</time>
      </trkpt>
      <trkpt lat="43.20342" lon="5.56252">
        <ele>307.39999389648</ele>
        <time>2016-05-08T09:14:02.000Z</time>
      </trkpt>
      <trkpt lat="43.20347" lon="5.56275">
        <ele>306</ele>
        <time>2016-05-08T09:14:04.000Z</time>
      </trkpt>
      <trkpt lat="43.20349" lon="5.56285">
        <ele>305</ele>
        <time>2016-05-08T09:14:05.000Z</time>
      </trkpt>
      <trkpt lat="43.20352" lon="5.56296">
        <ele>304.20001220703</ele>
        <time>2016-05-08T09:14:06.000Z</time>
      </trkpt>
      <trkpt lat="43.20355" lon="5.56307">
        <ele>303.20001220703</ele>
        <time>2016-05-08T09:14:07.000Z</time>
      </trkpt>
      <trkpt lat="43.20358" lon="5.56318">
        <ele>302</ele>
        <time>2016-05-08T09:14:08.000Z</time>
      </trkpt>
      <trkpt lat="43.20364" lon="5.56341">
        <ele>299.79998779297</ele>
        <time>2016-05-08T09:14:10.000Z</time>
      </trkpt>
      <trkpt lat="43.20369" lon="5.56364">
        <ele>297.39999389648</ele>
        <time>2016-05-08T09:14:12.000Z</time>
      </trkpt>
      <trkpt lat="43.20374" lon="5.56387">
        <ele>295</ele>
        <time>2016-05-08T09:14:14.000Z</time>
      </trkpt>
      <trkpt lat="43.20375" lon="5.56399">
        <ele>293.60000610352</ele>
        <time>2016-05-08T09:14:15.000Z</time>
      </trkpt>
      <trkpt lat="43.20376" lon="5.56411">
        <ele>292.20001220703</ele>
        <time>2016-05-08T09:14:16.000Z</time>
      </trkpt>
      <trkpt lat="43.20375" lon="5.56423">
        <ele>290.79998779297</ele>
        <time>2016-05-08T09:14:17.000Z</time>
      </trkpt>
      <trkpt lat="43.20373" lon="5.56435">
        <ele>289.79998779297</ele>
        <time>2016-05-08T09:14:18.000Z</time>
      </trkpt>
      <trkpt lat="43.20366" lon="5.56456">
        <ele>287.79998779297</ele>
        <time>2016-05-08T09:14:20.000Z</time>
      </trkpt>
      <trkpt lat="43.20363" lon="5.56466">
        <ele>286.79998779297</ele>
        <time>2016-05-08T09:14:21.000Z</time>
      </trkpt>
      <trkpt lat="43.2036" lon="5.56476">
        <ele>285.20001220703</ele>
        <time>2016-05-08T09:14:22.000Z</time>
      </trkpt>
      <trkpt lat="43.20353" lon="5.56503">
        <ele>284.20001220703</ele>
        <time>2016-05-08T09:14:25.000Z</time>
      </trkpt>
      <trkpt lat="43.20351" lon="5.56512">
        <ele>284.39999389648</ele>
        <time>2016-05-08T09:14:26.000Z</time>
      </trkpt>
      <trkpt lat="43.20349" lon="5.5652">
        <ele>284.39999389648</ele>
        <time>2016-05-08T09:14:27.000Z</time>
      </trkpt>
      <trkpt lat="43.20346" lon="5.56529">
        <ele>284.39999389648</ele>
        <time>2016-05-08T09:14:28.000Z</time>
      </trkpt>
      <trkpt lat="43.20342" lon="5.56545">
        <ele>283.79998779297</ele>
        <time>2016-05-08T09:14:30.000Z</time>
      </trkpt>
      <trkpt lat="43.20341" lon="5.56552">
        <ele>283</ele>
        <time>2016-05-08T09:14:31.000Z</time>
      </trkpt>
      <trkpt lat="43.2034" lon="5.56559">
        <ele>282.39999389648</ele>
        <time>2016-05-08T09:14:32.000Z</time>
      </trkpt>
      <trkpt lat="43.2034" lon="5.56565">
        <ele>282</ele>
        <time>2016-05-08T09:14:33.000Z</time>
      </trkpt>
      <trkpt lat="43.20342" lon="5.56569">
        <ele>282</ele>
        <time>2016-05-08T09:14:34.000Z</time>
      </trkpt>
      <trkpt lat="43.20344" lon="5.56575">
        <ele>281.79998779297</ele>
        <time>2016-05-08T09:14:36.000Z</time>
      </trkpt>
      <trkpt lat="43.20343" lon="5.56582">
        <ele>281</ele>
        <time>2016-05-08T09:15:28.000Z</time>
      </trkpt>
      <trkpt lat="43.20343" lon="5.56585">
        <ele>280.60000610352</ele>
        <time>2016-05-08T09:15:29.000Z</time>
      </trkpt>
      <trkpt lat="43.2034" lon="5.56594">
        <ele>279.39999389648</ele>
        <time>2016-05-08T09:15:31.000Z</time>
      </trkpt>
      <trkpt lat="43.20338" lon="5.566">
        <ele>278.39999389648</ele>
        <time>2016-05-08T09:15:32.000Z</time>
      </trkpt>
      <trkpt lat="43.20332" lon="5.56613">
        <ele>276.20001220703</ele>
        <time>2016-05-08T09:15:34.000Z</time>
      </trkpt>
      <trkpt lat="43.20328" lon="5.56626">
        <ele>274.60000610352</ele>
        <time>2016-05-08T09:15:36.000Z</time>
      </trkpt>
      <trkpt lat="43.20326" lon="5.56631">
        <ele>274.20001220703</ele>
        <time>2016-05-08T09:15:37.000Z</time>
      </trkpt>
      <trkpt lat="43.20324" lon="5.56635">
        <ele>273.79998779297</ele>
        <time>2016-05-08T09:15:38.000Z</time>
      </trkpt>
      <trkpt lat="43.2032" lon="5.56642">
        <ele>272.60000610352</ele>
        <time>2016-05-08T09:15:40.000Z</time>
      </trkpt>
      <trkpt lat="43.20319" lon="5.56649">
        <ele>271.60000610352</ele>
        <time>2016-05-08T09:15:42.000Z</time>
      </trkpt>
      <trkpt lat="43.2031" lon="5.56668">
        <ele>268.39999389648</ele>
        <time>2016-05-08T09:15:47.000Z</time>
      </trkpt>
      <trkpt lat="43.20295" lon="5.5669">
        <ele>266</ele>
        <time>2016-05-08T09:15:53.000Z</time>
      </trkpt>
      <trkpt lat="43.20293" lon="5.56694">
        <ele>265.79998779297</ele>
        <time>2016-05-08T09:15:54.000Z</time>
      </trkpt>
      <trkpt lat="43.20288" lon="5.56703">
        <ele>265.39999389648</ele>
        <time>2016-05-08T09:15:56.000Z</time>
      </trkpt>
      <trkpt lat="43.20277" lon="5.56722">
        <ele>264.39999389648</ele>
        <time>2016-05-08T09:16:00.000Z</time>
      </trkpt>
      <trkpt lat="43.20268" lon="5.56738">
        <ele>262.79998779297</ele>
        <time>2016-05-08T09:16:04.000Z</time>
      </trkpt>
      <trkpt lat="43.20264" lon="5.56745">
        <ele>262.39999389648</ele>
        <time>2016-05-08T09:16:06.000Z</time>
      </trkpt>
      <trkpt lat="43.20262" lon="5.56747">
        <ele>262.20001220703</ele>
        <time>2016-05-08T09:16:07.000Z</time>
      </trkpt>
      <trkpt lat="43.2026" lon="5.5675">
        <ele>261.60000610352</ele>
        <time>2016-05-08T09:16:08.000Z</time>
      </trkpt>
      <trkpt lat="43.20255" lon="5.56758">
        <ele>260.20001220703</ele>
        <time>2016-05-08T09:16:10.000Z</time>
      </trkpt>
      <trkpt lat="43.20252" lon="5.56762">
        <ele>259.20001220703</ele>
        <time>2016-05-08T09:16:11.000Z</time>
      </trkpt>
      <trkpt lat="43.2025" lon="5.56765">
        <ele>258.39999389648</ele>
        <time>2016-05-08T09:16:12.000Z</time>
      </trkpt>
      <trkpt lat="43.20247" lon="5.56768">
        <ele>257.60000610352</ele>
        <time>2016-05-08T09:16:13.000Z</time>
      </trkpt>
      <trkpt lat="43.20235" lon="5.56779">
        <ele>254.60000610352</ele>
        <time>2016-05-08T09:16:17.000Z</time>
      </trkpt>
      <trkpt lat="43.20233" lon="5.56782">
        <ele>254</ele>
        <time>2016-05-08T09:16:18.000Z</time>
      </trkpt>
      <trkpt lat="43.2023" lon="5.56786">
        <ele>253.39999389648</ele>
        <time>2016-05-08T09:16:19.000Z</time>
      </trkpt>
      <trkpt lat="43.20225" lon="5.56793">
        <ele>252.60000610352</ele>
        <time>2016-05-08T09:16:21.000Z</time>
      </trkpt>
      <trkpt lat="43.20218" lon="5.56807">
        <ele>250</ele>
        <time>2016-05-08T09:16:24.000Z</time>
      </trkpt>
      <trkpt lat="43.20213" lon="5.56816">
        <ele>247.39999389648</ele>
        <time>2016-05-08T09:16:26.000Z</time>
      </trkpt>
      <trkpt lat="43.20208" lon="5.56824">
        <ele>244.80000305176</ele>
        <time>2016-05-08T09:16:28.000Z</time>
      </trkpt>
      <trkpt lat="43.20205" lon="5.56828">
        <ele>243.60000610352</ele>
        <time>2016-05-08T09:16:29.000Z</time>
      </trkpt>
      <trkpt lat="43.20199" lon="5.56838">
        <ele>243</ele>
        <time>2016-05-08T09:16:31.000Z</time>
      </trkpt>
      <trkpt lat="43.20196" lon="5.56843">
        <ele>242.60000610352</ele>
        <time>2016-05-08T09:16:32.000Z</time>
      </trkpt>
      <trkpt lat="43.20192" lon="5.56854">
        <ele>242</ele>
        <time>2016-05-08T09:16:34.000Z</time>
      </trkpt>
      <trkpt lat="43.20191" lon="5.5686">
        <ele>241.60000610352</ele>
        <time>2016-05-08T09:16:35.000Z</time>
      </trkpt>
      <trkpt lat="43.20187" lon="5.56871">
        <ele>241</ele>
        <time>2016-05-08T09:16:37.000Z</time>
      </trkpt>
      <trkpt lat="43.20183" lon="5.56883">
        <ele>240.19999694824</ele>
        <time>2016-05-08T09:16:39.000Z</time>
      </trkpt>
      <trkpt lat="43.20178" lon="5.56895">
        <ele>239.39999389648</ele>
        <time>2016-05-08T09:16:41.000Z</time>
      </trkpt>
      <trkpt lat="43.20173" lon="5.56906">
        <ele>237.19999694824</ele>
        <time>2016-05-08T09:16:43.000Z</time>
      </trkpt>
      <trkpt lat="43.20171" lon="5.56912">
        <ele>236.19999694824</ele>
        <time>2016-05-08T09:16:44.000Z</time>
      </trkpt>
      <trkpt lat="43.20167" lon="5.56923">
        <ele>234.39999389648</ele>
        <time>2016-05-08T09:16:46.000Z</time>
      </trkpt>
      <trkpt lat="43.20164" lon="5.56934">
        <ele>232.80000305176</ele>
        <time>2016-05-08T09:16:57.000Z</time>
      </trkpt>
      <trkpt lat="43.20161" lon="5.56943">
        <ele>231.60000610352</ele>
        <time>2016-05-08T09:17:00.000Z</time>
      </trkpt>
      <trkpt lat="43.20156" lon="5.56971">
        <ele>230</ele>
        <time>2016-05-08T09:17:05.000Z</time>
      </trkpt>
      <trkpt lat="43.20153" lon="5.56996">
        <ele>225.60000610352</ele>
        <time>2016-05-08T09:17:10.000Z</time>
      </trkpt>
      <trkpt lat="43.20151" lon="5.57">
        <ele>224.80000305176</ele>
        <time>2016-05-08T09:17:11.000Z</time>
      </trkpt>
      <trkpt lat="43.20148" lon="5.57012">
        <ele>222.19999694824</ele>
        <time>2016-05-08T09:17:14.000Z</time>
      </trkpt>
      <trkpt lat="43.20144" lon="5.57022">
        <ele>221.39999389648</ele>
        <time>2016-05-08T09:17:16.000Z</time>
      </trkpt>
      <trkpt lat="43.20141" lon="5.57028">
        <ele>222.39999389648</ele>
        <time>2016-05-08T09:17:17.000Z</time>
      </trkpt>
      <trkpt lat="43.2013" lon="5.57045">
        <ele>225.80000305176</ele>
        <time>2016-05-08T09:17:20.000Z</time>
      </trkpt>
      <trkpt lat="43.20121" lon="5.57056">
        <ele>226.39999389648</ele>
        <time>2016-05-08T09:17:22.000Z</time>
      </trkpt>
      <trkpt lat="43.20112" lon="5.57066">
        <ele>225</ele>
        <time>2016-05-08T09:17:24.000Z</time>
      </trkpt>
      <trkpt lat="43.20105" lon="5.57075">
        <ele>226.80000305176</ele>
        <time>2016-05-08T09:17:26.000Z</time>
      </trkpt>
      <trkpt lat="43.2009" lon="5.57103">
        <ele>228.80000305176</ele>
        <time>2016-05-08T09:17:32.000Z</time>
      </trkpt>
      <trkpt lat="43.20088" lon="5.57108">
        <ele>228.19999694824</ele>
        <time>2016-05-08T09:17:33.000Z</time>
      </trkpt>
      <trkpt lat="43.20074" lon="5.57127">
        <ele>227.60000610352</ele>
        <time>2016-05-08T09:17:37.000Z</time>
      </trkpt>
      <trkpt lat="43.2006" lon="5.57144">
        <ele>227.60000610352</ele>
        <time>2016-05-08T09:17:41.000Z</time>
      </trkpt>
      <trkpt lat="43.20053" lon="5.5715">
        <ele>226.60000610352</ele>
        <time>2016-05-08T09:17:43.000Z</time>
      </trkpt>
      <trkpt lat="43.20045" lon="5.57155">
        <ele>225.80000305176</ele>
        <time>2016-05-08T09:17:45.000Z</time>
      </trkpt>
      <trkpt lat="43.20036" lon="5.57159">
        <ele>225</ele>
        <time>2016-05-08T09:17:47.000Z</time>
      </trkpt>
      <trkpt lat="43.20028" lon="5.57164">
        <ele>226</ele>
        <time>2016-05-08T09:17:49.000Z</time>
      </trkpt>
      <trkpt lat="43.2001" lon="5.57173">
        <ele>227.60000610352</ele>
        <time>2016-05-08T09:17:53.000Z</time>
      </trkpt>
      <trkpt lat="43.20001" lon="5.57179">
        <ele>224.80000305176</ele>
        <time>2016-05-08T09:17:55.000Z</time>
      </trkpt>
      <trkpt lat="43.19991" lon="5.57185">
        <ele>222</ele>
        <time>2016-05-08T09:17:57.000Z</time>
      </trkpt>
      <trkpt lat="43.19983" lon="5.57192">
        <ele>220.19999694824</ele>
        <time>2016-05-08T09:17:59.000Z</time>
      </trkpt>
      <trkpt lat="43.19975" lon="5.57199">
        <ele>220.39999389648</ele>
        <time>2016-05-08T09:18:01.000Z</time>
      </trkpt>
      <trkpt lat="43.19971" lon="5.57202">
        <ele>220.60000610352</ele>
        <time>2016-05-08T09:18:02.000Z</time>
      </trkpt>
      <trkpt lat="43.19967" lon="5.57206">
        <ele>220.80000305176</ele>
        <time>2016-05-08T09:18:03.000Z</time>
      </trkpt>
      <trkpt lat="43.19964" lon="5.5721">
        <ele>221.19999694824</ele>
        <time>2016-05-08T09:18:04.000Z</time>
      </trkpt>
      <trkpt lat="43.19961" lon="5.57215">
        <ele>221.60000610352</ele>
        <time>2016-05-08T09:18:05.000Z</time>
      </trkpt>
      <trkpt lat="43.19955" lon="5.57224">
        <ele>220.39999389648</ele>
        <time>2016-05-08T09:18:07.000Z</time>
      </trkpt>
      <trkpt lat="43.19953" lon="5.57228">
        <ele>219</ele>
        <time>2016-05-08T09:18:08.000Z</time>
      </trkpt>
      <trkpt lat="43.1995" lon="5.57234">
        <ele>217.60000610352</ele>
        <time>2016-05-08T09:18:09.000Z</time>
      </trkpt>
      <trkpt lat="43.1994" lon="5.57252">
        <ele>216.60000610352</ele>
        <time>2016-05-08T09:18:12.000Z</time>
      </trkpt>
      <trkpt lat="43.19936" lon="5.57258">
        <ele>216.60000610352</ele>
        <time>2016-05-08T09:18:13.000Z</time>
      </trkpt>
      <trkpt lat="43.19927" lon="5.57268">
        <ele>216.39999389648</ele>
        <time>2016-05-08T09:18:15.000Z</time>
      </trkpt>
      <trkpt lat="43.19919" lon="5.57278">
        <ele>213.60000610352</ele>
        <time>2016-05-08T09:18:17.000Z</time>
      </trkpt>
      <trkpt lat="43.19915" lon="5.57282">
        <ele>212.39999389648</ele>
        <time>2016-05-08T09:18:18.000Z</time>
      </trkpt>
      <trkpt lat="43.19912" lon="5.57286">
        <ele>211.60000610352</ele>
        <time>2016-05-08T09:18:19.000Z</time>
      </trkpt>
      <trkpt lat="43.19909" lon="5.57289">
        <ele>212</ele>
        <time>2016-05-08T09:18:20.000Z</time>
      </trkpt>
      <trkpt lat="43.199" lon="5.57299">
        <ele>213.19999694824</ele>
        <time>2016-05-08T09:18:23.000Z</time>
      </trkpt>
      <trkpt lat="43.19897" lon="5.57302">
        <ele>213.19999694824</ele>
        <time>2016-05-08T09:18:24.000Z</time>
      </trkpt>
      <trkpt lat="43.19878" lon="5.57311">
        <ele>210.39999389648</ele>
        <time>2016-05-08T09:18:28.000Z</time>
      </trkpt>
      <trkpt lat="43.19873" lon="5.57314">
        <ele>209.39999389648</ele>
        <time>2016-05-08T09:18:29.000Z</time>
      </trkpt>
      <trkpt lat="43.19858" lon="5.57324">
        <ele>207.39999389648</ele>
        <time>2016-05-08T09:18:32.000Z</time>
      </trkpt>
      <trkpt lat="43.19849" lon="5.57331">
        <ele>207.19999694824</ele>
        <time>2016-05-08T09:18:34.000Z</time>
      </trkpt>
      <trkpt lat="43.1984" lon="5.57338">
        <ele>205.60000610352</ele>
        <time>2016-05-08T09:18:36.000Z</time>
      </trkpt>
      <trkpt lat="43.19836" lon="5.57342">
        <ele>204.39999389648</ele>
        <time>2016-05-08T09:18:37.000Z</time>
      </trkpt>
      <trkpt lat="43.19831" lon="5.57345">
        <ele>203.19999694824</ele>
        <time>2016-05-08T09:18:38.000Z</time>
      </trkpt>
      <trkpt lat="43.19823" lon="5.57353">
        <ele>200.80000305176</ele>
        <time>2016-05-08T09:18:40.000Z</time>
      </trkpt>
      <trkpt lat="43.19815" lon="5.57362">
        <ele>199.39999389648</ele>
        <time>2016-05-08T09:18:42.000Z</time>
      </trkpt>
      <trkpt lat="43.19807" lon="5.57372">
        <ele>199.19999694824</ele>
        <time>2016-05-08T09:18:44.000Z</time>
      </trkpt>
      <trkpt lat="43.198" lon="5.57382">
        <ele>199</ele>
        <time>2016-05-08T09:18:46.000Z</time>
      </trkpt>
      <trkpt lat="43.19796" lon="5.57387">
        <ele>198.19999694824</ele>
        <time>2016-05-08T09:18:47.000Z</time>
      </trkpt>
      <trkpt lat="43.19788" lon="5.57396">
        <ele>195.60000610352</ele>
        <time>2016-05-08T09:18:49.000Z</time>
      </trkpt>
      <trkpt lat="43.19784" lon="5.57401">
        <ele>194.39999389648</ele>
        <time>2016-05-08T09:18:50.000Z</time>
      </trkpt>
      <trkpt lat="43.19776" lon="5.57411">
        <ele>193.60000610352</ele>
        <time>2016-05-08T09:18:52.000Z</time>
      </trkpt>
      <trkpt lat="43.19768" lon="5.57421">
        <ele>193.80000305176</ele>
        <time>2016-05-08T09:18:54.000Z</time>
      </trkpt>
      <trkpt lat="43.19759" lon="5.57432">
        <ele>193</ele>
        <time>2016-05-08T09:18:56.000Z</time>
      </trkpt>
      <trkpt lat="43.19751" lon="5.57444">
        <ele>190</ele>
        <time>2016-05-08T09:18:58.000Z</time>
      </trkpt>
      <trkpt lat="43.19747" lon="5.57451">
        <ele>188.39999389648</ele>
        <time>2016-05-08T09:18:59.000Z</time>
      </trkpt>
      <trkpt lat="43.19743" lon="5.57458">
        <ele>188</ele>
        <time>2016-05-08T09:19:00.000Z</time>
      </trkpt>
      <trkpt lat="43.19736" lon="5.57471">
        <ele>187.39999389648</ele>
        <time>2016-05-08T09:19:02.000Z</time>
      </trkpt>
      <trkpt lat="43.19725" lon="5.57489">
        <ele>183.60000610352</ele>
        <time>2016-05-08T09:19:05.000Z</time>
      </trkpt>
      <trkpt lat="43.19722" lon="5.57494">
        <ele>182.60000610352</ele>
        <time>2016-05-08T09:19:06.000Z</time>
      </trkpt>
      <trkpt lat="43.19719" lon="5.57498">
        <ele>181.80000305176</ele>
        <time>2016-05-08T09:19:07.000Z</time>
      </trkpt>
      <trkpt lat="43.19714" lon="5.57506">
        <ele>180.60000610352</ele>
        <time>2016-05-08T09:19:09.000Z</time>
      </trkpt>
      <trkpt lat="43.19708" lon="5.5752">
        <ele>182.80000305176</ele>
        <time>2016-05-08T09:19:12.000Z</time>
      </trkpt>
      <trkpt lat="43.19705" lon="5.57525">
        <ele>183.60000610352</ele>
        <time>2016-05-08T09:19:13.000Z</time>
      </trkpt>
      <trkpt lat="43.19694" lon="5.57549">
        <ele>187.39999389648</ele>
        <time>2016-05-08T09:19:18.000Z</time>
      </trkpt>
      <trkpt lat="43.1969" lon="5.57559">
        <ele>187.19999694824</ele>
        <time>2016-05-08T09:19:20.000Z</time>
      </trkpt>
      <trkpt lat="43.19679" lon="5.57579">
        <ele>188</ele>
        <time>2016-05-08T09:19:24.000Z</time>
      </trkpt>
      <trkpt lat="43.19676" lon="5.57584">
        <ele>187.19999694824</ele>
        <time>2016-05-08T09:19:25.000Z</time>
      </trkpt>
      <trkpt lat="43.19664" lon="5.57606">
        <ele>183.80000305176</ele>
        <time>2016-05-08T09:19:29.000Z</time>
      </trkpt>
      <trkpt lat="43.1966" lon="5.5761">
        <ele>182.80000305176</ele>
        <time>2016-05-08T09:19:30.000Z</time>
      </trkpt>
      <trkpt lat="43.19657" lon="5.57614">
        <ele>182</ele>
        <time>2016-05-08T09:19:31.000Z</time>
      </trkpt>
      <trkpt lat="43.1965" lon="5.57622">
        <ele>182.19999694824</ele>
        <time>2016-05-08T09:19:33.000Z</time>
      </trkpt>
      <trkpt lat="43.19646" lon="5.57625">
        <ele>182.19999694824</ele>
        <time>2016-05-08T09:19:34.000Z</time>
      </trkpt>
      <trkpt lat="43.19638" lon="5.57633">
        <ele>182.39999389648</ele>
        <time>2016-05-08T09:19:36.000Z</time>
      </trkpt>
      <trkpt lat="43.19635" lon="5.57637">
        <ele>181.80000305176</ele>
        <time>2016-05-08T09:19:37.000Z</time>
      </trkpt>
      <trkpt lat="43.19629" lon="5.57645">
        <ele>179.60000610352</ele>
        <time>2016-05-08T09:19:39.000Z</time>
      </trkpt>
      <trkpt lat="43.19626" lon="5.57654">
        <ele>177.80000305176</ele>
        <time>2016-05-08T09:19:41.000Z</time>
      </trkpt>
      <trkpt lat="43.19625" lon="5.57658">
        <ele>177</ele>
        <time>2016-05-08T09:19:42.000Z</time>
      </trkpt>
      <trkpt lat="43.19624" lon="5.57666">
        <ele>175.80000305176</ele>
        <time>2016-05-08T09:19:44.000Z</time>
      </trkpt>
      <trkpt lat="43.19622" lon="5.57676">
        <ele>175.39999389648</ele>
        <time>2016-05-08T09:19:46.000Z</time>
      </trkpt>
      <trkpt lat="43.1962" lon="5.57688">
        <ele>175</ele>
        <time>2016-05-08T09:19:48.000Z</time>
      </trkpt>
      <trkpt lat="43.19618" lon="5.57701">
        <ele>174.60000610352</ele>
        <time>2016-05-08T09:19:50.000Z</time>
      </trkpt>
      <trkpt lat="43.19614" lon="5.57714">
        <ele>174.19999694824</ele>
        <time>2016-05-08T09:19:52.000Z</time>
      </trkpt>
      <trkpt lat="43.19609" lon="5.57729">
        <ele>172.80000305176</ele>
        <time>2016-05-08T09:19:54.000Z</time>
      </trkpt>
      <trkpt lat="43.19605" lon="5.57742">
        <ele>171.39999389648</ele>
        <time>2016-05-08T09:19:56.000Z</time>
      </trkpt>
      <trkpt lat="43.19601" lon="5.57756">
        <ele>170.19999694824</ele>
        <time>2016-05-08T09:19:58.000Z</time>
      </trkpt>
      <trkpt lat="43.19599" lon="5.57763">
        <ele>169.60000610352</ele>
        <time>2016-05-08T09:19:59.000Z</time>
      </trkpt>
      <trkpt lat="43.19597" lon="5.57769">
        <ele>169</ele>
        <time>2016-05-08T09:20:00.000Z</time>
      </trkpt>
      <trkpt lat="43.19594" lon="5.57783">
        <ele>167.60000610352</ele>
        <time>2016-05-08T09:20:02.000Z</time>
      </trkpt>
      <trkpt lat="43.19593" lon="5.5779">
        <ele>166.80000305176</ele>
        <time>2016-05-08T09:20:03.000Z</time>
      </trkpt>
      <trkpt lat="43.19592" lon="5.57796">
        <ele>166.19999694824</ele>
        <time>2016-05-08T09:20:04.000Z</time>
      </trkpt>
      <trkpt lat="43.19592" lon="5.57808">
        <ele>164.80000305176</ele>
        <time>2016-05-08T09:20:06.000Z</time>
      </trkpt>
      <trkpt lat="43.19591" lon="5.5782">
        <ele>163.19999694824</ele>
        <time>2016-05-08T09:20:08.000Z</time>
      </trkpt>
      <trkpt lat="43.19589" lon="5.5783">
        <ele>161.80000305176</ele>
        <time>2016-05-08T09:20:10.000Z</time>
      </trkpt>
      <trkpt lat="43.19586" lon="5.5784">
        <ele>160.19999694824</ele>
        <time>2016-05-08T09:20:12.000Z</time>
      </trkpt>
      <trkpt lat="43.19583" lon="5.57849">
        <ele>159</ele>
        <time>2016-05-08T09:20:14.000Z</time>
      </trkpt>
      <trkpt lat="43.19581" lon="5.57856">
        <ele>157.80000305176</ele>
        <time>2016-05-08T09:20:16.000Z</time>
      </trkpt>
      <trkpt lat="43.1958" lon="5.57861">
        <ele>157</ele>
        <time>2016-05-08T09:20:18.000Z</time>
      </trkpt>
      <trkpt lat="43.1958" lon="5.57863">
        <ele>156.80000305176</ele>
        <time>2016-05-08T09:20:19.000Z</time>
      </trkpt>
      <trkpt lat="43.19578" lon="5.57871">
        <ele>155.60000610352</ele>
        <time>2016-05-08T09:20:44.000Z</time>
      </trkpt>
      <trkpt lat="43.19573" lon="5.57888">
        <ele>153.19999694824</ele>
        <time>2016-05-08T09:20:47.000Z</time>
      </trkpt>
      <trkpt lat="43.19571" lon="5.57895">
        <ele>152.39999389648</ele>
        <time>2016-05-08T09:20:48.000Z</time>
      </trkpt>
      <trkpt lat="43.19564" lon="5.57916">
        <ele>149.80000305176</ele>
        <time>2016-05-08T09:20:51.000Z</time>
      </trkpt>
      <trkpt lat="43.19559" lon="5.57929">
        <ele>148.19999694824</ele>
        <time>2016-05-08T09:20:53.000Z</time>
      </trkpt>
      <trkpt lat="43.19556" lon="5.57934">
        <ele>147.39999389648</ele>
        <time>2016-05-08T09:20:54.000Z</time>
      </trkpt>
      <trkpt lat="43.19554" lon="5.57941">
        <ele>146.60000610352</ele>
        <time>2016-05-08T09:20:55.000Z</time>
      </trkpt>
      <trkpt lat="43.1955" lon="5.57956">
        <ele>145</ele>
        <time>2016-05-08T09:20:57.000Z</time>
      </trkpt>
      <trkpt lat="43.19547" lon="5.57964">
        <ele>144</ele>
        <time>2016-05-08T09:20:58.000Z</time>
      </trkpt>
      <trkpt lat="43.19545" lon="5.57972">
        <ele>143.39999389648</ele>
        <time>2016-05-08T09:20:59.000Z</time>
      </trkpt>
      <trkpt lat="43.1954" lon="5.57991">
        <ele>142</ele>
        <time>2016-05-08T09:21:01.000Z</time>
      </trkpt>
      <trkpt lat="43.19537" lon="5.58001">
        <ele>141.19999694824</ele>
        <time>2016-05-08T09:21:02.000Z</time>
      </trkpt>
      <trkpt lat="43.19534" lon="5.58022">
        <ele>139.80000305176</ele>
        <time>2016-05-08T09:21:04.000Z</time>
      </trkpt>
      <trkpt lat="43.1953" lon="5.58044">
        <ele>138.39999389648</ele>
        <time>2016-05-08T09:21:06.000Z</time>
      </trkpt>
      <trkpt lat="43.19528" lon="5.58066">
        <ele>136.39999389648</ele>
        <time>2016-05-08T09:21:08.000Z</time>
      </trkpt>
      <trkpt lat="43.19525" lon="5.58088">
        <ele>136</ele>
        <time>2016-05-08T09:21:10.000Z</time>
      </trkpt>
      <trkpt lat="43.19523" lon="5.58099">
        <ele>136</ele>
        <time>2016-05-08T09:21:11.000Z</time>
      </trkpt>
      <trkpt lat="43.19519" lon="5.58121">
        <ele>135.80000305176</ele>
        <time>2016-05-08T09:21:13.000Z</time>
      </trkpt>
      <trkpt lat="43.19509" lon="5.58163">
        <ele>134.80000305176</ele>
        <time>2016-05-08T09:21:17.000Z</time>
      </trkpt>
      <trkpt lat="43.19499" lon="5.582">
        <ele>132.80000305176</ele>
        <time>2016-05-08T09:21:21.000Z</time>
      </trkpt>
      <trkpt lat="43.19494" lon="5.58218">
        <ele>131.80000305176</ele>
        <time>2016-05-08T09:21:23.000Z</time>
      </trkpt>
      <trkpt lat="43.19492" lon="5.58227">
        <ele>130.60000610352</ele>
        <time>2016-05-08T09:21:24.000Z</time>
      </trkpt>
      <trkpt lat="43.19487" lon="5.58247">
        <ele>128.19999694824</ele>
        <time>2016-05-08T09:21:26.000Z</time>
      </trkpt>
      <trkpt lat="43.19481" lon="5.58276">
        <ele>124.59999847412</ele>
        <time>2016-05-08T09:21:29.000Z</time>
      </trkpt>
      <trkpt lat="43.19477" lon="5.58296">
        <ele>123.19999694824</ele>
        <time>2016-05-08T09:21:31.000Z</time>
      </trkpt>
      <trkpt lat="43.19475" lon="5.58306">
        <ele>122.40000152588</ele>
        <time>2016-05-08T09:21:32.000Z</time>
      </trkpt>
      <trkpt lat="43.1947" lon="5.58336">
        <ele>120</ele>
        <time>2016-05-08T09:21:35.000Z</time>
      </trkpt>
      <trkpt lat="43.19467" lon="5.58356">
        <ele>118.59999847412</ele>
        <time>2016-05-08T09:21:37.000Z</time>
      </trkpt>
      <trkpt lat="43.19465" lon="5.58365">
        <ele>118</ele>
        <time>2016-05-08T09:21:38.000Z</time>
      </trkpt>
      <trkpt lat="43.19461" lon="5.58382">
        <ele>117</ele>
        <time>2016-05-08T09:21:40.000Z</time>
      </trkpt>
      <trkpt lat="43.19458" lon="5.584">
        <ele>116.40000152588</ele>
        <time>2016-05-08T09:21:42.000Z</time>
      </trkpt>
      <trkpt lat="43.19454" lon="5.58418">
        <ele>116</ele>
        <time>2016-05-08T09:21:44.000Z</time>
      </trkpt>
      <trkpt lat="43.19453" lon="5.58427">
        <ele>116.19999694824</ele>
        <time>2016-05-08T09:21:45.000Z</time>
      </trkpt>
      <trkpt lat="43.19449" lon="5.58445">
        <ele>116.40000152588</ele>
        <time>2016-05-08T09:21:47.000Z</time>
      </trkpt>
      <trkpt lat="43.19445" lon="5.58471">
        <ele>116.59999847412</ele>
        <time>2016-05-08T09:21:50.000Z</time>
      </trkpt>
      <trkpt lat="43.19442" lon="5.58491">
        <ele>116.19999694824</ele>
        <time>2016-05-08T09:21:52.000Z</time>
      </trkpt>
      <trkpt lat="43.1944" lon="5.58501">
        <ele>116.40000152588</ele>
        <time>2016-05-08T09:21:53.000Z</time>
      </trkpt>
      <trkpt lat="43.19438" lon="5.58511">
        <ele>116.40000152588</ele>
        <time>2016-05-08T09:21:54.000Z</time>
      </trkpt>
      <trkpt lat="43.19431" lon="5.5855">
        <ele>116.80000305176</ele>
        <time>2016-05-08T09:21:58.000Z</time>
      </trkpt>
      <trkpt lat="43.19426" lon="5.58576">
        <ele>116</ele>
        <time>2016-05-08T09:22:01.000Z</time>
      </trkpt>
      <trkpt lat="43.19424" lon="5.58584">
        <ele>115.59999847412</ele>
        <time>2016-05-08T09:22:02.000Z</time>
      </trkpt>
      <trkpt lat="43.19417" lon="5.58619">
        <ele>113.59999847412</ele>
        <time>2016-05-08T09:22:07.000Z</time>
      </trkpt>
      <trkpt lat="43.19405" lon="5.58672">
        <ele>110</ele>
        <time>2016-05-08T09:22:15.000Z</time>
      </trkpt>
      <trkpt lat="43.19387" lon="5.58708">
        <ele>108.19999694824</ele>
        <time>2016-05-08T09:22:20.000Z</time>
      </trkpt>
      <trkpt lat="43.19372" lon="5.58731">
        <ele>107</ele>
        <time>2016-05-08T09:22:23.000Z</time>
      </trkpt>
      <trkpt lat="43.19357" lon="5.58755">
        <ele>106.40000152588</ele>
        <time>2016-05-08T09:22:26.000Z</time>
      </trkpt>
      <trkpt lat="43.19352" lon="5.58764">
        <ele>106.40000152588</ele>
        <time>2016-05-08T09:22:27.000Z</time>
      </trkpt>
      <trkpt lat="43.19343" lon="5.58779">
        <ele>106.19999694824</ele>
        <time>2016-05-08T09:22:29.000Z</time>
      </trkpt>
      <trkpt lat="43.19329" lon="5.58802">
        <ele>105</ele>
        <time>2016-05-08T09:22:32.000Z</time>
      </trkpt>
      <trkpt lat="43.19321" lon="5.58819">
        <ele>103</ele>
        <time>2016-05-08T09:22:34.000Z</time>
      </trkpt>
      <trkpt lat="43.19318" lon="5.58828">
        <ele>102.19999694824</ele>
        <time>2016-05-08T09:22:35.000Z</time>
      </trkpt>
      <trkpt lat="43.19311" lon="5.58847">
        <ele>100.40000152588</ele>
        <time>2016-05-08T09:22:37.000Z</time>
      </trkpt>
      <trkpt lat="43.19304" lon="5.58866">
        <ele>99.800003051758</ele>
        <time>2016-05-08T09:22:39.000Z</time>
      </trkpt>
      <trkpt lat="43.19297" lon="5.58885">
        <ele>99.599998474121</ele>
        <time>2016-05-08T09:22:41.000Z</time>
      </trkpt>
      <trkpt lat="43.19286" lon="5.5892">
        <ele>98.800003051758</ele>
        <time>2016-05-08T09:22:45.000Z</time>
      </trkpt>
      <trkpt lat="43.19283" lon="5.58929">
        <ele>99</ele>
        <time>2016-05-08T09:22:46.000Z</time>
      </trkpt>
      <trkpt lat="43.19266" lon="5.58963">
        <ele>100</ele>
        <time>2016-05-08T09:22:50.000Z</time>
      </trkpt>
      <trkpt lat="43.19261" lon="5.58971">
        <ele>100</ele>
        <time>2016-05-08T09:22:51.000Z</time>
      </trkpt>
      <trkpt lat="43.19253" lon="5.58988">
        <ele>99.400001525879</ele>
        <time>2016-05-08T09:22:53.000Z</time>
      </trkpt>
      <trkpt lat="43.1924" lon="5.5901">
        <ele>98.400001525879</ele>
        <time>2016-05-08T09:22:56.000Z</time>
      </trkpt>
      <trkpt lat="43.19231" lon="5.59022">
        <ele>97.800003051758</ele>
        <time>2016-05-08T09:22:58.000Z</time>
      </trkpt>
      <trkpt lat="43.19225" lon="5.59028">
        <ele>97.599998474121</ele>
        <time>2016-05-08T09:22:59.000Z</time>
      </trkpt>
      <trkpt lat="43.19214" lon="5.59037">
        <ele>97.400001525879</ele>
        <time>2016-05-08T09:23:01.000Z</time>
      </trkpt>
      <trkpt lat="43.19204" lon="5.59043">
        <ele>97</ele>
        <time>2016-05-08T09:23:03.000Z</time>
      </trkpt>
      <trkpt lat="43.19195" lon="5.59048">
        <ele>96.800003051758</ele>
        <time>2016-05-08T09:23:05.000Z</time>
      </trkpt>
      <trkpt lat="43.19185" lon="5.59051">
        <ele>96.400001525879</ele>
        <time>2016-05-08T09:23:07.000Z</time>
      </trkpt>
      <trkpt lat="43.1918" lon="5.59052">
        <ele>96</ele>
        <time>2016-05-08T09:23:08.000Z</time>
      </trkpt>
      <trkpt lat="43.19175" lon="5.59054">
        <ele>95.800003051758</ele>
        <time>2016-05-08T09:23:09.000Z</time>
      </trkpt>
      <trkpt lat="43.19142" lon="5.59063">
        <ele>93.599998474121</ele>
        <time>2016-05-08T09:23:16.000Z</time>
      </trkpt>
      <trkpt lat="43.19119" lon="5.59072">
        <ele>92</ele>
        <time>2016-05-08T09:23:21.000Z</time>
      </trkpt>
      <trkpt lat="43.19111" lon="5.59079">
        <ele>91.599998474121</ele>
        <time>2016-05-08T09:23:23.000Z</time>
      </trkpt>
      <trkpt lat="43.19089" lon="5.5909">
        <ele>90.800003051758</ele>
        <time>2016-05-08T09:23:27.000Z</time>
      </trkpt>
      <trkpt lat="43.19084" lon="5.59092">
        <ele>90.400001525879</ele>
        <time>2016-05-08T09:23:28.000Z</time>
      </trkpt>
      <trkpt lat="43.19072" lon="5.59097">
        <ele>89.599998474121</ele>
        <time>2016-05-08T09:23:30.000Z</time>
      </trkpt>
      <trkpt lat="43.19029" lon="5.59114">
        <ele>88.199996948242</ele>
        <time>2016-05-08T09:23:37.000Z</time>
      </trkpt>
      <trkpt lat="43.19003" lon="5.59124">
        <ele>87.400001525879</ele>
        <time>2016-05-08T09:23:42.000Z</time>
      </trkpt>
      <trkpt lat="43.18998" lon="5.59128">
        <ele>87</ele>
        <time>2016-05-08T09:23:43.000Z</time>
      </trkpt>
      <trkpt lat="43.18993" lon="5.59133">
        <ele>86.400001525879</ele>
        <time>2016-05-08T09:23:44.000Z</time>
      </trkpt>
      <trkpt lat="43.18983" lon="5.59144">
        <ele>85</ele>
        <time>2016-05-08T09:23:46.000Z</time>
      </trkpt>
      <trkpt lat="43.18968" lon="5.5916">
        <ele>82.800003051758</ele>
        <time>2016-05-08T09:23:49.000Z</time>
      </trkpt>
      <trkpt lat="43.18958" lon="5.59172">
        <ele>81.800003051758</ele>
        <time>2016-05-08T09:23:51.000Z</time>
      </trkpt>
      <trkpt lat="43.1895" lon="5.59186">
        <ele>81.599998474121</ele>
        <time>2016-05-08T09:23:53.000Z</time>
      </trkpt>
      <trkpt lat="43.18942" lon="5.59201">
        <ele>81.400001525879</ele>
        <time>2016-05-08T09:23:55.000Z</time>
      </trkpt>
      <trkpt lat="43.18934" lon="5.59217">
        <ele>81.199996948242</ele>
        <time>2016-05-08T09:23:57.000Z</time>
      </trkpt>
      <trkpt lat="43.18926" lon="5.59233">
        <ele>80.800003051758</ele>
        <time>2016-05-08T09:23:59.000Z</time>
      </trkpt>
      <trkpt lat="43.18913" lon="5.59258">
        <ele>79.599998474121</ele>
        <time>2016-05-08T09:24:02.000Z</time>
      </trkpt>
      <trkpt lat="43.18909" lon="5.59265">
        <ele>79.199996948242</ele>
        <time>2016-05-08T09:24:03.000Z</time>
      </trkpt>
      <trkpt lat="43.18905" lon="5.59272">
        <ele>78.800003051758</ele>
        <time>2016-05-08T09:24:04.000Z</time>
      </trkpt>
      <trkpt lat="43.189" lon="5.59279">
        <ele>78.400001525879</ele>
        <time>2016-05-08T09:24:05.000Z</time>
      </trkpt>
      <trkpt lat="43.18888" lon="5.5929">
        <ele>78.199996948242</ele>
        <time>2016-05-08T09:24:07.000Z</time>
      </trkpt>
      <trkpt lat="43.18881" lon="5.59295">
        <ele>78</ele>
        <time>2016-05-08T09:24:08.000Z</time>
      </trkpt>
      <trkpt lat="43.18874" lon="5.59299">
        <ele>77.599998474121</ele>
        <time>2016-05-08T09:24:09.000Z</time>
      </trkpt>
      <trkpt lat="43.18867" lon="5.59304">
        <ele>77.199996948242</ele>
        <time>2016-05-08T09:24:10.000Z</time>
      </trkpt>
      <trkpt lat="43.18845" lon="5.59316">
        <ele>76.199996948242</ele>
        <time>2016-05-08T09:24:13.000Z</time>
      </trkpt>
      <trkpt lat="43.18825" lon="5.59327">
        <ele>73.400001525879</ele>
        <time>2016-05-08T09:24:16.000Z</time>
      </trkpt>
      <trkpt lat="43.18812" lon="5.59333">
        <ele>71.599998474121</ele>
        <time>2016-05-08T09:24:18.000Z</time>
      </trkpt>
      <trkpt lat="43.18798" lon="5.59338">
        <ele>69.800003051758</ele>
        <time>2016-05-08T09:24:20.000Z</time>
      </trkpt>
      <trkpt lat="43.18785" lon="5.59342">
        <ele>68.800003051758</ele>
        <time>2016-05-08T09:24:22.000Z</time>
      </trkpt>
      <trkpt lat="43.18756" lon="5.59353">
        <ele>67.800003051758</ele>
        <time>2016-05-08T09:24:27.000Z</time>
      </trkpt>
      <trkpt lat="43.18751" lon="5.59357">
        <ele>68.199996948242</ele>
        <time>2016-05-08T09:24:28.000Z</time>
      </trkpt>
      <trkpt lat="43.18741" lon="5.59366">
        <ele>69</ele>
        <time>2016-05-08T09:24:30.000Z</time>
      </trkpt>
      <trkpt lat="43.18732" lon="5.59377">
        <ele>68</ele>
        <time>2016-05-08T09:24:32.000Z</time>
      </trkpt>
      <trkpt lat="43.18728" lon="5.59384">
        <ele>67.599998474121</ele>
        <time>2016-05-08T09:24:33.000Z</time>
      </trkpt>
      <trkpt lat="43.18716" lon="5.5941">
        <ele>66.800003051758</ele>
        <time>2016-05-08T09:24:36.000Z</time>
      </trkpt>
      <trkpt lat="43.18707" lon="5.59429">
        <ele>65.599998474121</ele>
        <time>2016-05-08T09:24:38.000Z</time>
      </trkpt>
      <trkpt lat="43.18694" lon="5.59459">
        <ele>63</ele>
        <time>2016-05-08T09:24:41.000Z</time>
      </trkpt>
      <trkpt lat="43.18689" lon="5.59469">
        <ele>62.200000762939</ele>
        <time>2016-05-08T09:24:42.000Z</time>
      </trkpt>
      <trkpt lat="43.18683" lon="5.59477">
        <ele>61.200000762939</ele>
        <time>2016-05-08T09:24:43.000Z</time>
      </trkpt>
      <trkpt lat="43.18671" lon="5.59494">
        <ele>61.400001525879</ele>
        <time>2016-05-08T09:24:45.000Z</time>
      </trkpt>
      <trkpt lat="43.18652" lon="5.59519">
        <ele>62</ele>
        <time>2016-05-08T09:24:48.000Z</time>
      </trkpt>
      <trkpt lat="43.1864" lon="5.59533">
        <ele>60.599998474121</ele>
        <time>2016-05-08T09:24:50.000Z</time>
      </trkpt>
      <trkpt lat="43.18634" lon="5.59539">
        <ele>59.799999237061</ele>
        <time>2016-05-08T09:24:51.000Z</time>
      </trkpt>
      <trkpt lat="43.18621" lon="5.59547">
        <ele>58.200000762939</ele>
        <time>2016-05-08T09:24:53.000Z</time>
      </trkpt>
      <trkpt lat="43.18607" lon="5.59553">
        <ele>56.799999237061</ele>
        <time>2016-05-08T09:24:55.000Z</time>
      </trkpt>
      <trkpt lat="43.18594" lon="5.59556">
        <ele>55.799999237061</ele>
        <time>2016-05-08T09:24:57.000Z</time>
      </trkpt>
      <trkpt lat="43.18588" lon="5.59558">
        <ele>55.599998474121</ele>
        <time>2016-05-08T09:24:58.000Z</time>
      </trkpt>
      <trkpt lat="43.18581" lon="5.59561">
        <ele>55.400001525879</ele>
        <time>2016-05-08T09:24:59.000Z</time>
      </trkpt>
      <trkpt lat="43.18575" lon="5.59564">
        <ele>55.200000762939</ele>
        <time>2016-05-08T09:25:00.000Z</time>
      </trkpt>
      <trkpt lat="43.18557" lon="5.59576">
        <ele>54.400001525879</ele>
        <time>2016-05-08T09:25:03.000Z</time>
      </trkpt>
      <trkpt lat="43.18552" lon="5.59578">
        <ele>54.200000762939</ele>
        <time>2016-05-08T09:25:04.000Z</time>
      </trkpt>
      <trkpt lat="43.18542" lon="5.5958">
        <ele>54</ele>
        <time>2016-05-08T09:25:06.000Z</time>
      </trkpt>
      <trkpt lat="43.18536" lon="5.59579">
        <ele>53.799999237061</ele>
        <time>2016-05-08T09:25:08.000Z</time>
      </trkpt>
      <trkpt lat="43.18534" lon="5.59578">
        <ele>53.799999237061</ele>
        <time>2016-05-08T09:25:10.000Z</time>
      </trkpt>
      <trkpt lat="43.1853" lon="5.59575">
        <ele>54</ele>
        <time>2016-05-08T09:25:12.000Z</time>
      </trkpt>
      <trkpt lat="43.18527" lon="5.59571">
        <ele>54</ele>
        <time>2016-05-08T09:25:15.000Z</time>
      </trkpt>
      <trkpt lat="43.18526" lon="5.5957">
        <ele>54.200000762939</ele>
        <time>2016-05-08T09:25:16.000Z</time>
      </trkpt>
      <trkpt lat="43.18524" lon="5.59569">
        <ele>54</ele>
        <time>2016-05-08T09:25:17.000Z</time>
      </trkpt>
      <trkpt lat="43.18516" lon="5.59573">
        <ele>53.200000762939</ele>
        <time>2016-05-08T09:25:20.000Z</time>
      </trkpt>
      <trkpt lat="43.18506" lon="5.59581">
        <ele>52.400001525879</ele>
        <time>2016-05-08T09:25:23.000Z</time>
      </trkpt>
      <trkpt lat="43.185" lon="5.5959">
        <ele>52</ele>
        <time>2016-05-08T09:25:25.000Z</time>
      </trkpt>
      <trkpt lat="43.18475" lon="5.59626">
        <ele>50.599998474121</ele>
        <time>2016-05-08T09:25:33.000Z</time>
      </trkpt>
      <trkpt lat="43.18468" lon="5.59634">
        <ele>50.599998474121</ele>
        <time>2016-05-08T09:25:35.000Z</time>
      </trkpt>
      <trkpt lat="43.18461" lon="5.59641">
        <ele>51</ele>
        <time>2016-05-08T09:25:37.000Z</time>
      </trkpt>
      <trkpt lat="43.18449" lon="5.59649">
        <ele>51.799999237061</ele>
        <time>2016-05-08T09:25:40.000Z</time>
      </trkpt>
      <trkpt lat="43.1843" lon="5.59662">
        <ele>52.200000762939</ele>
        <time>2016-05-08T09:25:45.000Z</time>
      </trkpt>
      <trkpt lat="43.18418" lon="5.59672">
        <ele>52.200000762939</ele>
        <time>2016-05-08T09:25:48.000Z</time>
      </trkpt>
      <trkpt lat="43.18415" lon="5.59676">
        <ele>52.200000762939</ele>
        <time>2016-05-08T09:25:49.000Z</time>
      </trkpt>
      <trkpt lat="43.18407" lon="5.59692">
        <ele>51.599998474121</ele>
        <time>2016-05-08T09:25:52.000Z</time>
      </trkpt>
      <trkpt lat="43.18405" lon="5.59699">
        <ele>51.400001525879</ele>
        <time>2016-05-08T09:25:53.000Z</time>
      </trkpt>
      <trkpt lat="43.18403" lon="5.59719">
        <ele>50.799999237061</ele>
        <time>2016-05-08T09:25:56.000Z</time>
      </trkpt>
      <trkpt lat="43.18402" lon="5.59726">
        <ele>50.799999237061</ele>
        <time>2016-05-08T09:25:57.000Z</time>
      </trkpt>
      <trkpt lat="43.18401" lon="5.59732">
        <ele>50.799999237061</ele>
        <time>2016-05-08T09:25:58.000Z</time>
      </trkpt>
      <trkpt lat="43.18398" lon="5.59744">
        <ele>50.799999237061</ele>
        <time>2016-05-08T09:26:00.000Z</time>
      </trkpt>
      <trkpt lat="43.18395" lon="5.59748">
        <ele>51</ele>
        <time>2016-05-08T09:26:01.000Z</time>
      </trkpt>
      <trkpt lat="43.18393" lon="5.59752">
        <ele>51.200000762939</ele>
        <time>2016-05-08T09:26:02.000Z</time>
      </trkpt>
      <trkpt lat="43.18383" lon="5.59755">
        <ele>51.799999237061</ele>
        <time>2016-05-08T09:26:05.000Z</time>
      </trkpt>
      <trkpt lat="43.18379" lon="5.59754">
        <ele>52</ele>
        <time>2016-05-08T09:26:06.000Z</time>
      </trkpt>
      <trkpt lat="43.1837" lon="5.59753">
        <ele>52.599998474121</ele>
        <time>2016-05-08T09:26:08.000Z</time>
      </trkpt>
      <trkpt lat="43.18366" lon="5.59752">
        <ele>53</ele>
        <time>2016-05-08T09:26:09.000Z</time>
      </trkpt>
      <trkpt lat="43.18357" lon="5.5975">
        <ele>53.599998474121</ele>
        <time>2016-05-08T09:26:11.000Z</time>
      </trkpt>
      <trkpt lat="43.18344" lon="5.59748">
        <ele>54.200000762939</ele>
        <time>2016-05-08T09:26:14.000Z</time>
      </trkpt>
      <trkpt lat="43.18329" lon="5.59746">
        <ele>53.400001525879</ele>
        <time>2016-05-08T09:26:18.000Z</time>
      </trkpt>
      <trkpt lat="43.18321" lon="5.59747">
        <ele>52.799999237061</ele>
        <time>2016-05-08T09:26:22.000Z</time>
      </trkpt>
      <trkpt lat="43.18318" lon="5.59749">
        <ele>52.599998474121</ele>
        <time>2016-05-08T09:26:23.000Z</time>
      </trkpt>
      <trkpt lat="43.18303" lon="5.5975">
        <ele>51.799999237061</ele>
        <time>2016-05-08T09:26:27.000Z</time>
      </trkpt>
      <trkpt lat="43.18299" lon="5.59749">
        <ele>51.400001525879</ele>
        <time>2016-05-08T09:26:28.000Z</time>
      </trkpt>
      <trkpt lat="43.1829" lon="5.59754">
        <ele>50.799999237061</ele>
        <time>2016-05-08T09:26:30.000Z</time>
      </trkpt>
      <trkpt lat="43.18282" lon="5.59771">
        <ele>50</ele>
        <time>2016-05-08T09:26:33.000Z</time>
      </trkpt>
      <trkpt lat="43.18279" lon="5.59777">
        <ele>49.599998474121</ele>
        <time>2016-05-08T09:26:34.000Z</time>
      </trkpt>
      <trkpt lat="43.18277" lon="5.59783">
        <ele>49.400001525879</ele>
        <time>2016-05-08T09:26:35.000Z</time>
      </trkpt>
      <trkpt lat="43.18274" lon="5.59788">
        <ele>49</ele>
        <time>2016-05-08T09:26:36.000Z</time>
      </trkpt>
      <trkpt lat="43.18265" lon="5.59794">
        <ele>48.400001525879</ele>
        <time>2016-05-08T09:26:38.000Z</time>
      </trkpt>
      <trkpt lat="43.18252" lon="5.59795">
        <ele>47.599998474121</ele>
        <time>2016-05-08T09:26:40.000Z</time>
      </trkpt>
      <trkpt lat="43.18232" lon="5.59795">
        <ele>46.799999237061</ele>
        <time>2016-05-08T09:26:43.000Z</time>
      </trkpt>
      <trkpt lat="43.18225" lon="5.59795">
        <ele>46.599998474121</ele>
        <time>2016-05-08T09:26:44.000Z</time>
      </trkpt>
      <trkpt lat="43.18205" lon="5.59796">
        <ele>46</ele>
        <time>2016-05-08T09:26:47.000Z</time>
      </trkpt>
      <trkpt lat="43.18191" lon="5.59796">
        <ele>45.400001525879</ele>
        <time>2016-05-08T09:26:49.000Z</time>
      </trkpt>
      <trkpt lat="43.18185" lon="5.59794">
        <ele>45.200000762939</ele>
        <time>2016-05-08T09:26:50.000Z</time>
      </trkpt>
      <trkpt lat="43.18178" lon="5.59791">
        <ele>44.799999237061</ele>
        <time>2016-05-08T09:26:51.000Z</time>
      </trkpt>
      <trkpt lat="43.18159" lon="5.59782">
        <ele>44.599998474121</ele>
        <time>2016-05-08T09:26:54.000Z</time>
      </trkpt>
      <trkpt lat="43.18153" lon="5.59779">
        <ele>44.200000762939</ele>
        <time>2016-05-08T09:26:55.000Z</time>
      </trkpt>
      <trkpt lat="43.18146" lon="5.59777">
        <ele>44</ele>
        <time>2016-05-08T09:26:56.000Z</time>
      </trkpt>
      <trkpt lat="43.18132" lon="5.59777">
        <ele>43.200000762939</ele>
        <time>2016-05-08T09:26:58.000Z</time>
      </trkpt>
      <trkpt lat="43.18125" lon="5.59778">
        <ele>42.599998474121</ele>
        <time>2016-05-08T09:26:59.000Z</time>
      </trkpt>
      <trkpt lat="43.18094" lon="5.59792">
        <ele>40.400001525879</ele>
        <time>2016-05-08T09:27:04.000Z</time>
      </trkpt>
      <trkpt lat="43.18073" lon="5.59809">
        <ele>39.599998474121</ele>
        <time>2016-05-08T09:27:08.000Z</time>
      </trkpt>
      <trkpt lat="43.18058" lon="5.59822">
        <ele>39.599998474121</ele>
        <time>2016-05-08T09:27:11.000Z</time>
      </trkpt>
      <trkpt lat="43.18053" lon="5.59826">
        <ele>39.599998474121</ele>
        <time>2016-05-08T09:27:12.000Z</time>
      </trkpt>
      <trkpt lat="43.18048" lon="5.59831">
        <ele>39.599998474121</ele>
        <time>2016-05-08T09:27:13.000Z</time>
      </trkpt>
      <trkpt lat="43.18038" lon="5.5984">
        <ele>39.200000762939</ele>
        <time>2016-05-08T09:27:15.000Z</time>
      </trkpt>
      <trkpt lat="43.18024" lon="5.59856">
        <ele>38.599998474121</ele>
        <time>2016-05-08T09:27:18.000Z</time>
      </trkpt>
      <trkpt lat="43.18009" lon="5.59872">
        <ele>38</ele>
        <time>2016-05-08T09:27:21.000Z</time>
      </trkpt>
      <trkpt lat="43.18005" lon="5.59878">
        <ele>38.200000762939</ele>
        <time>2016-05-08T09:27:22.000Z</time>
      </trkpt>
      <trkpt lat="43.17995" lon="5.59898">
        <ele>37.400001525879</ele>
        <time>2016-05-08T09:27:25.000Z</time>
      </trkpt>
      <trkpt lat="43.17983" lon="5.59926">
        <ele>36.200000762939</ele>
        <time>2016-05-08T09:27:29.000Z</time>
      </trkpt>
      <trkpt lat="43.17979" lon="5.59932">
        <ele>36</ele>
        <time>2016-05-08T09:27:30.000Z</time>
      </trkpt>
      <trkpt lat="43.17975" lon="5.59937">
        <ele>35.799999237061</ele>
        <time>2016-05-08T09:27:31.000Z</time>
      </trkpt>
      <trkpt lat="43.17967" lon="5.59946">
        <ele>35.599998474121</ele>
        <time>2016-05-08T09:27:33.000Z</time>
      </trkpt>
      <trkpt lat="43.17962" lon="5.5995">
        <ele>35.400001525879</ele>
        <time>2016-05-08T09:27:34.000Z</time>
      </trkpt>
      <trkpt lat="43.17952" lon="5.59958">
        <ele>35.200000762939</ele>
        <time>2016-05-08T09:27:36.000Z</time>
      </trkpt>
      <trkpt lat="43.17919" lon="5.59983">
        <ele>34.200000762939</ele>
        <time>2016-05-08T09:27:43.000Z</time>
      </trkpt>
      <trkpt lat="43.17916" lon="5.59986">
        <ele>34</ele>
        <time>2016-05-08T09:27:44.000Z</time>
      </trkpt>
      <trkpt lat="43.17909" lon="5.59992">
        <ele>33.599998474121</ele>
        <time>2016-05-08T09:27:48.000Z</time>
      </trkpt>
      <trkpt lat="43.17905" lon="5.59994">
        <ele>33.599998474121</ele>
        <time>2016-05-08T09:28:18.000Z</time>
      </trkpt>
      <trkpt lat="43.17902" lon="5.59997">
        <ele>33.400001525879</ele>
        <time>2016-05-08T09:28:20.000Z</time>
      </trkpt>
      <trkpt lat="43.17898" lon="5.60008">
        <ele>32.799999237061</ele>
        <time>2016-05-08T09:28:34.000Z</time>
      </trkpt>
      <trkpt lat="43.179" lon="5.60014">
        <ele>32.599998474121</ele>
        <time>2016-05-08T09:28:36.000Z</time>
      </trkpt>
      <trkpt lat="43.17902" lon="5.60024">
        <ele>32.400001525879</ele>
        <time>2016-05-08T09:28:38.000Z</time>
      </trkpt>
      <trkpt lat="43.17904" lon="5.60036">
        <ele>32</ele>
        <time>2016-05-08T09:28:40.000Z</time>
      </trkpt>
      <trkpt lat="43.17912" lon="5.60084">
        <ele>30</ele>
        <time>2016-05-08T09:28:48.000Z</time>
      </trkpt>
      <trkpt lat="43.17917" lon="5.60109">
        <ele>29</ele>
        <time>2016-05-08T09:28:52.000Z</time>
      </trkpt>
      <trkpt lat="43.17922" lon="5.60139">
        <ele>27.799999237061</ele>
        <time>2016-05-08T09:28:56.000Z</time>
      </trkpt>
      <trkpt lat="43.17923" lon="5.60147">
        <ele>27.60000038147</ele>
        <time>2016-05-08T09:28:57.000Z</time>
      </trkpt>
      <trkpt lat="43.17926" lon="5.60174">
        <ele>26.60000038147</ele>
        <time>2016-05-08T09:29:00.000Z</time>
      </trkpt>
      <trkpt lat="43.17927" lon="5.60194">
        <ele>25.799999237061</ele>
        <time>2016-05-08T09:29:02.000Z</time>
      </trkpt>
      <trkpt lat="43.17927" lon="5.60226">
        <ele>24.799999237061</ele>
        <time>2016-05-08T09:29:05.000Z</time>
      </trkpt>
      <trkpt lat="43.17927" lon="5.60269">
        <ele>23.200000762939</ele>
        <time>2016-05-08T09:29:09.000Z</time>
      </trkpt>
      <trkpt lat="43.17927" lon="5.6028">
        <ele>22.799999237061</ele>
        <time>2016-05-08T09:29:10.000Z</time>
      </trkpt>
      <trkpt lat="43.17927" lon="5.60303">
        <ele>22</ele>
        <time>2016-05-08T09:29:12.000Z</time>
      </trkpt>
      <trkpt lat="43.17927" lon="5.60339">
        <ele>21.60000038147</ele>
        <time>2016-05-08T09:29:15.000Z</time>
      </trkpt>
      <trkpt lat="43.17924" lon="5.60392">
        <ele>20.799999237061</ele>
        <time>2016-05-08T09:29:20.000Z</time>
      </trkpt>
      <trkpt lat="43.17925" lon="5.60402">
        <ele>20.799999237061</ele>
        <time>2016-05-08T09:29:21.000Z</time>
      </trkpt>
      <trkpt lat="43.17923" lon="5.60439">
        <ele>20.799999237061</ele>
        <time>2016-05-08T09:29:26.000Z</time>
      </trkpt>
      <trkpt lat="43.17921" lon="5.6048">
        <ele>21</ele>
        <time>2016-05-08T09:29:33.000Z</time>
      </trkpt>
      <trkpt lat="43.17922" lon="5.60507">
        <ele>21.60000038147</ele>
        <time>2016-05-08T09:29:39.000Z</time>
      </trkpt>
      <trkpt lat="43.17921" lon="5.60513">
        <ele>21.799999237061</ele>
        <time>2016-05-08T09:29:41.000Z</time>
      </trkpt>
      <trkpt lat="43.1792" lon="5.60517">
        <ele>21.799999237061</ele>
        <time>2016-05-08T09:29:43.000Z</time>
      </trkpt>
      <trkpt lat="43.17919" lon="5.60521">
        <ele>21.799999237061</ele>
        <time>2016-05-08T09:29:45.000Z</time>
      </trkpt>
      <trkpt lat="43.17919" lon="5.60523">
        <ele>21.799999237061</ele>
        <time>2016-05-08T09:29:46.000Z</time>
      </trkpt>
      <trkpt lat="43.17919" lon="5.60527">
        <ele>22</ele>
        <time>2016-05-08T09:29:59.000Z</time>
      </trkpt>
      <trkpt lat="43.17918" lon="5.60548">
        <ele>22.39999961853</ele>
        <time>2016-05-08T09:30:02.000Z</time>
      </trkpt>
      <trkpt lat="43.1792" lon="5.60621">
        <ele>26.799999237061</ele>
        <time>2016-05-08T09:30:11.000Z</time>
      </trkpt>
      <trkpt lat="43.17921" lon="5.60636">
        <ele>27.60000038147</ele>
        <time>2016-05-08T09:30:13.000Z</time>
      </trkpt>
      <trkpt lat="43.17921" lon="5.60652">
        <ele>27</ele>
        <time>2016-05-08T09:30:15.000Z</time>
      </trkpt>
      <trkpt lat="43.17921" lon="5.60675">
        <ele>26.200000762939</ele>
        <time>2016-05-08T09:30:18.000Z</time>
      </trkpt>
      <trkpt lat="43.17919" lon="5.60698">
        <ele>25.200000762939</ele>
        <time>2016-05-08T09:30:21.000Z</time>
      </trkpt>
      <trkpt lat="43.17916" lon="5.60714">
        <ele>24.799999237061</ele>
        <time>2016-05-08T09:30:23.000Z</time>
      </trkpt>
      <trkpt lat="43.179" lon="5.60774">
        <ele>23</ele>
        <time>2016-05-08T09:30:30.000Z</time>
      </trkpt>
      <trkpt lat="43.17893" lon="5.608">
        <ele>22.60000038147</ele>
        <time>2016-05-08T09:30:33.000Z</time>
      </trkpt>
      <trkpt lat="43.17881" lon="5.60847">
        <ele>21.799999237061</ele>
        <time>2016-05-08T09:30:38.000Z</time>
      </trkpt>
      <trkpt lat="43.17871" lon="5.60885">
        <ele>20.60000038147</ele>
        <time>2016-05-08T09:30:42.000Z</time>
      </trkpt>
      <trkpt lat="43.1786" lon="5.60929">
        <ele>19.39999961853</ele>
        <time>2016-05-08T09:30:47.000Z</time>
      </trkpt>
      <trkpt lat="43.17856" lon="5.60944">
        <ele>18.60000038147</ele>
        <time>2016-05-08T09:30:49.000Z</time>
      </trkpt>
      <trkpt lat="43.17851" lon="5.60967">
        <ele>17.39999961853</ele>
        <time>2016-05-08T09:30:52.000Z</time>
      </trkpt>
      <trkpt lat="43.1785" lon="5.60974">
        <ele>16.799999237061</ele>
        <time>2016-05-08T09:30:53.000Z</time>
      </trkpt>
      <trkpt lat="43.17845" lon="5.60995">
        <ele>14.39999961853</ele>
        <time>2016-05-08T09:30:56.000Z</time>
      </trkpt>
      <trkpt lat="43.17841" lon="5.61007">
        <ele>13.199999809265</ele>
        <time>2016-05-08T09:30:58.000Z</time>
      </trkpt>
      <trkpt lat="43.17838" lon="5.61015">
        <ele>12.39999961853</ele>
        <time>2016-05-08T09:31:00.000Z</time>
      </trkpt>
      <trkpt lat="43.17841" lon="5.61024">
        <ele>11.60000038147</ele>
        <time>2016-05-08T09:31:02.000Z</time>
      </trkpt>
      <trkpt lat="43.17848" lon="5.6103">
        <ele>11.199999809265</ele>
        <time>2016-05-08T09:31:04.000Z</time>
      </trkpt>
      <trkpt lat="43.1786" lon="5.6104">
        <ele>11</ele>
        <time>2016-05-08T09:31:07.000Z</time>
      </trkpt>
      <trkpt lat="43.17873" lon="5.6105">
        <ele>10.800000190735</ele>
        <time>2016-05-08T09:31:10.000Z</time>
      </trkpt>
      <trkpt lat="43.1788" lon="5.61056">
        <ele>10.60000038147</ele>
        <time>2016-05-08T09:31:12.000Z</time>
      </trkpt>
      <trkpt lat="43.17882" lon="5.6106">
        <ele>10.199999809265</ele>
        <time>2016-05-08T09:31:13.000Z</time>
      </trkpt>
      <trkpt lat="43.17878" lon="5.61072">
        <ele>8.6000003814697</ele>
        <time>2016-05-08T09:31:16.000Z</time>
      </trkpt>
      <trkpt lat="43.17869" lon="5.61076">
        <ele>7.5999999046326</ele>
        <time>2016-05-08T09:31:18.000Z</time>
      </trkpt>
      <trkpt lat="43.17864" lon="5.61077">
        <ele>7.1999998092651</ele>
        <time>2016-05-08T09:31:19.000Z</time>
      </trkpt>
      <trkpt lat="43.17859" lon="5.61077">
        <ele>7</ele>
        <time>2016-05-08T09:31:20.000Z</time>
      </trkpt>
      <trkpt lat="43.17852" lon="5.61078">
        <ele>6.5999999046326</ele>
        <time>2016-05-08T09:31:22.000Z</time>
      </trkpt>
      <trkpt lat="43.17849" lon="5.61079">
        <ele>6.4000000953674</ele>
        <time>2016-05-08T09:31:24.000Z</time>
      </trkpt>
      <trkpt lat="43.17848" lon="5.61079">
        <ele>6.1999998092651</ele>
        <time>2016-05-08T09:31:25.000Z</time>
      </trkpt>
      <trkpt lat="43.17846" lon="5.61081">
        <ele>6</ele>
        <time>2016-05-08T09:31:28.000Z</time>
      </trkpt>
      <trkpt lat="43.17844" lon="5.61082">
        <ele>5.8000001907349</ele>
        <time>2016-05-08T09:31:29.000Z</time>
      </trkpt>
      <trkpt lat="43.17844" lon="5.61085">
        <ele>5.4000000953674</ele>
        <time>2016-05-08T09:31:30.000Z</time>
      </trkpt>
      <trkpt lat="43.1785" lon="5.61096">
        <ele>4.4000000953674</ele>
        <time>2016-05-08T09:31:33.000Z</time>
      </trkpt>
      <trkpt lat="43.17858" lon="5.61101">
        <ele>4.1999998092651</ele>
        <time>2016-05-08T09:31:35.000Z</time>
      </trkpt>
      <trkpt lat="43.17876" lon="5.61114">
        <ele>3.7999999523163</ele>
        <time>2016-05-08T09:31:39.000Z</time>
      </trkpt>
      <trkpt lat="43.17911" lon="5.61136">
        <ele>3.2000000476837</ele>
        <time>2016-05-08T09:31:46.000Z</time>
      </trkpt>
      <trkpt lat="43.17941" lon="5.61157">
        <ele>4</ele>
        <time>2016-05-08T09:31:52.000Z</time>
      </trkpt>
      <trkpt lat="43.17956" lon="5.61168">
        <ele>4.4000000953674</ele>
        <time>2016-05-08T09:31:55.000Z</time>
      </trkpt>
      <trkpt lat="43.17988" lon="5.61191">
        <ele>5.5999999046326</ele>
        <time>2016-05-08T09:32:02.000Z</time>
      </trkpt>
      <trkpt lat="43.17992" lon="5.61195">
        <ele>5.8000001907349</ele>
        <time>2016-05-08T09:32:03.000Z</time>
      </trkpt>
      <trkpt lat="43.18011" lon="5.61209">
        <ele>6.4000000953674</ele>
        <time>2016-05-08T09:32:07.000Z</time>
      </trkpt>
      <trkpt lat="43.18015" lon="5.61214">
        <ele>6.4000000953674</ele>
        <time>2016-05-08T09:32:08.000Z</time>
      </trkpt>
      <trkpt lat="43.18053" lon="5.61247">
        <ele>5.5999999046326</ele>
        <time>2016-05-08T09:32:16.000Z</time>
      </trkpt>
      <trkpt lat="43.18083" lon="5.61279">
        <ele>4.8000001907349</ele>
        <time>2016-05-08T09:32:22.000Z</time>
      </trkpt>
      <trkpt lat="43.18114" lon="5.61314">
        <ele>4</ele>
        <time>2016-05-08T09:32:28.000Z</time>
      </trkpt>
      <trkpt lat="43.18119" lon="5.6132">
        <ele>3.7999999523163</ele>
        <time>2016-05-08T09:32:29.000Z</time>
      </trkpt>
      <trkpt lat="43.18143" lon="5.61355">
        <ele>3.4000000953674</ele>
        <time>2016-05-08T09:32:35.000Z</time>
      </trkpt>
      <trkpt lat="43.18171" lon="5.61397">
        <ele>2.7999999523163</ele>
        <time>2016-05-08T09:32:42.000Z</time>
      </trkpt>
      <trkpt lat="43.18199" lon="5.61429">
        <ele>3</ele>
        <time>2016-05-08T09:32:48.000Z</time>
      </trkpt>
      <trkpt lat="43.1824" lon="5.61473">
        <ele>3.7999999523163</ele>
        <time>2016-05-08T09:32:57.000Z</time>
      </trkpt>
      <trkpt lat="43.18244" lon="5.61478">
        <ele>3.7999999523163</ele>
        <time>2016-05-08T09:32:58.000Z</time>
      </trkpt>
      <trkpt lat="43.18252" lon="5.61499">
        <ele>3.4000000953674</ele>
        <time>2016-05-08T09:33:01.000Z</time>
      </trkpt>
      <trkpt lat="43.18255" lon="5.61514">
        <ele>3</ele>
        <time>2016-05-08T09:33:03.000Z</time>
      </trkpt>
      <trkpt lat="43.18257" lon="5.61528">
        <ele>2.5999999046326</ele>
        <time>2016-05-08T09:33:05.000Z</time>
      </trkpt>
      <trkpt lat="43.18259" lon="5.61534">
        <ele>2.5999999046326</ele>
        <time>2016-05-08T09:33:06.000Z</time>
      </trkpt>
      <trkpt lat="43.18264" lon="5.61552">
        <ele>2.2000000476837</ele>
        <time>2016-05-08T09:33:09.000Z</time>
      </trkpt>
      <trkpt lat="43.18267" lon="5.61558">
        <ele>2.2000000476837</ele>
        <time>2016-05-08T09:33:10.000Z</time>
      </trkpt>
      <trkpt lat="43.18286" lon="5.61587">
        <ele>2.4000000953674</ele>
        <time>2016-05-08T09:33:15.000Z</time>
      </trkpt>
      <trkpt lat="43.18317" lon="5.61621">
        <ele>3</ele>
        <time>2016-05-08T09:33:22.000Z</time>
      </trkpt>
      <trkpt lat="43.18335" lon="5.61637">
        <ele>3.4000000953674</ele>
        <time>2016-05-08T09:33:26.000Z</time>
      </trkpt>
      <trkpt lat="43.18348" lon="5.61651">
        <ele>2.5999999046326</ele>
        <time>2016-05-08T09:33:29.000Z</time>
      </trkpt>
      <trkpt lat="43.18373" lon="5.61676">
        <ele>2</ele>
        <time>2016-05-08T09:33:34.000Z</time>
      </trkpt>
      <trkpt lat="43.18378" lon="5.61681">
        <ele>1.7999999523163</ele>
        <time>2016-05-08T09:33:35.000Z</time>
      </trkpt>
      <trkpt lat="43.18397" lon="5.61701">
        <ele>1.3999999761581</ele>
        <time>2016-05-08T09:33:39.000Z</time>
      </trkpt>
      <trkpt lat="43.1841" lon="5.61715">
        <ele>0.80000001192093</ele>
        <time>2016-05-08T09:33:42.000Z</time>
      </trkpt>
      <trkpt lat="43.18421" lon="5.61729">
        <ele>1</ele>
        <time>2016-05-08T09:33:45.000Z</time>
      </trkpt>
      <trkpt lat="43.18438" lon="5.61751">
        <ele>1.7999999523163</ele>
        <time>2016-05-08T09:33:50.000Z</time>
      </trkpt>
      <trkpt lat="43.18453" lon="5.61778">
        <ele>2.2000000476837</ele>
        <time>2016-05-08T09:33:56.000Z</time>
      </trkpt>
      <trkpt lat="43.18456" lon="5.61784">
        <ele>2.4000000953674</ele>
        <time>2016-05-08T09:33:57.000Z</time>
      </trkpt>
      <trkpt lat="43.18473" lon="5.61825">
        <ele>2.7999999523163</ele>
        <time>2016-05-08T09:34:04.000Z</time>
      </trkpt>
      <trkpt lat="43.18491" lon="5.61862">
        <ele>3.5999999046326</ele>
        <time>2016-05-08T09:34:10.000Z</time>
      </trkpt>
      <trkpt lat="43.18494" lon="5.61868">
        <ele>3.7999999523163</ele>
        <time>2016-05-08T09:34:11.000Z</time>
      </trkpt>
      <trkpt lat="43.18501" lon="5.61887">
        <ele>5</ele>
        <time>2016-05-08T09:34:15.000Z</time>
      </trkpt>
      <trkpt lat="43.18511" lon="5.61912">
        <ele>5</ele>
        <time>2016-05-08T09:34:19.000Z</time>
      </trkpt>
      <trkpt lat="43.18527" lon="5.61951">
        <ele>5.8000001907349</ele>
        <time>2016-05-08T09:34:24.000Z</time>
      </trkpt>
      <trkpt lat="43.18538" lon="5.61975">
        <ele>4.4000000953674</ele>
        <time>2016-05-08T09:34:27.000Z</time>
      </trkpt>
      <trkpt lat="43.18567" lon="5.62037">
        <ele>3.4000000953674</ele>
        <time>2016-05-08T09:34:35.000Z</time>
      </trkpt>
      <trkpt lat="43.1857" lon="5.62045">
        <ele>3.2000000476837</ele>
        <time>2016-05-08T09:34:36.000Z</time>
      </trkpt>
      <trkpt lat="43.18595" lon="5.62085">
        <ele>3.4000000953674</ele>
        <time>2016-05-08T09:34:42.000Z</time>
      </trkpt>
      <trkpt lat="43.1863" lon="5.62136">
        <ele>6</ele>
        <time>2016-05-08T09:34:50.000Z</time>
      </trkpt>
      <trkpt lat="43.18647" lon="5.6217">
        <ele>5.4000000953674</ele>
        <time>2016-05-08T09:34:55.000Z</time>
      </trkpt>
      <trkpt lat="43.18658" lon="5.62192">
        <ele>5</ele>
        <time>2016-05-08T09:34:58.000Z</time>
      </trkpt>
      <trkpt lat="43.18682" lon="5.62252">
        <ele>5</ele>
        <time>2016-05-08T09:35:06.000Z</time>
      </trkpt>
      <trkpt lat="43.18694" lon="5.62291">
        <ele>5</ele>
        <time>2016-05-08T09:35:11.000Z</time>
      </trkpt>
      <trkpt lat="43.18695" lon="5.62299">
        <ele>5</ele>
        <time>2016-05-08T09:35:12.000Z</time>
      </trkpt>
      <trkpt lat="43.18711" lon="5.62357">
        <ele>3.5999999046326</ele>
        <time>2016-05-08T09:35:19.000Z</time>
      </trkpt>
      <trkpt lat="43.18723" lon="5.62432">
        <ele>2</ele>
        <time>2016-05-08T09:35:28.000Z</time>
      </trkpt>
      <trkpt lat="43.18723" lon="5.6244">
        <ele>2</ele>
        <time>2016-05-08T09:35:29.000Z</time>
      </trkpt>
      <trkpt lat="43.18726" lon="5.62513">
        <ele>4</ele>
        <time>2016-05-08T09:35:38.000Z</time>
      </trkpt>
      <trkpt lat="43.18724" lon="5.62584">
        <ele>4.1999998092651</ele>
        <time>2016-05-08T09:35:47.000Z</time>
      </trkpt>
      <trkpt lat="43.18724" lon="5.62605">
        <ele>3.7999999523163</ele>
        <time>2016-05-08T09:35:50.000Z</time>
      </trkpt>
      <trkpt lat="43.18728" lon="5.62619">
        <ele>3.5999999046326</ele>
        <time>2016-05-08T09:35:52.000Z</time>
      </trkpt>
      <trkpt lat="43.18741" lon="5.62632">
        <ele>3.7999999523163</ele>
        <time>2016-05-08T09:35:55.000Z</time>
      </trkpt>
      <trkpt lat="43.18746" lon="5.62635">
        <ele>4</ele>
        <time>2016-05-08T09:35:56.000Z</time>
      </trkpt>
      <trkpt lat="43.18762" lon="5.62643">
        <ele>5</ele>
        <time>2016-05-08T09:35:59.000Z</time>
      </trkpt>
      <trkpt lat="43.18774" lon="5.62649">
        <ele>5.1999998092651</ele>
        <time>2016-05-08T09:36:01.000Z</time>
      </trkpt>
      <trkpt lat="43.18808" lon="5.62668">
        <ele>6</ele>
        <time>2016-05-08T09:36:07.000Z</time>
      </trkpt>
      <trkpt lat="43.18819" lon="5.62675">
        <ele>6.1999998092651</ele>
        <time>2016-05-08T09:36:09.000Z</time>
      </trkpt>
      <trkpt lat="43.18833" lon="5.62691">
        <ele>6.5999999046326</ele>
        <time>2016-05-08T09:36:12.000Z</time>
      </trkpt>
      <trkpt lat="43.18837" lon="5.62698">
        <ele>6.5999999046326</ele>
        <time>2016-05-08T09:36:13.000Z</time>
      </trkpt>
      <trkpt lat="43.18857" lon="5.6274">
        <ele>7.4000000953674</ele>
        <time>2016-05-08T09:36:19.000Z</time>
      </trkpt>
      <trkpt lat="43.18875" lon="5.6277">
        <ele>8</ele>
        <time>2016-05-08T09:36:25.000Z</time>
      </trkpt>
      <trkpt lat="43.18876" lon="5.62773">
        <ele>8</ele>
        <time>2016-05-08T09:36:27.000Z</time>
      </trkpt>
      <trkpt lat="43.18879" lon="5.6279">
        <ele>8.1999998092651</ele>
        <time>2016-05-08T09:36:30.000Z</time>
      </trkpt>
      <trkpt lat="43.18884" lon="5.62834">
        <ele>8</ele>
        <time>2016-05-08T09:36:36.000Z</time>
      </trkpt>
      <trkpt lat="43.18889" lon="5.62859">
        <ele>8.3999996185303</ele>
        <time>2016-05-08T09:36:39.000Z</time>
      </trkpt>
      <trkpt lat="43.18894" lon="5.62881">
        <ele>9</ele>
        <time>2016-05-08T09:36:42.000Z</time>
      </trkpt>
      <trkpt lat="43.18896" lon="5.62886">
        <ele>9.1999998092651</ele>
        <time>2016-05-08T09:36:44.000Z</time>
      </trkpt>
      <trkpt lat="43.18896" lon="5.62887">
        <ele>9.1999998092651</ele>
        <time>2016-05-08T09:36:45.000Z</time>
      </trkpt>
      <trkpt lat="43.18895" lon="5.62899">
        <ele>9.1999998092651</ele>
        <time>2016-05-08T09:36:50.000Z</time>
      </trkpt>
      <trkpt lat="43.18898" lon="5.62924">
        <ele>9</ele>
        <time>2016-05-08T09:36:54.000Z</time>
      </trkpt>
      <trkpt lat="43.18898" lon="5.6296">
        <ele>10</ele>
        <time>2016-05-08T09:36:58.000Z</time>
      </trkpt>
      <trkpt lat="43.18897" lon="5.6297">
        <ele>10.60000038147</ele>
        <time>2016-05-08T09:36:59.000Z</time>
      </trkpt>
      <trkpt lat="43.18883" lon="5.63004">
        <ele>11</ele>
        <time>2016-05-08T09:37:03.000Z</time>
      </trkpt>
      <trkpt lat="43.18861" lon="5.6307">
        <ele>7.4000000953674</ele>
        <time>2016-05-08T09:37:11.000Z</time>
      </trkpt>
      <trkpt lat="43.18851" lon="5.63119">
        <ele>5</ele>
        <time>2016-05-08T09:37:17.000Z</time>
      </trkpt>
      <trkpt lat="43.18838" lon="5.63192">
        <ele>6.4000000953674</ele>
        <time>2016-05-08T09:37:26.000Z</time>
      </trkpt>
      <trkpt lat="43.18828" lon="5.63241">
        <ele>5.8000001907349</ele>
        <time>2016-05-08T09:37:32.000Z</time>
      </trkpt>
      <trkpt lat="43.18828" lon="5.6325">
        <ele>5.5999999046326</ele>
        <time>2016-05-08T09:37:33.000Z</time>
      </trkpt>
      <trkpt lat="43.18833" lon="5.63282">
        <ele>5.5999999046326</ele>
        <time>2016-05-08T09:37:37.000Z</time>
      </trkpt>
      <trkpt lat="43.18836" lon="5.6329">
        <ele>5.5999999046326</ele>
        <time>2016-05-08T09:37:38.000Z</time>
      </trkpt>
      <trkpt lat="43.18844" lon="5.63304">
        <ele>5.8000001907349</ele>
        <time>2016-05-08T09:37:40.000Z</time>
      </trkpt>
      <trkpt lat="43.18851" lon="5.63319">
        <ele>5.8000001907349</ele>
        <time>2016-05-08T09:37:42.000Z</time>
      </trkpt>
      <trkpt lat="43.18873" lon="5.63364">
        <ele>5.8000001907349</ele>
        <time>2016-05-08T09:37:48.000Z</time>
      </trkpt>
      <trkpt lat="43.1888" lon="5.63378">
        <ele>5.8000001907349</ele>
        <time>2016-05-08T09:37:50.000Z</time>
      </trkpt>
      <trkpt lat="43.18889" lon="5.63389">
        <ele>6</ele>
        <time>2016-05-08T09:37:52.000Z</time>
      </trkpt>
      <trkpt lat="43.18893" lon="5.63391">
        <ele>6.4000000953674</ele>
        <time>2016-05-08T09:37:53.000Z</time>
      </trkpt>
      <trkpt lat="43.18905" lon="5.63401">
        <ele>7</ele>
        <time>2016-05-08T09:37:57.000Z</time>
      </trkpt>
      <trkpt lat="43.18911" lon="5.63427">
        <ele>6.8000001907349</ele>
        <time>2016-05-08T09:38:01.000Z</time>
      </trkpt>
      <trkpt lat="43.18921" lon="5.63458">
        <ele>6.8000001907349</ele>
        <time>2016-05-08T09:38:05.000Z</time>
      </trkpt>
      <trkpt lat="43.18927" lon="5.63474">
        <ele>7</ele>
        <time>2016-05-08T09:38:07.000Z</time>
      </trkpt>
      <trkpt lat="43.18951" lon="5.63526">
        <ele>8.1999998092651</ele>
        <time>2016-05-08T09:38:14.000Z</time>
      </trkpt>
      <trkpt lat="43.18958" lon="5.63541">
        <ele>8.6000003814697</ele>
        <time>2016-05-08T09:38:16.000Z</time>
      </trkpt>
      <trkpt lat="43.18987" lon="5.63608">
        <ele>7</ele>
        <time>2016-05-08T09:38:25.000Z</time>
      </trkpt>
      <trkpt lat="43.1899" lon="5.63615">
        <ele>6.8000001907349</ele>
        <time>2016-05-08T09:38:26.000Z</time>
      </trkpt>
      <trkpt lat="43.19013" lon="5.63677">
        <ele>6.5999999046326</ele>
        <time>2016-05-08T09:38:34.000Z</time>
      </trkpt>
      <trkpt lat="43.19034" lon="5.63742">
        <ele>8.1999998092651</ele>
        <time>2016-05-08T09:38:42.000Z</time>
      </trkpt>
      <trkpt lat="43.19053" lon="5.63816">
        <ele>11</ele>
        <time>2016-05-08T09:38:51.000Z</time>
      </trkpt>
      <trkpt lat="43.19058" lon="5.6384">
        <ele>11.39999961853</ele>
        <time>2016-05-08T09:38:54.000Z</time>
      </trkpt>
      <trkpt lat="43.19065" lon="5.63883">
        <ele>12.199999809265</ele>
        <time>2016-05-08T09:38:59.000Z</time>
      </trkpt>
      <trkpt lat="43.19066" lon="5.63909">
        <ele>12.199999809265</ele>
        <time>2016-05-08T09:39:02.000Z</time>
      </trkpt>
      <trkpt lat="43.19069" lon="5.6396">
        <ele>13</ele>
        <time>2016-05-08T09:39:08.000Z</time>
      </trkpt>
      <trkpt lat="43.1907" lon="5.64002">
        <ele>13.39999961853</ele>
        <time>2016-05-08T09:39:13.000Z</time>
      </trkpt>
      <trkpt lat="43.19071" lon="5.64044">
        <ele>12.60000038147</ele>
        <time>2016-05-08T09:39:18.000Z</time>
      </trkpt>
      <trkpt lat="43.19068" lon="5.64095">
        <ele>14.60000038147</ele>
        <time>2016-05-08T09:39:24.000Z</time>
      </trkpt>
      <trkpt lat="43.19062" lon="5.64128">
        <ele>14.39999961853</ele>
        <time>2016-05-08T09:39:28.000Z</time>
      </trkpt>
      <trkpt lat="43.19057" lon="5.64144">
        <ele>14</ele>
        <time>2016-05-08T09:39:30.000Z</time>
      </trkpt>
      <trkpt lat="43.19038" lon="5.64208">
        <ele>12.800000190735</ele>
        <time>2016-05-08T09:39:38.000Z</time>
      </trkpt>
      <trkpt lat="43.19011" lon="5.64276">
        <ele>13</ele>
        <time>2016-05-08T09:39:47.000Z</time>
      </trkpt>
      <trkpt lat="43.18997" lon="5.64312">
        <ele>13.60000038147</ele>
        <time>2016-05-08T09:39:52.000Z</time>
      </trkpt>
      <trkpt lat="43.18991" lon="5.64324">
        <ele>13.60000038147</ele>
        <time>2016-05-08T09:39:54.000Z</time>
      </trkpt>
      <trkpt lat="43.18978" lon="5.6433">
        <ele>12.199999809265</ele>
        <time>2016-05-08T09:39:57.000Z</time>
      </trkpt>
      <trkpt lat="43.18953" lon="5.64337">
        <ele>9.3999996185303</ele>
        <time>2016-05-08T09:40:01.000Z</time>
      </trkpt>
      <trkpt lat="43.18946" lon="5.6434">
        <ele>8.6000003814697</ele>
        <time>2016-05-08T09:40:02.000Z</time>
      </trkpt>
      <trkpt lat="43.18924" lon="5.64351">
        <ele>7</ele>
        <time>2016-05-08T09:40:05.000Z</time>
      </trkpt>
      <trkpt lat="43.18911" lon="5.64363">
        <ele>8</ele>
        <time>2016-05-08T09:40:07.000Z</time>
      </trkpt>
      <trkpt lat="43.18905" lon="5.6437">
        <ele>8.1999998092651</ele>
        <time>2016-05-08T09:40:08.000Z</time>
      </trkpt>
      <trkpt lat="43.18895" lon="5.64384">
        <ele>8.1999998092651</ele>
        <time>2016-05-08T09:40:10.000Z</time>
      </trkpt>
      <trkpt lat="43.18891" lon="5.64391">
        <ele>8.3999996185303</ele>
        <time>2016-05-08T09:40:11.000Z</time>
      </trkpt>
      <trkpt lat="43.18874" lon="5.64415">
        <ele>9.3999996185303</ele>
        <time>2016-05-08T09:40:15.000Z</time>
      </trkpt>
      <trkpt lat="43.18866" lon="5.64425">
        <ele>9</ele>
        <time>2016-05-08T09:40:17.000Z</time>
      </trkpt>
      <trkpt lat="43.18839" lon="5.64457">
        <ele>7.8000001907349</ele>
        <time>2016-05-08T09:40:24.000Z</time>
      </trkpt>
      <trkpt lat="43.18819" lon="5.64476">
        <ele>6</ele>
        <time>2016-05-08T09:40:29.000Z</time>
      </trkpt>
      <trkpt lat="43.18808" lon="5.64488">
        <ele>5.1999998092651</ele>
        <time>2016-05-08T09:40:32.000Z</time>
      </trkpt>
      <trkpt lat="43.18797" lon="5.64507">
        <ele>4.4000000953674</ele>
        <time>2016-05-08T09:40:36.000Z</time>
      </trkpt>
      <trkpt lat="43.18795" lon="5.64514">
        <ele>4</ele>
        <time>2016-05-08T09:40:37.000Z</time>
      </trkpt>
      <trkpt lat="43.18793" lon="5.64527">
        <ele>3.4000000953674</ele>
        <time>2016-05-08T09:40:39.000Z</time>
      </trkpt>
      <trkpt lat="43.18792" lon="5.64534">
        <ele>3</ele>
        <time>2016-05-08T09:40:40.000Z</time>
      </trkpt>
      <trkpt lat="43.1879" lon="5.64548">
        <ele>2.5999999046326</ele>
        <time>2016-05-08T09:40:42.000Z</time>
      </trkpt>
      <trkpt lat="43.18783" lon="5.64603">
        <ele>4.4000000953674</ele>
        <time>2016-05-08T09:40:50.000Z</time>
      </trkpt>
      <trkpt lat="43.18776" lon="5.64644">
        <ele>6.4000000953674</ele>
        <time>2016-05-08T09:40:56.000Z</time>
      </trkpt>
      <trkpt lat="43.18775" lon="5.64657">
        <ele>6</ele>
        <time>2016-05-08T09:40:58.000Z</time>
      </trkpt>
      <trkpt lat="43.18777" lon="5.64687">
        <ele>6.4000000953674</ele>
        <time>2016-05-08T09:41:04.000Z</time>
      </trkpt>
      <trkpt lat="43.18782" lon="5.64709">
        <ele>6.5999999046326</ele>
        <time>2016-05-08T09:41:11.000Z</time>
      </trkpt>
      <trkpt lat="43.18794" lon="5.64718">
        <ele>6.5999999046326</ele>
        <time>2016-05-08T09:41:16.000Z</time>
      </trkpt>
      <trkpt lat="43.18797" lon="5.6472">
        <ele>6</ele>
        <time>2016-05-08T09:41:17.000Z</time>
      </trkpt>
      <trkpt lat="43.18817" lon="5.64736">
        <ele>6.1999998092651</ele>
        <time>2016-05-08T09:41:24.000Z</time>
      </trkpt>
      <trkpt lat="43.18823" lon="5.64745">
        <ele>6.4000000953674</ele>
        <time>2016-05-08T09:41:26.000Z</time>
      </trkpt>
      <trkpt lat="43.18828" lon="5.64754">
        <ele>6.4000000953674</ele>
        <time>2016-05-08T09:41:28.000Z</time>
      </trkpt>
      <trkpt lat="43.18829" lon="5.6476">
        <ele>6.4000000953674</ele>
        <time>2016-05-08T09:41:29.000Z</time>
      </trkpt>
      <trkpt lat="43.18833" lon="5.64788">
        <ele>6.8000001907349</ele>
        <time>2016-05-08T09:41:34.000Z</time>
      </trkpt>
      <trkpt lat="43.18834" lon="5.64795">
        <ele>6.8000001907349</ele>
        <time>2016-05-08T09:41:35.000Z</time>
      </trkpt>
      <trkpt lat="43.18837" lon="5.64808">
        <ele>6.8000001907349</ele>
        <time>2016-05-08T09:41:37.000Z</time>
      </trkpt>
      <trkpt lat="43.18838" lon="5.64816">
        <ele>6.8000001907349</ele>
        <time>2016-05-08T09:41:38.000Z</time>
      </trkpt>
      <trkpt lat="43.1884" lon="5.64838">
        <ele>6.5999999046326</ele>
        <time>2016-05-08T09:41:41.000Z</time>
      </trkpt>
      <trkpt lat="43.18846" lon="5.64876">
        <ele>6.1999998092651</ele>
        <time>2016-05-08T09:41:46.000Z</time>
      </trkpt>
      <trkpt lat="43.18847" lon="5.64884">
        <ele>6</ele>
        <time>2016-05-08T09:41:47.000Z</time>
      </trkpt>
      <trkpt lat="43.1885" lon="5.64909">
        <ele>6.1999998092651</ele>
        <time>2016-05-08T09:41:50.000Z</time>
      </trkpt>
      <trkpt lat="43.18855" lon="5.64942">
        <ele>6.1999998092651</ele>
        <time>2016-05-08T09:41:54.000Z</time>
      </trkpt>
      <trkpt lat="43.18858" lon="5.64966">
        <ele>6.4000000953674</ele>
        <time>2016-05-08T09:41:57.000Z</time>
      </trkpt>
      <trkpt lat="43.18869" lon="5.65039">
        <ele>8.8000001907349</ele>
        <time>2016-05-08T09:42:06.000Z</time>
      </trkpt>
      <trkpt lat="43.18873" lon="5.6507">
        <ele>11.39999961853</ele>
        <time>2016-05-08T09:42:10.000Z</time>
      </trkpt>
      <trkpt lat="43.18877" lon="5.65109">
        <ele>15</ele>
        <time>2016-05-08T09:42:15.000Z</time>
      </trkpt>
      <trkpt lat="43.18878" lon="5.65116">
        <ele>15.60000038147</ele>
        <time>2016-05-08T09:42:16.000Z</time>
      </trkpt>
      <trkpt lat="43.1888" lon="5.65131">
        <ele>16.799999237061</ele>
        <time>2016-05-08T09:42:18.000Z</time>
      </trkpt>
      <trkpt lat="43.18884" lon="5.65158">
        <ele>21</ele>
        <time>2016-05-08T09:42:22.000Z</time>
      </trkpt>
      <trkpt lat="43.18886" lon="5.65171">
        <ele>23.39999961853</ele>
        <time>2016-05-08T09:42:24.000Z</time>
      </trkpt>
      <trkpt lat="43.18885" lon="5.65177">
        <ele>24.200000762939</ele>
        <time>2016-05-08T09:42:25.000Z</time>
      </trkpt>
      <trkpt lat="43.18882" lon="5.65183">
        <ele>24.60000038147</ele>
        <time>2016-05-08T09:42:26.000Z</time>
      </trkpt>
      <trkpt lat="43.18878" lon="5.65189">
        <ele>24.799999237061</ele>
        <time>2016-05-08T09:42:27.000Z</time>
      </trkpt>
      <trkpt lat="43.1887" lon="5.652">
        <ele>25</ele>
        <time>2016-05-08T09:42:29.000Z</time>
      </trkpt>
      <trkpt lat="43.18856" lon="5.65215">
        <ele>25</ele>
        <time>2016-05-08T09:42:32.000Z</time>
      </trkpt>
      <trkpt lat="43.18852" lon="5.65221">
        <ele>25</ele>
        <time>2016-05-08T09:42:33.000Z</time>
      </trkpt>
      <trkpt lat="43.18842" lon="5.65232">
        <ele>26.39999961853</ele>
        <time>2016-05-08T09:42:35.000Z</time>
      </trkpt>
      <trkpt lat="43.18828" lon="5.65249">
        <ele>27.200000762939</ele>
        <time>2016-05-08T09:42:38.000Z</time>
      </trkpt>
      <trkpt lat="43.18813" lon="5.65266">
        <ele>27.799999237061</ele>
        <time>2016-05-08T09:42:41.000Z</time>
      </trkpt>
      <trkpt lat="43.18808" lon="5.65272">
        <ele>27.799999237061</ele>
        <time>2016-05-08T09:42:42.000Z</time>
      </trkpt>
      <trkpt lat="43.18803" lon="5.65278">
        <ele>27.60000038147</ele>
        <time>2016-05-08T09:42:43.000Z</time>
      </trkpt>
      <trkpt lat="43.18789" lon="5.65294">
        <ele>26.799999237061</ele>
        <time>2016-05-08T09:42:46.000Z</time>
      </trkpt>
      <trkpt lat="43.18769" lon="5.65316">
        <ele>24</ele>
        <time>2016-05-08T09:42:50.000Z</time>
      </trkpt>
      <trkpt lat="43.18764" lon="5.65321">
        <ele>24</ele>
        <time>2016-05-08T09:42:51.000Z</time>
      </trkpt>
      <trkpt lat="43.1875" lon="5.65338">
        <ele>24.39999961853</ele>
        <time>2016-05-08T09:42:54.000Z</time>
      </trkpt>
      <trkpt lat="43.1874" lon="5.65349">
        <ele>24.60000038147</ele>
        <time>2016-05-08T09:42:56.000Z</time>
      </trkpt>
      <trkpt lat="43.1873" lon="5.65361">
        <ele>25</ele>
        <time>2016-05-08T09:42:58.000Z</time>
      </trkpt>
      <trkpt lat="43.18722" lon="5.65374">
        <ele>25.60000038147</ele>
        <time>2016-05-08T09:43:00.000Z</time>
      </trkpt>
      <trkpt lat="43.18712" lon="5.65395">
        <ele>26.799999237061</ele>
        <time>2016-05-08T09:43:03.000Z</time>
      </trkpt>
      <trkpt lat="43.18709" lon="5.65403">
        <ele>27</ele>
        <time>2016-05-08T09:43:04.000Z</time>
      </trkpt>
      <trkpt lat="43.18697" lon="5.65434">
        <ele>27.60000038147</ele>
        <time>2016-05-08T09:43:08.000Z</time>
      </trkpt>
      <trkpt lat="43.18689" lon="5.65459">
        <ele>28</ele>
        <time>2016-05-08T09:43:11.000Z</time>
      </trkpt>
      <trkpt lat="43.18682" lon="5.6551">
        <ele>27</ele>
        <time>2016-05-08T09:43:17.000Z</time>
      </trkpt>
      <trkpt lat="43.18679" lon="5.65543">
        <ele>26.39999961853</ele>
        <time>2016-05-08T09:43:21.000Z</time>
      </trkpt>
      <trkpt lat="43.18677" lon="5.65578">
        <ele>25.60000038147</ele>
        <time>2016-05-08T09:43:25.000Z</time>
      </trkpt>
      <trkpt lat="43.18672" lon="5.65647">
        <ele>24.60000038147</ele>
        <time>2016-05-08T09:43:33.000Z</time>
      </trkpt>
      <trkpt lat="43.18668" lon="5.65691">
        <ele>24.799999237061</ele>
        <time>2016-05-08T09:43:38.000Z</time>
      </trkpt>
      <trkpt lat="43.18663" lon="5.65715">
        <ele>25.60000038147</ele>
        <time>2016-05-08T09:43:41.000Z</time>
      </trkpt>
      <trkpt lat="43.18649" lon="5.65769">
        <ele>25.799999237061</ele>
        <time>2016-05-08T09:43:48.000Z</time>
      </trkpt>
      <trkpt lat="43.18634" lon="5.65816">
        <ele>27.799999237061</ele>
        <time>2016-05-08T09:43:54.000Z</time>
      </trkpt>
      <trkpt lat="43.18624" lon="5.65849">
        <ele>27.39999961853</ele>
        <time>2016-05-08T09:43:58.000Z</time>
      </trkpt>
      <trkpt lat="43.18601" lon="5.6592">
        <ele>24.60000038147</ele>
        <time>2016-05-08T09:44:07.000Z</time>
      </trkpt>
      <trkpt lat="43.18598" lon="5.65929">
        <ele>24</ele>
        <time>2016-05-08T09:44:08.000Z</time>
      </trkpt>
      <trkpt lat="43.18596" lon="5.65937">
        <ele>23.39999961853</ele>
        <time>2016-05-08T09:44:09.000Z</time>
      </trkpt>
      <trkpt lat="43.18583" lon="5.65977">
        <ele>21.60000038147</ele>
        <time>2016-05-08T09:44:14.000Z</time>
      </trkpt>
      <trkpt lat="43.18574" lon="5.66009">
        <ele>21.60000038147</ele>
        <time>2016-05-08T09:44:18.000Z</time>
      </trkpt>
      <trkpt lat="43.18572" lon="5.66017">
        <ele>21.60000038147</ele>
        <time>2016-05-08T09:44:19.000Z</time>
      </trkpt>
      <trkpt lat="43.1856" lon="5.66056">
        <ele>22.60000038147</ele>
        <time>2016-05-08T09:44:24.000Z</time>
      </trkpt>
      <trkpt lat="43.18551" lon="5.66088">
        <ele>22.60000038147</ele>
        <time>2016-05-08T09:44:28.000Z</time>
      </trkpt>
      <trkpt lat="43.18548" lon="5.66096">
        <ele>22.200000762939</ele>
        <time>2016-05-08T09:44:29.000Z</time>
      </trkpt>
      <trkpt lat="43.18542" lon="5.66112">
        <ele>21.200000762939</ele>
        <time>2016-05-08T09:44:31.000Z</time>
      </trkpt>
      <trkpt lat="43.1853" lon="5.66143">
        <ele>20</ele>
        <time>2016-05-08T09:44:35.000Z</time>
      </trkpt>
      <trkpt lat="43.18519" lon="5.66165">
        <ele>19.799999237061</ele>
        <time>2016-05-08T09:44:38.000Z</time>
      </trkpt>
      <trkpt lat="43.18514" lon="5.6617">
        <ele>19.799999237061</ele>
        <time>2016-05-08T09:44:39.000Z</time>
      </trkpt>
      <trkpt lat="43.18504" lon="5.66182">
        <ele>19.39999961853</ele>
        <time>2016-05-08T09:44:41.000Z</time>
      </trkpt>
      <trkpt lat="43.18498" lon="5.66188">
        <ele>19.200000762939</ele>
        <time>2016-05-08T09:44:42.000Z</time>
      </trkpt>
      <trkpt lat="43.18466" lon="5.66215">
        <ele>15.199999809265</ele>
        <time>2016-05-08T09:44:47.000Z</time>
      </trkpt>
      <trkpt lat="43.18447" lon="5.66231">
        <ele>13.39999961853</ele>
        <time>2016-05-08T09:44:50.000Z</time>
      </trkpt>
      <trkpt lat="43.18429" lon="5.66246">
        <ele>13.39999961853</ele>
        <time>2016-05-08T09:44:53.000Z</time>
      </trkpt>
      <trkpt lat="43.18424" lon="5.6625">
        <ele>13.199999809265</ele>
        <time>2016-05-08T09:44:54.000Z</time>
      </trkpt>
      <trkpt lat="43.18404" lon="5.66269">
        <ele>13.199999809265</ele>
        <time>2016-05-08T09:44:59.000Z</time>
      </trkpt>
      <trkpt lat="43.18386" lon="5.66298">
        <ele>12.800000190735</ele>
        <time>2016-05-08T09:45:05.000Z</time>
      </trkpt>
      <trkpt lat="43.18384" lon="5.66304">
        <ele>12.800000190735</ele>
        <time>2016-05-08T09:45:06.000Z</time>
      </trkpt>
      <trkpt lat="43.18378" lon="5.66319">
        <ele>12.199999809265</ele>
        <time>2016-05-08T09:45:09.000Z</time>
      </trkpt>
      <trkpt lat="43.18374" lon="5.6633">
        <ele>11.800000190735</ele>
        <time>2016-05-08T09:45:11.000Z</time>
      </trkpt>
      <trkpt lat="43.18369" lon="5.66344">
        <ele>12</ele>
        <time>2016-05-08T09:45:13.000Z</time>
      </trkpt>
      <trkpt lat="43.18358" lon="5.66378">
        <ele>13</ele>
        <time>2016-05-08T09:45:18.000Z</time>
      </trkpt>
      <trkpt lat="43.18339" lon="5.66431">
        <ele>14.800000190735</ele>
        <time>2016-05-08T09:45:26.000Z</time>
      </trkpt>
      <trkpt lat="43.18324" lon="5.66461">
        <ele>16</ele>
        <time>2016-05-08T09:45:31.000Z</time>
      </trkpt>
      <trkpt lat="43.18319" lon="5.66466">
        <ele>16.200000762939</ele>
        <time>2016-05-08T09:45:32.000Z</time>
      </trkpt>
      <trkpt lat="43.18294" lon="5.66487">
        <ele>18.200000762939</ele>
        <time>2016-05-08T09:45:38.000Z</time>
      </trkpt>
      <trkpt lat="43.18291" lon="5.66491">
        <ele>18.60000038147</ele>
        <time>2016-05-08T09:45:39.000Z</time>
      </trkpt>
      <trkpt lat="43.18284" lon="5.66499">
        <ele>18.799999237061</ele>
        <time>2016-05-08T09:45:41.000Z</time>
      </trkpt>
      <trkpt lat="43.18282" lon="5.66504">
        <ele>18.60000038147</ele>
        <time>2016-05-08T09:45:42.000Z</time>
      </trkpt>
      <trkpt lat="43.1828" lon="5.6651">
        <ele>18.39999961853</ele>
        <time>2016-05-08T09:45:43.000Z</time>
      </trkpt>
      <trkpt lat="43.18277" lon="5.66522">
        <ele>18</ele>
        <time>2016-05-08T09:45:45.000Z</time>
      </trkpt>
      <trkpt lat="43.18275" lon="5.66541">
        <ele>17.39999961853</ele>
        <time>2016-05-08T09:45:48.000Z</time>
      </trkpt>
      <trkpt lat="43.18275" lon="5.66548">
        <ele>17.39999961853</ele>
        <time>2016-05-08T09:45:49.000Z</time>
      </trkpt>
      <trkpt lat="43.18272" lon="5.66588">
        <ele>17.39999961853</ele>
        <time>2016-05-08T09:45:55.000Z</time>
      </trkpt>
      <trkpt lat="43.18271" lon="5.666">
        <ele>17.200000762939</ele>
        <time>2016-05-08T09:45:57.000Z</time>
      </trkpt>
      <trkpt lat="43.18269" lon="5.66624">
        <ele>16.60000038147</ele>
        <time>2016-05-08T09:46:01.000Z</time>
      </trkpt>
      <trkpt lat="43.18267" lon="5.66643">
        <ele>16</ele>
        <time>2016-05-08T09:46:04.000Z</time>
      </trkpt>
      <trkpt lat="43.18266" lon="5.6665">
        <ele>16.200000762939</ele>
        <time>2016-05-08T09:46:05.000Z</time>
      </trkpt>
      <trkpt lat="43.1826" lon="5.66685">
        <ele>17.39999961853</ele>
        <time>2016-05-08T09:46:11.000Z</time>
      </trkpt>
      <trkpt lat="43.18247" lon="5.66727">
        <ele>17.39999961853</ele>
        <time>2016-05-08T09:46:20.000Z</time>
      </trkpt>
      <trkpt lat="43.18239" lon="5.66749">
        <ele>17</ele>
        <time>2016-05-08T09:46:27.000Z</time>
      </trkpt>
      <trkpt lat="43.18229" lon="5.66767">
        <ele>16.200000762939</ele>
        <time>2016-05-08T09:46:32.000Z</time>
      </trkpt>
      <trkpt lat="43.18211" lon="5.66793">
        <ele>14.199999809265</ele>
        <time>2016-05-08T09:46:38.000Z</time>
      </trkpt>
      <trkpt lat="43.18203" lon="5.66804">
        <ele>13.199999809265</ele>
        <time>2016-05-08T09:46:41.000Z</time>
      </trkpt>
      <trkpt lat="43.18198" lon="5.66811">
        <ele>12.39999961853</ele>
        <time>2016-05-08T09:46:44.000Z</time>
      </trkpt>
      <trkpt lat="43.18196" lon="5.66816">
        <ele>12</ele>
        <time>2016-05-08T09:46:46.000Z</time>
      </trkpt>
      <trkpt lat="43.18188" lon="5.66825">
        <ele>12</ele>
        <time>2016-05-08T09:46:50.000Z</time>
      </trkpt>
      <trkpt lat="43.18186" lon="5.66828">
        <ele>12.199999809265</ele>
        <time>2016-05-08T09:46:51.000Z</time>
      </trkpt>
      <trkpt lat="43.18172" lon="5.66851">
        <ele>14</ele>
        <time>2016-05-08T09:46:57.000Z</time>
      </trkpt>
      <trkpt lat="43.18168" lon="5.66857">
        <ele>14.39999961853</ele>
        <time>2016-05-08T09:46:58.000Z</time>
      </trkpt>
      <trkpt lat="43.18155" lon="5.66876">
        <ele>16</ele>
        <time>2016-05-08T09:47:01.000Z</time>
      </trkpt>
      <trkpt lat="43.18145" lon="5.66888">
        <ele>17</ele>
        <time>2016-05-08T09:47:03.000Z</time>
      </trkpt>
      <trkpt lat="43.1813" lon="5.66907">
        <ele>17</ele>
        <time>2016-05-08T09:47:06.000Z</time>
      </trkpt>
      <trkpt lat="43.18116" lon="5.66928">
        <ele>16</ele>
        <time>2016-05-08T09:47:09.000Z</time>
      </trkpt>
      <trkpt lat="43.18108" lon="5.66945">
        <ele>14.800000190735</ele>
        <time>2016-05-08T09:47:11.000Z</time>
      </trkpt>
      <trkpt lat="43.18105" lon="5.66955">
        <ele>14.199999809265</ele>
        <time>2016-05-08T09:47:12.000Z</time>
      </trkpt>
      <trkpt lat="43.18103" lon="5.66966">
        <ele>13.60000038147</ele>
        <time>2016-05-08T09:47:13.000Z</time>
      </trkpt>
      <trkpt lat="43.18095" lon="5.66996">
        <ele>14.199999809265</ele>
        <time>2016-05-08T09:47:16.000Z</time>
      </trkpt>
      <trkpt lat="43.1809" lon="5.67014">
        <ele>15</ele>
        <time>2016-05-08T09:47:18.000Z</time>
      </trkpt>
      <trkpt lat="43.18086" lon="5.67029">
        <ele>15.39999961853</ele>
        <time>2016-05-08T09:47:20.000Z</time>
      </trkpt>
      <trkpt lat="43.18077" lon="5.67066">
        <ele>16.39999961853</ele>
        <time>2016-05-08T09:47:26.000Z</time>
      </trkpt>
      <trkpt lat="43.18072" lon="5.67094">
        <ele>17.39999961853</ele>
        <time>2016-05-08T09:47:31.000Z</time>
      </trkpt>
      <trkpt lat="43.18071" lon="5.67105">
        <ele>17.799999237061</ele>
        <time>2016-05-08T09:47:33.000Z</time>
      </trkpt>
      <trkpt lat="43.1807" lon="5.67115">
        <ele>18.200000762939</ele>
        <time>2016-05-08T09:47:35.000Z</time>
      </trkpt>
      <trkpt lat="43.18067" lon="5.67136">
        <ele>19</ele>
        <time>2016-05-08T09:47:39.000Z</time>
      </trkpt>
      <trkpt lat="43.18067" lon="5.67152">
        <ele>19.200000762939</ele>
        <time>2016-05-08T09:47:42.000Z</time>
      </trkpt>
      <trkpt lat="43.18069" lon="5.67167">
        <ele>19.60000038147</ele>
        <time>2016-05-08T09:47:45.000Z</time>
      </trkpt>
      <trkpt lat="43.18072" lon="5.67177">
        <ele>19.799999237061</ele>
        <time>2016-05-08T09:47:48.000Z</time>
      </trkpt>
      <trkpt lat="43.18073" lon="5.67187">
        <ele>20</ele>
        <time>2016-05-08T09:47:51.000Z</time>
      </trkpt>
      <trkpt lat="43.18071" lon="5.67191">
        <ele>20</ele>
        <time>2016-05-08T09:47:52.000Z</time>
      </trkpt>
      <trkpt lat="43.18064" lon="5.67209">
        <ele>20.60000038147</ele>
        <time>2016-05-08T09:47:56.000Z</time>
      </trkpt>
      <trkpt lat="43.1806" lon="5.67219">
        <ele>21.200000762939</ele>
        <time>2016-05-08T09:47:58.000Z</time>
      </trkpt>
      <trkpt lat="43.18054" lon="5.67242">
        <ele>22</ele>
        <time>2016-05-08T09:48:02.000Z</time>
      </trkpt>
      <trkpt lat="43.18047" lon="5.67271">
        <ele>23.39999961853</ele>
        <time>2016-05-08T09:48:07.000Z</time>
      </trkpt>
      <trkpt lat="43.18037" lon="5.67323">
        <ele>24.60000038147</ele>
        <time>2016-05-08T09:48:16.000Z</time>
      </trkpt>
      <trkpt lat="43.18035" lon="5.67333">
        <ele>24.39999961853</ele>
        <time>2016-05-08T09:48:18.000Z</time>
      </trkpt>
      <trkpt lat="43.18029" lon="5.67367">
        <ele>23.799999237061</ele>
        <time>2016-05-08T09:48:24.000Z</time>
      </trkpt>
      <trkpt lat="43.18025" lon="5.6741">
        <ele>22.799999237061</ele>
        <time>2016-05-08T09:48:31.000Z</time>
      </trkpt>
      <trkpt lat="43.1802" lon="5.67437">
        <ele>20.60000038147</ele>
        <time>2016-05-08T09:48:35.000Z</time>
      </trkpt>
      <trkpt lat="43.18016" lon="5.6746">
        <ele>19</ele>
        <time>2016-05-08T09:48:38.000Z</time>
      </trkpt>
      <trkpt lat="43.18012" lon="5.67485">
        <ele>17.60000038147</ele>
        <time>2016-05-08T09:48:41.000Z</time>
      </trkpt>
      <trkpt lat="43.18008" lon="5.67511">
        <ele>16.60000038147</ele>
        <time>2016-05-08T09:48:44.000Z</time>
      </trkpt>
      <trkpt lat="43.18003" lon="5.67537">
        <ele>15.60000038147</ele>
        <time>2016-05-08T09:48:47.000Z</time>
      </trkpt>
      <trkpt lat="43.17995" lon="5.67588">
        <ele>15.199999809265</ele>
        <time>2016-05-08T09:48:53.000Z</time>
      </trkpt>
      <trkpt lat="43.17994" lon="5.67596">
        <ele>15.39999961853</ele>
        <time>2016-05-08T09:48:54.000Z</time>
      </trkpt>
      <trkpt lat="43.17988" lon="5.67636">
        <ele>14.800000190735</ele>
        <time>2016-05-08T09:48:59.000Z</time>
      </trkpt>
      <trkpt lat="43.17981" lon="5.6768">
        <ele>13.60000038147</ele>
        <time>2016-05-08T09:49:05.000Z</time>
      </trkpt>
      <trkpt lat="43.17974" lon="5.6774">
        <ele>12</ele>
        <time>2016-05-08T09:49:13.000Z</time>
      </trkpt>
      <trkpt lat="43.17973" lon="5.67764">
        <ele>10.60000038147</ele>
        <time>2016-05-08T09:49:16.000Z</time>
      </trkpt>
      <trkpt lat="43.17973" lon="5.67798">
        <ele>9.8000001907349</ele>
        <time>2016-05-08T09:49:20.000Z</time>
      </trkpt>
      <trkpt lat="43.17975" lon="5.67807">
        <ele>9.6000003814697</ele>
        <time>2016-05-08T09:49:21.000Z</time>
      </trkpt>
      <trkpt lat="43.17977" lon="5.67816">
        <ele>9.1999998092651</ele>
        <time>2016-05-08T09:49:22.000Z</time>
      </trkpt>
      <trkpt lat="43.17985" lon="5.67843">
        <ele>8</ele>
        <time>2016-05-08T09:49:25.000Z</time>
      </trkpt>
      <trkpt lat="43.17988" lon="5.67861">
        <ele>7.1999998092651</ele>
        <time>2016-05-08T09:49:27.000Z</time>
      </trkpt>
      <trkpt lat="43.17988" lon="5.6787">
        <ele>6.5999999046326</ele>
        <time>2016-05-08T09:49:28.000Z</time>
      </trkpt>
      <trkpt lat="43.17985" lon="5.67888">
        <ele>5.8000001907349</ele>
        <time>2016-05-08T09:49:30.000Z</time>
      </trkpt>
      <trkpt lat="43.17983" lon="5.67897">
        <ele>5.5999999046326</ele>
        <time>2016-05-08T09:49:31.000Z</time>
      </trkpt>
      <trkpt lat="43.17986" lon="5.67924">
        <ele>5.8000001907349</ele>
        <time>2016-05-08T09:49:34.000Z</time>
      </trkpt>
      <trkpt lat="43.17989" lon="5.67945">
        <ele>6</ele>
        <time>2016-05-08T09:49:37.000Z</time>
      </trkpt>
      <trkpt lat="43.17991" lon="5.67957">
        <ele>5.8000001907349</ele>
        <time>2016-05-08T09:49:39.000Z</time>
      </trkpt>
      <trkpt lat="43.17995" lon="5.67984">
        <ele>5.5999999046326</ele>
        <time>2016-05-08T09:49:44.000Z</time>
      </trkpt>
      <trkpt lat="43.17996" lon="5.67989">
        <ele>5.8000001907349</ele>
        <time>2016-05-08T09:49:45.000Z</time>
      </trkpt>
      <trkpt lat="43.17998" lon="5.68">
        <ele>5.8000001907349</ele>
        <time>2016-05-08T09:49:47.000Z</time>
      </trkpt>
      <trkpt lat="43.18004" lon="5.68026">
        <ele>6.4000000953674</ele>
        <time>2016-05-08T09:49:52.000Z</time>
      </trkpt>
      <trkpt lat="43.18011" lon="5.68073">
        <ele>7</ele>
        <time>2016-05-08T09:50:01.000Z</time>
      </trkpt>
      <trkpt lat="43.18012" lon="5.68078">
        <ele>7</ele>
        <time>2016-05-08T09:50:02.000Z</time>
      </trkpt>
      <trkpt lat="43.18019" lon="5.68121">
        <ele>7.8000001907349</ele>
        <time>2016-05-08T09:50:11.000Z</time>
      </trkpt>
      <trkpt lat="43.18021" lon="5.68125">
        <ele>8</ele>
        <time>2016-05-08T09:50:13.000Z</time>
      </trkpt>
      <trkpt lat="43.18023" lon="5.68121">
        <ele>8.1999998092651</ele>
        <time>2016-05-08T09:50:15.000Z</time>
      </trkpt>
      <trkpt lat="43.18022" lon="5.68107">
        <ele>8</ele>
        <time>2016-05-08T09:50:19.000Z</time>
      </trkpt>
      <trkpt lat="43.18021" lon="5.68102">
        <ele>8</ele>
        <time>2016-05-08T09:50:20.000Z</time>
      </trkpt>
      <trkpt lat="43.18011" lon="5.68054">
        <ele>7</ele>
        <time>2016-05-08T09:50:29.000Z</time>
      </trkpt>
      <trkpt lat="43.18004" lon="5.68007">
        <ele>6.4000000953674</ele>
        <time>2016-05-08T09:50:37.000Z</time>
      </trkpt>
      <trkpt lat="43.17997" lon="5.67967">
        <ele>5.8000001907349</ele>
        <time>2016-05-08T09:50:43.000Z</time>
      </trkpt>
      <trkpt lat="43.17993" lon="5.67947">
        <ele>6.1999998092651</ele>
        <time>2016-05-08T09:50:46.000Z</time>
      </trkpt>
      <trkpt lat="43.17986" lon="5.67898">
        <ele>5.8000001907349</ele>
        <time>2016-05-08T09:50:54.000Z</time>
      </trkpt>
      <trkpt lat="43.17986" lon="5.67892">
        <ele>5.8000001907349</ele>
        <time>2016-05-08T09:50:55.000Z</time>
      </trkpt>
      <trkpt lat="43.17988" lon="5.67881">
        <ele>6.1999998092651</ele>
        <time>2016-05-08T09:50:57.000Z</time>
      </trkpt>
      <trkpt lat="43.1799" lon="5.67877">
        <ele>6.4000000953674</ele>
        <time>2016-05-08T09:50:58.000Z</time>
      </trkpt>
      <trkpt lat="43.18002" lon="5.67876">
        <ele>7</ele>
        <time>2016-05-08T09:51:01.000Z</time>
      </trkpt>
      <trkpt lat="43.18007" lon="5.67887">
        <ele>6.8000001907349</ele>
        <time>2016-05-08T09:51:03.000Z</time>
      </trkpt>
      <trkpt lat="43.18009" lon="5.67917">
        <ele>6.8000001907349</ele>
        <time>2016-05-08T09:51:07.000Z</time>
      </trkpt>
      <trkpt lat="43.18012" lon="5.67939">
        <ele>7</ele>
        <time>2016-05-08T09:51:10.000Z</time>
      </trkpt>
      <trkpt lat="43.18014" lon="5.67945">
        <ele>7.4000000953674</ele>
        <time>2016-05-08T09:51:11.000Z</time>
      </trkpt>
      <trkpt lat="43.18016" lon="5.67952">
        <ele>7.8000001907349</ele>
        <time>2016-05-08T09:51:12.000Z</time>
      </trkpt>
      <trkpt lat="43.18031" lon="5.67989">
        <ele>10.199999809265</ele>
        <time>2016-05-08T09:51:18.000Z</time>
      </trkpt>
      <trkpt lat="43.18036" lon="5.68001">
        <ele>11</ele>
        <time>2016-05-08T09:51:20.000Z</time>
      </trkpt>
      <trkpt lat="43.18042" lon="5.68012">
        <ele>11.800000190735</ele>
        <time>2016-05-08T09:51:22.000Z</time>
      </trkpt>
      <trkpt lat="43.18059" lon="5.68047">
        <ele>14.39999961853</ele>
        <time>2016-05-08T09:51:28.000Z</time>
      </trkpt>
      <trkpt lat="43.18065" lon="5.68059">
        <ele>15</ele>
        <time>2016-05-08T09:51:30.000Z</time>
      </trkpt>
      <trkpt lat="43.18084" lon="5.68101">
        <ele>16</ele>
        <time>2016-05-08T09:51:37.000Z</time>
      </trkpt>
      <trkpt lat="43.18087" lon="5.68107">
        <ele>16.200000762939</ele>
        <time>2016-05-08T09:51:38.000Z</time>
      </trkpt>
      <trkpt lat="43.18104" lon="5.68143">
        <ele>16.799999237061</ele>
        <time>2016-05-08T09:51:44.000Z</time>
      </trkpt>
      <trkpt lat="43.1811" lon="5.68155">
        <ele>17</ele>
        <time>2016-05-08T09:51:46.000Z</time>
      </trkpt>
      <trkpt lat="43.18123" lon="5.68186">
        <ele>18</ele>
        <time>2016-05-08T09:51:51.000Z</time>
      </trkpt>
      <trkpt lat="43.18132" lon="5.68204">
        <ele>18.60000038147</ele>
        <time>2016-05-08T09:51:54.000Z</time>
      </trkpt>
      <trkpt lat="43.18146" lon="5.68234">
        <ele>18.799999237061</ele>
        <time>2016-05-08T09:51:59.000Z</time>
      </trkpt>
      <trkpt lat="43.18163" lon="5.68271">
        <ele>17.799999237061</ele>
        <time>2016-05-08T09:52:05.000Z</time>
      </trkpt>
      <trkpt lat="43.1818" lon="5.68308">
        <ele>17</ele>
        <time>2016-05-08T09:52:11.000Z</time>
      </trkpt>
      <trkpt lat="43.18191" lon="5.68332">
        <ele>16.799999237061</ele>
        <time>2016-05-08T09:52:15.000Z</time>
      </trkpt>
      <trkpt lat="43.18219" lon="5.68391">
        <ele>16.200000762939</ele>
        <time>2016-05-08T09:52:25.000Z</time>
      </trkpt>
      <trkpt lat="43.1824" lon="5.68435">
        <ele>14.800000190735</ele>
        <time>2016-05-08T09:52:33.000Z</time>
      </trkpt>
      <trkpt lat="43.18265" lon="5.68488">
        <ele>14.199999809265</ele>
        <time>2016-05-08T09:52:42.000Z</time>
      </trkpt>
      <trkpt lat="43.1828" lon="5.68522">
        <ele>15.199999809265</ele>
        <time>2016-05-08T09:52:48.000Z</time>
      </trkpt>
      <trkpt lat="43.18281" lon="5.68527">
        <ele>15.199999809265</ele>
        <time>2016-05-08T09:52:49.000Z</time>
      </trkpt>
      <trkpt lat="43.18287" lon="5.68544">
        <ele>15.60000038147</ele>
        <time>2016-05-08T09:52:52.000Z</time>
      </trkpt>
      <trkpt lat="43.18291" lon="5.68548">
        <ele>15.800000190735</ele>
        <time>2016-05-08T09:52:53.000Z</time>
      </trkpt>
      <trkpt lat="43.18295" lon="5.68552">
        <ele>16</ele>
        <time>2016-05-08T09:52:54.000Z</time>
      </trkpt>
      <trkpt lat="43.18299" lon="5.68557">
        <ele>16</ele>
        <time>2016-05-08T09:52:55.000Z</time>
      </trkpt>
      <trkpt lat="43.18302" lon="5.68562">
        <ele>16</ele>
        <time>2016-05-08T09:52:56.000Z</time>
      </trkpt>
      <trkpt lat="43.1831" lon="5.6858">
        <ele>16</ele>
        <time>2016-05-08T09:52:59.000Z</time>
      </trkpt>
      <trkpt lat="43.18312" lon="5.68587">
        <ele>15.800000190735</ele>
        <time>2016-05-08T09:53:00.000Z</time>
      </trkpt>
      <trkpt lat="43.18315" lon="5.68594">
        <ele>15.800000190735</ele>
        <time>2016-05-08T09:53:01.000Z</time>
      </trkpt>
      <trkpt lat="43.1833" lon="5.68643">
        <ele>15.800000190735</ele>
        <time>2016-05-08T09:53:08.000Z</time>
      </trkpt>
      <trkpt lat="43.18337" lon="5.68694">
        <ele>16.60000038147</ele>
        <time>2016-05-08T09:53:15.000Z</time>
      </trkpt>
      <trkpt lat="43.18337" lon="5.68725">
        <ele>17.39999961853</ele>
        <time>2016-05-08T09:53:19.000Z</time>
      </trkpt>
      <trkpt lat="43.18336" lon="5.68754">
        <ele>18.60000038147</ele>
        <time>2016-05-08T09:53:23.000Z</time>
      </trkpt>
      <trkpt lat="43.18331" lon="5.68797">
        <ele>20.200000762939</ele>
        <time>2016-05-08T09:53:30.000Z</time>
      </trkpt>
      <trkpt lat="43.18317" lon="5.68827">
        <ele>19.60000038147</ele>
        <time>2016-05-08T09:53:36.000Z</time>
      </trkpt>
      <trkpt lat="43.18312" lon="5.68836">
        <ele>19.200000762939</ele>
        <time>2016-05-08T09:53:38.000Z</time>
      </trkpt>
      <trkpt lat="43.1829" lon="5.68877">
        <ele>17.799999237061</ele>
        <time>2016-05-08T09:53:46.000Z</time>
      </trkpt>
      <trkpt lat="43.18264" lon="5.68911">
        <ele>16.60000038147</ele>
        <time>2016-05-08T09:53:54.000Z</time>
      </trkpt>
      <trkpt lat="43.18248" lon="5.68933">
        <ele>14.800000190735</ele>
        <time>2016-05-08T09:53:59.000Z</time>
      </trkpt>
      <trkpt lat="43.18237" lon="5.68947">
        <ele>13.60000038147</ele>
        <time>2016-05-08T09:54:02.000Z</time>
      </trkpt>
      <trkpt lat="43.18229" lon="5.68956">
        <ele>12.60000038147</ele>
        <time>2016-05-08T09:54:04.000Z</time>
      </trkpt>
      <trkpt lat="43.18203" lon="5.68984">
        <ele>11</ele>
        <time>2016-05-08T09:54:10.000Z</time>
      </trkpt>
      <trkpt lat="43.1819" lon="5.68999">
        <ele>10.60000038147</ele>
        <time>2016-05-08T09:54:13.000Z</time>
      </trkpt>
      <trkpt lat="43.1816" lon="5.69031">
        <ele>10.60000038147</ele>
        <time>2016-05-08T09:54:20.000Z</time>
      </trkpt>
      <trkpt lat="43.18147" lon="5.69047">
        <ele>10.60000038147</ele>
        <time>2016-05-08T09:54:23.000Z</time>
      </trkpt>
      <trkpt lat="43.18135" lon="5.6906">
        <ele>10.39999961853</ele>
        <time>2016-05-08T09:54:26.000Z</time>
      </trkpt>
      <trkpt lat="43.18131" lon="5.69064">
        <ele>10.39999961853</ele>
        <time>2016-05-08T09:54:27.000Z</time>
      </trkpt>
      <trkpt lat="43.18099" lon="5.69096">
        <ele>10.60000038147</ele>
        <time>2016-05-08T09:54:35.000Z</time>
      </trkpt>
      <trkpt lat="43.18058" lon="5.69141">
        <ele>10.199999809265</ele>
        <time>2016-05-08T09:54:46.000Z</time>
      </trkpt>
      <trkpt lat="43.18039" lon="5.69157">
        <ele>9.6000003814697</ele>
        <time>2016-05-08T09:54:52.000Z</time>
      </trkpt>
      <trkpt lat="43.18036" lon="5.69157">
        <ele>9.6000003814697</ele>
        <time>2016-05-08T09:54:53.000Z</time>
      </trkpt>
      <trkpt lat="43.1803" lon="5.6915">
        <ele>9.3999996185303</ele>
        <time>2016-05-08T09:54:55.000Z</time>
      </trkpt>
      <trkpt lat="43.18027" lon="5.69145">
        <ele>9.3999996185303</ele>
        <time>2016-05-08T09:54:56.000Z</time>
      </trkpt>
      <trkpt lat="43.18024" lon="5.6914">
        <ele>9.3999996185303</ele>
        <time>2016-05-08T09:54:57.000Z</time>
      </trkpt>
      <trkpt lat="43.18014" lon="5.69124">
        <ele>9</ele>
        <time>2016-05-08T09:55:00.000Z</time>
      </trkpt>
      <trkpt lat="43.17996" lon="5.69083">
        <ele>8.8000001907349</ele>
        <time>2016-05-08T09:55:06.000Z</time>
      </trkpt>
      <trkpt lat="43.17992" lon="5.69076">
        <ele>8.8000001907349</ele>
        <time>2016-05-08T09:55:07.000Z</time>
      </trkpt>
      <trkpt lat="43.17969" lon="5.69019">
        <ele>9</ele>
        <time>2016-05-08T09:55:15.000Z</time>
      </trkpt>
      <trkpt lat="43.17948" lon="5.68959">
        <ele>8.8000001907349</ele>
        <time>2016-05-08T09:55:23.000Z</time>
      </trkpt>
      <trkpt lat="43.17945" lon="5.68952">
        <ele>8.8000001907349</ele>
        <time>2016-05-08T09:55:24.000Z</time>
      </trkpt>
      <trkpt lat="43.17934" lon="5.68931">
        <ele>9</ele>
        <time>2016-05-08T09:55:28.000Z</time>
      </trkpt>
      <trkpt lat="43.1793" lon="5.6893">
        <ele>9</ele>
        <time>2016-05-08T09:55:29.000Z</time>
      </trkpt>
      <trkpt lat="43.17926" lon="5.68932">
        <ele>8.8000001907349</ele>
        <time>2016-05-08T09:55:30.000Z</time>
      </trkpt>
      <trkpt lat="43.17921" lon="5.68939">
        <ele>8.3999996185303</ele>
        <time>2016-05-08T09:55:32.000Z</time>
      </trkpt>
      <trkpt lat="43.17913" lon="5.68966">
        <ele>8</ele>
        <time>2016-05-08T09:55:37.000Z</time>
      </trkpt>
      <trkpt lat="43.17912" lon="5.68971">
        <ele>8</ele>
        <time>2016-05-08T09:55:38.000Z</time>
      </trkpt>
      <trkpt lat="43.17907" lon="5.68985">
        <ele>7.5999999046326</ele>
        <time>2016-05-08T09:55:41.000Z</time>
      </trkpt>
      <trkpt lat="43.17899" lon="5.68993">
        <ele>7</ele>
        <time>2016-05-08T09:55:43.000Z</time>
      </trkpt>
      <trkpt lat="43.17866" lon="5.69026">
        <ele>5.4000000953674</ele>
        <time>2016-05-08T09:55:51.000Z</time>
      </trkpt>
      <trkpt lat="43.17863" lon="5.69029">
        <ele>5.4000000953674</ele>
        <time>2016-05-08T09:55:52.000Z</time>
      </trkpt>
      <trkpt lat="43.17848" lon="5.69044">
        <ele>5</ele>
        <time>2016-05-08T09:55:56.000Z</time>
      </trkpt>
      <trkpt lat="43.17839" lon="5.69052">
        <ele>4.8000001907349</ele>
        <time>2016-05-08T09:55:58.000Z</time>
      </trkpt>
      <trkpt lat="43.17806" lon="5.69083">
        <ele>5</ele>
        <time>2016-05-08T09:56:06.000Z</time>
      </trkpt>
      <trkpt lat="43.17791" lon="5.69099">
        <ele>5.1999998092651</ele>
        <time>2016-05-08T09:56:10.000Z</time>
      </trkpt>
      <trkpt lat="43.17779" lon="5.6911">
        <ele>5.8000001907349</ele>
        <time>2016-05-08T09:56:13.000Z</time>
      </trkpt>
      <trkpt lat="43.17754" lon="5.69131">
        <ele>6.4000000953674</ele>
        <time>2016-05-08T09:56:19.000Z</time>
      </trkpt>
      <trkpt lat="43.1772" lon="5.69168">
        <ele>4.8000001907349</ele>
        <time>2016-05-08T09:56:27.000Z</time>
      </trkpt>
      <trkpt lat="43.17692" lon="5.69198">
        <ele>5.4000000953674</ele>
        <time>2016-05-08T09:56:34.000Z</time>
      </trkpt>
      <trkpt lat="43.17659" lon="5.69232">
        <ele>5.1999998092651</ele>
        <time>2016-05-08T09:56:42.000Z</time>
      </trkpt>
      <trkpt lat="43.17631" lon="5.69258">
        <ele>4</ele>
        <time>2016-05-08T09:56:49.000Z</time>
      </trkpt>
      <trkpt lat="43.17607" lon="5.69282">
        <ele>5.1999998092651</ele>
        <time>2016-05-08T09:56:56.000Z</time>
      </trkpt>
      <trkpt lat="43.17599" lon="5.69285">
        <ele>5.4000000953674</ele>
        <time>2016-05-08T09:56:58.000Z</time>
      </trkpt>
      <trkpt lat="43.17589" lon="5.69287">
        <ele>5.4000000953674</ele>
        <time>2016-05-08T09:57:00.000Z</time>
      </trkpt>
      <trkpt lat="43.17579" lon="5.69287">
        <ele>5.1999998092651</ele>
        <time>2016-05-08T09:57:02.000Z</time>
      </trkpt>
      <trkpt lat="43.17559" lon="5.69283">
        <ele>4.8000001907349</ele>
        <time>2016-05-08T09:57:06.000Z</time>
      </trkpt>
      <trkpt lat="43.17547" lon="5.6927">
        <ele>4.1999998092651</ele>
        <time>2016-05-08T09:57:10.000Z</time>
      </trkpt>
      <trkpt lat="43.17537" lon="5.69265">
        <ele>4</ele>
        <time>2016-05-08T09:57:14.000Z</time>
      </trkpt>
      <trkpt lat="43.1753" lon="5.69275">
        <ele>4.1999998092651</ele>
        <time>2016-05-08T09:57:17.000Z</time>
      </trkpt>
      <trkpt lat="43.17527" lon="5.6928">
        <ele>4.4000000953674</ele>
        <time>2016-05-08T09:57:18.000Z</time>
      </trkpt>
      <trkpt lat="43.1751" lon="5.693">
        <ele>4.8000001907349</ele>
        <time>2016-05-08T09:57:23.000Z</time>
      </trkpt>
      <trkpt lat="43.17484" lon="5.69326">
        <ele>3.2000000476837</ele>
        <time>2016-05-08T09:57:30.000Z</time>
      </trkpt>
      <trkpt lat="43.17449" lon="5.69359">
        <ele>3.7999999523163</ele>
        <time>2016-05-08T09:57:39.000Z</time>
      </trkpt>
      <trkpt lat="43.17405" lon="5.69402">
        <ele>5.1999998092651</ele>
        <time>2016-05-08T09:57:50.000Z</time>
      </trkpt>
      <trkpt lat="43.17369" lon="5.69438">
        <ele>4.4000000953674</ele>
        <time>2016-05-08T09:57:59.000Z</time>
      </trkpt>
      <trkpt lat="43.17333" lon="5.69473">
        <ele>3.7999999523163</ele>
        <time>2016-05-08T09:58:08.000Z</time>
      </trkpt>
      <trkpt lat="43.17307" lon="5.69496">
        <ele>4</ele>
        <time>2016-05-08T09:58:14.000Z</time>
      </trkpt>
      <trkpt lat="43.17299" lon="5.69504">
        <ele>4.1999998092651</ele>
        <time>2016-05-08T09:58:16.000Z</time>
      </trkpt>
      <trkpt lat="43.17285" lon="5.6952">
        <ele>5.4000000953674</ele>
        <time>2016-05-08T09:58:20.000Z</time>
      </trkpt>
      <trkpt lat="43.17278" lon="5.69527">
        <ele>6</ele>
        <time>2016-05-08T09:58:22.000Z</time>
      </trkpt>
      <trkpt lat="43.17255" lon="5.69545">
        <ele>7.5999999046326</ele>
        <time>2016-05-08T09:58:29.000Z</time>
      </trkpt>
      <trkpt lat="43.17245" lon="5.69549">
        <ele>8.1999998092651</ele>
        <time>2016-05-08T09:58:33.000Z</time>
      </trkpt>
      <trkpt lat="43.1724" lon="5.69551">
        <ele>8.3999996185303</ele>
        <time>2016-05-08T09:58:34.000Z</time>
      </trkpt>
      <trkpt lat="43.17236" lon="5.69551">
        <ele>8.3999996185303</ele>
        <time>2016-05-08T09:58:35.000Z</time>
      </trkpt>
      <trkpt lat="43.17221" lon="5.69547">
        <ele>8.6000003814697</ele>
        <time>2016-05-08T09:58:38.000Z</time>
      </trkpt>
      <trkpt lat="43.17216" lon="5.69545">
        <ele>8.6000003814697</ele>
        <time>2016-05-08T09:58:39.000Z</time>
      </trkpt>
      <trkpt lat="43.17183" lon="5.69534">
        <ele>8.3999996185303</ele>
        <time>2016-05-08T09:58:46.000Z</time>
      </trkpt>
      <trkpt lat="43.17174" lon="5.69531">
        <ele>8.6000003814697</ele>
        <time>2016-05-08T09:58:48.000Z</time>
      </trkpt>
      <trkpt lat="43.17164" lon="5.69529">
        <ele>9</ele>
        <time>2016-05-08T09:58:50.000Z</time>
      </trkpt>
      <trkpt lat="43.17139" lon="5.69524">
        <ele>10</ele>
        <time>2016-05-08T09:58:55.000Z</time>
      </trkpt>
      <trkpt lat="43.17134" lon="5.69524">
        <ele>10.199999809265</ele>
        <time>2016-05-08T09:58:56.000Z</time>
      </trkpt>
      <trkpt lat="43.17115" lon="5.69524">
        <ele>11.800000190735</ele>
        <time>2016-05-08T09:59:00.000Z</time>
      </trkpt>
      <trkpt lat="43.17095" lon="5.69525">
        <ele>13.199999809265</ele>
        <time>2016-05-08T09:59:04.000Z</time>
      </trkpt>
      <trkpt lat="43.17065" lon="5.69527">
        <ele>11.60000038147</ele>
        <time>2016-05-08T09:59:10.000Z</time>
      </trkpt>
      <trkpt lat="43.17061" lon="5.69527">
        <ele>11.60000038147</ele>
        <time>2016-05-08T09:59:11.000Z</time>
      </trkpt>
      <trkpt lat="43.17051" lon="5.69529">
        <ele>11.60000038147</ele>
        <time>2016-05-08T09:59:13.000Z</time>
      </trkpt>
      <trkpt lat="43.17046" lon="5.69531">
        <ele>12</ele>
        <time>2016-05-08T09:59:14.000Z</time>
      </trkpt>
      <trkpt lat="43.17036" lon="5.69538">
        <ele>13</ele>
        <time>2016-05-08T09:59:16.000Z</time>
      </trkpt>
      <trkpt lat="43.17022" lon="5.69551">
        <ele>14.800000190735</ele>
        <time>2016-05-08T09:59:19.000Z</time>
      </trkpt>
      <trkpt lat="43.17009" lon="5.69564">
        <ele>17.60000038147</ele>
        <time>2016-05-08T09:59:22.000Z</time>
      </trkpt>
      <trkpt lat="43.1699" lon="5.69582">
        <ele>22.200000762939</ele>
        <time>2016-05-08T09:59:27.000Z</time>
      </trkpt>
      <trkpt lat="43.16986" lon="5.69585">
        <ele>22.799999237061</ele>
        <time>2016-05-08T09:59:28.000Z</time>
      </trkpt>
      <trkpt lat="43.16981" lon="5.69587">
        <ele>23.39999961853</ele>
        <time>2016-05-08T09:59:29.000Z</time>
      </trkpt>
      <trkpt lat="43.16977" lon="5.69587">
        <ele>23.60000038147</ele>
        <time>2016-05-08T09:59:30.000Z</time>
      </trkpt>
      <trkpt lat="43.16967" lon="5.69583">
        <ele>22.799999237061</ele>
        <time>2016-05-08T09:59:32.000Z</time>
      </trkpt>
      <trkpt lat="43.16963" lon="5.69581">
        <ele>22.200000762939</ele>
        <time>2016-05-08T09:59:33.000Z</time>
      </trkpt>
      <trkpt lat="43.16953" lon="5.69575">
        <ele>20.799999237061</ele>
        <time>2016-05-08T09:59:35.000Z</time>
      </trkpt>
      <trkpt lat="43.16944" lon="5.6957">
        <ele>19.799999237061</ele>
        <time>2016-05-08T09:59:37.000Z</time>
      </trkpt>
      <trkpt lat="43.16939" lon="5.69568">
        <ele>19.39999961853</ele>
        <time>2016-05-08T09:59:38.000Z</time>
      </trkpt>
      <trkpt lat="43.16925" lon="5.69563">
        <ele>18.60000038147</ele>
        <time>2016-05-08T09:59:41.000Z</time>
      </trkpt>
      <trkpt lat="43.16912" lon="5.69566">
        <ele>18.60000038147</ele>
        <time>2016-05-08T09:59:44.000Z</time>
      </trkpt>
      <trkpt lat="43.16908" lon="5.69568">
        <ele>19.200000762939</ele>
        <time>2016-05-08T09:59:45.000Z</time>
      </trkpt>
      <trkpt lat="43.169" lon="5.69573">
        <ele>20.200000762939</ele>
        <time>2016-05-08T09:59:47.000Z</time>
      </trkpt>
      <trkpt lat="43.16893" lon="5.69579">
        <ele>21.39999961853</ele>
        <time>2016-05-08T09:59:49.000Z</time>
      </trkpt>
      <trkpt lat="43.16888" lon="5.69583">
        <ele>22.200000762939</ele>
        <time>2016-05-08T09:59:50.000Z</time>
      </trkpt>
      <trkpt lat="43.16884" lon="5.69588">
        <ele>23.39999961853</ele>
        <time>2016-05-08T09:59:51.000Z</time>
      </trkpt>
      <trkpt lat="43.16872" lon="5.69606">
        <ele>26.799999237061</ele>
        <time>2016-05-08T09:59:54.000Z</time>
      </trkpt>
      <trkpt lat="43.16864" lon="5.69615">
        <ele>28</ele>
        <time>2016-05-08T09:59:56.000Z</time>
      </trkpt>
      <trkpt lat="43.16852" lon="5.69618">
        <ele>27.60000038147</ele>
        <time>2016-05-08T09:59:58.000Z</time>
      </trkpt>
      <trkpt lat="43.16833" lon="5.69619">
        <ele>28</ele>
        <time>2016-05-08T10:00:01.000Z</time>
      </trkpt>
      <trkpt lat="43.16827" lon="5.69618">
        <ele>28.200000762939</ele>
        <time>2016-05-08T10:00:02.000Z</time>
      </trkpt>
      <trkpt lat="43.16819" lon="5.69616">
        <ele>27.799999237061</ele>
        <time>2016-05-08T10:00:03.000Z</time>
      </trkpt>
      <trkpt lat="43.1679" lon="5.69609">
        <ele>25.200000762939</ele>
        <time>2016-05-08T10:00:07.000Z</time>
      </trkpt>
      <trkpt lat="43.16783" lon="5.69607">
        <ele>24.39999961853</ele>
        <time>2016-05-08T10:00:08.000Z</time>
      </trkpt>
      <trkpt lat="43.16769" lon="5.69601">
        <ele>23</ele>
        <time>2016-05-08T10:00:10.000Z</time>
      </trkpt>
      <trkpt lat="43.16763" lon="5.69596">
        <ele>22.200000762939</ele>
        <time>2016-05-08T10:00:11.000Z</time>
      </trkpt>
      <trkpt lat="43.16758" lon="5.69589">
        <ele>21.60000038147</ele>
        <time>2016-05-08T10:00:12.000Z</time>
      </trkpt>
      <trkpt lat="43.1675" lon="5.69573">
        <ele>20.39999961853</ele>
        <time>2016-05-08T10:00:14.000Z</time>
      </trkpt>
      <trkpt lat="43.16742" lon="5.69558">
        <ele>19.200000762939</ele>
        <time>2016-05-08T10:00:16.000Z</time>
      </trkpt>
      <trkpt lat="43.16739" lon="5.6955">
        <ele>18.39999961853</ele>
        <time>2016-05-08T10:00:17.000Z</time>
      </trkpt>
      <trkpt lat="43.1673" lon="5.69535">
        <ele>17.200000762939</ele>
        <time>2016-05-08T10:00:19.000Z</time>
      </trkpt>
      <trkpt lat="43.16724" lon="5.6953">
        <ele>16.60000038147</ele>
        <time>2016-05-08T10:00:20.000Z</time>
      </trkpt>
      <trkpt lat="43.16702" lon="5.69525">
        <ele>15.800000190735</ele>
        <time>2016-05-08T10:00:23.000Z</time>
      </trkpt>
      <trkpt lat="43.16683" lon="5.6952">
        <ele>15.199999809265</ele>
        <time>2016-05-08T10:00:26.000Z</time>
      </trkpt>
      <trkpt lat="43.16676" lon="5.69515">
        <ele>14.800000190735</ele>
        <time>2016-05-08T10:00:27.000Z</time>
      </trkpt>
      <trkpt lat="43.16665" lon="5.69499">
        <ele>13.199999809265</ele>
        <time>2016-05-08T10:00:29.000Z</time>
      </trkpt>
      <trkpt lat="43.1666" lon="5.69491">
        <ele>12.60000038147</ele>
        <time>2016-05-08T10:00:30.000Z</time>
      </trkpt>
      <trkpt lat="43.16656" lon="5.69482">
        <ele>11.800000190735</ele>
        <time>2016-05-08T10:00:31.000Z</time>
      </trkpt>
      <trkpt lat="43.16649" lon="5.69465">
        <ele>10.199999809265</ele>
        <time>2016-05-08T10:00:33.000Z</time>
      </trkpt>
      <trkpt lat="43.16643" lon="5.69458">
        <ele>9.3999996185303</ele>
        <time>2016-05-08T10:00:34.000Z</time>
      </trkpt>
      <trkpt lat="43.16637" lon="5.69454">
        <ele>9</ele>
        <time>2016-05-08T10:00:35.000Z</time>
      </trkpt>
      <trkpt lat="43.16625" lon="5.6945">
        <ele>8.3999996185303</ele>
        <time>2016-05-08T10:00:37.000Z</time>
      </trkpt>
      <trkpt lat="43.16618" lon="5.69448">
        <ele>8.1999998092651</ele>
        <time>2016-05-08T10:00:38.000Z</time>
      </trkpt>
      <trkpt lat="43.16607" lon="5.69447">
        <ele>8</ele>
        <time>2016-05-08T10:00:40.000Z</time>
      </trkpt>
      <trkpt lat="43.16592" lon="5.69447">
        <ele>8.1999998092651</ele>
        <time>2016-05-08T10:00:43.000Z</time>
      </trkpt>
      <trkpt lat="43.16567" lon="5.69446">
        <ele>11</ele>
        <time>2016-05-08T10:00:48.000Z</time>
      </trkpt>
      <trkpt lat="43.16558" lon="5.69449">
        <ele>11.800000190735</ele>
        <time>2016-05-08T10:00:50.000Z</time>
      </trkpt>
      <trkpt lat="43.16548" lon="5.69454">
        <ele>12.800000190735</ele>
        <time>2016-05-08T10:00:52.000Z</time>
      </trkpt>
      <trkpt lat="43.16539" lon="5.6946">
        <ele>13.60000038147</ele>
        <time>2016-05-08T10:00:54.000Z</time>
      </trkpt>
      <trkpt lat="43.1653" lon="5.69465">
        <ele>14.39999961853</ele>
        <time>2016-05-08T10:00:56.000Z</time>
      </trkpt>
      <trkpt lat="43.16514" lon="5.69472">
        <ele>16</ele>
        <time>2016-05-08T10:00:59.000Z</time>
      </trkpt>
      <trkpt lat="43.16504" lon="5.69478">
        <ele>17.60000038147</ele>
        <time>2016-05-08T10:01:01.000Z</time>
      </trkpt>
      <trkpt lat="43.16495" lon="5.69484">
        <ele>19.39999961853</ele>
        <time>2016-05-08T10:01:03.000Z</time>
      </trkpt>
      <trkpt lat="43.16486" lon="5.69493">
        <ele>21.39999961853</ele>
        <time>2016-05-08T10:01:05.000Z</time>
      </trkpt>
      <trkpt lat="43.1647" lon="5.69512">
        <ele>25</ele>
        <time>2016-05-08T10:01:09.000Z</time>
      </trkpt>
      <trkpt lat="43.16466" lon="5.69516">
        <ele>25</ele>
        <time>2016-05-08T10:01:10.000Z</time>
      </trkpt>
      <trkpt lat="43.16449" lon="5.69536">
        <ele>24.799999237061</ele>
        <time>2016-05-08T10:01:14.000Z</time>
      </trkpt>
      <trkpt lat="43.16441" lon="5.69546">
        <ele>24.60000038147</ele>
        <time>2016-05-08T10:01:16.000Z</time>
      </trkpt>
      <trkpt lat="43.16417" lon="5.69577">
        <ele>29</ele>
        <time>2016-05-08T10:01:22.000Z</time>
      </trkpt>
      <trkpt lat="43.16409" lon="5.69585">
        <ele>31.60000038147</ele>
        <time>2016-05-08T10:01:24.000Z</time>
      </trkpt>
      <trkpt lat="43.16404" lon="5.69588">
        <ele>33</ele>
        <time>2016-05-08T10:01:25.000Z</time>
      </trkpt>
      <trkpt lat="43.16384" lon="5.69602">
        <ele>37</ele>
        <time>2016-05-08T10:01:29.000Z</time>
      </trkpt>
      <trkpt lat="43.16379" lon="5.69605">
        <ele>37</ele>
        <time>2016-05-08T10:01:30.000Z</time>
      </trkpt>
      <trkpt lat="43.1636" lon="5.69618">
        <ele>36.799999237061</ele>
        <time>2016-05-08T10:01:34.000Z</time>
      </trkpt>
      <trkpt lat="43.16342" lon="5.69633">
        <ele>36.799999237061</ele>
        <time>2016-05-08T10:01:38.000Z</time>
      </trkpt>
      <trkpt lat="43.16328" lon="5.69647">
        <ele>38.799999237061</ele>
        <time>2016-05-08T10:01:41.000Z</time>
      </trkpt>
      <trkpt lat="43.1632" lon="5.69656">
        <ele>40.799999237061</ele>
        <time>2016-05-08T10:01:43.000Z</time>
      </trkpt>
      <trkpt lat="43.1631" lon="5.69665">
        <ele>43</ele>
        <time>2016-05-08T10:01:45.000Z</time>
      </trkpt>
      <trkpt lat="43.16297" lon="5.69677">
        <ele>45.200000762939</ele>
        <time>2016-05-08T10:01:48.000Z</time>
      </trkpt>
      <trkpt lat="43.16279" lon="5.69692">
        <ele>44.200000762939</ele>
        <time>2016-05-08T10:01:52.000Z</time>
      </trkpt>
      <trkpt lat="43.16265" lon="5.69703">
        <ele>43.400001525879</ele>
        <time>2016-05-08T10:01:55.000Z</time>
      </trkpt>
      <trkpt lat="43.16261" lon="5.69706">
        <ele>43.200000762939</ele>
        <time>2016-05-08T10:01:56.000Z</time>
      </trkpt>
      <trkpt lat="43.16251" lon="5.69711">
        <ele>44.200000762939</ele>
        <time>2016-05-08T10:01:58.000Z</time>
      </trkpt>
      <trkpt lat="43.16236" lon="5.69717">
        <ele>43.799999237061</ele>
        <time>2016-05-08T10:02:01.000Z</time>
      </trkpt>
      <trkpt lat="43.16216" lon="5.69728">
        <ele>45.599998474121</ele>
        <time>2016-05-08T10:02:05.000Z</time>
      </trkpt>
      <trkpt lat="43.16201" lon="5.69735">
        <ele>47.400001525879</ele>
        <time>2016-05-08T10:02:08.000Z</time>
      </trkpt>
      <trkpt lat="43.16186" lon="5.69743">
        <ele>47.599998474121</ele>
        <time>2016-05-08T10:02:11.000Z</time>
      </trkpt>
      <trkpt lat="43.16171" lon="5.69747">
        <ele>48.200000762939</ele>
        <time>2016-05-08T10:02:14.000Z</time>
      </trkpt>
      <trkpt lat="43.16166" lon="5.69749">
        <ele>48.799999237061</ele>
        <time>2016-05-08T10:02:15.000Z</time>
      </trkpt>
      <trkpt lat="43.16156" lon="5.69751">
        <ele>50.200000762939</ele>
        <time>2016-05-08T10:02:17.000Z</time>
      </trkpt>
      <trkpt lat="43.16147" lon="5.69753">
        <ele>51.400001525879</ele>
        <time>2016-05-08T10:02:19.000Z</time>
      </trkpt>
      <trkpt lat="43.16142" lon="5.69754">
        <ele>52.200000762939</ele>
        <time>2016-05-08T10:02:20.000Z</time>
      </trkpt>
      <trkpt lat="43.16133" lon="5.69757">
        <ele>53.599998474121</ele>
        <time>2016-05-08T10:02:22.000Z</time>
      </trkpt>
      <trkpt lat="43.16121" lon="5.69767">
        <ele>53.400001525879</ele>
        <time>2016-05-08T10:02:25.000Z</time>
      </trkpt>
      <trkpt lat="43.16114" lon="5.69776">
        <ele>53</ele>
        <time>2016-05-08T10:02:27.000Z</time>
      </trkpt>
      <trkpt lat="43.16111" lon="5.69781">
        <ele>52.799999237061</ele>
        <time>2016-05-08T10:02:28.000Z</time>
      </trkpt>
      <trkpt lat="43.16107" lon="5.69785">
        <ele>52.599998474121</ele>
        <time>2016-05-08T10:02:29.000Z</time>
      </trkpt>
      <trkpt lat="43.16103" lon="5.69789">
        <ele>52.599998474121</ele>
        <time>2016-05-08T10:02:30.000Z</time>
      </trkpt>
      <trkpt lat="43.16098" lon="5.69793">
        <ele>52.400001525879</ele>
        <time>2016-05-08T10:02:31.000Z</time>
      </trkpt>
      <trkpt lat="43.16094" lon="5.69797">
        <ele>52.400001525879</ele>
        <time>2016-05-08T10:02:32.000Z</time>
      </trkpt>
      <trkpt lat="43.16078" lon="5.69806">
        <ele>54</ele>
        <time>2016-05-08T10:02:35.000Z</time>
      </trkpt>
      <trkpt lat="43.16073" lon="5.69809">
        <ele>54.799999237061</ele>
        <time>2016-05-08T10:02:36.000Z</time>
      </trkpt>
      <trkpt lat="43.16054" lon="5.69823">
        <ele>58</ele>
        <time>2016-05-08T10:02:40.000Z</time>
      </trkpt>
      <trkpt lat="43.16037" lon="5.69841">
        <ele>60.599998474121</ele>
        <time>2016-05-08T10:02:44.000Z</time>
      </trkpt>
      <trkpt lat="43.16023" lon="5.69863">
        <ele>61.200000762939</ele>
        <time>2016-05-08T10:02:48.000Z</time>
      </trkpt>
      <trkpt lat="43.16017" lon="5.69874">
        <ele>61.599998474121</ele>
        <time>2016-05-08T10:02:50.000Z</time>
      </trkpt>
      <trkpt lat="43.16015" lon="5.69879">
        <ele>61.799999237061</ele>
        <time>2016-05-08T10:02:51.000Z</time>
      </trkpt>
      <trkpt lat="43.16008" lon="5.69895">
        <ele>63.400001525879</ele>
        <time>2016-05-08T10:02:54.000Z</time>
      </trkpt>
      <trkpt lat="43.16006" lon="5.69901">
        <ele>64.199996948242</ele>
        <time>2016-05-08T10:02:55.000Z</time>
      </trkpt>
      <trkpt lat="43.16004" lon="5.69913">
        <ele>65.400001525879</ele>
        <time>2016-05-08T10:02:57.000Z</time>
      </trkpt>
      <trkpt lat="43.16001" lon="5.69931">
        <ele>67</ele>
        <time>2016-05-08T10:03:00.000Z</time>
      </trkpt>
      <trkpt lat="43.16" lon="5.69951">
        <ele>68.400001525879</ele>
        <time>2016-05-08T10:03:03.000Z</time>
      </trkpt>
      <trkpt lat="43.15999" lon="5.69963">
        <ele>69.199996948242</ele>
        <time>2016-05-08T10:03:05.000Z</time>
      </trkpt>
      <trkpt lat="43.15999" lon="5.69969">
        <ele>69.800003051758</ele>
        <time>2016-05-08T10:03:06.000Z</time>
      </trkpt>
      <trkpt lat="43.15997" lon="5.69981">
        <ele>70.800003051758</ele>
        <time>2016-05-08T10:03:08.000Z</time>
      </trkpt>
      <trkpt lat="43.15993" lon="5.7">
        <ele>72.599998474121</ele>
        <time>2016-05-08T10:03:11.000Z</time>
      </trkpt>
      <trkpt lat="43.15991" lon="5.70011">
        <ele>73.800003051758</ele>
        <time>2016-05-08T10:03:13.000Z</time>
      </trkpt>
      <trkpt lat="43.15989" lon="5.70017">
        <ele>74.400001525879</ele>
        <time>2016-05-08T10:03:14.000Z</time>
      </trkpt>
      <trkpt lat="43.15987" lon="5.70029">
        <ele>75.800003051758</ele>
        <time>2016-05-08T10:03:16.000Z</time>
      </trkpt>
      <trkpt lat="43.15983" lon="5.70048">
        <ele>77</ele>
        <time>2016-05-08T10:03:19.000Z</time>
      </trkpt>
      <trkpt lat="43.15978" lon="5.70071">
        <ele>79</ele>
        <time>2016-05-08T10:03:23.000Z</time>
      </trkpt>
      <trkpt lat="43.15976" lon="5.70084">
        <ele>80</ele>
        <time>2016-05-08T10:03:25.000Z</time>
      </trkpt>
      <trkpt lat="43.15975" lon="5.70096">
        <ele>80.400001525879</ele>
        <time>2016-05-08T10:03:27.000Z</time>
      </trkpt>
      <trkpt lat="43.15977" lon="5.70108">
        <ele>79.800003051758</ele>
        <time>2016-05-08T10:03:29.000Z</time>
      </trkpt>
      <trkpt lat="43.15979" lon="5.70113">
        <ele>79.199996948242</ele>
        <time>2016-05-08T10:03:30.000Z</time>
      </trkpt>
      <trkpt lat="43.15984" lon="5.70125">
        <ele>77.599998474121</ele>
        <time>2016-05-08T10:03:32.000Z</time>
      </trkpt>
      <trkpt lat="43.15989" lon="5.70135">
        <ele>76.199996948242</ele>
        <time>2016-05-08T10:03:34.000Z</time>
      </trkpt>
      <trkpt lat="43.15991" lon="5.70141">
        <ele>75.599998474121</ele>
        <time>2016-05-08T10:03:35.000Z</time>
      </trkpt>
      <trkpt lat="43.15993" lon="5.70147">
        <ele>75.400001525879</ele>
        <time>2016-05-08T10:03:36.000Z</time>
      </trkpt>
      <trkpt lat="43.15994" lon="5.7016">
        <ele>75.400001525879</ele>
        <time>2016-05-08T10:03:38.000Z</time>
      </trkpt>
      <trkpt lat="43.15992" lon="5.70166">
        <ele>76</ele>
        <time>2016-05-08T10:03:39.000Z</time>
      </trkpt>
      <trkpt lat="43.15991" lon="5.70173">
        <ele>76.400001525879</ele>
        <time>2016-05-08T10:03:40.000Z</time>
      </trkpt>
      <trkpt lat="43.15988" lon="5.70204">
        <ele>77.400001525879</ele>
        <time>2016-05-08T10:03:44.000Z</time>
      </trkpt>
      <trkpt lat="43.15982" lon="5.70262">
        <ele>78.400001525879</ele>
        <time>2016-05-08T10:03:51.000Z</time>
      </trkpt>
      <trkpt lat="43.15983" lon="5.70277">
        <ele>78.199996948242</ele>
        <time>2016-05-08T10:03:53.000Z</time>
      </trkpt>
      <trkpt lat="43.15984" lon="5.70306">
        <ele>76.199996948242</ele>
        <time>2016-05-08T10:03:57.000Z</time>
      </trkpt>
      <trkpt lat="43.15985" lon="5.70343">
        <ele>75.800003051758</ele>
        <time>2016-05-08T10:04:03.000Z</time>
      </trkpt>
      <trkpt lat="43.15987" lon="5.70381">
        <ele>74</ele>
        <time>2016-05-08T10:04:09.000Z</time>
      </trkpt>
      <trkpt lat="43.1599" lon="5.70393">
        <ele>73.199996948242</ele>
        <time>2016-05-08T10:04:11.000Z</time>
      </trkpt>
      <trkpt lat="43.15999" lon="5.70405">
        <ele>72.599998474121</ele>
        <time>2016-05-08T10:04:14.000Z</time>
      </trkpt>
      <trkpt lat="43.16004" lon="5.70409">
        <ele>72.400001525879</ele>
        <time>2016-05-08T10:04:15.000Z</time>
      </trkpt>
      <trkpt lat="43.16009" lon="5.70411">
        <ele>72.199996948242</ele>
        <time>2016-05-08T10:04:16.000Z</time>
      </trkpt>
      <trkpt lat="43.16046" lon="5.70433">
        <ele>74.800003051758</ele>
        <time>2016-05-08T10:04:24.000Z</time>
      </trkpt>
      <trkpt lat="43.16054" lon="5.7044">
        <ele>75.199996948242</ele>
        <time>2016-05-08T10:04:26.000Z</time>
      </trkpt>
      <trkpt lat="43.16063" lon="5.70455">
        <ele>75.599998474121</ele>
        <time>2016-05-08T10:04:29.000Z</time>
      </trkpt>
      <trkpt lat="43.16066" lon="5.7046">
        <ele>75.599998474121</ele>
        <time>2016-05-08T10:04:30.000Z</time>
      </trkpt>
      <trkpt lat="43.16068" lon="5.70466">
        <ele>75.599998474121</ele>
        <time>2016-05-08T10:04:31.000Z</time>
      </trkpt>
      <trkpt lat="43.16073" lon="5.70484">
        <ele>76.199996948242</ele>
        <time>2016-05-08T10:04:34.000Z</time>
      </trkpt>
      <trkpt lat="43.16074" lon="5.70491">
        <ele>76.400001525879</ele>
        <time>2016-05-08T10:04:35.000Z</time>
      </trkpt>
      <trkpt lat="43.16075" lon="5.70498">
        <ele>76.400001525879</ele>
        <time>2016-05-08T10:04:36.000Z</time>
      </trkpt>
      <trkpt lat="43.16076" lon="5.70511">
        <ele>76.800003051758</ele>
        <time>2016-05-08T10:04:38.000Z</time>
      </trkpt>
      <trkpt lat="43.16079" lon="5.70545">
        <ele>77.400001525879</ele>
        <time>2016-05-08T10:04:43.000Z</time>
      </trkpt>
      <trkpt lat="43.1608" lon="5.70551">
        <ele>77.400001525879</ele>
        <time>2016-05-08T10:04:44.000Z</time>
      </trkpt>
      <trkpt lat="43.16091" lon="5.70601">
        <ele>78.599998474121</ele>
        <time>2016-05-08T10:04:52.000Z</time>
      </trkpt>
      <trkpt lat="43.16093" lon="5.70607">
        <ele>78.800003051758</ele>
        <time>2016-05-08T10:04:53.000Z</time>
      </trkpt>
      <trkpt lat="43.16104" lon="5.70652">
        <ele>81</ele>
        <time>2016-05-08T10:05:00.000Z</time>
      </trkpt>
      <trkpt lat="43.16109" lon="5.70678">
        <ele>81.800003051758</ele>
        <time>2016-05-08T10:05:04.000Z</time>
      </trkpt>
      <trkpt lat="43.16108" lon="5.70692">
        <ele>81.400001525879</ele>
        <time>2016-05-08T10:05:06.000Z</time>
      </trkpt>
      <trkpt lat="43.16099" lon="5.70721">
        <ele>79.199996948242</ele>
        <time>2016-05-08T10:05:11.000Z</time>
      </trkpt>
      <trkpt lat="43.16097" lon="5.70727">
        <ele>78.400001525879</ele>
        <time>2016-05-08T10:05:12.000Z</time>
      </trkpt>
      <trkpt lat="43.16092" lon="5.70738">
        <ele>77.599998474121</ele>
        <time>2016-05-08T10:05:14.000Z</time>
      </trkpt>
      <trkpt lat="43.16088" lon="5.7075">
        <ele>77</ele>
        <time>2016-05-08T10:05:16.000Z</time>
      </trkpt>
      <trkpt lat="43.16085" lon="5.70763">
        <ele>76.400001525879</ele>
        <time>2016-05-08T10:05:18.000Z</time>
      </trkpt>
      <trkpt lat="43.16085" lon="5.70769">
        <ele>76.400001525879</ele>
        <time>2016-05-08T10:05:19.000Z</time>
      </trkpt>
      <trkpt lat="43.16086" lon="5.70791">
        <ele>76.199996948242</ele>
        <time>2016-05-08T10:05:22.000Z</time>
      </trkpt>
      <trkpt lat="43.16089" lon="5.70807">
        <ele>76.199996948242</ele>
        <time>2016-05-08T10:05:24.000Z</time>
      </trkpt>
      <trkpt lat="43.16091" lon="5.70823">
        <ele>76.199996948242</ele>
        <time>2016-05-08T10:05:26.000Z</time>
      </trkpt>
      <trkpt lat="43.16094" lon="5.70839">
        <ele>76</ele>
        <time>2016-05-08T10:05:28.000Z</time>
      </trkpt>
      <trkpt lat="43.16098" lon="5.70878">
        <ele>75.800003051758</ele>
        <time>2016-05-08T10:05:33.000Z</time>
      </trkpt>
      <trkpt lat="43.16099" lon="5.70893">
        <ele>75.400001525879</ele>
        <time>2016-05-08T10:05:35.000Z</time>
      </trkpt>
      <trkpt lat="43.16099" lon="5.70914">
        <ele>74.800003051758</ele>
        <time>2016-05-08T10:05:38.000Z</time>
      </trkpt>
      <trkpt lat="43.16097" lon="5.70939">
        <ele>74</ele>
        <time>2016-05-08T10:05:42.000Z</time>
      </trkpt>
      <trkpt lat="43.16097" lon="5.70984">
        <ele>72.400001525879</ele>
        <time>2016-05-08T10:05:50.000Z</time>
      </trkpt>
      <trkpt lat="43.16099" lon="5.71008">
        <ele>71.199996948242</ele>
        <time>2016-05-08T10:05:54.000Z</time>
      </trkpt>
      <trkpt lat="43.16101" lon="5.71029">
        <ele>70.199996948242</ele>
        <time>2016-05-08T10:05:57.000Z</time>
      </trkpt>
      <trkpt lat="43.16104" lon="5.71053">
        <ele>69.199996948242</ele>
        <time>2016-05-08T10:06:00.000Z</time>
      </trkpt>
      <trkpt lat="43.16111" lon="5.71079">
        <ele>67.599998474121</ele>
        <time>2016-05-08T10:06:03.000Z</time>
      </trkpt>
      <trkpt lat="43.16114" lon="5.71087">
        <ele>67.400001525879</ele>
        <time>2016-05-08T10:06:04.000Z</time>
      </trkpt>
      <trkpt lat="43.16131" lon="5.71121">
        <ele>66.800003051758</ele>
        <time>2016-05-08T10:06:08.000Z</time>
      </trkpt>
      <trkpt lat="43.16142" lon="5.71139">
        <ele>66.400001525879</ele>
        <time>2016-05-08T10:06:10.000Z</time>
      </trkpt>
      <trkpt lat="43.16154" lon="5.71158">
        <ele>64.800003051758</ele>
        <time>2016-05-08T10:06:12.000Z</time>
      </trkpt>
      <trkpt lat="43.16171" lon="5.71187">
        <ele>62.400001525879</ele>
        <time>2016-05-08T10:06:15.000Z</time>
      </trkpt>
      <trkpt lat="43.16194" lon="5.71225">
        <ele>61.200000762939</ele>
        <time>2016-05-08T10:06:19.000Z</time>
      </trkpt>
      <trkpt lat="43.16211" lon="5.71255">
        <ele>60.200000762939</ele>
        <time>2016-05-08T10:06:22.000Z</time>
      </trkpt>
      <trkpt lat="43.16215" lon="5.71267">
        <ele>59.799999237061</ele>
        <time>2016-05-08T10:06:23.000Z</time>
      </trkpt>
      <trkpt lat="43.16216" lon="5.7128">
        <ele>59.400001525879</ele>
        <time>2016-05-08T10:06:24.000Z</time>
      </trkpt>
      <trkpt lat="43.16215" lon="5.71294">
        <ele>58.599998474121</ele>
        <time>2016-05-08T10:06:25.000Z</time>
      </trkpt>
      <trkpt lat="43.16213" lon="5.71308">
        <ele>57.599998474121</ele>
        <time>2016-05-08T10:06:26.000Z</time>
      </trkpt>
      <trkpt lat="43.1621" lon="5.71322">
        <ele>56.200000762939</ele>
        <time>2016-05-08T10:06:27.000Z</time>
      </trkpt>
      <trkpt lat="43.16207" lon="5.71335">
        <ele>54.799999237061</ele>
        <time>2016-05-08T10:06:28.000Z</time>
      </trkpt>
      <trkpt lat="43.16203" lon="5.71348">
        <ele>54</ele>
        <time>2016-05-08T10:06:29.000Z</time>
      </trkpt>
      <trkpt lat="43.16195" lon="5.71389">
        <ele>51.799999237061</ele>
        <time>2016-05-08T10:06:32.000Z</time>
      </trkpt>
      <trkpt lat="43.16194" lon="5.71402">
        <ele>51</ele>
        <time>2016-05-08T10:06:33.000Z</time>
      </trkpt>
      <trkpt lat="43.16196" lon="5.71414">
        <ele>50.599998474121</ele>
        <time>2016-05-08T10:06:34.000Z</time>
      </trkpt>
      <trkpt lat="43.16201" lon="5.71424">
        <ele>50.599998474121</ele>
        <time>2016-05-08T10:06:35.000Z</time>
      </trkpt>
      <trkpt lat="43.16207" lon="5.71433">
        <ele>50.400001525879</ele>
        <time>2016-05-08T10:06:36.000Z</time>
      </trkpt>
      <trkpt lat="43.16214" lon="5.7144">
        <ele>50.400001525879</ele>
        <time>2016-05-08T10:06:37.000Z</time>
      </trkpt>
      <trkpt lat="43.16221" lon="5.71447">
        <ele>50.400001525879</ele>
        <time>2016-05-08T10:06:38.000Z</time>
      </trkpt>
      <trkpt lat="43.16227" lon="5.71452">
        <ele>50.400001525879</ele>
        <time>2016-05-08T10:06:39.000Z</time>
      </trkpt>
      <trkpt lat="43.16232" lon="5.71458">
        <ele>50.400001525879</ele>
        <time>2016-05-08T10:06:40.000Z</time>
      </trkpt>
      <trkpt lat="43.16241" lon="5.71468">
        <ele>50.400001525879</ele>
        <time>2016-05-08T10:06:42.000Z</time>
      </trkpt>
      <trkpt lat="43.16244" lon="5.71472">
        <ele>50.400001525879</ele>
        <time>2016-05-08T10:06:43.000Z</time>
      </trkpt>
      <trkpt lat="43.16246" lon="5.71477">
        <ele>50.400001525879</ele>
        <time>2016-05-08T10:06:45.000Z</time>
      </trkpt>
      <trkpt lat="43.16249" lon="5.71481">
        <ele>50.599998474121</ele>
        <time>2016-05-08T10:06:47.000Z</time>
      </trkpt>
      <trkpt lat="43.16252" lon="5.71483">
        <ele>50.599998474121</ele>
        <time>2016-05-08T10:06:48.000Z</time>
      </trkpt>
      <trkpt lat="43.16256" lon="5.71485">
        <ele>50.799999237061</ele>
        <time>2016-05-08T10:06:49.000Z</time>
      </trkpt>
      <trkpt lat="43.16265" lon="5.71488">
        <ele>51.200000762939</ele>
        <time>2016-05-08T10:06:51.000Z</time>
      </trkpt>
      <trkpt lat="43.16311" lon="5.71497">
        <ele>52.799999237061</ele>
        <time>2016-05-08T10:07:00.000Z</time>
      </trkpt>
      <trkpt lat="43.16316" lon="5.71497">
        <ele>53</ele>
        <time>2016-05-08T10:07:01.000Z</time>
      </trkpt>
      <trkpt lat="43.16335" lon="5.71497">
        <ele>53.599998474121</ele>
        <time>2016-05-08T10:07:05.000Z</time>
      </trkpt>
      <trkpt lat="43.1635" lon="5.71498">
        <ele>54.200000762939</ele>
        <time>2016-05-08T10:07:08.000Z</time>
      </trkpt>
      <trkpt lat="43.16359" lon="5.71498">
        <ele>54.400001525879</ele>
        <time>2016-05-08T10:07:10.000Z</time>
      </trkpt>
      <trkpt lat="43.16364" lon="5.71498">
        <ele>54.400001525879</ele>
        <time>2016-05-08T10:07:11.000Z</time>
      </trkpt>
      <trkpt lat="43.16379" lon="5.71499">
        <ele>55</ele>
        <time>2016-05-08T10:07:14.000Z</time>
      </trkpt>
      <trkpt lat="43.16398" lon="5.715">
        <ele>56.200000762939</ele>
        <time>2016-05-08T10:07:18.000Z</time>
      </trkpt>
      <trkpt lat="43.16403" lon="5.71501">
        <ele>56.400001525879</ele>
        <time>2016-05-08T10:07:19.000Z</time>
      </trkpt>
      <trkpt lat="43.16408" lon="5.71501">
        <ele>56.599998474121</ele>
        <time>2016-05-08T10:07:20.000Z</time>
      </trkpt>
      <trkpt lat="43.16437" lon="5.71503">
        <ele>58.200000762939</ele>
        <time>2016-05-08T10:07:26.000Z</time>
      </trkpt>
      <trkpt lat="43.16452" lon="5.71503">
        <ele>59</ele>
        <time>2016-05-08T10:07:29.000Z</time>
      </trkpt>
      <trkpt lat="43.16457" lon="5.71503">
        <ele>59.200000762939</ele>
        <time>2016-05-08T10:07:30.000Z</time>
      </trkpt>
      <trkpt lat="43.16476" lon="5.71504">
        <ele>60.200000762939</ele>
        <time>2016-05-08T10:07:34.000Z</time>
      </trkpt>
      <trkpt lat="43.16496" lon="5.71505">
        <ele>61.400001525879</ele>
        <time>2016-05-08T10:07:38.000Z</time>
      </trkpt>
      <trkpt lat="43.1651" lon="5.71506">
        <ele>62.200000762939</ele>
        <time>2016-05-08T10:07:41.000Z</time>
      </trkpt>
      <trkpt lat="43.16519" lon="5.71506">
        <ele>63.200000762939</ele>
        <time>2016-05-08T10:07:43.000Z</time>
      </trkpt>
      <trkpt lat="43.16533" lon="5.71507">
        <ele>65.199996948242</ele>
        <time>2016-05-08T10:07:46.000Z</time>
      </trkpt>
      <trkpt lat="43.16557" lon="5.71508">
        <ele>68.199996948242</ele>
        <time>2016-05-08T10:07:51.000Z</time>
      </trkpt>
      <trkpt lat="43.16566" lon="5.7151">
        <ele>69.400001525879</ele>
        <time>2016-05-08T10:07:53.000Z</time>
      </trkpt>
      <trkpt lat="43.1657" lon="5.71513">
        <ele>69.800003051758</ele>
        <time>2016-05-08T10:07:54.000Z</time>
      </trkpt>
      <trkpt lat="43.16573" lon="5.71518">
        <ele>70</ele>
        <time>2016-05-08T10:07:55.000Z</time>
      </trkpt>
      <trkpt lat="43.16579" lon="5.71536">
        <ele>69.800003051758</ele>
        <time>2016-05-08T10:07:58.000Z</time>
      </trkpt>
      <trkpt lat="43.1658" lon="5.71542">
        <ele>69.599998474121</ele>
        <time>2016-05-08T10:07:59.000Z</time>
      </trkpt>
      <trkpt lat="43.16583" lon="5.71557">
        <ele>70</ele>
        <time>2016-05-08T10:08:02.000Z</time>
      </trkpt>
      <trkpt lat="43.16583" lon="5.7156">
        <ele>70.599998474121</ele>
        <time>2016-05-08T10:08:03.000Z</time>
      </trkpt>
      <trkpt lat="43.16584" lon="5.71577">
        <ele>73.199996948242</ele>
        <time>2016-05-08T10:08:08.000Z</time>
      </trkpt>
      <trkpt lat="43.16587" lon="5.71586">
        <ele>75</ele>
        <time>2016-05-08T10:08:10.000Z</time>
      </trkpt>
      <trkpt lat="43.16592" lon="5.71588">
        <ele>76</ele>
        <time>2016-05-08T10:08:11.000Z</time>
      </trkpt>
      <trkpt lat="43.16607" lon="5.71592">
        <ele>77.199996948242</ele>
        <time>2016-05-08T10:08:14.000Z</time>
      </trkpt>
      <trkpt lat="43.16618" lon="5.71595">
        <ele>78</ele>
        <time>2016-05-08T10:08:16.000Z</time>
      </trkpt>
      <trkpt lat="43.16623" lon="5.71596">
        <ele>78.400001525879</ele>
        <time>2016-05-08T10:08:17.000Z</time>
      </trkpt>
      <trkpt lat="43.16642" lon="5.71603">
        <ele>80</ele>
        <time>2016-05-08T10:08:21.000Z</time>
      </trkpt>
      <trkpt lat="43.16661" lon="5.71611">
        <ele>82.199996948242</ele>
        <time>2016-05-08T10:08:25.000Z</time>
      </trkpt>
      <trkpt lat="43.16666" lon="5.71613">
        <ele>82.800003051758</ele>
        <time>2016-05-08T10:08:26.000Z</time>
      </trkpt>
      <trkpt lat="43.16685" lon="5.71621">
        <ele>84.400001525879</ele>
        <time>2016-05-08T10:08:30.000Z</time>
      </trkpt>
      <trkpt lat="43.16703" lon="5.71632">
        <ele>85.199996948242</ele>
        <time>2016-05-08T10:08:34.000Z</time>
      </trkpt>
      <trkpt lat="43.16707" lon="5.71635">
        <ele>85.400001525879</ele>
        <time>2016-05-08T10:08:35.000Z</time>
      </trkpt>
      <trkpt lat="43.16724" lon="5.7165">
        <ele>86.199996948242</ele>
        <time>2016-05-08T10:08:39.000Z</time>
      </trkpt>
      <trkpt lat="43.16728" lon="5.71655">
        <ele>86.400001525879</ele>
        <time>2016-05-08T10:08:40.000Z</time>
      </trkpt>
      <trkpt lat="43.16744" lon="5.71674">
        <ele>87.400001525879</ele>
        <time>2016-05-08T10:08:44.000Z</time>
      </trkpt>
      <trkpt lat="43.16764" lon="5.717">
        <ele>88.199996948242</ele>
        <time>2016-05-08T10:08:49.000Z</time>
      </trkpt>
      <trkpt lat="43.16788" lon="5.71718">
        <ele>84.400001525879</ele>
        <time>2016-05-08T10:08:53.000Z</time>
      </trkpt>
      <trkpt lat="43.16801" lon="5.7173">
        <ele>81.800003051758</ele>
        <time>2016-05-08T10:08:55.000Z</time>
      </trkpt>
      <trkpt lat="43.16811" lon="5.71748">
        <ele>79.800003051758</ele>
        <time>2016-05-08T10:08:57.000Z</time>
      </trkpt>
      <trkpt lat="43.16815" lon="5.7176">
        <ele>79.199996948242</ele>
        <time>2016-05-08T10:08:58.000Z</time>
      </trkpt>
      <trkpt lat="43.16818" lon="5.71785">
        <ele>79.199996948242</ele>
        <time>2016-05-08T10:09:00.000Z</time>
      </trkpt>
      <trkpt lat="43.16823" lon="5.71824">
        <ele>80.400001525879</ele>
        <time>2016-05-08T10:09:03.000Z</time>
      </trkpt>
      <trkpt lat="43.16828" lon="5.71863">
        <ele>80.199996948242</ele>
        <time>2016-05-08T10:09:06.000Z</time>
      </trkpt>
      <trkpt lat="43.1683" lon="5.71876">
        <ele>80.199996948242</ele>
        <time>2016-05-08T10:09:07.000Z</time>
      </trkpt>
      <trkpt lat="43.16833" lon="5.71888">
        <ele>80.400001525879</ele>
        <time>2016-05-08T10:09:08.000Z</time>
      </trkpt>
      <trkpt lat="43.16841" lon="5.7191">
        <ele>78.400001525879</ele>
        <time>2016-05-08T10:09:10.000Z</time>
      </trkpt>
      <trkpt lat="43.16861" lon="5.71937">
        <ele>76</ele>
        <time>2016-05-08T10:09:13.000Z</time>
      </trkpt>
      <trkpt lat="43.16877" lon="5.71951">
        <ele>74.400001525879</ele>
        <time>2016-05-08T10:09:15.000Z</time>
      </trkpt>
      <trkpt lat="43.16897" lon="5.71957">
        <ele>71.800003051758</ele>
        <time>2016-05-08T10:09:17.000Z</time>
      </trkpt>
      <trkpt lat="43.16918" lon="5.71955">
        <ele>68.400001525879</ele>
        <time>2016-05-08T10:09:19.000Z</time>
      </trkpt>
      <trkpt lat="43.16928" lon="5.71954">
        <ele>66</ele>
        <time>2016-05-08T10:09:20.000Z</time>
      </trkpt>
      <trkpt lat="43.16938" lon="5.71952">
        <ele>65.199996948242</ele>
        <time>2016-05-08T10:09:21.000Z</time>
      </trkpt>
      <trkpt lat="43.16958" lon="5.71947">
        <ele>63.400001525879</ele>
        <time>2016-05-08T10:09:23.000Z</time>
      </trkpt>
      <trkpt lat="43.16977" lon="5.71945">
        <ele>62</ele>
        <time>2016-05-08T10:09:25.000Z</time>
      </trkpt>
      <trkpt lat="43.16986" lon="5.71945">
        <ele>61.400001525879</ele>
        <time>2016-05-08T10:09:26.000Z</time>
      </trkpt>
      <trkpt lat="43.16995" lon="5.71947">
        <ele>61.400001525879</ele>
        <time>2016-05-08T10:09:27.000Z</time>
      </trkpt>
      <trkpt lat="43.17016" lon="5.71951">
        <ele>61.200000762939</ele>
        <time>2016-05-08T10:09:30.000Z</time>
      </trkpt>
      <trkpt lat="43.17039" lon="5.71954">
        <ele>61</ele>
        <time>2016-05-08T10:09:34.000Z</time>
      </trkpt>
      <trkpt lat="43.17044" lon="5.71954">
        <ele>60.799999237061</ele>
        <time>2016-05-08T10:09:35.000Z</time>
      </trkpt>
      <trkpt lat="43.17049" lon="5.71955">
        <ele>60.799999237061</ele>
        <time>2016-05-08T10:09:36.000Z</time>
      </trkpt>
      <trkpt lat="43.17067" lon="5.71966">
        <ele>61.200000762939</ele>
        <time>2016-05-08T10:09:40.000Z</time>
      </trkpt>
      <trkpt lat="43.17071" lon="5.7197">
        <ele>61.400001525879</ele>
        <time>2016-05-08T10:09:41.000Z</time>
      </trkpt>
      <trkpt lat="43.17079" lon="5.71979">
        <ele>61.799999237061</ele>
        <time>2016-05-08T10:09:43.000Z</time>
      </trkpt>
      <trkpt lat="43.17085" lon="5.7199">
        <ele>62.200000762939</ele>
        <time>2016-05-08T10:09:45.000Z</time>
      </trkpt>
      <trkpt lat="43.17096" lon="5.72013">
        <ele>63</ele>
        <time>2016-05-08T10:09:49.000Z</time>
      </trkpt>
      <trkpt lat="43.17111" lon="5.72049">
        <ele>63.400001525879</ele>
        <time>2016-05-08T10:09:55.000Z</time>
      </trkpt>
      <trkpt lat="43.17115" lon="5.72055">
        <ele>63.400001525879</ele>
        <time>2016-05-08T10:09:56.000Z</time>
      </trkpt>
      <trkpt lat="43.17131" lon="5.7208">
        <ele>63</ele>
        <time>2016-05-08T10:10:00.000Z</time>
      </trkpt>
      <trkpt lat="43.17155" lon="5.72118">
        <ele>62.599998474121</ele>
        <time>2016-05-08T10:10:06.000Z</time>
      </trkpt>
      <trkpt lat="43.17165" lon="5.72137">
        <ele>63.599998474121</ele>
        <time>2016-05-08T10:10:09.000Z</time>
      </trkpt>
      <trkpt lat="43.17194" lon="5.72204">
        <ele>69.800003051758</ele>
        <time>2016-05-08T10:10:19.000Z</time>
      </trkpt>
      <trkpt lat="43.17209" lon="5.72231">
        <ele>71.199996948242</ele>
        <time>2016-05-08T10:10:23.000Z</time>
      </trkpt>
      <trkpt lat="43.1722" lon="5.72251">
        <ele>71.400001525879</ele>
        <time>2016-05-08T10:10:26.000Z</time>
      </trkpt>
      <trkpt lat="43.17234" lon="5.72274">
        <ele>71.599998474121</ele>
        <time>2016-05-08T10:10:30.000Z</time>
      </trkpt>
      <trkpt lat="43.1724" lon="5.72285">
        <ele>71.800003051758</ele>
        <time>2016-05-08T10:10:32.000Z</time>
      </trkpt>
      <trkpt lat="43.1726" lon="5.72332">
        <ele>72</ele>
        <time>2016-05-08T10:10:39.000Z</time>
      </trkpt>
      <trkpt lat="43.17276" lon="5.72377">
        <ele>70.800003051758</ele>
        <time>2016-05-08T10:10:45.000Z</time>
      </trkpt>
      <trkpt lat="43.17281" lon="5.72394">
        <ele>70.599998474121</ele>
        <time>2016-05-08T10:10:47.000Z</time>
      </trkpt>
      <trkpt lat="43.17287" lon="5.72411">
        <ele>70.199996948242</ele>
        <time>2016-05-08T10:10:49.000Z</time>
      </trkpt>
      <trkpt lat="43.17294" lon="5.72427">
        <ele>68.800003051758</ele>
        <time>2016-05-08T10:10:51.000Z</time>
      </trkpt>
      <trkpt lat="43.17298" lon="5.72433">
        <ele>68</ele>
        <time>2016-05-08T10:10:52.000Z</time>
      </trkpt>
      <trkpt lat="43.17312" lon="5.72449">
        <ele>65.400001525879</ele>
        <time>2016-05-08T10:10:55.000Z</time>
      </trkpt>
      <trkpt lat="43.17317" lon="5.72453">
        <ele>64.599998474121</ele>
        <time>2016-05-08T10:10:56.000Z</time>
      </trkpt>
      <trkpt lat="43.17322" lon="5.72457">
        <ele>63.599998474121</ele>
        <time>2016-05-08T10:10:57.000Z</time>
      </trkpt>
      <trkpt lat="43.1735" lon="5.72482">
        <ele>60.599998474121</ele>
        <time>2016-05-08T10:11:03.000Z</time>
      </trkpt>
      <trkpt lat="43.17368" lon="5.72503">
        <ele>61.200000762939</ele>
        <time>2016-05-08T10:11:07.000Z</time>
      </trkpt>
      <trkpt lat="43.17378" lon="5.72532">
        <ele>63</ele>
        <time>2016-05-08T10:11:11.000Z</time>
      </trkpt>
      <trkpt lat="43.17382" lon="5.72547">
        <ele>64.199996948242</ele>
        <time>2016-05-08T10:11:13.000Z</time>
      </trkpt>
      <trkpt lat="43.17388" lon="5.72586">
        <ele>65.800003051758</ele>
        <time>2016-05-08T10:11:18.000Z</time>
      </trkpt>
      <trkpt lat="43.17386" lon="5.72641">
        <ele>67.599998474121</ele>
        <time>2016-05-08T10:11:25.000Z</time>
      </trkpt>
      <trkpt lat="43.17383" lon="5.72671">
        <ele>68</ele>
        <time>2016-05-08T10:11:29.000Z</time>
      </trkpt>
      <trkpt lat="43.17378" lon="5.72713">
        <ele>68.400001525879</ele>
        <time>2016-05-08T10:11:35.000Z</time>
      </trkpt>
      <trkpt lat="43.17379" lon="5.7272">
        <ele>68.400001525879</ele>
        <time>2016-05-08T10:11:36.000Z</time>
      </trkpt>
      <trkpt lat="43.17386" lon="5.72732">
        <ele>68.599998474121</ele>
        <time>2016-05-08T10:11:38.000Z</time>
      </trkpt>
      <trkpt lat="43.17395" lon="5.72741">
        <ele>68.599998474121</ele>
        <time>2016-05-08T10:11:40.000Z</time>
      </trkpt>
      <trkpt lat="43.17408" lon="5.72755">
        <ele>68.599998474121</ele>
        <time>2016-05-08T10:11:43.000Z</time>
      </trkpt>
      <trkpt lat="43.17413" lon="5.72759">
        <ele>68.599998474121</ele>
        <time>2016-05-08T10:11:44.000Z</time>
      </trkpt>
      <trkpt lat="43.17446" lon="5.72792">
        <ele>68.800003051758</ele>
        <time>2016-05-08T10:11:51.000Z</time>
      </trkpt>
      <trkpt lat="43.17451" lon="5.72796">
        <ele>68.800003051758</ele>
        <time>2016-05-08T10:11:52.000Z</time>
      </trkpt>
      <trkpt lat="43.17485" lon="5.72817">
        <ele>68.800003051758</ele>
        <time>2016-05-08T10:11:58.000Z</time>
      </trkpt>
      <trkpt lat="43.17507" lon="5.72829">
        <ele>69</ele>
        <time>2016-05-08T10:12:02.000Z</time>
      </trkpt>
      <trkpt lat="43.17518" lon="5.72832">
        <ele>69</ele>
        <time>2016-05-08T10:12:04.000Z</time>
      </trkpt>
      <trkpt lat="43.17558" lon="5.72842">
        <ele>69.800003051758</ele>
        <time>2016-05-08T10:12:11.000Z</time>
      </trkpt>
      <trkpt lat="43.17587" lon="5.72861">
        <ele>71.400001525879</ele>
        <time>2016-05-08T10:12:17.000Z</time>
      </trkpt>
      <trkpt lat="43.17592" lon="5.72864">
        <ele>71.599998474121</ele>
        <time>2016-05-08T10:12:18.000Z</time>
      </trkpt>
      <trkpt lat="43.17597" lon="5.72867">
        <ele>71.800003051758</ele>
        <time>2016-05-08T10:12:19.000Z</time>
      </trkpt>
      <trkpt lat="43.17606" lon="5.72874">
        <ele>72.199996948242</ele>
        <time>2016-05-08T10:12:21.000Z</time>
      </trkpt>
      <trkpt lat="43.17618" lon="5.72887">
        <ele>73</ele>
        <time>2016-05-08T10:12:24.000Z</time>
      </trkpt>
      <trkpt lat="43.17625" lon="5.72896">
        <ele>73.599998474121</ele>
        <time>2016-05-08T10:12:26.000Z</time>
      </trkpt>
      <trkpt lat="43.17632" lon="5.72907">
        <ele>74.199996948242</ele>
        <time>2016-05-08T10:12:28.000Z</time>
      </trkpt>
      <trkpt lat="43.17638" lon="5.7292">
        <ele>75</ele>
        <time>2016-05-08T10:12:30.000Z</time>
      </trkpt>
      <trkpt lat="43.1764" lon="5.72927">
        <ele>75.400001525879</ele>
        <time>2016-05-08T10:12:31.000Z</time>
      </trkpt>
      <trkpt lat="43.17647" lon="5.72946">
        <ele>77</ele>
        <time>2016-05-08T10:12:34.000Z</time>
      </trkpt>
      <trkpt lat="43.17652" lon="5.72958">
        <ele>78.199996948242</ele>
        <time>2016-05-08T10:12:36.000Z</time>
      </trkpt>
      <trkpt lat="43.17656" lon="5.72964">
        <ele>78.800003051758</ele>
        <time>2016-05-08T10:12:37.000Z</time>
      </trkpt>
      <trkpt lat="43.1767" lon="5.72974">
        <ele>78.800003051758</ele>
        <time>2016-05-08T10:12:40.000Z</time>
      </trkpt>
      <trkpt lat="43.17682" lon="5.72976">
        <ele>78.400001525879</ele>
        <time>2016-05-08T10:12:42.000Z</time>
      </trkpt>
      <trkpt lat="43.17704" lon="5.7298">
        <ele>79</ele>
        <time>2016-05-08T10:12:46.000Z</time>
      </trkpt>
      <trkpt lat="43.17725" lon="5.72984">
        <ele>79.800003051758</ele>
        <time>2016-05-08T10:12:50.000Z</time>
      </trkpt>
      <trkpt lat="43.17746" lon="5.72989">
        <ele>80.599998474121</ele>
        <time>2016-05-08T10:12:54.000Z</time>
      </trkpt>
      <trkpt lat="43.17757" lon="5.72993">
        <ele>81</ele>
        <time>2016-05-08T10:12:56.000Z</time>
      </trkpt>
      <trkpt lat="43.17762" lon="5.72995">
        <ele>81.199996948242</ele>
        <time>2016-05-08T10:12:57.000Z</time>
      </trkpt>
      <trkpt lat="43.17772" lon="5.73001">
        <ele>81.599998474121</ele>
        <time>2016-05-08T10:12:59.000Z</time>
      </trkpt>
      <trkpt lat="43.17786" lon="5.73011">
        <ele>82.199996948242</ele>
        <time>2016-05-08T10:13:02.000Z</time>
      </trkpt>
      <trkpt lat="43.17791" lon="5.73014">
        <ele>82.400001525879</ele>
        <time>2016-05-08T10:13:03.000Z</time>
      </trkpt>
      <trkpt lat="43.17813" lon="5.73031">
        <ele>83.599998474121</ele>
        <time>2016-05-08T10:13:08.000Z</time>
      </trkpt>
      <trkpt lat="43.17817" lon="5.73036">
        <ele>83.800003051758</ele>
        <time>2016-05-08T10:13:09.000Z</time>
      </trkpt>
      <trkpt lat="43.17821" lon="5.73041">
        <ele>84</ele>
        <time>2016-05-08T10:13:10.000Z</time>
      </trkpt>
      <trkpt lat="43.1783" lon="5.73052">
        <ele>84.800003051758</ele>
        <time>2016-05-08T10:13:12.000Z</time>
      </trkpt>
      <trkpt lat="43.17859" lon="5.73089">
        <ele>86</ele>
        <time>2016-05-08T10:13:19.000Z</time>
      </trkpt>
      <trkpt lat="43.17863" lon="5.73093">
        <ele>86.199996948242</ele>
        <time>2016-05-08T10:13:20.000Z</time>
      </trkpt>
      <trkpt lat="43.17888" lon="5.73115">
        <ele>86.599998474121</ele>
        <time>2016-05-08T10:13:25.000Z</time>
      </trkpt>
      <trkpt lat="43.17917" lon="5.73139">
        <ele>87.199996948242</ele>
        <time>2016-05-08T10:13:31.000Z</time>
      </trkpt>
      <trkpt lat="43.17931" lon="5.73152">
        <ele>87.800003051758</ele>
        <time>2016-05-08T10:13:34.000Z</time>
      </trkpt>
      <trkpt lat="43.17974" lon="5.73195">
        <ele>88.800003051758</ele>
        <time>2016-05-08T10:13:43.000Z</time>
      </trkpt>
      <trkpt lat="43.17991" lon="5.73215">
        <ele>89.400001525879</ele>
        <time>2016-05-08T10:13:47.000Z</time>
      </trkpt>
      <trkpt lat="43.18004" lon="5.73231">
        <ele>89.800003051758</ele>
        <time>2016-05-08T10:13:50.000Z</time>
      </trkpt>
      <trkpt lat="43.18008" lon="5.73235">
        <ele>90</ele>
        <time>2016-05-08T10:13:51.000Z</time>
      </trkpt>
      <trkpt lat="43.18043" lon="5.73259">
        <ele>91</ele>
        <time>2016-05-08T10:13:58.000Z</time>
      </trkpt>
      <trkpt lat="43.18048" lon="5.73263">
        <ele>91</ele>
        <time>2016-05-08T10:13:59.000Z</time>
      </trkpt>
      <trkpt lat="43.18081" lon="5.73293">
        <ele>92.599998474121</ele>
        <time>2016-05-08T10:14:06.000Z</time>
      </trkpt>
      <trkpt lat="43.18086" lon="5.73298">
        <ele>92.800003051758</ele>
        <time>2016-05-08T10:14:07.000Z</time>
      </trkpt>
      <trkpt lat="43.18099" lon="5.73313">
        <ele>93.400001525879</ele>
        <time>2016-05-08T10:14:10.000Z</time>
      </trkpt>
      <trkpt lat="43.18118" lon="5.7334">
        <ele>94.400001525879</ele>
        <time>2016-05-08T10:14:15.000Z</time>
      </trkpt>
      <trkpt lat="43.18128" lon="5.73358">
        <ele>95.199996948242</ele>
        <time>2016-05-08T10:14:18.000Z</time>
      </trkpt>
      <trkpt lat="43.18144" lon="5.73389">
        <ele>96.400001525879</ele>
        <time>2016-05-08T10:14:23.000Z</time>
      </trkpt>
      <trkpt lat="43.18147" lon="5.73395">
        <ele>96.400001525879</ele>
        <time>2016-05-08T10:14:24.000Z</time>
      </trkpt>
      <trkpt lat="43.1816" lon="5.7342">
        <ele>96.599998474121</ele>
        <time>2016-05-08T10:14:28.000Z</time>
      </trkpt>
      <trkpt lat="43.18167" lon="5.7344">
        <ele>96.800003051758</ele>
        <time>2016-05-08T10:14:31.000Z</time>
      </trkpt>
      <trkpt lat="43.1817" lon="5.73447">
        <ele>96.800003051758</ele>
        <time>2016-05-08T10:14:32.000Z</time>
      </trkpt>
      <trkpt lat="43.18193" lon="5.73491">
        <ele>97.599998474121</ele>
        <time>2016-05-08T10:14:39.000Z</time>
      </trkpt>
      <trkpt lat="43.18214" lon="5.73527">
        <ele>98.800003051758</ele>
        <time>2016-05-08T10:14:45.000Z</time>
      </trkpt>
      <trkpt lat="43.18228" lon="5.73551">
        <ele>99.599998474121</ele>
        <time>2016-05-08T10:14:49.000Z</time>
      </trkpt>
      <trkpt lat="43.18244" lon="5.73582">
        <ele>100.80000305176</ele>
        <time>2016-05-08T10:14:54.000Z</time>
      </trkpt>
      <trkpt lat="43.18259" lon="5.73606">
        <ele>101.59999847412</ele>
        <time>2016-05-08T10:14:58.000Z</time>
      </trkpt>
      <trkpt lat="43.18263" lon="5.73611">
        <ele>101.80000305176</ele>
        <time>2016-05-08T10:14:59.000Z</time>
      </trkpt>
      <trkpt lat="43.18289" lon="5.73641">
        <ele>102.80000305176</ele>
        <time>2016-05-08T10:15:05.000Z</time>
      </trkpt>
      <trkpt lat="43.18298" lon="5.73651">
        <ele>103.19999694824</ele>
        <time>2016-05-08T10:15:07.000Z</time>
      </trkpt>
      <trkpt lat="43.18333" lon="5.73689">
        <ele>104.59999847412</ele>
        <time>2016-05-08T10:15:15.000Z</time>
      </trkpt>
      <trkpt lat="43.18348" lon="5.73712">
        <ele>105.59999847412</ele>
        <time>2016-05-08T10:15:19.000Z</time>
      </trkpt>
      <trkpt lat="43.18359" lon="5.7373">
        <ele>106</ele>
        <time>2016-05-08T10:15:22.000Z</time>
      </trkpt>
      <trkpt lat="43.18373" lon="5.73754">
        <ele>106.59999847412</ele>
        <time>2016-05-08T10:15:26.000Z</time>
      </trkpt>
      <trkpt lat="43.18389" lon="5.73786">
        <ele>107.19999694824</ele>
        <time>2016-05-08T10:15:31.000Z</time>
      </trkpt>
      <trkpt lat="43.18395" lon="5.73799">
        <ele>107.59999847412</ele>
        <time>2016-05-08T10:15:33.000Z</time>
      </trkpt>
      <trkpt lat="43.18401" lon="5.73812">
        <ele>107.80000305176</ele>
        <time>2016-05-08T10:15:35.000Z</time>
      </trkpt>
      <trkpt lat="43.18415" lon="5.73836">
        <ele>107.59999847412</ele>
        <time>2016-05-08T10:15:39.000Z</time>
      </trkpt>
      <trkpt lat="43.18423" lon="5.73847">
        <ele>107.59999847412</ele>
        <time>2016-05-08T10:15:41.000Z</time>
      </trkpt>
      <trkpt lat="43.18454" lon="5.73892">
        <ele>107.19999694824</ele>
        <time>2016-05-08T10:15:49.000Z</time>
      </trkpt>
      <trkpt lat="43.18487" lon="5.73936">
        <ele>107</ele>
        <time>2016-05-08T10:15:57.000Z</time>
      </trkpt>
      <trkpt lat="43.18528" lon="5.73987">
        <ele>107</ele>
        <time>2016-05-08T10:16:06.000Z</time>
      </trkpt>
      <trkpt lat="43.18558" lon="5.74021">
        <ele>107.19999694824</ele>
        <time>2016-05-08T10:16:12.000Z</time>
      </trkpt>
      <trkpt lat="43.18579" lon="5.74043">
        <ele>107.19999694824</ele>
        <time>2016-05-08T10:16:16.000Z</time>
      </trkpt>
      <trkpt lat="43.18609" lon="5.74079">
        <ele>107.19999694824</ele>
        <time>2016-05-08T10:16:22.000Z</time>
      </trkpt>
      <trkpt lat="43.18627" lon="5.74113">
        <ele>107.59999847412</ele>
        <time>2016-05-08T10:16:27.000Z</time>
      </trkpt>
      <trkpt lat="43.1863" lon="5.74121">
        <ele>107.59999847412</ele>
        <time>2016-05-08T10:16:28.000Z</time>
      </trkpt>
      <trkpt lat="43.18647" lon="5.7417">
        <ele>108.19999694824</ele>
        <time>2016-05-08T10:16:34.000Z</time>
      </trkpt>
      <trkpt lat="43.18658" lon="5.74222">
        <ele>109.40000152588</ele>
        <time>2016-05-08T10:16:40.000Z</time>
      </trkpt>
      <trkpt lat="43.18662" lon="5.74257">
        <ele>109.59999847412</ele>
        <time>2016-05-08T10:16:44.000Z</time>
      </trkpt>
      <trkpt lat="43.18665" lon="5.74265">
        <ele>109.40000152588</ele>
        <time>2016-05-08T10:16:45.000Z</time>
      </trkpt>
      <trkpt lat="43.18679" lon="5.74285">
        <ele>108.80000305176</ele>
        <time>2016-05-08T10:16:48.000Z</time>
      </trkpt>
      <trkpt lat="43.18684" lon="5.74291">
        <ele>108.80000305176</ele>
        <time>2016-05-08T10:16:49.000Z</time>
      </trkpt>
      <trkpt lat="43.18716" lon="5.7432">
        <ele>109.80000305176</ele>
        <time>2016-05-08T10:16:55.000Z</time>
      </trkpt>
      <trkpt lat="43.18721" lon="5.74325">
        <ele>110</ele>
        <time>2016-05-08T10:16:56.000Z</time>
      </trkpt>
      <trkpt lat="43.18732" lon="5.74335">
        <ele>110.40000152588</ele>
        <time>2016-05-08T10:16:58.000Z</time>
      </trkpt>
      <trkpt lat="43.18747" lon="5.74352">
        <ele>111.40000152588</ele>
        <time>2016-05-08T10:17:01.000Z</time>
      </trkpt>
      <trkpt lat="43.18752" lon="5.74358">
        <ele>111.59999847412</ele>
        <time>2016-05-08T10:17:02.000Z</time>
      </trkpt>
      <trkpt lat="43.18762" lon="5.7437">
        <ele>112.19999694824</ele>
        <time>2016-05-08T10:17:04.000Z</time>
      </trkpt>
      <trkpt lat="43.18776" lon="5.74388">
        <ele>113</ele>
        <time>2016-05-08T10:17:07.000Z</time>
      </trkpt>
      <trkpt lat="43.18785" lon="5.74401">
        <ele>113.40000152588</ele>
        <time>2016-05-08T10:17:09.000Z</time>
      </trkpt>
      <trkpt lat="43.18794" lon="5.74414">
        <ele>114</ele>
        <time>2016-05-08T10:17:11.000Z</time>
      </trkpt>
      <trkpt lat="43.18799" lon="5.74421">
        <ele>114.19999694824</ele>
        <time>2016-05-08T10:17:12.000Z</time>
      </trkpt>
      <trkpt lat="43.18803" lon="5.74427">
        <ele>114.40000152588</ele>
        <time>2016-05-08T10:17:13.000Z</time>
      </trkpt>
      <trkpt lat="43.18815" lon="5.74449">
        <ele>115.19999694824</ele>
        <time>2016-05-08T10:17:16.000Z</time>
      </trkpt>
      <trkpt lat="43.18821" lon="5.74465">
        <ele>115.80000305176</ele>
        <time>2016-05-08T10:17:18.000Z</time>
      </trkpt>
      <trkpt lat="43.18826" lon="5.74483">
        <ele>116.40000152588</ele>
        <time>2016-05-08T10:17:20.000Z</time>
      </trkpt>
      <trkpt lat="43.18833" lon="5.74517">
        <ele>117.59999847412</ele>
        <time>2016-05-08T10:17:24.000Z</time>
      </trkpt>
      <trkpt lat="43.18848" lon="5.74556">
        <ele>119</ele>
        <time>2016-05-08T10:17:29.000Z</time>
      </trkpt>
      <trkpt lat="43.1886" lon="5.74578">
        <ele>118.19999694824</ele>
        <time>2016-05-08T10:17:32.000Z</time>
      </trkpt>
      <trkpt lat="43.18875" lon="5.74603">
        <ele>117.19999694824</ele>
        <time>2016-05-08T10:17:35.000Z</time>
      </trkpt>
      <trkpt lat="43.1888" lon="5.7461">
        <ele>117</ele>
        <time>2016-05-08T10:17:36.000Z</time>
      </trkpt>
      <trkpt lat="43.18894" lon="5.7462">
        <ele>116.59999847412</ele>
        <time>2016-05-08T10:17:38.000Z</time>
      </trkpt>
      <trkpt lat="43.18916" lon="5.74636">
        <ele>116</ele>
        <time>2016-05-08T10:17:41.000Z</time>
      </trkpt>
      <trkpt lat="43.18934" lon="5.74653">
        <ele>115.40000152588</ele>
        <time>2016-05-08T10:17:44.000Z</time>
      </trkpt>
      <trkpt lat="43.18955" lon="5.74674">
        <ele>114.80000305176</ele>
        <time>2016-05-08T10:17:48.000Z</time>
      </trkpt>
      <trkpt lat="43.18964" lon="5.74686">
        <ele>114.40000152588</ele>
        <time>2016-05-08T10:17:50.000Z</time>
      </trkpt>
      <trkpt lat="43.18967" lon="5.74693">
        <ele>114</ele>
        <time>2016-05-08T10:17:51.000Z</time>
      </trkpt>
      <trkpt lat="43.18979" lon="5.74725">
        <ele>112.80000305176</ele>
        <time>2016-05-08T10:17:55.000Z</time>
      </trkpt>
      <trkpt lat="43.19" lon="5.74786">
        <ele>113.59999847412</ele>
        <time>2016-05-08T10:18:02.000Z</time>
      </trkpt>
      <trkpt lat="43.19009" lon="5.74803">
        <ele>113.80000305176</ele>
        <time>2016-05-08T10:18:04.000Z</time>
      </trkpt>
      <trkpt lat="43.19021" lon="5.7482">
        <ele>113.40000152588</ele>
        <time>2016-05-08T10:18:06.000Z</time>
      </trkpt>
      <trkpt lat="43.19035" lon="5.74834">
        <ele>112.59999847412</ele>
        <time>2016-05-08T10:18:08.000Z</time>
      </trkpt>
      <trkpt lat="43.19053" lon="5.74847">
        <ele>111.59999847412</ele>
        <time>2016-05-08T10:18:10.000Z</time>
      </trkpt>
      <trkpt lat="43.19062" lon="5.74852">
        <ele>111</ele>
        <time>2016-05-08T10:18:11.000Z</time>
      </trkpt>
      <trkpt lat="43.19071" lon="5.74855">
        <ele>110.59999847412</ele>
        <time>2016-05-08T10:18:12.000Z</time>
      </trkpt>
      <trkpt lat="43.1909" lon="5.74861">
        <ele>109.59999847412</ele>
        <time>2016-05-08T10:18:14.000Z</time>
      </trkpt>
      <trkpt lat="43.19109" lon="5.74865">
        <ele>109.19999694824</ele>
        <time>2016-05-08T10:18:16.000Z</time>
      </trkpt>
      <trkpt lat="43.19127" lon="5.7487">
        <ele>108.80000305176</ele>
        <time>2016-05-08T10:18:18.000Z</time>
      </trkpt>
      <trkpt lat="43.19135" lon="5.74875">
        <ele>108.59999847412</ele>
        <time>2016-05-08T10:18:19.000Z</time>
      </trkpt>
      <trkpt lat="43.19143" lon="5.74881">
        <ele>108.40000152588</ele>
        <time>2016-05-08T10:18:20.000Z</time>
      </trkpt>
      <trkpt lat="43.19166" lon="5.74916">
        <ele>106.80000305176</ele>
        <time>2016-05-08T10:18:24.000Z</time>
      </trkpt>
      <trkpt lat="43.19175" lon="5.74958">
        <ele>104.59999847412</ele>
        <time>2016-05-08T10:18:28.000Z</time>
      </trkpt>
      <trkpt lat="43.19178" lon="5.74989">
        <ele>103.19999694824</ele>
        <time>2016-05-08T10:18:31.000Z</time>
      </trkpt>
      <trkpt lat="43.19183" lon="5.75005">
        <ele>103</ele>
        <time>2016-05-08T10:18:33.000Z</time>
      </trkpt>
      <trkpt lat="43.19195" lon="5.75027">
        <ele>103.40000152588</ele>
        <time>2016-05-08T10:18:36.000Z</time>
      </trkpt>
      <trkpt lat="43.19199" lon="5.75033">
        <ele>103.59999847412</ele>
        <time>2016-05-08T10:18:37.000Z</time>
      </trkpt>
      <trkpt lat="43.19204" lon="5.7504">
        <ele>103.80000305176</ele>
        <time>2016-05-08T10:18:38.000Z</time>
      </trkpt>
      <trkpt lat="43.19233" lon="5.75089">
        <ele>105.80000305176</ele>
        <time>2016-05-08T10:18:45.000Z</time>
      </trkpt>
      <trkpt lat="43.19266" lon="5.75145">
        <ele>108</ele>
        <time>2016-05-08T10:18:53.000Z</time>
      </trkpt>
      <trkpt lat="43.19273" lon="5.7516">
        <ele>107.59999847412</ele>
        <time>2016-05-08T10:18:55.000Z</time>
      </trkpt>
      <trkpt lat="43.19281" lon="5.75174">
        <ele>107.40000152588</ele>
        <time>2016-05-08T10:18:57.000Z</time>
      </trkpt>
      <trkpt lat="43.1929" lon="5.75187">
        <ele>107.40000152588</ele>
        <time>2016-05-08T10:18:59.000Z</time>
      </trkpt>
      <trkpt lat="43.19295" lon="5.75193">
        <ele>107.40000152588</ele>
        <time>2016-05-08T10:19:00.000Z</time>
      </trkpt>
      <trkpt lat="43.19305" lon="5.75201">
        <ele>107.80000305176</ele>
        <time>2016-05-08T10:19:02.000Z</time>
      </trkpt>
      <trkpt lat="43.19317" lon="5.75207">
        <ele>108.40000152588</ele>
        <time>2016-05-08T10:19:04.000Z</time>
      </trkpt>
      <trkpt lat="43.19324" lon="5.7521">
        <ele>108.80000305176</ele>
        <time>2016-05-08T10:19:05.000Z</time>
      </trkpt>
      <trkpt lat="43.1933" lon="5.75212">
        <ele>109.19999694824</ele>
        <time>2016-05-08T10:19:06.000Z</time>
      </trkpt>
      <trkpt lat="43.19343" lon="5.75218">
        <ele>110</ele>
        <time>2016-05-08T10:19:08.000Z</time>
      </trkpt>
      <trkpt lat="43.19354" lon="5.75226">
        <ele>111.19999694824</ele>
        <time>2016-05-08T10:19:10.000Z</time>
      </trkpt>
      <trkpt lat="43.19374" lon="5.75248">
        <ele>114.19999694824</ele>
        <time>2016-05-08T10:19:14.000Z</time>
      </trkpt>
      <trkpt lat="43.19383" lon="5.75258">
        <ele>115.59999847412</ele>
        <time>2016-05-08T10:19:16.000Z</time>
      </trkpt>
      <trkpt lat="43.19388" lon="5.75264">
        <ele>116.19999694824</ele>
        <time>2016-05-08T10:19:17.000Z</time>
      </trkpt>
      <trkpt lat="43.19393" lon="5.75269">
        <ele>116.80000305176</ele>
        <time>2016-05-08T10:19:18.000Z</time>
      </trkpt>
      <trkpt lat="43.19402" lon="5.7528">
        <ele>118.19999694824</ele>
        <time>2016-05-08T10:19:20.000Z</time>
      </trkpt>
      <trkpt lat="43.19406" lon="5.75286">
        <ele>118.80000305176</ele>
        <time>2016-05-08T10:19:21.000Z</time>
      </trkpt>
      <trkpt lat="43.19418" lon="5.75305">
        <ele>120.40000152588</ele>
        <time>2016-05-08T10:19:24.000Z</time>
      </trkpt>
      <trkpt lat="43.19422" lon="5.75311">
        <ele>121</ele>
        <time>2016-05-08T10:19:25.000Z</time>
      </trkpt>
      <trkpt lat="43.19428" lon="5.75325">
        <ele>122</ele>
        <time>2016-05-08T10:19:27.000Z</time>
      </trkpt>
      <trkpt lat="43.19436" lon="5.75337">
        <ele>123</ele>
        <time>2016-05-08T10:19:29.000Z</time>
      </trkpt>
      <trkpt lat="43.19442" lon="5.7535">
        <ele>124</ele>
        <time>2016-05-08T10:19:31.000Z</time>
      </trkpt>
      <trkpt lat="43.19449" lon="5.75361">
        <ele>125</ele>
        <time>2016-05-08T10:19:33.000Z</time>
      </trkpt>
      <trkpt lat="43.19453" lon="5.75365">
        <ele>125.59999847412</ele>
        <time>2016-05-08T10:19:34.000Z</time>
      </trkpt>
      <trkpt lat="43.19463" lon="5.75367">
        <ele>127</ele>
        <time>2016-05-08T10:19:36.000Z</time>
      </trkpt>
      <trkpt lat="43.19468" lon="5.75367">
        <ele>127.80000305176</ele>
        <time>2016-05-08T10:19:37.000Z</time>
      </trkpt>
      <trkpt lat="43.19478" lon="5.75368">
        <ele>129.19999694824</ele>
        <time>2016-05-08T10:19:39.000Z</time>
      </trkpt>
      <trkpt lat="43.19486" lon="5.75369">
        <ele>130.39999389648</ele>
        <time>2016-05-08T10:19:41.000Z</time>
      </trkpt>
      <trkpt lat="43.1949" lon="5.75369">
        <ele>131</ele>
        <time>2016-05-08T10:19:42.000Z</time>
      </trkpt>
      <trkpt lat="43.19499" lon="5.75369">
        <ele>132.19999694824</ele>
        <time>2016-05-08T10:19:44.000Z</time>
      </trkpt>
      <trkpt lat="43.19503" lon="5.75369">
        <ele>132.80000305176</ele>
        <time>2016-05-08T10:19:45.000Z</time>
      </trkpt>
      <trkpt lat="43.19512" lon="5.75369">
        <ele>133.80000305176</ele>
        <time>2016-05-08T10:19:47.000Z</time>
      </trkpt>
      <trkpt lat="43.19519" lon="5.7537">
        <ele>135.19999694824</ele>
        <time>2016-05-08T10:19:49.000Z</time>
      </trkpt>
      <trkpt lat="43.19521" lon="5.75371">
        <ele>135.60000610352</ele>
        <time>2016-05-08T10:19:50.000Z</time>
      </trkpt>
      <trkpt lat="43.19523" lon="5.75377">
        <ele>136.19999694824</ele>
        <time>2016-05-08T10:19:52.000Z</time>
      </trkpt>
      <trkpt lat="43.19523" lon="5.75382">
        <ele>136.19999694824</ele>
        <time>2016-05-08T10:19:53.000Z</time>
      </trkpt>
      <trkpt lat="43.19522" lon="5.75388">
        <ele>136</ele>
        <time>2016-05-08T10:19:54.000Z</time>
      </trkpt>
      <trkpt lat="43.19519" lon="5.75408">
        <ele>134.39999389648</ele>
        <time>2016-05-08T10:19:58.000Z</time>
      </trkpt>
      <trkpt lat="43.19516" lon="5.75418">
        <ele>133.39999389648</ele>
        <time>2016-05-08T10:20:03.000Z</time>
      </trkpt>
      <trkpt lat="43.19516" lon="5.7542">
        <ele>133.19999694824</ele>
        <time>2016-05-08T10:20:05.000Z</time>
      </trkpt>
      <trkpt lat="43.19517" lon="5.75423">
        <ele>133.39999389648</ele>
        <time>2016-05-08T10:20:42.000Z</time>
      </trkpt>
      <trkpt lat="43.19518" lon="5.75425">
        <ele>133.39999389648</ele>
        <time>2016-05-08T10:20:43.000Z</time>
      </trkpt>
      <trkpt lat="43.19517" lon="5.75438">
        <ele>132.80000305176</ele>
        <time>2016-05-08T10:20:48.000Z</time>
      </trkpt>
      <trkpt lat="43.19513" lon="5.75464">
        <ele>130.60000610352</ele>
        <time>2016-05-08T10:20:54.000Z</time>
      </trkpt>
      <trkpt lat="43.19511" lon="5.75485">
        <ele>129.80000305176</ele>
        <time>2016-05-08T10:21:00.000Z</time>
      </trkpt>
      <trkpt lat="43.19512" lon="5.7549">
        <ele>129.80000305176</ele>
        <time>2016-05-08T10:21:01.000Z</time>
      </trkpt>
      <trkpt lat="43.19518" lon="5.75494">
        <ele>131</ele>
        <time>2016-05-08T10:21:03.000Z</time>
      </trkpt>
      <trkpt lat="43.1953" lon="5.75486">
        <ele>133.80000305176</ele>
        <time>2016-05-08T10:21:06.000Z</time>
      </trkpt>
      <trkpt lat="43.19534" lon="5.75485">
        <ele>134.39999389648</ele>
        <time>2016-05-08T10:21:07.000Z</time>
      </trkpt>
      <trkpt lat="43.19541" lon="5.75487">
        <ele>135.80000305176</ele>
        <time>2016-05-08T10:21:09.000Z</time>
      </trkpt>
      <trkpt lat="43.19545" lon="5.75497">
        <ele>136.80000305176</ele>
        <time>2016-05-08T10:21:11.000Z</time>
      </trkpt>
      <trkpt lat="43.19546" lon="5.75502">
        <ele>137</ele>
        <time>2016-05-08T10:21:12.000Z</time>
      </trkpt>
      <trkpt lat="43.19546" lon="5.75517">
        <ele>136.80000305176</ele>
        <time>2016-05-08T10:21:14.000Z</time>
      </trkpt>
      <trkpt lat="43.19547" lon="5.75538">
        <ele>136.80000305176</ele>
        <time>2016-05-08T10:21:17.000Z</time>
      </trkpt>
      <trkpt lat="43.19553" lon="5.75571">
        <ele>137.60000610352</ele>
        <time>2016-05-08T10:21:23.000Z</time>
      </trkpt>
      <trkpt lat="43.19559" lon="5.75595">
        <ele>138.80000305176</ele>
        <time>2016-05-08T10:21:28.000Z</time>
      </trkpt>
      <trkpt lat="43.19562" lon="5.75603">
        <ele>139.39999389648</ele>
        <time>2016-05-08T10:21:30.000Z</time>
      </trkpt>
      <trkpt lat="43.19563" lon="5.75606">
        <ele>139.60000610352</ele>
        <time>2016-05-08T10:21:31.000Z</time>
      </trkpt>
      <trkpt lat="43.19563" lon="5.75611">
        <ele>139.39999389648</ele>
        <time>2016-05-08T10:21:33.000Z</time>
      </trkpt>
      <trkpt lat="43.19563" lon="5.75613">
        <ele>139.19999694824</ele>
        <time>2016-05-08T10:21:34.000Z</time>
      </trkpt>
      <trkpt lat="43.19553" lon="5.75619">
        <ele>137</ele>
        <time>2016-05-08T10:21:38.000Z</time>
      </trkpt>
      <trkpt lat="43.19554" lon="5.75628">
        <ele>137</ele>
        <time>2016-05-08T10:21:40.000Z</time>
      </trkpt>
      <trkpt lat="43.19555" lon="5.75636">
        <ele>136.80000305176</ele>
        <time>2016-05-08T10:21:42.000Z</time>
      </trkpt>
      <trkpt lat="43.19561" lon="5.75655">
        <ele>137.39999389648</ele>
        <time>2016-05-08T10:21:47.000Z</time>
      </trkpt>
      <trkpt lat="43.1957" lon="5.75695">
        <ele>136.80000305176</ele>
        <time>2016-05-08T10:21:56.000Z</time>
      </trkpt>
      <trkpt lat="43.19578" lon="5.75731">
        <ele>136.80000305176</ele>
        <time>2016-05-08T10:22:05.000Z</time>
      </trkpt>
    </trkseg>
  </trk>
</gpx>